# Wetter Temperatur Luftdruck Luftfeuchtigkeit Sichtweite Windgeschwindigkeit Windrichtung Zeit
1 Clouds 32 1013 66 10000 3.1 300 09:56 08.04.2020
2 Clouds 32 1013 66 10000 2.6 280 09:38 08.04.2020
3 Clouds 32 1013 66 10000 2.6 280 09:18 08.04.2020
4 Clouds 29 1013 61 0 0.79 294 08:42 08.04.2020
5 Clouds 32 1014 66 10000 2.6 290 08:23 08.04.2020
6 Clouds 32 1014 66 10000 2.6 290 07:57 08.04.2020
7 Clouds 31 1013 70 10000 2.1 290 07:39 08.04.2020
8 Clouds 31 1013 70 10000 2.1 290 07:19 08.04.2020
9 Clouds 31 1012 70 10000 2.1 290 06:22 08.04.2020
10 Clouds 29 1013 62 0 1.1 274 04:44 08.04.2020
11 Clouds 29 1011 79 10000 2.6 270 02:49 08.04.2020
12 Clouds 29 1010 79 10000 2.1 290 02:21 08.04.2020
13 Clouds 29 1010 79 10000 2.1 290 01:51 08.04.2020
14 Clouds 29 1010 79 10000 2.1 290 01:27 08.04.2020
15 Clouds 29 1010 79 10000 2.1 290 00:41 08.04.2020
16 Clouds 29 1010 79 10000 2.1 290 00:22 08.04.2020
17 Clouds 29 1012 74 10000 3.1 240 23:40 07.04.2020
18 Clouds 29 1012 74 10000 3.1 240 23:22 07.04.2020
19 Clouds 29 1012 74 10000 3.1 240 22:58 07.04.2020
20 Clouds 29 1011 61 0 1.35 272 22:40 07.04.2020
21 Clouds 30 1012 74 10000 3.1 270 22:20 07.04.2020
22 Clouds 30 1012 74 10000 3.1 270 21:58 07.04.2020
23 Clouds 30 1012 74 10000 3.1 270 21:40 07.04.2020
24 Clouds 30 1012 74 10000 3.1 270 21:20 07.04.2020
25 Clouds 30 1012 74 10000 3.1 270 20:57 07.04.2020
26 Clouds 30 1012 74 10000 3.1 270 20:39 07.04.2020
27 Clouds 30 1013 74 10000 3.1 270 20:20 07.04.2020
28 Clouds 30 1013 74 10000 3.1 270 19:57 07.04.2020
29 Clouds 30 1012 74 10000 3.6 270 19:37 07.04.2020
30 Clouds 30 1012 74 10000 3.6 270 19:18 07.04.2020
31 Clouds 30 1012 74 10000 3.6 270 19:18 07.04.2020
32 Clouds 30 1012 74 10000 3.6 270 18:57 07.04.2020
33 Clouds 30 1011 74 10000 2.1 260 18:38 07.04.2020
34 Clouds 30 1011 74 10000 2.1 260 18:19 07.04.2020
35 Clouds 30 1011 74 10000 2.1 260 17:44 07.04.2020
36 Clouds 30 1011 74 10000 2.6 240 17:21 07.04.2020
37 Clouds 30 1011 74 10000 2.6 240 16:47 07.04.2020
38 Clouds 30 1011 74 10000 2.6 240 16:29 07.04.2020
39 Clouds 31 1010 70 10000 2.6 280 15:58 07.04.2020
40 Clouds 31 1010 70 10000 2.6 280 15:40 07.04.2020
41 Clouds 32 1010 66 10000 2.6 280 15:22 07.04.2020
42 Clouds 30 1010 59 0 1.81 307 14:41 07.04.2020
43 Clouds 32 1009 62 10000 2.1 290 14:22 07.04.2020
44 Clouds 32 1009 62 10000 2.1 290 13:57 07.04.2020
45 Clouds 33 1010 63 10000 2.6 280 13:38 07.04.2020
46 Clouds 33 1010 63 10000 2.6 280 13:18 07.04.2020
47 Clouds 33 1010 63 10000 2.6 280 13:18 07.04.2020
48 Clouds 33 1010 63 10000 2.6 280 12:55 07.04.2020
49 Clouds 33 1010 63 10000 2.6 280 12:36 07.04.2020
50 Clouds 32 1010 66 10000 2.1 290 12:18 07.04.2020
51 Clouds 30 1010 58 0 1.57 320 11:44 07.04.2020
52 Clouds 32 1011 66 10000 1.5 300 11:25 07.04.2020
53 Clouds 32 1011 66 10000 1.5 300 10:58 07.04.2020
54 Clouds 31 1012 70 10000 1.5 300 10:38 07.04.2020
55 Clouds 31 1012 70 10000 1.5 300 10:19 07.04.2020
56 Clouds 30 1010 58 0 1.57 320 09:45 07.04.2020
57 Clouds 32 1012 66 10000 2.1 300 09:19 07.04.2020
58 Clouds 32 1012 66 10000 2.1 300 08:55 07.04.2020
59 Clouds 31 1013 70 10000 2.1 270 08:36 07.04.2020
60 Clouds 31 1013 70 10000 2.1 270 08:18 07.04.2020
61 Clouds 31 1013 70 10000 2.1 270 07:40 07.04.2020
62 Clouds 31 1013 70 10000 1 0 07:21 07.04.2020
63 Clouds 31 1013 70 10000 1 0 06:51 07.04.2020
64 Clouds 31 1013 70 10000 1 0 06:23 07.04.2020
65 Clouds 29 1012 61 0 0.99 117 05:43 07.04.2020
66 Clouds 29 1011 79 10000 0.5 0 05:22 07.04.2020
67 Clouds 28 1010 83 10000 0.99 117 03:32 07.04.2020
68 Clouds 28 1010 83 10000 0.52 117 02:59 07.04.2020
69 Clouds 28 1010 83 10000 1 0 01:57 07.04.2020
70 Clouds 28 1010 83 10000 1 0 01:29 07.04.2020
71 Clouds 29 1010 79 10000 0.5 0 00:29 07.04.2020
72 Clouds 29 1011 74 10000 1 0 23:57 06.04.2020
73 Clouds 29 1012 79 10000 1 0 23:38 06.04.2020
74 Clouds 29 1012 79 10000 1 0 23:19 06.04.2020
75 Clouds 29 1011 59 0 1.61 75 22:41 06.04.2020
76 Clouds 29 1012 79 10000 1.5 110 22:22 06.04.2020
77 Clouds 29 1012 79 10000 1.5 110 21:58 06.04.2020
78 Clouds 30 1013 70 10000 1.5 120 21:39 06.04.2020
79 Clouds 30 1013 70 10000 1.5 120 21:19 06.04.2020
80 Clouds 30 1013 70 10000 1.5 120 20:56 06.04.2020
81 Clouds 30 1013 74 10000 1.5 120 20:37 06.04.2020
82 Clouds 30 1013 74 10000 1.5 120 20:19 06.04.2020
83 Clouds 30 1013 74 10000 1.5 120 19:42 06.04.2020
84 Clouds 30 1012 70 10000 2.1 120 19:23 06.04.2020
85 Clouds 30 1012 70 10000 2.1 120 18:59 06.04.2020
86 Clouds 30 1012 70 10000 2.1 120 18:41 06.04.2020
87 Clear 30 1012 62 0 2.72 58 18:23 06.04.2020
88 Clear 30 1012 62 0 2.72 58 17:55 06.04.2020
89 Clouds 30 1011 70 10000 2.1 90 17:36 06.04.2020
90 Clouds 30 1011 70 10000 2.1 90 17:18 06.04.2020
91 Clouds 30 1011 70 10000 2.1 90 17:18 06.04.2020
92 Clear 30 1012 62 0 2.72 58 16:45 06.04.2020
93 Clouds 31 1010 70 10000 2.6 80 16:27 06.04.2020
94 Clouds 31 1010 66 10000 2.6 100 14:45 06.04.2020
95 Clouds 31 1010 66 10000 2.6 100 14:45 06.04.2020
96 Clouds 31 1010 66 10000 2.6 100 14:45 06.04.2020
97 Clouds 31 1010 66 10000 2.6 100 14:45 06.04.2020
98 Clouds 31 1010 66 10000 2.6 100 14:45 06.04.2020
99 Clouds 32 1010 66 10000 2.6 80 13:44 06.04.2020
100 Clouds 32 1010 66 10000 2.6 80 13:44 06.04.2020
101 Clouds 32 1010 66 10000 2.6 80 13:44 06.04.2020
102 Clouds 32 1010 66 10000 2.6 80 13:44 06.04.2020
103 Clouds 32 1010 66 10000 2.6 80 13:44 06.04.2020
104 Clouds 32 1010 66 10000 2.6 100 13:21 06.04.2020
105 Clouds 32 1010 66 10000 2.6 100 13:21 06.04.2020
106 Clouds 32 1010 66 10000 2.6 100 13:21 06.04.2020
107 Clouds 32 1010 66 10000 2.6 100 13:21 06.04.2020
108 Clouds 32 1010 66 10000 2.6 100 12:26 06.04.2020
109 Clouds 32 1010 66 10000 2.6 100 12:02 06.04.2020
110 Clouds 32 1010 66 10000 2.6 100 11:40 06.04.2020
111 Clouds 32 1010 66 10000 2.6 100 11:40 06.04.2020
112 Clouds 32 1010 66 10000 2.6 100 11:40 06.04.2020
113 Clouds 32 1010 66 10000 2.6 100 11:40 06.04.2020
114 Clouds 32 1010 66 10000 2.6 100 11:40 06.04.2020
115 Clouds 32 1011 66 10000 3.1 110 10:52 06.04.2020
116 Clouds 32 1011 66 10000 3.1 110 10:52 06.04.2020
117 Clouds 32 1011 66 10000 3.1 110 10:52 06.04.2020
118 Clouds 32 1011 66 10000 3.1 110 10:52 06.04.2020
119 Clouds 32 1011 66 10000 3.1 110 10:52 06.04.2020
120 Clouds 32 1012 66 10000 3.1 110 10:23 06.04.2020
121 Clouds 32 1012 66 10000 3.1 110 10:23 06.04.2020
122 Clouds 32 1012 66 10000 3.1 110 10:23 06.04.2020
123 Clouds 32 1012 66 10000 3.1 110 09:55 06.04.2020
124 Clouds 32 1012 66 10000 3.1 110 09:54 06.04.2020
125 Clouds 32 1012 66 10000 3.1 110 09:53 06.04.2020
126 Clouds 32 1012 66 10000 3.1 110 09:53 06.04.2020
127 Clouds 32 1012 66 10000 3.1 110 09:53 06.04.2020
128 Clouds 32 1013 66 10000 2.6 110 09:24 06.04.2020
129 Clouds 32 1013 66 10000 2.6 110 08:55 06.04.2020
130 Clouds 32 1013 66 10000 2.6 110 08:55 06.04.2020
131 Rain 29 1013 69 0 3.64 78 08:33 06.04.2020
132 Rain 29 1013 69 0 3.64 78 08:33 06.04.2020
133 Clouds 32 1013 66 10000 3.1 110 07:55 06.04.2020
134 Clouds 31 1013 74 10000 2.1 90 07:18 06.04.2020
135 Clouds 31 1013 74 10000 2.1 90 06:25 06.04.2020
136 Clouds 29 1011 79 10000 2.1 70 05:26 06.04.2020
137 Clouds 29 1011 79 10000 2.1 70 05:26 06.04.2020
138 Clouds 29 1011 79 10000 2.1 70 05:22 06.04.2020
139 Clouds 29 1010 79 10000 2.6 90 03:28 06.04.2020
140 Clouds 29 1010 79 10000 2.6 90 02:48 06.04.2020
141 Clouds 29 1010 79 10000 3.1 90 01:52 06.04.2020
142 Clouds 29 1010 79 10000 3.6 100 00:51 06.04.2020
143 Clouds 29 1010 79 10000 3.6 100 00:27 06.04.2020
144 Clouds 29 1010 79 10000 3.6 100 00:27 06.04.2020
145 Clouds 29 1011 79 10000 4.1 100 23:49 05.04.2020
146 Clouds 29 1011 70 0 3.63 62 23:30 05.04.2020
147 Clouds 29 1011 70 0 3.63 62 23:30 05.04.2020
148 Clouds 29 1012 79 10000 3.6 100 22:56 05.04.2020
149 Clouds 29 1012 79 10000 3.6 100 22:38 05.04.2020
150 Clouds 30 1013 74 10000 2.6 100 22:19 05.04.2020
151 Clouds 30 1013 74 10000 2.6 100 21:58 05.04.2020
152 Clouds 29 1011 70 0 3.63 62 21:39 05.04.2020
153 Clouds 30 1013 74 10000 3.1 90 21:21 05.04.2020
154 Clouds 30 1013 74 10000 3.1 90 21:21 05.04.2020
155 Clouds 30 1013 74 10000 3.6 90 20:20 05.04.2020
156 Clouds 30 1013 74 10000 3.6 90 19:41 05.04.2020
157 Clouds 30 1013 74 10000 3.6 90 19:22 05.04.2020
158 Clouds 30 1013 74 10000 3.6 100 18:46 05.04.2020
159 Clouds 30 1013 74 10000 3.6 100 18:46 05.04.2020
160 Clouds 30 1012 74 10000 2.6 90 17:58 05.04.2020
161 Clouds 30 1012 74 10000 2.6 90 17:58 05.04.2020
162 Clouds 30 1012 66 0 2.98 47 17:39 05.04.2020
163 Clouds 30 1011 74 10000 2.1 90 17:20 05.04.2020
164 Clouds 30 1011 74 10000 2.1 90 16:45 05.04.2020
165 Clouds 30 1011 74 10000 2.1 90 16:45 05.04.2020
166 Clouds 30 1011 74 10000 2.1 90 16:45 05.04.2020
167 Clouds 30 1011 74 10000 2.1 90 16:45 05.04.2020
168 Clouds 30 1011 74 10000 2.1 90 16:45 05.04.2020
169 Clouds 31 1011 70 10000 2.6 80 16:18 05.04.2020
170 Clouds 31 1011 70 10000 2.6 80 15:44 05.04.2020
171 Clouds 31 1010 70 10000 2.6 90 15:25 05.04.2020
172 Clouds 31 1010 70 10000 2.6 90 15:25 05.04.2020
173 Clouds 31 1010 70 10000 2.6 90 14:47 05.04.2020
174 Clouds 31 1010 70 10000 2.6 90 14:47 05.04.2020
175 Clouds 31 1010 70 10000 2.6 90 14:47 05.04.2020
176 Clouds 31 1010 70 10000 2.6 90 14:47 05.04.2020
177 Clouds 31 1010 70 10000 2.6 90 14:47 05.04.2020
178 Clouds 32 1010 66 10000 3.6 100 13:45 05.04.2020
179 Clouds 32 1010 66 10000 3.1 100 12:57 05.04.2020
180 Clouds 32 1010 66 10000 3.1 100 12:57 05.04.2020
181 Clouds 32 1011 66 10000 3.1 100 11:58 05.04.2020
182 Clouds 32 1011 66 10000 3.1 100 11:58 05.04.2020
183 Clouds 32 1011 66 10000 3.1 100 11:58 05.04.2020
184 Clouds 30 1010 66 0 3.52 46 11:38 05.04.2020
185 Clouds 33 1012 66 10000 3.1 100 11:19 05.04.2020
186 Clouds 33 1012 66 10000 3.1 100 10:44 05.04.2020
187 Clouds 33 1012 66 10000 3.1 100 10:44 05.04.2020
188 Clouds 33 1012 66 10000 3.1 100 10:44 05.04.2020
189 Clouds 33 1012 66 10000 3.1 100 10:44 05.04.2020
190 Clouds 32 1013 70 10000 3.1 90 10:19 05.04.2020
191 Clouds 32 1013 70 10000 3.1 90 09:52 05.04.2020
192 Clouds 32 1013 70 10000 3.1 90 09:52 05.04.2020
193 Clouds 32 1013 70 10000 3.1 90 09:52 05.04.2020
194 Clouds 32 1013 70 10000 3.1 90 09:52 05.04.2020
195 Clouds 32 1013 70 10000 3.1 90 09:52 05.04.2020
196 Clouds 32 1013 70 10000 2.6 100 09:25 05.04.2020
197 Clouds 32 1013 70 10000 2.6 100 09:25 05.04.2020
198 Clouds 32 1013 70 10000 2.6 100 09:25 05.04.2020
199 Clouds 32 1013 70 10000 2.6 100 09:25 05.04.2020
200 Clouds 32 1013 70 10000 2.6 100 09:25 05.04.2020
201 Clouds 32 1013 66 10000 3.1 110 07:58 05.04.2020
202 Clouds 32 1013 66 10000 3.1 110 07:58 05.04.2020
203 Clouds 30 1011 74 10000 3.6 90 04:56 05.04.2020
204 Clouds 29 1012 67 0 3.02 70 03:35 05.04.2020
205 Clouds 29 1012 67 0 3.02 70 03:35 05.04.2020
206 Clouds 29 1012 67 0 3.02 70 03:35 05.04.2020
207 Clouds 29 1010 74 10000 4.6 100 02:53 05.04.2020
208 Clouds 29 1009 74 10000 4.6 80 01:51 05.04.2020
209 Clouds 29 1009 74 10000 4.6 80 01:32 05.04.2020
210 Clouds 29 1009 74 10000 4.1 80 00:48 05.04.2020
211 Clouds 29 1010 74 10000 4.1 90 00:22 05.04.2020
212 Clouds 29 1010 74 10000 4.1 90 00:22 05.04.2020
213 Clouds 29 1010 74 10000 4.1 90 23:57 04.04.2020
214 Clouds 29 1009 68 0 3.86 71 23:38 04.04.2020
215 Clouds 30 1010 70 10000 4.1 90 23:20 04.04.2020
216 Clouds 30 1010 70 10000 4.1 90 22:56 04.04.2020
217 Clouds 30 1010 70 10000 4.1 90 22:37 04.04.2020
218 Clouds 30 1011 70 10000 4.1 80 22:19 04.04.2020
219 Clouds 30 1011 70 10000 4.1 80 21:54 04.04.2020
220 Clouds 29 1009 68 0 3.86 71 21:36 04.04.2020
221 Clouds 30 1012 70 10000 4.1 80 21:18 04.04.2020
222 Clouds 30 1012 70 10000 4.1 80 20:42 04.04.2020
223 Clouds 30 1012 70 10000 4.1 70 20:23 04.04.2020
224 Clouds 30 1012 70 10000 4.1 70 19:59 04.04.2020
225 Clouds 30 1012 70 10000 4.1 70 19:37 04.04.2020
226 Clouds 30 1012 70 10000 4.1 70 19:19 04.04.2020
227 Clouds 30 1011 70 10000 2.6 40 18:57 04.04.2020
228 Clouds 30 1011 70 10000 2.6 40 18:38 04.04.2020
229 Clouds 30 1011 70 10000 2.6 40 18:19 04.04.2020
230 Clouds 30 1011 70 10000 2.6 40 18:19 04.04.2020
231 Clouds 30 1011 70 10000 2.6 40 17:56 04.04.2020
232 Clouds 29 1011 67 0 4.88 46 17:38 04.04.2020
233 Clouds 30 1010 66 10000 3.1 40 17:18 04.04.2020
234 Clouds 30 1010 66 10000 3.1 40 16:42 04.04.2020
235 Clouds 30 1009 70 10000 3.6 40 16:23 04.04.2020
236 Clouds 30 1009 70 10000 3.6 40 15:57 04.04.2020
237 Clouds 29 1011 67 0 4.88 46 15:38 04.04.2020
238 Clouds 31 1009 66 10000 4.1 70 15:19 04.04.2020
239 Clouds 31 1009 66 10000 4.1 70 15:19 04.04.2020
240 Clouds 31 1009 66 10000 4.1 70 14:44 04.04.2020
241 Clouds 32 1009 66 10000 4.6 70 14:23 04.04.2020
242 Clouds 32 1009 66 10000 4.6 70 13:57 04.04.2020
243 Clouds 29 1010 66 0 5.23 34 13:38 04.04.2020
244 Clouds 32 1009 62 10000 5.1 60 13:20 04.04.2020
245 Clouds 32 1009 62 10000 5.1 60 12:55 04.04.2020
246 Clouds 32 1009 62 10000 5.1 60 12:55 04.04.2020
247 Clouds 32 1009 62 10000 5.1 60 12:36 04.04.2020
248 Clouds 32 1009 62 10000 5.1 60 12:18 04.04.2020
249 Clouds 32 1010 66 10000 4.6 80 11:41 04.04.2020
250 Clouds 32 1011 66 10000 4.6 70 11:23 04.04.2020
251 Clouds 32 1011 66 10000 4.6 70 10:58 04.04.2020
252 Clouds 32 1011 66 10000 4.6 70 10:40 04.04.2020
253 Clouds 32 1011 66 10000 4.6 70 10:21 04.04.2020
254 Clouds 32 1011 66 10000 4.6 70 09:55 04.04.2020
255 Clouds 29 1010 64 0 5.26 31 09:37 04.04.2020
256 Clouds 32 1012 62 10000 4.1 70 09:19 04.04.2020
257 Clouds 32 1012 62 10000 4.1 70 08:42 04.04.2020
258 Clouds 32 1012 62 10000 4.6 70 08:23 04.04.2020
259 Clouds 32 1012 62 10000 4.6 70 07:55 04.04.2020
260 Clouds 32 1012 62 10000 4.6 70 07:37 04.04.2020
261 Clouds 32 1012 62 10000 4.6 70 07:19 04.04.2020
262 Clouds 30 1012 70 10000 4.6 70 06:22 04.04.2020
263 Clouds 30 1011 70 10000 2.6 70 05:51 04.04.2020
264 Clouds 29 1012 65 0 4.71 56 05:32 04.04.2020
265 Clouds 28 1009 74 10000 1.5 90 04:34 04.04.2020
266 Clouds 28 1009 74 10000 1.5 90 03:55 04.04.2020
267 Clouds 28 1009 74 10000 2.6 90 03:27 04.04.2020
268 Clouds 28 1009 74 10000 2.6 90 02:42 04.04.2020
269 Clouds 29 1009 74 10000 3.1 90 02:24 04.04.2020
270 Clouds 29 1008 70 10000 2.6 90 01:27 04.04.2020
271 Clouds 29 1008 70 10000 2.6 90 00:57 04.04.2020
272 Clouds 29 1008 70 10000 2.6 90 00:30 04.04.2020
273 Clouds 29 1009 70 10000 3.1 90 23:56 03.04.2020
274 Clouds 29 1009 69 0 4.54 78 23:37 03.04.2020
275 Clouds 29 1009 74 10000 3.6 100 23:18 03.04.2020
276 Clouds 29 1009 74 10000 3.6 100 22:40 03.04.2020
277 Clouds 29 1010 70 10000 4.1 80 22:19 03.04.2020
278 Clouds 29 1010 70 10000 4.1 80 21:56 03.04.2020
279 Clouds 29 1010 70 10000 4.1 80 21:56 03.04.2020
280 Clouds 29 1009 69 0 4.54 78 21:38 03.04.2020
281 Clouds 29 1011 70 10000 5.1 70 21:19 03.04.2020
282 Clouds 29 1011 70 10000 5.1 70 20:55 03.04.2020
283 Clear 29 1011 72 0 5.65 68 20:36 03.04.2020
284 Clouds 30 1011 66 10000 4.6 90 20:18 03.04.2020
285 Clouds 30 1011 66 10000 4.6 90 19:54 03.04.2020
286 Clouds 30 1011 66 10000 4.6 90 19:36 03.04.2020
287 Clouds 30 1011 66 10000 4.6 90 19:18 03.04.2020
288 Clouds 30 1011 66 10000 4.6 90 19:18 03.04.2020
289 Clouds 30 1010 66 10000 4.6 70 18:56 03.04.2020
290 Clouds 30 1010 66 10000 4.6 70 18:38 03.04.2020
291 Clouds 30 1010 66 10000 4.6 70 18:19 03.04.2020
292 Clear 29 1010 68 0 6.08 59 17:40 03.04.2020
293 Clouds 30 1009 66 10000 4.1 70 17:19 03.04.2020
294 Clouds 30 1009 66 10000 4.1 70 17:19 03.04.2020
295 Clouds 30 1009 66 10000 4.1 70 16:55 03.04.2020
296 Clouds 30 1009 66 10000 4.1 70 16:36 03.04.2020
297 Clouds 30 1009 66 10000 4.1 70 16:18 03.04.2020
298 Clouds 30 1008 66 10000 4.1 70 15:41 03.04.2020
299 Clouds 31 1008 62 10000 4.1 70 15:22 03.04.2020
300 Clouds 31 1008 62 10000 4.1 70 14:58 03.04.2020
301 Clouds 29 1009 64 0 5.52 51 14:40 03.04.2020
302 Clouds 32 1008 59 10000 5.1 60 14:21 03.04.2020
303 Clouds 32 1008 59 10000 5.1 60 13:46 03.04.2020
304 Clouds 32 1008 59 10000 5.1 60 13:27 03.04.2020
305 Clouds 32 1008 62 10000 4.6 50 12:57 03.04.2020
306 Clouds 32 1008 62 10000 4.6 50 12:39 03.04.2020
307 Clouds 32 1008 62 10000 4.6 50 12:18 03.04.2020
308 Clouds 32 1008 62 10000 4.1 60 11:55 03.04.2020
309 Clouds 29 1009 63 0 5.36 58 11:37 03.04.2020
310 Clouds 32 1009 59 10000 5.1 60 11:18 03.04.2020
311 Clouds 32 1009 59 10000 5.1 60 10:57 03.04.2020
312 Clouds 32 1009 59 10000 5.1 60 10:57 03.04.2020
313 Clouds 29 1009 63 0 5.36 58 10:38 03.04.2020
314 Clouds 32 1010 59 10000 5.1 60 10:19 03.04.2020
315 Clouds 32 1010 59 10000 5.1 60 09:56 03.04.2020
316 Clouds 29 1009 63 0 5.36 58 09:37 03.04.2020
317 Clouds 29 1009 63 0 5.36 58 09:37 03.04.2020
318 Clouds 32 1011 59 10000 4.6 60 09:19 03.04.2020
319 Clouds 32 1011 59 10000 4.6 60 08:44 03.04.2020
320 Clouds 32 1011 59 10000 4.6 60 08:25 03.04.2020
321 Clouds 31 1011 62 10000 4.6 70 07:57 03.04.2020
322 Clouds 31 1011 62 10000 4.6 70 07:39 03.04.2020
323 Clouds 31 1011 62 10000 4.6 70 07:20 03.04.2020
324 Clouds 30 1010 66 10000 3.6 70 06:28 03.04.2020
325 Clouds 30 1010 66 10000 3.6 70 05:43 03.04.2020
326 Clouds 29 1009 66 10000 3.6 100 04:27 03.04.2020
327 Clouds 29 1011 63 0 4.1 88 03:33 03.04.2020
328 Clouds 29 1008 70 10000 4.1 100 02:40 03.04.2020
329 Clouds 29 1008 74 10000 3.6 90 01:25 03.04.2020
330 Clouds 29 1008 74 10000 3.6 90 00:52 03.04.2020
331 Clouds 29 1008 74 10000 3.6 90 00:33 03.04.2020
332 Clouds 29 1008 74 10000 3.1 90 23:55 02.04.2020
333 Clear 29 1007 68 0 4.14 100 23:37 02.04.2020
334 Clouds 29 1008 74 10000 3.6 90 23:18 02.04.2020
335 Clouds 29 1008 74 10000 3.6 90 23:18 02.04.2020
336 Clouds 29 1008 74 10000 3.6 90 22:41 02.04.2020
337 Clouds 29 1009 74 10000 4.1 80 22:22 02.04.2020
338 Clouds 29 1009 74 10000 4.1 80 21:59 02.04.2020
339 Clear 29 1007 68 0 4.14 100 21:37 02.04.2020
340 Clouds 29 1010 74 10000 3.6 70 21:18 02.04.2020
341 Clouds 29 1010 74 10000 3.6 70 20:45 02.04.2020
342 Clouds 29 1010 74 10000 3.6 80 20:25 02.04.2020
343 Clouds 29 1010 74 10000 3.6 80 19:59 02.04.2020
344 Clouds 29 1010 74 10000 3.6 80 19:40 02.04.2020
345 Clouds 29 1010 74 10000 3.6 80 19:20 02.04.2020
346 Clouds 29 1010 74 10000 3.6 70 18:56 02.04.2020
347 Clouds 29 1010 74 10000 3.6 70 18:37 02.04.2020
348 Clouds 29 1010 74 10000 3.6 70 18:18 02.04.2020
349 Clouds 30 1009 70 10000 4.1 60 17:43 02.04.2020
350 Clouds 30 1008 70 10000 4.1 60 17:24 02.04.2020
351 Clouds 30 1008 70 10000 4.1 60 16:58 02.04.2020
352 Clouds 29 1009 70 0 5.02 49 16:40 02.04.2020
353 Clouds 31 1008 66 10000 3.6 70 16:22 02.04.2020
354 Clouds 31 1008 66 10000 3.6 70 15:57 02.04.2020
355 Clouds 29 1009 70 0 5.02 49 15:39 02.04.2020
356 Clouds 31 1007 66 10000 3.6 70 15:19 02.04.2020
357 Clouds 31 1007 66 10000 3.6 70 14:57 02.04.2020
358 Clouds 31 1007 66 10000 3.6 70 14:38 02.04.2020
359 Clouds 31 1007 66 10000 3.6 70 14:18 02.04.2020
360 Clouds 31 1007 70 10000 4.6 70 13:55 02.04.2020
361 Clouds 31 1007 70 10000 4.6 70 13:37 02.04.2020
362 Clouds 31 1007 70 10000 4.6 70 13:18 02.04.2020
363 Clouds 32 1007 66 10000 5.1 80 12:45 02.04.2020
364 Clouds 32 1007 66 10000 5.1 80 12:45 02.04.2020
365 Clouds 32 1007 66 10000 5.1 80 12:45 02.04.2020
366 Clouds 32 1007 66 10000 5.1 80 12:20 02.04.2020
367 Clouds 32 1007 66 10000 5.7 50 11:58 02.04.2020
368 Clouds 29 1008 68 0 5.65 31 11:39 02.04.2020
369 Clouds 33 1008 63 10000 5.1 50 11:20 02.04.2020
370 Clouds 33 1008 63 10000 5.1 50 11:20 02.04.2020
371 Clouds 33 1008 63 10000 5.1 50 10:57 02.04.2020
372 Clouds 29 1008 68 0 5.65 31 10:38 02.04.2020
373 -273 0 0 0 0 0 10:20 02.04.2020
374 Clouds 33 1009 63 10000 5.1 30 10:20 02.04.2020
375 Clouds 33 1009 63 10000 5.1 30 09:59 02.04.2020
376 Clouds 33 1009 63 10000 5.1 30 09:41 02.04.2020
377 Clouds 33 1009 63 10000 4.6 30 09:21 02.04.2020
378 Clouds 33 1009 63 10000 4.6 30 08:47 02.04.2020
379 Clouds 32 1010 66 10000 4.6 50 08:28 02.04.2020
380 Clouds 32 1010 66 10000 4.6 50 07:57 02.04.2020
381 Clouds 32 1010 66 10000 4.6 50 07:38 02.04.2020
382 Clouds 32 1010 66 10000 4.6 50 07:19 02.04.2020
383 Clouds 31 1010 70 10000 4.6 40 06:24 02.04.2020
384 Clouds 31 1010 66 10000 3.6 40 05:46 02.04.2020
385 Clouds 29 1009 79 10000 2.1 40 04:58 02.04.2020
386 Clouds 29 1008 74 10000 2.6 80 02:21 02.04.2020
387 Clouds 29 1008 74 10000 2.6 80 01:27 02.04.2020
388 Clear 29 1008 63 0 2.47 58 00:41 02.04.2020
389 Clouds 29 1008 74 10000 2.6 80 00:19 02.04.2020
390 Clouds 29 1008 74 10000 2.6 80 23:39 01.04.2020
391 Clouds 29 1009 79 10000 3.1 70 23:19 01.04.2020
392 Clouds 29 1009 79 10000 3.1 70 22:57 01.04.2020
393 Clear 29 1008 68 0 2.69 53 22:38 01.04.2020
394 Clouds 29 1010 79 10000 2.1 70 22:19 01.04.2020
395 Clouds 29 1010 79 10000 2.1 70 21:41 01.04.2020
396 Clouds 29 1010 79 10000 2.1 40 21:19 01.04.2020
397 Clouds 29 1010 79 10000 2.1 40 20:56 01.04.2020
398 Clouds 29 1010 79 10000 2.1 40 20:38 01.04.2020
399 Clouds 30 1010 70 10000 4.6 60 20:19 01.04.2020
400 Clouds 30 1010 70 10000 4.6 60 19:58 01.04.2020
401 Clouds 30 1010 70 10000 4.6 60 19:38 01.04.2020
402 Clouds 30 1010 70 10000 4.6 60 19:19 01.04.2020
403 Clear 29 1011 70 0 3.59 61 18:42 01.04.2020
404 Clear 29 1011 70 0 3.59 61 18:42 01.04.2020
405 Clouds 30 1010 74 10000 2.6 30 18:23 01.04.2020
406 Clouds 30 1010 74 10000 2.6 30 17:57 01.04.2020
407 Clear 29 1010 73 0 5.13 44 17:38 01.04.2020
408 Clouds 30 1009 74 10000 4.1 50 17:19 01.04.2020
409 Clouds 30 1009 74 10000 4.1 50 17:19 01.04.2020
410 Clouds 30 1009 74 10000 4.1 50 16:58 01.04.2020
411 Clear 29 1010 73 0 5.13 44 16:39 01.04.2020
412 Clear 29 1010 73 0 5.13 44 16:39 01.04.2020
413 Clouds 30 1008 74 10000 4.1 50 16:20 01.04.2020
414 Clouds 30 1008 74 10000 4.1 50 15:57 01.04.2020
415 Clear 29 1010 73 0 5.13 44 15:37 01.04.2020
416 Clouds 31 1008 74 10000 5.1 50 15:18 01.04.2020
417 Clouds 31 1008 74 10000 5.1 50 14:41 01.04.2020
418 Clouds 31 1007 74 10000 4.6 60 14:23 01.04.2020
419 Clouds 31 1007 74 10000 4.6 60 13:59 01.04.2020
420 Clouds 31 1007 74 10000 4.6 60 13:40 01.04.2020
421 Clouds 31 1007 74 10000 4.6 60 13:20 01.04.2020
422 Clouds 31 1007 74 10000 4.6 60 13:20 01.04.2020
423 Clouds 32 1007 66 10000 4.6 70 12:59 01.04.2020
424 Clouds 32 1007 66 10000 4.6 70 12:41 01.04.2020
425 Clouds 32 1008 66 10000 4.6 60 12:22 01.04.2020
426 Clouds 32 1008 66 10000 4.6 60 11:57 01.04.2020
427 Clouds 29 1008 72 0 6.32 26 11:38 01.04.2020
428 Clouds 30 1009 74 10000 4.1 50 11:20 01.04.2020
429 Clouds 29 1008 72 0 6.32 26 10:41 01.04.2020
430 Clouds 29 1010 79 10000 4.1 10 10:22 01.04.2020
431 Clouds 29 1010 79 10000 4.1 10 09:59 01.04.2020
432 Clouds 29 1008 72 0 6.32 26 09:40 01.04.2020
433 Clouds 30 1011 70 10000 3.6 360 09:21 01.04.2020
434 Clouds 30 1011 70 10000 3.6 360 08:57 01.04.2020
435 Clouds 30 1011 70 10000 3.6 360 08:38 01.04.2020
436 Clouds 30 1011 70 10000 1 0 08:18 01.04.2020
437 Clouds 29 1012 73 0 5.56 19 07:41 01.04.2020
438 Clouds 30 1011 74 10000 1 0 07:19 01.04.2020
439 Clouds 30 1011 74 10000 1 0 06:47 01.04.2020
440 Clouds 29 1012 73 0 5.56 19 06:21 01.04.2020
441 Clouds 29 1011 75 0 4.2 7 05:53 01.04.2020
442 Thunderstorm 25 1010 83 10000 5.1 290 04:29 01.04.2020
443 Thunderstorm 29 1009 83 10000 2.6 250 03:21 01.04.2020
444 Thunderstorm 29 1009 83 10000 2.6 250 02:46 01.04.2020
445 Rain 29 1009 76 0 3.2 353 01:53 01.04.2020
446 Clouds 29 1008 79 10000 3.1 30 01:29 01.04.2020
447 Clouds 29 1008 79 10000 3.1 30 00:47 01.04.2020
448 Clouds 29 1008 79 10000 3.1 30 00:25 01.04.2020
449 Clouds 30 1008 74 10000 2.1 350 23:59 31.03.2020
450 Clouds 30 1008 74 10000 2.1 350 23:41 31.03.2020
451 Clouds 30 1008 74 10000 2.1 350 23:22 31.03.2020
452 Clouds 30 1009 74 10000 1.5 10 23:22 31.03.2020
453 Clouds 30 1009 74 10000 1.5 10 22:42 31.03.2020
454 Clouds 30 1009 74 10000 1.5 10 22:22 31.03.2020
455 Clouds 30 1010 74 10000 2.1 20 21:59 31.03.2020
456 Clouds 30 1010 74 10000 2.1 20 21:40 31.03.2020
457 Clouds 30 1010 74 10000 2.1 20 21:40 31.03.2020
458 Clouds 30 1010 74 10000 2.6 20 21:22 31.03.2020
459 Clouds 30 1010 74 10000 2.6 20 20:58 31.03.2020
460 Clouds 30 1010 74 10000 2.6 20 20:38 31.03.2020
461 Clouds 30 1010 74 10000 2.6 20 20:20 31.03.2020
462 Clouds 30 1011 74 10000 2.6 20 19:58 31.03.2020
463 Clouds 30 1011 74 10000 2.6 20 19:40 31.03.2020
464 Clouds 30 1011 74 10000 2.1 30 19:21 31.03.2020
465 Clouds 30 1011 74 10000 2.1 30 18:54 31.03.2020
466 Clouds 30 1011 74 10000 2.1 30 18:36 31.03.2020
467 Clouds 30 1010 74 10000 2.6 30 18:18 31.03.2020
468 Clouds 30 1010 74 10000 2.6 30 17:54 31.03.2020
469 Clouds 30 1010 74 10000 2.6 30 17:36 31.03.2020
470 Clouds 30 1010 74 10000 2.6 30 17:18 31.03.2020
471 Clouds 29 1011 70 0 4.6 30 16:37 31.03.2020
472 Clouds 31 1009 70 10000 3.1 10 16:18 31.03.2020
473 Clouds 31 1009 70 10000 3.1 10 15:56 31.03.2020
474 Clouds 29 1011 70 0 4.6 30 15:37 31.03.2020
475 Clouds 32 1008 66 10000 2.6 10 15:19 31.03.2020
476 Clouds 32 1008 66 10000 2.6 10 14:56 31.03.2020
477 Clouds 29 1009 68 0 4.62 28 14:38 31.03.2020
478 Clouds 32 1008 66 10000 3.1 360 14:18 31.03.2020
479 Clouds 32 1008 66 10000 3.1 360 13:41 31.03.2020
480 Clouds 32 1008 66 10000 3.1 360 13:19 31.03.2020
481 Clouds 32 1008 66 10000 3.1 350 12:54 31.03.2020
482 Clouds 29 1009 66 0 3.74 24 12:36 31.03.2020
483 Clouds 32 1009 62 10000 3.1 350 12:18 31.03.2020
484 Clouds 29 1009 65 0 3.43 22 11:38 31.03.2020
485 Clouds 31 1010 66 10000 2.6 340 11:19 31.03.2020
486 Clouds 31 1010 66 10000 2.6 340 10:57 31.03.2020
487 Clouds 29 1009 65 0 3.43 22 10:39 31.03.2020
488 Clouds 32 1011 62 10000 2.1 360 10:20 31.03.2020
489 Clouds 32 1011 62 10000 2.1 360 09:55 31.03.2020
490 Clouds 29 1009 65 0 3.43 22 09:37 31.03.2020
491 Clouds 32 1012 62 10000 3.6 90 09:19 31.03.2020
492 Clouds 32 1012 62 10000 3.6 90 08:54 31.03.2020
493 Clouds 29 1012 64 0 3.02 27 08:36 31.03.2020
494 Clouds 32 1012 62 10000 2.6 80 08:18 31.03.2020
495 Clouds 32 1012 62 10000 2.6 80 07:43 31.03.2020
496 Clouds 32 1012 62 10000 2.6 80 07:23 31.03.2020
497 Clouds 31 1012 66 10000 2.1 110 06:58 31.03.2020
498 Clouds 31 1012 66 10000 2.1 110 06:39 31.03.2020
499 Clouds 31 1011 66 10000 1 0 05:44 31.03.2020
500 Clouds 29 1010 74 10000 0.5 0 05:24 31.03.2020
501 Clouds 28 1009 74 10000 2.1 50 02:56 31.03.2020
502 Clouds 28 1009 74 10000 2.1 60 01:47 31.03.2020
503 Clouds 28 1009 74 10000 2.1 60 01:22 31.03.2020
504 Clouds 29 1009 62 0 1.75 74 00:43 31.03.2020
505 Clouds 29 1009 70 10000 4.1 40 00:23 31.03.2020
506 Clouds 29 1009 70 10000 4.1 40 23:40 30.03.2020
507 Clouds 28 1010 74 10000 3.6 60 23:20 30.03.2020
508 Clouds 28 1010 74 10000 3.6 60 22:58 30.03.2020
509 Clouds 29 1009 65 0 3.19 38 22:38 30.03.2020
510 Clouds 29 1011 70 10000 3.6 40 22:19 30.03.2020
511 Clouds 29 1011 70 10000 3.6 40 21:57 30.03.2020
512 Clouds 29 1009 65 0 3.19 38 21:38 30.03.2020
513 Clouds 29 1012 70 10000 3.6 40 21:20 30.03.2020
514 -273 0 0 0 0 0 21:20 30.03.2020
515 Clouds 29 1012 70 10000 3.6 40 20:58 30.03.2020
516 Clear 29 1012 67 0 3.84 32 20:39 30.03.2020
517 Clouds 29 1012 74 10000 2.6 20 20:20 30.03.2020
518 Clouds 29 1012 74 10000 2.6 20 19:56 30.03.2020
519 Clouds 29 1012 74 10000 2.6 20 19:37 30.03.2020
520 Clouds 29 1012 74 10000 2.6 20 19:19 30.03.2020
521 Clouds 30 1011 66 10000 3.6 30 18:42 30.03.2020
522 Clouds 30 1011 66 10000 3.6 30 18:24 30.03.2020
523 Clouds 30 1011 66 10000 2.1 20 17:58 30.03.2020
524 Clouds 29 1011 67 0 4.37 28 17:39 30.03.2020
525 Clouds 30 1010 70 10000 2.6 30 17:19 30.03.2020
526 Clouds 30 1010 70 10000 2.6 30 16:58 30.03.2020
527 Clouds 30 1010 70 10000 2.6 30 16:39 30.03.2020
528 Clouds 31 1009 66 10000 2.6 20 16:20 30.03.2020
529 Clouds 31 1009 66 10000 2.6 20 16:20 30.03.2020
530 Clouds 31 1009 66 10000 2.6 20 15:55 30.03.2020
531 Clouds 29 1011 67 0 4.37 28 15:37 30.03.2020
532 Clouds 31 1008 62 10000 3.1 20 15:19 30.03.2020
533 Clouds 31 1008 62 10000 3.1 20 15:19 30.03.2020
534 Clouds 31 1008 62 10000 3.1 20 14:55 30.03.2020
535 Clouds 29 1009 65 0 3.95 23 14:37 30.03.2020
536 Clouds 32 1008 66 10000 3.6 360 14:18 30.03.2020
537 Clouds 32 1008 66 10000 3.6 360 13:55 30.03.2020
538 Clouds 32 1008 66 10000 3.6 360 13:55 30.03.2020
539 Clouds 31 1008 66 10000 2.6 60 13:37 30.03.2020
540 Clouds 31 1008 66 10000 2.6 60 13:18 30.03.2020
541 Clouds 31 1008 66 10000 2.6 60 12:43 30.03.2020
542 Clouds 31 1008 66 10000 2.6 60 12:20 30.03.2020
543 Clouds 32 1008 62 10000 3.6 60 11:57 30.03.2020
544 Clouds 32 1008 62 10000 3.6 60 11:39 30.03.2020
545 Clouds 31 1009 62 10000 2.6 40 11:21 30.03.2020
546 Clouds 31 1009 62 10000 2.6 40 10:41 30.03.2020
547 Clouds 32 1010 59 10000 4.1 70 10:23 30.03.2020
548 Clouds 32 1010 59 10000 4.1 70 09:59 30.03.2020
549 Clouds 32 1010 59 10000 4.1 70 09:40 30.03.2020
550 Clouds 32 1011 62 10000 3.6 80 09:19 30.03.2020
551 Clouds 32 1011 62 10000 3.6 80 08:47 30.03.2020
552 Clouds 31 1011 62 10000 2.1 360 08:28 30.03.2020
553 Clouds 31 1011 62 10000 2.1 360 08:28 30.03.2020
554 Clouds 31 1011 62 10000 2.1 360 07:58 30.03.2020
555 Clouds 31 1011 62 10000 2.1 360 07:39 30.03.2020
556 Clouds 31 1011 62 10000 2.1 360 07:18 30.03.2020
557 Clouds 31 1011 62 10000 2.1 360 06:37 30.03.2020
558 Clouds 31 1011 62 10000 2.1 360 06:18 30.03.2020
559 Clouds 28 1011 60 0 1.18 31 05:38 30.03.2020
560 Clouds 28 1009 78 10000 2.1 30 04:27 30.03.2020
561 Clouds 28 1009 78 10000 2.1 30 03:50 30.03.2020
562 Clouds 28 1009 78 10000 1.5 20 02:43 30.03.2020
563 Clouds 28 1008 74 10000 1 0 01:54 30.03.2020
564 Clouds 29 1008 70 10000 1 0 00:56 30.03.2020
565 Clouds 29 1009 74 10000 1 0 00:25 30.03.2020
566 Clouds 29 1009 74 10000 1 0 00:25 30.03.2020
567 Clouds 29 1009 74 10000 1 0 23:55 29.03.2020
568 Clouds 29 1009 63 0 1.82 28 23:36 29.03.2020
569 Clouds 29 1010 74 10000 1.82 28 23:18 29.03.2020
570 Clouds 29 1010 74 10000 1.82 28 22:39 29.03.2020
571 Clouds 29 1011 74 10000 1.5 50 22:20 29.03.2020
572 Clouds 29 1011 74 10000 1.5 50 21:58 29.03.2020
573 Clouds 29 1011 74 10000 1.5 50 21:37 29.03.2020
574 Clouds 29 1011 74 10000 1.5 50 21:18 29.03.2020
575 Clouds 29 1011 74 10000 1.5 90 20:55 29.03.2020
576 Clouds 29 1011 74 10000 1.5 90 20:37 29.03.2020
577 Clouds 29 1011 74 10000 1.5 90 20:37 29.03.2020
578 Clouds 29 1011 74 10000 1.5 90 20:18 29.03.2020
579 Clouds 29 1011 74 10000 2.1 90 19:55 29.03.2020
580 Clouds 29 1011 74 10000 2.1 90 19:55 29.03.2020
581 Clouds 29 1011 74 10000 2.1 90 19:37 29.03.2020
582 Clouds 30 1011 70 10000 2.1 90 19:18 29.03.2020
583 Clouds 30 1011 70 10000 2.1 90 18:54 29.03.2020
584 Clouds 30 1011 70 10000 2.1 90 18:36 29.03.2020
585 Clouds 30 1010 70 10000 2.6 80 18:18 29.03.2020
586 Clouds 29 1010 66 0 3.1 58 17:42 29.03.2020
587 Clouds 30 1009 70 10000 3.1 80 17:23 29.03.2020
588 Clouds 30 1009 70 10000 3.1 80 16:59 29.03.2020
589 Clouds 30 1009 70 10000 3.1 80 16:40 29.03.2020
590 Clouds 30 1009 70 10000 2.6 70 16:21 29.03.2020
591 Clouds 30 1009 70 10000 2.6 70 15:58 29.03.2020
592 Clouds 30 1009 70 10000 2.6 70 15:40 29.03.2020
593 Clouds 31 1008 66 10000 2.6 80 15:20 29.03.2020
594 Clouds 31 1008 66 10000 2.6 80 14:56 29.03.2020
595 Clouds 31 1008 66 10000 2.6 80 14:37 29.03.2020
596 Clouds 31 1008 66 10000 2.6 80 14:19 29.03.2020
597 Clouds 31 1008 70 10000 3.1 90 13:55 29.03.2020
598 Clouds 31 1008 70 10000 3.1 90 13:37 29.03.2020
599 Clouds 31 1008 70 10000 3.1 70 13:18 29.03.2020
600 Clouds 31 1008 70 10000 3.1 70 12:54 29.03.2020
601 Clouds 31 1008 70 10000 3.1 70 12:54 29.03.2020
602 Clouds 31 1008 70 10000 3.1 70 12:36 29.03.2020
603 Clouds 31 1009 70 10000 2.6 90 12:18 29.03.2020
604 Clouds 29 1008 66 0 3.45 50 11:38 29.03.2020
605 Clouds 32 1009 66 10000 3.1 100 11:20 29.03.2020
606 Clouds 32 1009 66 10000 3.1 100 10:40 29.03.2020
607 Clouds 32 1009 66 10000 3.1 100 10:21 29.03.2020
608 Clouds 31 1010 70 10000 3.1 90 09:59 29.03.2020
609 Clouds 29 1008 66 0 3.45 50 09:38 29.03.2020
610 Clouds 32 1011 75 10000 2.6 90 09:19 29.03.2020
611 Clouds 32 1011 75 10000 2.6 90 08:48 29.03.2020
612 Clouds 32 1011 75 10000 2.6 90 08:27 29.03.2020
613 Clouds 31 1011 70 10000 2.6 100 07:56 29.03.2020
614 Clouds 31 1011 70 10000 2.6 100 07:37 29.03.2020
615 Clouds 31 1011 70 10000 2.1 70 07:19 29.03.2020
616 Clouds 29 1010 74 10000 2.1 90 04:58 29.03.2020
617 Clouds 28 1009 74 10000 1.5 120 03:42 29.03.2020
618 Clouds 28 1009 78 10000 2.1 120 03:23 29.03.2020
619 Clouds 28 1009 78 10000 2.1 120 01:50 29.03.2020
620 Clouds 28 1009 78 10000 2.1 120 01:23 29.03.2020
621 Clouds 28 1009 78 10000 1.5 120 00:48 29.03.2020
622 Clouds 28 1009 78 10000 1.5 120 00:29 29.03.2020
623 Clouds 28 1009 78 10000 2.1 120 23:41 28.03.2020
624 Clouds 28 1009 78 10000 2.1 120 23:41 28.03.2020
625 Clouds 28 1009 78 10000 2.1 120 23:23 28.03.2020
626 Clouds 28 1009 78 10000 2.6 120 22:56 28.03.2020
627 Clear 29 1009 66 0 3.23 86 22:37 28.03.2020
628 Clouds 28 1010 78 10000 2.6 110 22:18 28.03.2020
629 Clouds 28 1010 78 10000 2.6 110 21:41 28.03.2020
630 Clouds 29 1011 79 10000 1.5 110 21:23 28.03.2020
631 Clouds 29 1011 79 10000 1.5 110 20:58 28.03.2020
632 Clear 29 1009 66 0 3.23 86 20:39 28.03.2020
633 Clouds 29 1012 79 10000 2.1 110 20:20 28.03.2020
634 Clouds 29 1012 79 10000 2.1 110 19:56 28.03.2020
635 Clouds 29 1012 79 10000 2.1 110 19:36 28.03.2020
636 Clouds 29 1012 79 10000 2.1 110 19:18 28.03.2020
637 Clouds 29 1012 74 10000 2.6 100 18:47 28.03.2020
638 Clouds 29 1012 74 10000 2.6 100 18:22 28.03.2020
639 Clouds 29 1011 74 10000 3.1 90 17:58 28.03.2020
640 Clouds 29 1011 74 10000 3.1 90 17:38 28.03.2020
641 Clouds 30 1010 70 10000 3.1 100 17:18 28.03.2020
642 Clear 29 1011 63 0 2.84 46 16:42 28.03.2020
643 Clouds 30 1010 70 10000 2.6 100 16:20 28.03.2020
644 Clouds 30 1010 70 10000 2.6 100 15:56 28.03.2020
645 Clear 29 1011 63 0 2.84 46 15:37 28.03.2020
646 Clouds 30 1009 70 10000 3.1 90 15:18 28.03.2020
647 Clouds 30 1009 70 10000 3.1 90 14:42 28.03.2020
648 Clouds 31 1008 70 10000 4.1 90 14:22 28.03.2020
649 Clouds 31 1008 70 10000 4.1 90 13:55 28.03.2020
650 Clouds 31 1008 70 10000 4.1 90 13:36 28.03.2020
651 Clouds 31 1008 70 10000 4.1 90 13:18 28.03.2020
652 Clouds 32 1008 66 10000 3.6 80 12:37 28.03.2020
653 Clouds 32 1008 66 10000 3.6 80 12:19 28.03.2020
654 Clouds 32 1008 66 10000 4.1 70 11:42 28.03.2020
655 Clouds 32 1009 66 10000 4.6 80 11:21 28.03.2020
656 Clouds 29 1009 66 0 3.89 73 10:43 28.03.2020
657 Clouds 32 1010 66 10000 4.6 80 10:24 28.03.2020
658 Clouds 32 1010 66 10000 4.6 80 09:59 28.03.2020
659 Clouds 32 1010 66 10000 4.6 80 09:39 28.03.2020
660 Clouds 32 1011 66 10000 4.6 80 09:21 28.03.2020
661 Clouds 32 1011 66 10000 4.6 80 08:42 28.03.2020
662 Clouds 32 1011 66 10000 4.6 80 08:42 28.03.2020
663 Clouds 32 1012 66 10000 4.6 80 08:24 28.03.2020
664 Clouds 32 1012 66 10000 4.6 80 07:52 28.03.2020
665 Clouds 32 1012 66 10000 4.6 80 07:34 28.03.2020
666 Clouds 32 1012 66 10000 5.1 80 06:52 28.03.2020
667 Clouds 32 1012 66 10000 5.1 80 06:23 28.03.2020
668 Clouds 30 1012 74 10000 4.6 90 05:26 28.03.2020
669 Clouds 30 1011 74 10000 3.6 100 04:53 28.03.2020
670 Clouds 29 1012 68 0 4.5 82 04:35 28.03.2020
671 Clouds 29 1009 79 10000 3.6 110 02:51 28.03.2020
672 Clouds 29 1009 74 10000 3.6 90 01:47 28.03.2020
673 Clouds 29 1009 74 10000 3.6 110 01:23 28.03.2020
674 Clouds 29 1009 74 10000 3.6 110 00:49 28.03.2020
675 Clouds 29 1009 74 10000 3.6 110 00:24 28.03.2020
676 Clouds 29 1010 79 10000 3.1 100 23:44 27.03.2020
677 Clouds 29 1010 79 10000 3.1 100 23:26 27.03.2020
678 Clouds 29 1010 79 10000 3.1 110 22:57 27.03.2020
679 Clear 29 1009 73 0 4.58 86 22:39 27.03.2020
680 Clouds 29 1011 74 10000 4.6 100 22:20 27.03.2020
681 Clouds 29 1011 74 10000 4.6 100 21:58 27.03.2020
682 Clear 29 1009 73 0 4.58 86 21:40 27.03.2020
683 Clouds 29 1012 79 10000 4.6 90 21:22 27.03.2020
684 Clouds 29 1012 79 10000 4.6 90 20:55 27.03.2020
685 Clear 29 1009 73 0 4.58 86 20:37 27.03.2020
686 Clear 29 1012 72 0 5.24 82 20:19 27.03.2020
687 Clouds 29 1012 71 0 5.53 80 19:43 27.03.2020
688 Clouds 29 1012 74 10000 4.1 110 19:23 27.03.2020
689 Clouds 29 1012 74 10000 4.1 110 18:57 27.03.2020
690 Clouds 29 1012 74 10000 4.1 110 18:39 27.03.2020
691 Clouds 29 1012 74 10000 4.1 110 18:20 27.03.2020
692 Clouds 30 1011 74 10000 4.6 110 17:41 27.03.2020
693 Clouds 30 1011 70 10000 5.1 100 17:21 27.03.2020
694 Clouds 30 1011 70 10000 5.1 100 16:57 27.03.2020
695 Clouds 29 1011 72 0 5.31 76 16:39 27.03.2020
696 Clouds 30 1010 70 10000 5.1 80 16:20 27.03.2020
697 Clouds 30 1010 70 10000 5.1 80 15:43 27.03.2020
698 Clouds 30 1009 70 10000 5.7 110 15:25 27.03.2020
699 Clouds 30 1009 70 10000 5.7 110 14:48 27.03.2020
700 Clouds 31 1009 70 10000 5.1 90 14:27 27.03.2020
701 Clouds 31 1009 70 10000 5.1 90 13:58 27.03.2020
702 Clouds 31 1009 70 10000 5.1 90 13:40 27.03.2020
703 Clouds 31 1009 70 10000 5.1 90 13:21 27.03.2020
704 Clouds 32 1009 66 10000 4.6 90 12:57 27.03.2020
705 Clouds 32 1009 66 10000 4.6 90 12:39 27.03.2020
706 Clouds 32 1009 62 10000 4.6 90 12:19 27.03.2020
707 Clouds 32 1009 62 10000 4.6 90 11:41 27.03.2020
708 Clouds 32 1009 66 10000 4.1 80 11:23 27.03.2020
709 Clouds 32 1009 66 10000 4.1 80 11:23 27.03.2020
710 Clouds 32 1009 66 10000 4.1 80 10:55 27.03.2020
711 Clouds 32 1009 66 10000 4.1 80 10:37 27.03.2020
712 Clouds 32 1009 66 10000 4.1 80 10:19 27.03.2020
713 Clouds 32 1010 66 10000 4.6 90 09:57 27.03.2020
714 Rain 29 1009 73 0 5.56 71 09:37 27.03.2020
715 Clouds 32 1011 70 10000 5.1 90 09:18 27.03.2020
716 Clouds 32 1011 70 10000 5.1 90 08:56 27.03.2020
717 Rain 29 1009 73 0 5.56 71 08:38 27.03.2020
718 Clouds 32 1012 66 10000 4.1 90 08:20 27.03.2020
719 Clouds 32 1012 66 10000 4.1 90 07:50 27.03.2020
720 Clouds 32 1012 66 10000 4.1 90 07:24 27.03.2020
721 Clouds 32 1012 66 10000 4.6 90 06:53 27.03.2020
722 Clouds 32 1012 66 10000 4.6 90 06:35 27.03.2020
723 Clouds 31 1011 70 10000 3.1 100 04:59 27.03.2020
724 Clouds 29 1011 72 0 5.32 85 02:36 27.03.2020
725 Clouds 29 1009 79 10000 2.6 120 01:23 27.03.2020
726 Clouds 29 1009 74 10000 3.6 110 00:50 27.03.2020
727 Clouds 29 1009 74 10000 3.6 110 00:31 27.03.2020
728 Clouds 29 1009 74 10000 3.6 120 23:44 26.03.2020
729 Clouds 29 1009 74 10000 3.6 120 23:23 26.03.2020
730 Clouds 29 1009 74 10000 3.6 120 22:59 26.03.2020
731 Clouds 29 1009 74 10000 3.6 120 22:59 26.03.2020
732 Clear 29 1009 74 0 4.53 94 22:38 26.03.2020
733 Clouds 29 1010 74 10000 4.1 110 22:20 26.03.2020
734 Clouds 29 1010 74 10000 4.1 110 22:20 26.03.2020
735 Clouds 29 1010 74 10000 4.1 110 21:57 26.03.2020
736 Clouds 29 1010 74 10000 4.1 110 21:38 26.03.2020
737 Clouds 29 1010 74 10000 4.1 110 21:20 26.03.2020
738 Clouds 30 1011 74 10000 3.6 110 20:57 26.03.2020
739 Clear 29 1009 74 0 4.53 94 20:38 26.03.2020
740 Clouds 30 1011 70 10000 4.1 100 20:20 26.03.2020
741 Clouds 30 1011 70 10000 4.1 100 19:54 26.03.2020
742 Clouds 30 1011 70 10000 4.1 100 19:36 26.03.2020
743 Clouds 30 1011 70 10000 4.1 100 19:18 26.03.2020
744 Clouds 30 1011 70 10000 4.1 110 18:41 26.03.2020
745 Clouds 30 1010 74 10000 4.6 90 18:23 26.03.2020
746 Clouds 30 1011 70 10000 4.1 110 18:23 26.03.2020
747 Clouds 30 1010 74 10000 4.6 90 17:56 26.03.2020
748 Clouds 30 1010 74 10000 4.6 90 17:37 26.03.2020
749 Clouds 30 1010 74 10000 4.1 90 17:18 26.03.2020
750 Clouds 29 1010 71 0 4.75 78 16:44 26.03.2020
751 Clouds 30 1009 74 10000 3.6 90 16:26 26.03.2020
752 Clouds 30 1009 74 10000 3.6 90 15:58 26.03.2020
753 Clouds 29 1010 71 0 4.75 78 15:39 26.03.2020
754 Clouds 30 1008 74 10000 4.1 80 15:20 26.03.2020
755 Clouds 30 1008 74 10000 4.1 80 14:57 26.03.2020
756 Clouds 29 1010 71 0 4.75 78 14:37 26.03.2020
757 Clouds 31 1007 70 10000 4.1 90 14:18 26.03.2020
758 Clouds 31 1007 70 10000 4.1 90 13:41 26.03.2020
759 Clouds 31 1007 70 10000 4.1 90 13:22 26.03.2020
760 Clouds 30 1007 79 10000 4.1 100 12:56 26.03.2020
761 Clouds 30 1007 79 10000 4.1 100 12:37 26.03.2020
762 Clouds 32 1007 66 10000 4.6 90 12:18 26.03.2020
763 Clouds 32 1007 66 10000 4.6 90 11:44 26.03.2020
764 Clouds 32 1007 66 10000 4.6 90 11:20 26.03.2020
765 Clouds 32 1007 66 10000 4.1 90 10:56 26.03.2020
766 Clear 29 1008 71 0 4.87 61 10:36 26.03.2020
767 Clouds 32 1008 62 10000 3.6 80 10:18 26.03.2020
768 Clouds 32 1008 62 10000 3.6 80 09:42 26.03.2020
769 Clouds 32 1008 62 10000 3.6 80 09:19 26.03.2020
770 Clouds 32 1009 66 10000 4.1 80 08:46 26.03.2020
771 Clouds 32 1010 62 10000 3.6 70 08:27 26.03.2020
772 Clouds 32 1010 62 10000 3.6 70 07:58 26.03.2020
773 Clouds 32 1010 62 10000 3.6 70 07:40 26.03.2020
774 Clouds 32 1010 62 10000 3.6 70 07:20 26.03.2020
775 Clouds 32 1010 62 10000 4.6 80 06:38 26.03.2020
776 Clouds 31 1009 70 10000 4.1 80 05:51 26.03.2020
777 Clouds 29 1008 74 10000 3.1 70 03:52 26.03.2020
778 Clouds 28 1009 69 0 4.24 53 03:33 26.03.2020
779 Clouds 28 1007 78 10000 1.5 70 02:53 26.03.2020
780 Clouds 28 1006 78 10000 2.1 110 01:20 26.03.2020
781 Clouds 28 1006 78 10000 2.1 110 00:33 26.03.2020
782 Clouds 28 1006 78 10000 2.1 120 23:44 25.03.2020
783 Clouds 28 1006 78 10000 2.1 120 23:26 25.03.2020
784 Clouds 28 1007 83 10000 1 0 22:56 25.03.2020
785 Clear 28 1007 67 0 3.19 86 22:38 25.03.2020
786 Clouds 29 1008 79 10000 3.19 86 22:19 25.03.2020
787 Clouds 29 1008 79 10000 3.19 86 21:54 25.03.2020
788 Clear 28 1007 67 0 3.19 86 21:36 25.03.2020
789 Clouds 29 1009 79 10000 3.19 86 21:18 25.03.2020
790 Clear 28 1007 67 0 3.19 86 20:39 25.03.2020
791 Clouds 29 1010 74 10000 2.15 71 20:19 25.03.2020
792 Clouds 29 1010 74 10000 2.26 62 19:56 25.03.2020
793 Clouds 29 1010 74 10000 2.89 70 19:38 25.03.2020
794 Clouds 30 1010 70 10000 2.89 70 19:19 25.03.2020
795 Clouds 30 1010 70 10000 2.26 62 18:43 25.03.2020
796 Clouds 30 1010 70 10000 0.5 0 18:25 25.03.2020
797 Clouds 30 1010 70 10000 0.5 0 17:59 25.03.2020
798 Clouds 30 1010 70 10000 0.5 0 17:41 25.03.2020
799 Clouds 30 1009 70 10000 1 0 17:22 25.03.2020
800 Clouds 30 1009 70 10000 1 0 16:58 25.03.2020
801 Clouds 29 1010 63 0 1.86 43 16:39 25.03.2020
802 Clouds 30 1009 70 10000 0.5 0 16:20 25.03.2020
803 Clouds 30 1009 70 10000 0.5 0 15:43 25.03.2020
804 Clouds 30 1008 70 10000 1.5 350 15:21 25.03.2020
805 Clouds 30 1008 70 10000 1.5 350 14:59 25.03.2020
806 Clouds 29 1010 63 0 1.86 43 14:40 25.03.2020
807 Clouds 31 1007 66 10000 2.6 330 14:20 25.03.2020
808 Clouds 31 1007 66 10000 2.6 330 13:44 25.03.2020
809 Clouds 31 1007 70 10000 1.5 330 13:24 25.03.2020
810 Clouds 31 1007 70 10000 1.5 330 12:39 25.03.2020
811 Clouds 31 1007 70 10000 1.5 330 12:21 25.03.2020
812 Clouds 31 1008 66 10000 1 0 11:59 25.03.2020
813 Clouds 31 1008 66 10000 1 0 11:40 25.03.2020
814 Clouds 31 1008 66 10000 1 0 11:21 25.03.2020
815 Clouds 31 1008 66 10000 1.34 30 10:58 25.03.2020
816 Clouds 29 1008 62 0 1.34 30 10:40 25.03.2020
817 Clouds 29 1008 62 0 1.34 30 10:40 25.03.2020
818 Clouds 32 1009 66 10000 2.1 100 10:19 25.03.2020
819 Clouds 32 1009 66 10000 2.1 100 09:56 25.03.2020
820 Clouds 29 1008 62 0 1.34 30 09:38 25.03.2020
821 Clouds 32 1010 66 10000 2.6 80 09:20 25.03.2020
822 Clouds 29 1008 62 0 1.34 30 08:42 25.03.2020
823 Clouds 29 1008 62 0 1.34 30 08:42 25.03.2020
824 Clouds 32 1010 66 10000 2.1 130 08:24 25.03.2020
825 Clouds 32 1010 66 10000 2.1 130 07:57 25.03.2020
826 Clouds 32 1010 66 10000 2.1 130 07:38 25.03.2020
827 Clouds 32 1010 66 10000 2.1 130 07:18 25.03.2020
828 Clouds 31 1011 66 10000 2.6 130 06:42 25.03.2020
829 Clouds 31 1011 66 10000 2.6 130 06:23 25.03.2020
830 Clouds 31 1010 66 10000 1.5 160 05:47 25.03.2020
831 Clouds 29 1010 64 0 2.35 130 04:46 25.03.2020
832 Clouds 28 1009 78 10000 2.1 150 03:58 25.03.2020
833 Clouds 29 1010 64 0 2.35 130 03:33 25.03.2020
834 Clouds 28 1008 78 10000 2.1 150 01:41 25.03.2020
835 Clouds 28 1007 83 10000 1.5 160 00:51 25.03.2020
836 Clouds 28 1007 83 10000 1.5 160 00:30 25.03.2020
837 Clouds 28 1007 78 10000 2.1 150 23:59 24.03.2020
838 Clouds 28 1007 78 10000 2.1 150 23:40 24.03.2020
839 Clouds 29 1008 74 10000 1.5 110 23:20 24.03.2020
840 Clouds 29 1008 74 10000 1.5 110 22:55 24.03.2020
841 Clouds 29 1007 63 0 2.83 78 22:36 24.03.2020
842 Clouds 28 1008 83 10000 1.5 120 22:18 24.03.2020
843 Clouds 28 1008 83 10000 1.5 120 21:42 24.03.2020
844 Clouds 28 1008 83 10000 1.5 120 21:19 24.03.2020
845 Clouds 28 1009 83 10000 2.6 100 20:59 24.03.2020
846 Clouds 28 1009 83 10000 2.6 100 20:41 24.03.2020
847 Clouds 29 1010 79 10000 0.5 0 20:23 24.03.2020
848 Clouds 29 1010 79 10000 0.5 0 19:48 24.03.2020
849 Clouds 29 1010 79 10000 0.5 0 19:48 24.03.2020
850 Clouds 29 1010 79 10000 0.5 0 19:24 24.03.2020
851 Clouds 28 1010 83 10000 1 0 18:59 24.03.2020
852 Clouds 28 1010 83 10000 1 0 18:40 24.03.2020
853 Clouds 30 1009 74 10000 0.5 0 18:20 24.03.2020
854 Clouds 30 1009 74 10000 0.5 0 18:20 24.03.2020
855 Clouds 30 1009 74 10000 0.5 0 17:59 24.03.2020
856 Clouds 30 1009 74 10000 0.5 0 17:40 24.03.2020
857 Clouds 30 1009 74 10000 0.5 0 17:22 24.03.2020
858 Clouds 30 1009 74 10000 1 0 16:57 24.03.2020
859 Clouds 29 1009 67 0 3.84 56 16:38 24.03.2020
860 Clouds 30 1008 74 10000 1.5 300 16:20 24.03.2020
861 Clouds 30 1008 74 10000 1.5 300 15:44 24.03.2020
862 Clouds 30 1008 74 10000 1.5 300 15:25 24.03.2020
863 Clouds 30 1007 70 10000 2.1 310 14:59 24.03.2020
864 Clouds 30 1007 70 10000 2.1 310 14:40 24.03.2020
865 Clouds 30 1007 70 10000 2.1 310 14:18 24.03.2020
866 Clouds 32 1007 66 10000 1.5 360 13:42 24.03.2020
867 Clouds 32 1007 66 10000 1.5 360 13:23 24.03.2020
868 Clouds 31 1007 70 10000 1.5 310 12:47 24.03.2020
869 Clouds 31 1007 70 10000 1 0 12:28 24.03.2020
870 Clouds 31 1007 70 10000 1 0 11:59 24.03.2020
871 Clouds 31 1007 70 10000 1 0 11:39 24.03.2020
872 Clouds 31 1007 70 10000 1 0 11:19 24.03.2020
873 Clouds 29 1008 64 0 2.97 47 10:42 24.03.2020
874 Clouds 31 1008 74 10000 1.5 280 10:19 24.03.2020
875 Clouds 31 1008 74 10000 1.5 280 09:57 24.03.2020
876 Clouds 29 1008 64 0 2.97 47 09:39 24.03.2020
877 Clouds 31 1010 70 10000 1 0 09:20 24.03.2020
878 Clouds 29 1008 64 0 2.97 47 08:38 24.03.2020
879 Clouds 32 1010 70 10000 1.5 100 08:20 24.03.2020
880 Clouds 32 1010 70 10000 1.5 100 07:47 24.03.2020
881 Clouds 32 1010 70 10000 1.5 100 07:24 24.03.2020
882 Clouds 32 1011 66 10000 0.5 0 06:52 24.03.2020
883 Clouds 32 1011 66 10000 0.5 0 06:25 24.03.2020
884 Clouds 30 1010 74 10000 1 0 04:57 24.03.2020
885 Clouds 28 1010 83 10000 0.5 0 03:48 24.03.2020
886 Clouds 28 1009 83 10000 0.5 0 03:18 24.03.2020
887 Clouds 28 1008 83 10000 1 0 01:45 24.03.2020
888 Clouds 28 1008 83 10000 1.5 350 00:46 24.03.2020
889 Clouds 28 1008 83 10000 1.5 350 00:24 24.03.2020
890 Clouds 29 1008 79 10000 1.5 30 23:44 23.03.2020
891 Clouds 29 1008 79 10000 1.5 30 23:26 23.03.2020
892 Clouds 29 1009 79 10000 1.5 30 22:55 23.03.2020
893 Clouds 29 1009 79 10000 1.5 30 22:55 23.03.2020
894 Clear 28 1008 70 0 3.04 39 22:37 23.03.2020
895 Clouds 29 1009 79 10000 1.5 30 22:19 23.03.2020
896 Clouds 29 1009 79 10000 1.5 30 21:43 23.03.2020
897 Clouds 29 1010 79 10000 2.1 10 21:20 23.03.2020
898 Clouds 29 1010 79 10000 2.1 10 20:58 23.03.2020
899 Clear 28 1008 70 0 3.04 39 20:39 23.03.2020
900 Clouds 29 1011 79 10000 2.1 10 20:21 23.03.2020
901 Clouds 29 1011 79 10000 2.1 10 19:45 23.03.2020
902 Clouds 29 1011 79 10000 2.1 10 19:27 23.03.2020
903 Clouds 29 1010 79 10000 2.6 10 18:59 23.03.2020
904 Clouds 29 1010 79 10000 2.6 10 18:41 23.03.2020
905 Clouds 30 1010 74 10000 1.5 20 18:21 23.03.2020
906 Clouds 30 1010 74 10000 1.5 20 17:44 23.03.2020
907 Clouds 30 1009 74 10000 1 0 17:22 23.03.2020
908 Clouds 30 1009 74 10000 1 0 16:59 23.03.2020
909 Clouds 29 1010 71 0 4.01 47 16:41 23.03.2020
910 Clouds 30 1009 74 10000 2.1 20 16:23 23.03.2020
911 Clouds 30 1009 74 10000 2.1 20 15:42 23.03.2020
912 Clouds 30 1009 74 10000 2.1 10 15:20 23.03.2020
913 Clouds 30 1009 74 10000 2.1 10 14:55 23.03.2020
914 Clouds 30 1009 74 10000 2.1 10 14:36 23.03.2020
915 Clouds 30 1009 74 10000 2.1 10 14:18 23.03.2020
916 Clouds 30 1008 70 10000 2.1 70 13:41 23.03.2020
917 Clouds 30 1008 70 10000 2.1 70 13:22 23.03.2020
918 Clouds 31 1009 70 10000 2.6 90 12:55 23.03.2020
919 Clouds 31 1009 70 10000 2.6 90 12:37 23.03.2020
920 Clouds 31 1009 70 10000 2.1 80 12:19 23.03.2020
921 Clouds 31 1009 70 10000 2.1 80 11:42 23.03.2020
922 Clouds 31 1009 70 10000 2.6 70 11:21 23.03.2020
923 Clouds 31 1009 70 10000 2.6 70 10:58 23.03.2020
924 Clouds 29 1009 67 0 3.4 37 10:39 23.03.2020
925 Clouds 32 1010 66 10000 2.6 60 10:21 23.03.2020
926 Clouds 32 1010 66 10000 2.6 60 09:48 23.03.2020
927 Clouds 32 1010 66 10000 2.6 60 09:21 23.03.2020
928 Clouds 32 1010 66 10000 2.6 60 09:21 23.03.2020
929 Clouds 32 1011 66 10000 2.6 40 08:58 23.03.2020
930 Clouds 29 1009 67 0 3.4 37 08:37 23.03.2020
931 Clouds 29 1012 66 0 3.36 34 08:19 23.03.2020
932 Clouds 29 1012 66 0 3.49 35 07:48 23.03.2020
933 Clouds 31 1012 70 10000 2.1 20 07:29 23.03.2020
934 Clouds 31 1012 70 10000 2.1 20 06:52 23.03.2020
935 Clouds 30 1012 70 10000 2.1 20 06:20 23.03.2020
936 Clouds 30 1012 70 10000 2.1 20 05:34 23.03.2020
937 Clouds 28 1011 83 10000 1.5 30 03:45 23.03.2020
938 Clouds 28 1010 83 10000 2.1 20 02:40 23.03.2020
939 Clear 28 1009 64 0 2.57 42 01:34 23.03.2020
940 Clouds 28 1009 78 10000 2.6 10 00:43 23.03.2020
941 Clouds 28 1009 78 10000 1.5 30 23:53 22.03.2020
942 Clouds 28 1009 78 10000 1.5 30 23:27 22.03.2020
943 Clouds 28 1010 78 10000 2.1 20 22:59 22.03.2020
944 Clear 28 1009 67 0 3.19 37 22:39 22.03.2020
945 Clouds 29 1011 74 10000 2.1 20 22:18 22.03.2020
946 Clear 28 1009 67 0 3.19 37 21:40 22.03.2020
947 Clouds 29 1011 74 10000 2.1 20 21:20 22.03.2020
948 Clouds 29 1011 74 10000 2.1 20 20:58 22.03.2020
949 Clear 28 1009 67 0 3.19 37 20:39 22.03.2020
950 Clouds 29 1012 74 10000 1.5 40 20:21 22.03.2020
951 Clouds 29 1012 74 10000 1.5 40 19:55 22.03.2020
952 Clouds 29 1012 74 10000 1.5 40 19:37 22.03.2020
953 Clouds 29 1012 74 10000 1.5 40 19:18 22.03.2020
954 Clouds 29 1012 74 10000 2.1 50 18:56 22.03.2020
955 Clouds 29 1012 74 10000 2.1 50 18:37 22.03.2020
956 Clouds 29 1012 74 10000 2.1 50 18:18 22.03.2020
957 Clouds 29 1012 74 10000 2.1 50 17:56 22.03.2020
958 Clouds 29 1012 74 10000 2.1 50 17:36 22.03.2020
959 Clouds 29 1012 74 10000 2.1 50 17:36 22.03.2020
960 Clouds 29 1012 74 10000 2.1 50 17:36 22.03.2020
961 Clouds 29 1012 74 10000 2.1 50 17:18 22.03.2020
962 Clouds 29 1011 74 10000 2.1 60 16:54 22.03.2020
963 Clouds 29 1011 68 0 3.88 39 16:36 22.03.2020
964 Clouds 29 1010 74 10000 1.5 80 16:18 22.03.2020
965 Clouds 29 1011 68 0 3.88 39 15:39 22.03.2020
966 Clouds 30 1009 70 10000 1.5 80 14:55 22.03.2020
967 Clouds 29 1011 68 0 3.88 39 14:37 22.03.2020
968 Clouds 31 1009 66 10000 1.5 30 14:18 22.03.2020
969 Clouds 31 1009 66 10000 1.5 30 13:41 22.03.2020
970 Clouds 31 1009 66 10000 1.5 30 13:19 22.03.2020
971 Clouds 31 1009 70 10000 2.1 80 12:47 22.03.2020
972 Clouds 31 1009 70 10000 2.1 80 12:23 22.03.2020
973 Clouds 31 1009 66 10000 2.6 80 11:59 22.03.2020
974 Clouds 31 1009 66 10000 2.6 80 11:41 22.03.2020
975 Clouds 31 1009 66 10000 2.6 80 11:22 22.03.2020
976 Clouds 31 1010 70 10000 1.5 350 10:54 22.03.2020
977 Clouds 29 1009 65 0 2.61 43 10:36 22.03.2020
978 Clouds 31 1011 70 10000 2.1 350 10:18 22.03.2020
979 Clouds 31 1011 70 10000 2.1 350 09:41 22.03.2020
980 Clouds 32 1012 66 10000 2.1 70 09:19 22.03.2020
981 Clouds 32 1012 66 10000 2.1 70 08:43 22.03.2020
982 Clouds 31 1012 70 10000 2.6 80 08:24 22.03.2020
983 Clouds 31 1012 70 10000 2.6 80 07:51 22.03.2020
984 Clouds 31 1012 70 10000 2.6 80 07:23 22.03.2020
985 Clouds 31 1012 70 10000 2.6 80 06:35 22.03.2020
986 Clouds 31 1012 70 10000 2.6 80 05:31 22.03.2020
987 Clouds 28 1010 83 10000 2.6 90 03:25 22.03.2020
988 Clouds 28 1010 83 10000 2.1 90 01:27 22.03.2020
989 Clouds 28 1010 83 10000 2.1 90 00:47 22.03.2020
990 Clouds 28 1010 83 10000 2.1 90 00:25 22.03.2020
991 Clouds 28 1010 83 10000 2.1 80 23:43 21.03.2020
992 Clouds 28 1010 83 10000 2.1 80 23:19 21.03.2020
993 Clouds 28 1010 83 10000 2.1 80 23:19 21.03.2020
994 Clouds 28 1010 83 10000 3.1 90 22:55 21.03.2020
995 Clouds 28 1010 73 0 3.58 63 22:37 21.03.2020
996 Clouds 29 1011 79 10000 2.6 80 22:18 21.03.2020
997 Clouds 28 1010 73 0 3.58 63 21:42 21.03.2020
998 Clouds 29 1012 79 10000 3.1 90 21:23 21.03.2020
999 Clouds 29 1012 79 10000 3.1 90 20:59 21.03.2020
1000 Clouds 29 1012 79 10000 3.1 90 20:41 21.03.2020
1001 Clouds 29 1013 79 10000 3.1 90 20:19 21.03.2020
1002 Clouds 29 1013 79 10000 3.1 90 19:44 21.03.2020
1003 Clouds 29 1013 79 10000 3.1 90 19:25 21.03.2020
1004 Clouds 29 1012 83 10000 2.6 80 18:58 21.03.2020
1005 Clouds 29 1012 83 10000 2.6 80 18:39 21.03.2020
1006 Clouds 29 1012 83 10000 2.6 80 18:20 21.03.2020
1007 Clouds 29 1012 83 10000 2.1 80 17:55 21.03.2020
1008 Clouds 29 1012 83 10000 2.1 80 17:37 21.03.2020
1009 Clouds 29 1011 79 10000 2.6 90 17:18 21.03.2020
1010 Clouds 29 1011 75 0 3.47 75 16:41 21.03.2020
1011 Clouds 29 1010 79 10000 2.6 80 16:21 21.03.2020
1012 Clouds 29 1010 79 10000 2.6 80 16:20 21.03.2020
1013 Clouds 29 1010 79 10000 2.6 80 15:56 21.03.2020
1014 Clouds 29 1011 75 0 3.47 75 15:37 21.03.2020
1015 Clouds 30 1010 74 10000 3.6 90 15:19 21.03.2020
1016 Clouds 30 1010 74 10000 3.6 90 14:54 21.03.2020
1017 Clouds 29 1011 75 0 3.47 75 14:36 21.03.2020
1018 Clouds 29 1011 75 0 3.47 75 14:36 21.03.2020
1019 Clouds 30 1009 74 10000 5.1 90 14:18 21.03.2020
1020 Clouds 30 1009 74 10000 5.1 90 13:57 21.03.2020
1021 Clouds 30 1009 74 10000 5.1 90 13:38 21.03.2020
1022 Clouds 30 1009 74 10000 5.1 90 13:19 21.03.2020
1023 Clouds 30 1009 74 10000 3.6 80 12:40 21.03.2020
1024 Clouds 31 1009 70 10000 4.1 80 12:20 21.03.2020
1025 Clouds 31 1009 70 10000 4.1 80 11:59 21.03.2020
1026 Clouds 31 1009 70 10000 4.1 80 11:39 21.03.2020
1027 Clouds 31 1010 74 10000 4.6 80 11:19 21.03.2020
1028 Clouds 31 1010 74 10000 4.6 80 11:19 21.03.2020
1029 Clouds 31 1010 74 10000 4.6 80 10:57 21.03.2020
1030 Clouds 31 1010 74 10000 4.6 80 10:57 21.03.2020
1031 Clouds 29 1010 70 0 2.33 55 10:39 21.03.2020
1032 Clouds 32 1011 66 10000 2.1 90 10:21 21.03.2020
1033 Clouds 32 1011 66 10000 2.1 90 10:20 21.03.2020
1034 Clouds 32 1011 66 10000 2.1 90 09:58 21.03.2020
1035 Clouds 29 1010 70 0 2.33 55 09:38 21.03.2020
1036 Clouds 32 1012 66 10000 2.1 90 09:20 21.03.2020
1037 Clouds 32 1012 66 10000 2.1 90 08:55 21.03.2020
1038 Clouds 29 1010 70 0 2.33 55 08:37 21.03.2020
1039 Clouds 32 1013 70 10000 2.1 90 08:18 21.03.2020
1040 Clouds 32 1013 70 10000 2.1 90 07:32 21.03.2020
1041 Clouds 31 1013 70 10000 2.6 90 06:49 21.03.2020
1042 Clouds 31 1013 70 10000 2.6 90 06:29 21.03.2020
1043 -273 0 0 0 0 0 05:50 21.03.2020
1044 Clouds 31 1013 70 10000 2.1 90 05:23 21.03.2020
1045 Clouds 28 1012 73 0 3.66 42 03:38 21.03.2020
1046 Clouds 28 1012 73 0 3.66 42 02:36 21.03.2020
1047 Clouds 28 1010 75 0 3.45 27 01:42 21.03.2020
1048 Clouds 28 1010 88 10000 0.5 0 01:21 21.03.2020
1049 Clouds 28 1010 88 10000 0.5 0 00:38 21.03.2020
1050 Clouds 28 1010 88 10000 1 0 23:59 20.03.2020
1051 Clouds 28 1010 88 10000 1 0 23:41 20.03.2020
1052 Clouds 28 1010 88 10000 1 0 23:20 20.03.2020
1053 Clouds 28 1010 76 0 3.67 35 22:43 20.03.2020
1054 Clouds 28 1011 88 10000 1 0 22:24 20.03.2020
1055 Clouds 28 1011 88 10000 1 0 21:58 20.03.2020
1056 Clouds 28 1010 76 0 3.67 35 21:39 20.03.2020
1057 Clouds 28 1012 88 10000 1 0 21:19 20.03.2020
1058 Clouds 28 1012 88 10000 1 0 20:57 20.03.2020
1059 Clouds 28 1010 76 0 3.67 35 20:39 20.03.2020
1060 Clouds 28 1012 88 10000 1.5 330 20:18 20.03.2020
1061 Clouds 28 1012 88 10000 1.5 330 19:46 20.03.2020
1062 Clouds 28 1012 88 10000 1.5 330 19:19 20.03.2020
1063 Clouds 28 1012 88 10000 1.5 360 18:56 20.03.2020
1064 Clouds 28 1012 88 10000 1.5 360 18:37 20.03.2020
1065 Clouds 28 1012 88 10000 2.6 330 18:19 20.03.2020
1066 Clouds 28 1012 88 10000 2.6 330 17:41 20.03.2020
1067 Clouds 28 1011 88 10000 2.1 320 17:22 20.03.2020
1068 Clouds 28 1011 88 10000 2.1 320 16:59 20.03.2020
1069 Clouds 29 1012 75 0 4.29 61 16:41 20.03.2020
1070 Clouds 29 1010 79 10000 1.5 70 16:20 20.03.2020
1071 Clouds 29 1010 79 10000 1.5 70 15:44 20.03.2020
1072 Clouds 29 1010 79 10000 2.1 80 15:22 20.03.2020
1073 Clouds 29 1010 79 10000 2.1 80 14:58 20.03.2020
1074 Clouds 29 1010 79 10000 2.1 80 14:58 20.03.2020
1075 Clouds 29 1012 75 0 4.29 61 14:40 20.03.2020
1076 Clouds 29 1009 79 10000 2.6 70 14:20 20.03.2020
1077 Clouds 29 1009 79 10000 2.6 70 13:48 20.03.2020
1078 Clouds 29 1009 79 10000 2.6 70 13:21 20.03.2020
1079 Clouds 30 1010 74 10000 2.1 80 12:58 20.03.2020
1080 Clouds 30 1010 74 10000 2.1 80 12:37 20.03.2020
1081 Clouds 30 1010 74 10000 2.1 80 12:19 20.03.2020
1082 Clouds 30 1010 74 10000 2.1 80 11:39 20.03.2020
1083 Clouds 30 1011 74 10000 2.1 150 11:20 20.03.2020
1084 Clouds 30 1011 74 10000 2.1 150 10:54 20.03.2020
1085 Rain 30 1010 64 0 2.66 81 10:36 20.03.2020
1086 Clouds 30 1012 74 10000 2.6 210 10:18 20.03.2020
1087 Clouds 30 1012 74 10000 2.6 210 09:44 20.03.2020
1088 Clouds 28 1013 83 10000 3.6 190 09:20 20.03.2020
1089 Clouds 28 1013 83 10000 3.6 190 08:43 20.03.2020
1090 Clouds 27 1014 88 10000 1.5 210 08:23 20.03.2020
1091 Clouds 27 1014 88 10000 1.5 210 07:57 20.03.2020
1092 Clouds 27 1014 88 10000 1.5 210 07:38 20.03.2020
1093 Clouds 27 1014 88 10000 1.5 210 07:19 20.03.2020
1094 Clouds 27 1014 88 10000 1.5 210 07:19 20.03.2020
1095 Clouds 29 1014 74 10000 4.6 140 06:42 20.03.2020
1096 Clouds 29 1014 83 10000 1 0 05:57 20.03.2020
1097 Clouds 30 1013 74 10000 1 0 04:27 20.03.2020
1098 Thunderstorm 28 1011 78 10000 0.5 0 02:43 20.03.2020
1099 Clouds 29 1010 83 10000 0.5 0 01:50 20.03.2020
1100 Clouds 29 1010 83 10000 1.5 80 00:38 20.03.2020
1101 Clouds 29 1010 83 10000 2.1 110 23:58 19.03.2020
1102 Clouds 29 1010 83 10000 2.1 110 23:40 19.03.2020
1103 Clouds 29 1011 83 10000 1 0 23:19 19.03.2020
1104 Clouds 29 1011 83 10000 1 0 23:19 19.03.2020
1105 Rain 29 1010 75 0 3.25 64 22:40 19.03.2020
1106 Clouds 29 1011 83 10000 2.1 110 22:22 19.03.2020
1107 Clouds 29 1011 83 10000 2.1 110 21:58 19.03.2020
1108 Clouds 29 1011 83 10000 2.1 110 21:38 19.03.2020
1109 Clouds 29 1011 83 10000 2.1 110 21:18 19.03.2020
1110 Clouds 29 1012 83 10000 2.1 40 20:43 19.03.2020
1111 Clouds 29 1012 83 10000 2.1 40 20:25 19.03.2020
1112 Clouds 29 1013 83 10000 3.1 90 19:59 19.03.2020
1113 Clouds 29 1013 83 10000 3.1 90 19:38 19.03.2020
1114 Clouds 29 1013 83 10000 3.1 90 19:20 19.03.2020
1115 Rain 29 1013 76 0 3.65 100 18:57 19.03.2020
1116 Rain 29 1013 76 0 3.65 100 18:57 19.03.2020
1117 Rain 29 1013 76 0 3.65 100 18:38 19.03.2020
1118 Clouds 29 1013 83 10000 3.1 90 18:20 19.03.2020
1119 Clouds 29 1013 83 10000 3.1 90 17:43 19.03.2020
1120 Thunderstorm 29 1012 83 10000 3.1 80 17:20 19.03.2020
1121 Thunderstorm 29 1012 83 10000 3.1 80 16:58 19.03.2020
1122 Clouds 29 1011 77 0 3.64 94 16:39 19.03.2020
1123 Clouds 30 1011 79 10000 3.6 90 16:21 19.03.2020
1124 Clouds 30 1011 79 10000 3.6 90 15:42 19.03.2020
1125 Clouds 30 1011 79 10000 3.6 90 15:23 19.03.2020
1126 Clouds 31 1010 74 10000 3.6 110 14:43 19.03.2020
1127 Clouds 31 1010 74 10000 3.6 110 14:22 19.03.2020
1128 Clouds 31 1010 74 10000 3.1 100 13:56 19.03.2020
1129 Clouds 31 1010 74 10000 3.1 100 13:37 19.03.2020
1130 Clouds 31 1010 74 10000 3.1 100 13:18 19.03.2020
1131 Clouds 32 1009 70 10000 4.6 80 12:40 19.03.2020
1132 Clouds 32 1009 70 10000 5.1 90 12:22 19.03.2020
1133 Clouds 32 1009 70 10000 5.1 90 11:57 19.03.2020
1134 Clouds 32 1009 70 10000 5.1 90 11:38 19.03.2020
1135 Clouds 33 1009 70 10000 5.1 100 11:19 19.03.2020
1136 Rain 29 1010 66 0 1.5 83 10:41 19.03.2020
1137 Clouds 32 1011 70 10000 4.6 90 10:20 19.03.2020
1138 Clouds 32 1011 70 10000 4.6 90 09:57 19.03.2020
1139 Clouds 32 1011 70 10000 4.6 90 09:37 19.03.2020
1140 Clouds 32 1011 70 10000 4.6 90 09:18 19.03.2020
1141 Clouds 32 1012 70 10000 4.6 90 08:42 19.03.2020
1142 Clouds 32 1012 70 10000 4.6 90 08:42 19.03.2020
1143 Clouds 32 1012 70 10000 4.6 110 08:21 19.03.2020
1144 Clouds 32 1012 70 10000 4.6 110 07:46 19.03.2020
1145 Clouds 32 1012 70 10000 4.6 110 07:28 19.03.2020
1146 Clouds 32 1013 70 10000 4.6 110 06:48 19.03.2020
1147 Clouds 31 1012 74 10000 4.6 110 05:49 19.03.2020
1148 Clouds 31 1012 74 10000 4.6 110 04:58 19.03.2020
1149 Rain 29 1011 78 0 4.68 127 04:40 19.03.2020
1150 Clouds 29 1010 83 10000 5.7 100 02:50 19.03.2020
1151 Clouds 29 1010 83 10000 5.1 100 01:21 19.03.2020
1152 Clouds 29 1009 83 10000 5.1 100 00:28 19.03.2020
1153 Clouds 29 1009 79 10000 5.1 110 23:51 18.03.2020
1154 Clouds 29 1009 79 10000 5.1 110 23:30 18.03.2020
1155 Clouds 29 1009 79 10000 5.1 110 23:30 18.03.2020
1156 Clouds 29 1009 79 10000 5.1 110 23:30 18.03.2020
1157 Clouds 29 1009 83 10000 4.6 100 22:56 18.03.2020
1158 Rain 29 1010 78 0 4.53 113 22:38 18.03.2020
1159 Clouds 29 1010 79 10000 5.7 110 22:20 18.03.2020
1160 Clouds 29 1010 79 10000 5.7 110 21:42 18.03.2020
1161 Clouds 29 1010 79 10000 5.7 110 21:21 18.03.2020
1162 Clouds 30 1011 74 10000 4.1 110 20:59 18.03.2020
1163 Clouds 30 1011 74 10000 4.1 110 20:59 18.03.2020
1164 Clouds 30 1011 74 10000 4.1 110 20:40 18.03.2020
1165 Clouds 29 1012 74 10000 4.6 110 20:20 18.03.2020
1166 Clouds 29 1012 74 10000 4.6 110 19:58 18.03.2020
1167 Clouds 29 1012 74 10000 4.6 110 19:39 18.03.2020
1168 Clouds 29 1012 74 10000 4.6 110 19:20 18.03.2020
1169 Clouds 29 1012 79 10000 5.7 90 18:41 18.03.2020
1170 Clouds 30 1012 79 10000 4.1 90 18:21 18.03.2020
1171 Clouds 30 1012 79 10000 4.1 90 18:21 18.03.2020
1172 Clouds 30 1012 79 10000 4.1 90 17:58 18.03.2020
1173 Clouds 30 1012 79 10000 4.1 90 17:40 18.03.2020
1174 Clouds 30 1011 74 10000 5.1 90 17:21 18.03.2020
1175 Clouds 30 1011 74 10000 5.1 90 16:58 18.03.2020
1176 Clear 29 1011 77 0 5.39 103 16:39 18.03.2020
1177 Clouds 30 1010 79 10000 5.7 90 16:20 18.03.2020
1178 Clouds 30 1010 79 10000 5.7 90 15:45 18.03.2020
1179 Clouds 30 1010 79 10000 5.7 90 15:20 18.03.2020
1180 Clouds 30 1010 79 10000 4.6 90 14:45 18.03.2020
1181 Clouds 30 1010 79 10000 4.6 90 14:22 18.03.2020
1182 Clouds 31 1009 70 10000 5.1 80 13:59 18.03.2020
1183 Clouds 31 1009 70 10000 5.1 80 13:37 18.03.2020
1184 Clouds 31 1009 70 10000 5.1 80 13:19 18.03.2020
1185 Clouds 32 1009 70 10000 4.6 90 12:41 18.03.2020
1186 Clouds 31 1009 74 10000 5.1 80 12:20 18.03.2020
1187 Clouds 31 1009 74 10000 5.1 80 11:40 18.03.2020
1188 Clouds 32 1009 75 10000 5.1 70 11:21 18.03.2020
1189 Clouds 32 1009 75 10000 5.1 70 10:58 18.03.2020
1190 Clear 29 1009 77 0 5.24 101 10:39 18.03.2020
1191 Clouds 32 1010 70 10000 5.1 80 10:20 18.03.2020
1192 Clouds 32 1010 70 10000 5.1 80 09:56 18.03.2020
1193 Clear 29 1009 77 0 5.24 101 09:38 18.03.2020
1194 Clouds 32 1011 70 10000 5.7 90 09:20 18.03.2020
1195 Clear 29 1009 77 0 5.24 101 08:39 18.03.2020
1196 Clouds 32 1012 70 10000 6.2 90 08:21 18.03.2020
1197 Clouds 32 1012 70 10000 6.2 90 07:49 18.03.2020
1198 Clouds 32 1012 70 10000 6.2 90 07:30 18.03.2020
1199 Clouds 30 1012 79 10000 7.2 90 06:50 18.03.2020
1200 Clouds 31 1012 74 10000 7.7 90 06:24 18.03.2020
1201 Clouds 31 1012 74 10000 7.7 90 05:36 18.03.2020
1202 Clouds 30 1012 79 10000 7.2 100 04:29 18.03.2020
1203 Clouds 29 1010 83 10000 6.2 110 02:51 18.03.2020
1204 Clouds 30 1009 79 10000 6.2 110 02:23 18.03.2020
1205 Clouds 30 1009 74 10000 7.2 110 01:29 18.03.2020
1206 Clouds 30 1009 79 10000 8.7 100 00:26 18.03.2020
1207 Clouds 30 1009 79 10000 8.7 100 23:59 17.03.2020
1208 Clouds 30 1009 79 10000 8.7 100 23:40 17.03.2020
1209 Clouds 30 1009 74 10000 8.2 100 23:19 17.03.2020
1210 Clouds 30 1009 74 10000 8.2 100 22:42 17.03.2020
1211 Clouds 30 1009 74 10000 8.2 100 22:23 17.03.2020
1212 Clouds 30 1010 79 10000 8.2 100 21:42 17.03.2020
1213 Clouds 29 1011 83 10000 8.7 100 21:22 17.03.2020
1214 Clouds 29 1011 83 10000 8.7 100 20:56 17.03.2020
1215 Clouds 29 1009 79 0 9.07 91 20:37 17.03.2020
1216 Clouds 30 1011 79 10000 8.7 90 20:18 17.03.2020
1217 Clouds 30 1011 79 10000 8.7 90 19:41 17.03.2020
1218 Clouds 30 1012 79 10000 8.2 90 19:18 17.03.2020
1219 Clouds 30 1012 79 10000 8.2 90 18:56 17.03.2020
1220 Clouds 30 1012 79 10000 8.2 90 18:38 17.03.2020
1221 Clouds 30 1011 74 10000 9.3 80 18:20 17.03.2020
1222 Clouds 30 1011 74 10000 9.3 80 17:41 17.03.2020
1223 Clouds 30 1011 74 10000 9.3 80 17:23 17.03.2020
1224 Clouds 30 1011 74 10000 7.7 80 16:57 17.03.2020
1225 Rain 29 1011 78 0 7.33 79 16:39 17.03.2020
1226 Clouds 30 1010 79 10000 6.7 80 16:18 17.03.2020
1227 Clouds 30 1010 79 10000 6.7 80 15:44 17.03.2020
1228 Clouds 30 1009 79 10000 5.7 90 15:22 17.03.2020
1229 Clouds 30 1009 79 10000 5.7 90 14:44 17.03.2020
1230 Clouds 32 1009 70 10000 7.2 80 14:23 17.03.2020
1231 Clouds 32 1009 70 10000 7.2 80 13:56 17.03.2020
1232 Clouds 32 1009 70 10000 7.2 80 13:38 17.03.2020
1233 Clouds 32 1009 70 10000 7.2 80 13:20 17.03.2020
1234 Clouds 32 1008 70 10000 7.7 80 12:42 17.03.2020
1235 Clouds 32 1008 70 10000 7.7 80 12:22 17.03.2020
1236 Clouds 32 1009 70 10000 7.2 80 11:47 17.03.2020
1237 Clouds 32 1009 70 10000 7.2 80 11:29 17.03.2020
1238 Clouds 32 1009 70 10000 6.7 80 10:58 17.03.2020
1239 Clouds 29 1009 77 0 6.42 68 10:39 17.03.2020
1240 Clouds 32 1010 70 10000 6.2 70 10:21 17.03.2020
1241 Clouds 32 1010 70 10000 6.2 70 09:59 17.03.2020
1242 Clouds 32 1010 70 10000 6.2 70 09:40 17.03.2020
1243 Clouds 32 1010 70 10000 6.2 70 09:19 17.03.2020
1244 Clouds 32 1011 70 10000 6.7 70 08:48 17.03.2020
1245 Clouds 32 1012 66 10000 6.2 80 08:23 17.03.2020
1246 Clouds 32 1012 66 10000 6.2 80 07:50 17.03.2020
1247 Clouds 32 1012 66 10000 6.2 80 07:28 17.03.2020
1248 Clouds 31 1012 70 10000 6.2 80 06:59 17.03.2020
1249 Clouds 31 1012 70 10000 6.2 80 06:34 17.03.2020
1250 Clouds 31 1012 74 10000 5.7 80 05:56 17.03.2020
1251 Clouds 29 1011 79 10000 4.6 80 03:56 17.03.2020
1252 Clouds 29 1012 78 0 5.61 79 02:46 17.03.2020
1253 Clouds 29 1010 79 10000 3.6 80 01:44 17.03.2020
1254 Clouds 29 1010 79 10000 3.6 80 01:25 17.03.2020
1255 Clouds 29 1010 83 10000 4.1 70 00:38 17.03.2020
1256 Clouds 29 1010 79 10000 4.1 90 23:48 16.03.2020
1257 Clouds 29 1010 79 10000 4.1 90 23:30 16.03.2020
1258 Clouds 28 1010 79 0 4.63 73 22:41 16.03.2020
1259 Clouds 29 1011 79 10000 4.1 50 22:23 16.03.2020
1260 Clouds 29 1011 79 10000 4.1 50 21:58 16.03.2020
1261 Clouds 29 1011 79 10000 4.1 50 21:40 16.03.2020
1262 Clouds 29 1011 79 10000 4.1 50 21:21 16.03.2020
1263 Clouds 29 1011 83 10000 4.6 90 20:56 16.03.2020
1264 Clouds 28 1010 79 0 4.63 73 20:37 16.03.2020
1265 Clouds 29 1012 83 10000 3.1 70 20:18 16.03.2020
1266 Clouds 29 1012 83 10000 3.1 70 19:41 16.03.2020
1267 Clouds 29 1012 83 10000 3.1 70 19:20 16.03.2020
1268 Clouds 30 1012 74 10000 5.1 70 18:43 16.03.2020
1269 Clouds 30 1012 74 10000 5.1 70 18:21 16.03.2020
1270 Clouds 30 1011 70 10000 5.1 70 17:55 16.03.2020
1271 Clouds 30 1011 70 10000 5.1 70 17:37 16.03.2020
1272 Clouds 30 1011 70 10000 6.2 70 17:18 16.03.2020
1273 Clear 29 1011 74 0 7.05 49 16:44 16.03.2020
1274 Clouds 30 1010 74 10000 5.1 70 16:24 16.03.2020
1275 Clouds 30 1010 74 10000 5.1 70 15:45 16.03.2020
1276 Clouds 30 1009 70 10000 5.7 60 15:27 16.03.2020
1277 Clouds 30 1009 70 10000 5.7 60 14:49 16.03.2020
1278 Clouds 31 1009 66 10000 6.2 60 14:27 16.03.2020
1279 Clouds 31 1009 66 10000 6.2 60 13:58 16.03.2020
1280 Clouds 31 1009 66 10000 6.2 60 13:40 16.03.2020
1281 Clouds 31 1009 66 10000 6.2 60 13:21 16.03.2020
1282 Clouds 31 1008 70 10000 5.7 50 12:44 16.03.2020
1283 Clouds 31 1008 70 10000 5.7 50 12:23 16.03.2020
1284 Clouds 32 1008 66 10000 6.7 70 11:47 16.03.2020
1285 Clouds 32 1008 66 10000 6.7 70 11:28 16.03.2020
1286 Clouds 32 1009 66 10000 6.2 70 10:56 16.03.2020
1287 Clouds 29 1009 73 0 5.98 52 10:37 16.03.2020
1288 Clouds 32 1010 70 10000 5.7 70 10:18 16.03.2020
1289 Clouds 29 1009 73 0 5.98 52 09:42 16.03.2020
1290 Clouds 32 1011 70 10000 4.6 70 09:21 16.03.2020
1291 Clouds 32 1011 70 10000 4.6 70 08:52 16.03.2020
1292 Clouds 32 1011 66 10000 4.1 80 08:25 16.03.2020
1293 Clouds 32 1011 66 10000 4.1 80 08:25 16.03.2020
1294 Clouds 32 1011 66 10000 4.1 80 07:48 16.03.2020
1295 Clouds 32 1011 66 10000 4.1 80 07:25 16.03.2020
1296 Clouds 31 1012 74 10000 3.1 80 06:52 16.03.2020
1297 Clouds 31 1012 74 10000 3.1 80 06:24 16.03.2020
1298 Clouds 30 1011 74 10000 2.6 70 04:55 16.03.2020
1299 Clouds 28 1010 83 10000 2.6 80 02:42 16.03.2020
1300 Clouds 28 1009 78 10000 2.6 90 00:52 16.03.2020
1301 Clouds 28 1009 78 10000 2.6 90 00:33 16.03.2020
1302 Clouds 28 1009 78 10000 3.1 80 23:46 15.03.2020
1303 Clouds 28 1009 78 10000 3.1 80 23:20 15.03.2020
1304 Clouds 28 1010 78 10000 3.1 90 22:43 15.03.2020
1305 Clouds 29 1010 74 10000 3.1 90 22:23 15.03.2020
1306 Clouds 29 1010 74 10000 3.1 90 21:58 15.03.2020
1307 Clear 29 1009 68 0 2.3 79 21:38 15.03.2020
1308 Clouds 29 1011 74 10000 4.1 90 21:18 15.03.2020
1309 Clouds 29 1011 74 10000 4.1 90 20:42 15.03.2020
1310 Clouds 29 1012 74 10000 3.6 80 20:21 15.03.2020
1311 Clouds 29 1012 74 10000 3.6 80 19:58 15.03.2020
1312 Clear 29 1012 69 0 3.49 71 19:39 15.03.2020
1313 Clouds 30 1012 70 10000 3.6 70 19:20 15.03.2020
1314 Clouds 30 1012 70 10000 3.6 70 18:55 15.03.2020
1315 Clouds 30 1012 70 10000 3.6 70 18:37 15.03.2020
1316 Clouds 30 1012 70 10000 3.6 70 18:19 15.03.2020
1317 Clouds 29 1011 74 10000 4.1 70 17:41 15.03.2020
1318 Clouds 29 1011 74 10000 4.1 70 17:21 15.03.2020
1319 Clouds 29 1010 74 10000 4.1 60 16:58 15.03.2020
1320 Clear 29 1010 70 0 4.02 59 16:39 15.03.2020
1321 Clouds 30 1009 70 10000 4.1 70 16:21 15.03.2020
1322 Clouds 30 1009 70 10000 4.1 70 15:46 15.03.2020
1323 Clouds 30 1009 70 10000 4.6 70 15:28 15.03.2020
1324 Clouds 30 1009 70 10000 4.6 70 14:58 15.03.2020
1325 Clouds 30 1009 70 10000 4.6 70 14:38 15.03.2020
1326 Clouds 30 1009 70 10000 4.6 70 14:19 15.03.2020
1327 Clouds 31 1008 66 10000 4.6 60 13:55 15.03.2020
1328 Clouds 31 1008 66 10000 4.6 60 13:55 15.03.2020
1329 Clouds 31 1008 66 10000 4.6 60 13:37 15.03.2020
1330 Clouds 31 1008 66 10000 4.6 60 13:18 15.03.2020
1331 Clouds 31 1008 66 10000 4.6 60 13:18 15.03.2020
1332 Rain 29 1008 72 0 4.69 38 12:40 15.03.2020
1333 Clouds 32 1008 66 10000 4.6 70 12:21 15.03.2020
1334 Clouds 32 1008 66 10000 4.6 70 11:43 15.03.2020
1335 Clouds 32 1008 66 10000 4.6 70 11:24 15.03.2020
1336 Clouds 31 1008 66 10000 5.1 70 10:59 15.03.2020
1337 Rain 29 1009 75 0 4.96 41 10:39 15.03.2020
1338 Clouds 32 1009 66 10000 4.1 80 10:21 15.03.2020
1339 Clouds 32 1009 66 10000 4.1 80 09:57 15.03.2020
1340 Clouds 32 1009 66 10000 4.1 80 09:36 15.03.2020
1341 Clouds 32 1009 66 10000 4.1 80 09:18 15.03.2020
1342 Clouds 31 1010 70 10000 3.6 80 08:40 15.03.2020
1343 Clouds 32 1011 66 10000 4.6 80 08:19 15.03.2020
1344 Clouds 32 1011 66 10000 4.6 80 07:45 15.03.2020
1345 -273 0 0 0 0 0 07:21 15.03.2020
1346 Clouds 32 1011 62 10000 4.1 80 06:36 15.03.2020
1347 Clouds 31 1011 70 10000 3.6 50 05:46 15.03.2020
1348 Clouds 30 1010 74 10000 3.1 70 04:55 15.03.2020
1349 Rain 29 1011 75 0 3.53 60 04:33 15.03.2020
1350 Clouds 28 1010 83 10000 2.1 90 03:59 15.03.2020
1351 Clouds 28 1009 83 10000 1.5 90 02:54 15.03.2020
1352 Clouds 28 1008 83 10000 2.1 90 02:21 15.03.2020
1353 Clouds 28 1008 83 10000 2.1 90 00:57 15.03.2020
1354 Clouds 28 1008 83 10000 2.1 90 00:39 15.03.2020
1355 Clouds 28 1008 83 10000 2.1 100 00:18 15.03.2020
1356 Clouds 28 1008 83 10000 2.1 100 23:38 14.03.2020
1357 Clouds 28 1008 83 10000 2.1 100 23:19 14.03.2020
1358 Clouds 28 1009 83 10000 2.1 90 22:55 14.03.2020
1359 Clouds 29 1008 72 0 3.62 86 22:37 14.03.2020
1360 Clouds 29 1009 79 10000 3.1 100 22:19 14.03.2020
1361 Clouds 29 1009 79 10000 3.1 100 21:54 14.03.2020
1362 Clouds 29 1008 72 0 3.62 86 21:36 14.03.2020
1363 Clouds 29 1010 79 10000 2.6 90 21:18 14.03.2020
1364 Clouds 29 1010 79 10000 2.6 90 20:55 14.03.2020
1365 Clouds 29 1008 72 0 3.62 86 20:36 14.03.2020
1366 Clouds 29 1011 79 10000 3.1 80 20:18 14.03.2020
1367 Clouds 29 1011 79 10000 3.1 80 19:40 14.03.2020
1368 Clouds 29 1011 79 10000 3.1 80 19:20 14.03.2020
1369 Clouds 30 1011 70 10000 3.6 80 18:39 14.03.2020
1370 Clouds 29 1010 79 10000 3.6 80 18:20 14.03.2020
1371 Clouds 29 1010 79 10000 3.6 80 17:41 14.03.2020
1372 Clouds 30 1010 79 10000 3.6 90 17:21 14.03.2020
1373 Clouds 30 1010 79 10000 3.6 90 16:58 14.03.2020
1374 Clear 29 1010 70 0 3.68 70 16:38 14.03.2020
1375 Clouds 29 1009 79 10000 3.6 80 16:18 14.03.2020
1376 Clouds 29 1009 79 10000 3.6 80 15:28 14.03.2020
1377 Clouds 30 1008 74 10000 4.1 80 14:59 14.03.2020
1378 Clouds 30 1008 74 10000 4.1 80 14:40 14.03.2020
1379 Clouds 30 1008 74 10000 4.1 80 14:21 14.03.2020
1380 Clouds 31 1008 66 10000 3.6 70 13:57 14.03.2020
1381 Clouds 31 1008 66 10000 3.6 70 13:38 14.03.2020
1382 Clouds 31 1008 66 10000 3.6 70 13:19 14.03.2020
1383 Clouds 31 1007 74 10000 3.6 80 12:44 14.03.2020
1384 Clouds 31 1007 74 10000 3.6 80 12:25 14.03.2020
1385 Clouds 31 1008 74 10000 2.1 90 11:45 14.03.2020
1386 Clouds 31 1009 74 10000 3.1 100 11:26 14.03.2020
1387 Clouds 31 1009 74 10000 3.1 100 11:26 14.03.2020
1388 Clouds 31 1009 74 10000 3.1 100 10:57 14.03.2020
1389 Clouds 31 1009 74 10000 3.1 100 10:38 14.03.2020
1390 Clouds 31 1009 74 10000 3.1 100 10:20 14.03.2020
1391 Clouds 31 1010 70 10000 3.6 70 09:41 14.03.2020
1392 Clouds 31 1010 70 10000 3.6 70 09:22 14.03.2020
1393 Clouds 29 1011 79 10000 3.6 130 08:47 14.03.2020
1394 Clouds 29 1011 79 10000 3.6 130 08:47 14.03.2020
1395 Clouds 32 1012 75 10000 2.6 110 08:27 14.03.2020
1396 Clouds 32 1012 75 10000 2.6 110 07:48 14.03.2020
1397 Clouds 32 1012 75 10000 2.6 110 07:23 14.03.2020
1398 Clouds 31 1012 74 10000 2.1 100 06:59 14.03.2020
1399 Clouds 31 1012 74 10000 2.1 100 06:39 14.03.2020
1400 Clouds 29 1011 83 10000 2.1 90 04:58 14.03.2020
1401 Clouds 29 1010 83 10000 2.1 110 03:41 14.03.2020
1402 Clouds 28 1010 88 10000 3.1 100 03:20 14.03.2020
1403 Clouds 28 1009 88 10000 3.1 100 02:19 14.03.2020
1404 Clouds 28 1009 83 10000 3.1 90 00:42 14.03.2020
1405 Clouds 28 1009 83 10000 4.1 90 23:44 13.03.2020
1406 Clouds 28 1009 83 10000 4.1 90 23:25 13.03.2020
1407 Clouds 28 1010 83 10000 2.6 70 22:46 13.03.2020
1408 Clouds 28 1010 78 10000 3.6 70 22:25 13.03.2020
1409 Clouds 28 1010 78 10000 3.6 70 21:42 13.03.2020
1410 Clouds 28 1010 78 10000 3.6 70 21:21 13.03.2020
1411 Clouds 28 1011 78 10000 4.1 80 20:57 13.03.2020
1412 Clouds 28 1011 78 10000 4.1 80 20:38 13.03.2020
1413 Clouds 28 1011 78 10000 4.1 80 20:19 13.03.2020
1414 Clouds 28 1012 74 10000 3.6 80 19:42 13.03.2020
1415 Clouds 28 1012 74 10000 3.6 80 19:23 13.03.2020
1416 Clouds 28 1012 74 10000 3.6 80 19:23 13.03.2020
1417 Clouds 27 1012 83 10000 6.2 50 18:44 13.03.2020
1418 Clouds 27 1012 83 10000 6.2 50 18:25 13.03.2020
1419 Clouds 27 1012 88 10000 1.5 360 17:55 13.03.2020
1420 Clouds 27 1012 88 10000 1.5 360 17:37 13.03.2020
1421 Clouds 26 1011 94 9000 2.6 10 17:18 13.03.2020
1422 Clear 29 1011 75 0 5.62 38 16:40 13.03.2020
1423 Rain 25 1011 100 7000 7.2 30 16:22 13.03.2020
1424 Rain 25 1011 100 7000 7.2 30 15:55 13.03.2020
1425 Clear 29 1011 75 0 5.62 38 15:37 13.03.2020
1426 Clouds 28 1010 83 9000 2.1 150 15:18 13.03.2020
1427 Clouds 28 1010 83 9000 2.1 150 14:41 13.03.2020
1428 Rain 27 1009 83 9000 1.5 200 14:22 13.03.2020
1429 Rain 27 1009 83 9000 1.5 200 13:55 13.03.2020
1430 Rain 27 1009 83 9000 1.5 200 13:37 13.03.2020
1431 Rain 27 1009 83 9000 1.5 200 13:18 13.03.2020
1432 Rain 26 1009 88 9000 4.1 130 12:40 13.03.2020
1433 Clouds 30 1009 74 10000 5.1 40 12:21 13.03.2020
1434 Clouds 30 1009 74 10000 5.1 40 11:57 13.03.2020
1435 Clouds 30 1009 74 10000 5.1 40 11:38 13.03.2020
1436 Clouds 31 1009 70 10000 6.2 40 11:19 13.03.2020
1437 Clouds 29 1009 74 0 6.83 32 10:47 13.03.2020
1438 Clouds 31 1010 70 10000 6.2 30 10:26 13.03.2020
1439 Clouds 31 1010 70 10000 6.2 30 09:56 13.03.2020
1440 Clouds 31 1010 70 10000 6.2 30 09:38 13.03.2020
1441 Clouds 31 1010 70 10000 6.2 30 09:20 13.03.2020
1442 Clouds 31 1011 70 10000 5.1 30 08:42 13.03.2020
1443 Clouds 31 1011 70 10000 5.1 30 08:22 13.03.2020
1444 Clouds 31 1012 70 10000 5.1 30 07:47 13.03.2020
1445 Clouds 31 1012 70 10000 5.1 30 07:27 13.03.2020
1446 Clouds 31 1012 70 10000 5.1 20 06:47 13.03.2020
1447 Clouds 31 1012 70 10000 5.1 20 06:26 13.03.2020
1448 Clouds 30 1012 70 10000 5.7 50 05:49 13.03.2020
1449 Clouds 30 1012 70 10000 4.1 50 05:20 13.03.2020
1450 Clouds 28 1012 73 0 4.91 68 04:37 13.03.2020
1451 Clouds 28 1012 73 0 4.91 68 03:31 13.03.2020
1452 Clouds 28 1010 78 10000 3.6 60 01:45 13.03.2020
1453 Clouds 28 1010 78 10000 3.6 60 01:18 13.03.2020
1454 Clouds 28 1009 78 10000 3.1 60 00:47 13.03.2020
1455 Clouds 28 1010 78 10000 3.1 60 00:23 13.03.2020
1456 Clouds 28 1010 78 10000 3.1 60 23:48 12.03.2020
1457 Clouds 28 1010 78 10000 3.1 60 23:26 12.03.2020
1458 Clouds 28 1010 78 10000 4.1 60 22:56 12.03.2020
1459 Clouds 28 1010 73 0 5.38 71 22:38 12.03.2020
1460 Clouds 29 1011 74 10000 4.1 70 22:19 12.03.2020
1461 Clouds 29 1011 74 10000 4.1 70 21:43 12.03.2020
1462 Clouds 29 1011 74 10000 4.1 70 21:25 12.03.2020
1463 Clouds 29 1012 74 10000 4.1 80 20:56 12.03.2020
1464 Clouds 28 1010 73 0 5.38 71 20:37 12.03.2020
1465 Clouds 29 1012 79 10000 4.1 70 20:18 12.03.2020
1466 Clouds 29 1012 79 10000 4.1 70 19:39 12.03.2020
1467 Clouds 29 1012 79 10000 4.1 70 19:20 12.03.2020
1468 Clouds 29 1012 79 10000 4.1 70 19:20 12.03.2020
1469 Clouds 29 1012 74 10000 4.1 70 18:43 12.03.2020
1470 Clouds 29 1012 74 10000 4.6 70 18:24 12.03.2020
1471 Clouds 29 1012 74 10000 4.6 70 17:57 12.03.2020
1472 Clouds 29 1012 74 10000 4.6 70 17:37 12.03.2020
1473 Clouds 29 1011 74 10000 5.1 70 17:18 12.03.2020
1474 Clouds 29 1011 74 10000 5.1 70 16:54 12.03.2020
1475 Clear 29 1011 72 0 5.97 61 16:36 12.03.2020
1476 Clouds 30 1010 74 10000 4.6 70 16:18 12.03.2020
1477 Clouds 30 1010 74 10000 4.6 70 15:41 12.03.2020
1478 Clouds 30 1010 74 10000 4.6 70 15:22 12.03.2020
1479 Clear 29 1011 72 0 5.97 61 14:39 12.03.2020
1480 Clouds 31 1009 70 10000 5.7 70 14:19 12.03.2020
1481 Clouds 31 1009 70 10000 5.7 70 13:41 12.03.2020
1482 Clouds 31 1009 70 10000 5.7 70 13:22 12.03.2020
1483 Clouds 31 1009 70 10000 6.2 70 12:55 12.03.2020
1484 Clouds 31 1009 70 10000 6.2 70 12:55 12.03.2020
1485 Clouds 31 1009 70 10000 6.2 70 12:37 12.03.2020
1486 Clouds 32 1009 66 10000 6.2 70 12:18 12.03.2020
1487 Clouds 32 1009 66 10000 6.2 70 11:56 12.03.2020
1488 Clouds 32 1009 66 10000 6.2 70 11:56 12.03.2020
1489 Clouds 32 1009 66 10000 6.2 70 11:37 12.03.2020
1490 Clouds 32 1010 66 10000 5.1 70 11:19 12.03.2020
1491 Clouds 32 1010 66 10000 5.1 70 10:56 12.03.2020
1492 Clouds 29 1010 71 0 4.87 70 10:38 12.03.2020
1493 Clouds 32 1011 66 10000 4.6 70 10:19 12.03.2020
1494 Clouds 32 1011 66 10000 4.6 70 09:43 12.03.2020
1495 Clouds 32 1012 66 10000 4.1 70 09:25 12.03.2020
1496 Clouds 32 1012 66 10000 4.1 70 08:41 12.03.2020
1497 Clouds 31 1013 70 10000 4.1 70 08:19 12.03.2020
1498 Clouds 31 1013 70 10000 4.1 70 07:53 12.03.2020
1499 Clouds 31 1013 70 10000 4.1 70 07:23 12.03.2020
1500 Clouds 31 1013 70 10000 4.1 80 06:44 12.03.2020
1501 Clouds 30 1013 74 10000 4.6 80 05:41 12.03.2020
1502 Clouds 28 1011 78 10000 4.1 80 04:29 12.03.2020
1503 Rain 28 1012 73 0 5.28 81 02:36 12.03.2020
1504 Clouds 28 1010 83 10000 3.6 70 01:30 12.03.2020
1505 Clouds 28 1010 78 10000 3.1 80 00:43 12.03.2020
1506 Clouds 28 1010 78 10000 3.1 80 00:24 12.03.2020
1507 Clouds 28 1010 78 10000 3.1 70 23:42 11.03.2020
1508 Clouds 28 1010 78 10000 2.6 70 23:23 11.03.2020
1509 Clouds 28 1011 69 0 3.35 67 22:45 11.03.2020
1510 Clouds 28 1011 78 10000 2.6 70 22:27 11.03.2020
1511 Clouds 28 1011 78 10000 2.6 70 21:59 11.03.2020
1512 Clouds 28 1011 78 10000 2.6 70 21:41 11.03.2020
1513 Clouds 28 1011 78 10000 2.6 70 21:41 11.03.2020
1514 Clouds 28 1011 78 10000 2.6 70 21:22 11.03.2020
1515 Clouds 28 1012 78 10000 2.6 70 20:58 11.03.2020
1516 Clouds 28 1012 78 10000 2.6 70 20:58 11.03.2020
1517 Clouds 28 1011 69 0 3.35 67 20:39 11.03.2020
1518 Clouds 29 1012 74 10000 2.6 70 20:19 11.03.2020
1519 Clouds 29 1012 74 10000 2.6 70 19:43 11.03.2020
1520 Clouds 29 1012 74 10000 2.6 70 19:25 11.03.2020
1521 Clouds 29 1012 74 10000 2.1 80 18:58 11.03.2020
1522 Clouds 29 1012 74 10000 2.1 80 18:39 11.03.2020
1523 Clouds 29 1012 74 10000 2.1 80 18:20 11.03.2020
1524 Clouds 29 1012 74 10000 2.1 80 17:56 11.03.2020
1525 Clouds 29 1012 74 10000 2.1 80 17:37 11.03.2020
1526 Clouds 29 1011 74 10000 2.6 70 17:19 11.03.2020
1527 Clouds 29 1011 74 10000 2.6 70 16:45 11.03.2020
1528 Clouds 29 1011 74 10000 28.8 90 16:21 11.03.2020
1529 Clouds 29 1011 74 10000 28.8 90 15:44 11.03.2020
1530 Clouds 29 1011 74 10000 28.8 90 15:24 11.03.2020
1531 Clouds 30 1010 70 10000 3.1 90 14:57 11.03.2020
1532 Clouds 30 1010 70 10000 3.1 90 14:39 11.03.2020
1533 Clouds 31 1009 66 10000 3.6 90 14:21 11.03.2020
1534 Clouds 31 1009 66 10000 3.6 90 13:44 11.03.2020
1535 Clouds 32 1009 62 10000 3.6 80 13:26 11.03.2020
1536 Clouds 32 1009 62 10000 3.6 80 12:58 11.03.2020
1537 Clouds 32 1009 62 10000 3.6 80 12:39 11.03.2020
1538 Clouds 32 1009 62 10000 3.6 80 12:19 11.03.2020
1539 Clouds 32 1010 62 10000 3.6 90 11:41 11.03.2020
1540 Clouds 32 1010 62 10000 3.6 90 11:23 11.03.2020
1541 Clouds 32 1010 66 10000 3.1 90 10:56 11.03.2020
1542 Clouds 29 1010 68 0 3.6 61 10:37 11.03.2020
1543 Clouds 32 1011 62 10000 3.6 90 10:18 11.03.2020
1544 Clouds 32 1011 62 10000 3.6 90 09:41 11.03.2020
1545 Clouds 32 1012 66 10000 4.1 90 09:23 11.03.2020
1546 Clouds 32 1012 66 10000 4.1 90 08:45 11.03.2020
1547 Clouds 31 1012 66 10000 4.6 90 08:26 11.03.2020
1548 Clouds 31 1012 66 10000 4.6 90 07:48 11.03.2020
1549 Clouds 31 1012 66 10000 4.6 90 07:22 11.03.2020
1550 Clouds 31 1013 66 10000 5.1 90 06:53 11.03.2020
1551 Clouds 31 1013 66 10000 5.1 90 06:35 11.03.2020
1552 Clouds 31 1012 70 10000 5.1 90 05:33 11.03.2020
1553 Clouds 28 1011 70 0 5.65 65 03:34 11.03.2020
1554 Clouds 28 1009 83 10000 4.6 90 01:56 11.03.2020
1555 Clouds 28 1009 83 10000 4.6 90 01:25 11.03.2020
1556 Clouds 28 1009 83 10000 4.6 90 00:45 11.03.2020
1557 Clouds 28 1009 83 10000 4.1 80 23:51 10.03.2020
1558 Clouds 28 1009 83 10000 4.1 80 23:51 10.03.2020
1559 Clouds 28 1009 83 10000 4.1 80 23:29 10.03.2020
1560 Clouds 29 1010 79 10000 4.6 80 22:59 10.03.2020
1561 Clouds 28 1010 68 0 4.17 66 22:38 10.03.2020
1562 Clouds 29 1010 79 10000 4.6 80 22:19 10.03.2020
1563 Clouds 29 1010 79 10000 4.6 80 21:56 10.03.2020
1564 Clouds 28 1010 68 0 4.17 66 21:38 10.03.2020
1565 Clouds 29 1011 79 10000 5.1 70 21:19 10.03.2020
1566 Clouds 29 1011 79 10000 5.1 70 20:56 10.03.2020
1567 Clouds 28 1010 68 0 4.17 66 20:38 10.03.2020
1568 Clouds 29 1012 79 10000 5.1 70 20:18 10.03.2020
1569 Clouds 29 1012 79 10000 5.1 70 19:55 10.03.2020
1570 Clouds 29 1012 79 10000 5.1 70 19:36 10.03.2020
1571 Clouds 29 1012 79 10000 5.1 70 19:18 10.03.2020
1572 Clouds 29 1012 79 10000 3.1 70 18:42 10.03.2020
1573 Clouds 29 1012 79 10000 3.1 70 18:23 10.03.2020
1574 Clouds 29 1011 79 10000 3.1 70 17:56 10.03.2020
1575 Clouds 29 1011 79 10000 3.1 70 17:38 10.03.2020
1576 Clouds 29 1010 79 10000 4.1 80 17:20 10.03.2020
1577 Clouds 28 1010 73 0 5.09 70 16:38 10.03.2020
1578 Clouds 28 1010 73 0 5.09 70 16:38 10.03.2020
1579 Clouds 30 1009 74 10000 4.6 70 16:18 10.03.2020
1580 Clouds 30 1009 74 10000 4.6 70 15:55 10.03.2020
1581 Clouds 28 1010 73 0 5.09 70 15:36 10.03.2020
1582 Clouds 30 1008 74 10000 5.7 70 15:18 10.03.2020
1583 Clouds 30 1008 74 10000 5.7 70 14:40 10.03.2020
1584 Clouds 31 1008 70 10000 6.2 70 14:19 10.03.2020
1585 Clouds 31 1008 70 10000 6.2 70 13:54 10.03.2020
1586 Clouds 28 1008 74 0 5.57 63 13:36 10.03.2020
1587 Clouds 32 1008 66 10000 6.2 70 13:18 10.03.2020
1588 Clouds 32 1008 66 10000 6.2 70 12:39 10.03.2020
1589 Clouds 32 1008 66 10000 6.2 70 12:19 10.03.2020
1590 Clouds 32 1008 66 10000 6.2 70 11:43 10.03.2020
1591 Clouds 32 1008 66 10000 6.2 70 11:25 10.03.2020
1592 Clouds 32 1008 66 10000 4.6 70 10:59 10.03.2020
1593 -273 0 0 0 0 0 10:41 10.03.2020
1594 Clouds 32 1009 66 10000 5.1 70 10:22 10.03.2020
1595 Clouds 32 1009 66 10000 5.1 70 09:57 10.03.2020
1596 Clouds 28 1008 74 0 5.79 57 09:38 10.03.2020
1597 Clouds 32 1010 66 10000 5.1 70 09:18 10.03.2020
1598 Clouds 32 1010 66 10000 5.1 70 08:45 10.03.2020
1599 Clouds 32 1011 66 10000 5.1 70 08:26 10.03.2020
1600 Clouds 32 1011 66 10000 5.1 70 07:49 10.03.2020
1601 Clouds 32 1011 66 10000 5.1 70 07:30 10.03.2020
1602 Clouds 31 1011 70 10000 6.2 70 06:44 10.03.2020
1603 Clouds 31 1011 70 10000 6.2 70 06:25 10.03.2020
1604 Clouds 31 1011 66 10000 4.6 70 05:41 10.03.2020
1605 Clouds 28 1011 70 0 4.95 66 04:37 10.03.2020
1606 Clouds 28 1011 70 0 4.95 66 03:37 10.03.2020
1607 Clouds 28 1008 78 10000 4.1 90 02:26 10.03.2020
1608 Clouds 28 1008 83 10000 4.1 90 01:20 10.03.2020
1609 Clouds 28 1008 83 10000 4.1 90 00:41 10.03.2020
1610 Clouds 28 1008 83 10000 4.1 90 00:22 10.03.2020
1611 Clouds 29 1008 79 10000 4.1 90 23:40 09.03.2020
1612 Clouds 29 1009 79 10000 4.1 100 23:21 09.03.2020
1613 Clouds 28 1009 71 0 4.17 70 22:41 09.03.2020
1614 Clouds 29 1009 79 10000 4.1 90 22:22 09.03.2020
1615 Clouds 29 1009 79 10000 4.1 90 21:57 09.03.2020
1616 Clouds 28 1009 71 0 4.17 70 21:38 09.03.2020
1617 Clouds 29 1010 79 10000 3.1 100 21:20 09.03.2020
1618 Clouds 29 1010 79 10000 3.1 100 20:56 09.03.2020
1619 Clouds 28 1009 71 0 4.17 70 20:37 09.03.2020
1620 Clouds 29 1011 79 10000 1.5 70 20:18 09.03.2020
1621 Clouds 29 1011 79 10000 1.5 70 19:44 09.03.2020
1622 Clouds 29 1011 79 10000 1.5 70 19:21 09.03.2020
1623 Clouds 29 1011 79 10000 2.1 90 18:57 09.03.2020
1624 Clouds 29 1011 79 10000 2.1 90 18:38 09.03.2020
1625 Clouds 29 1011 79 10000 2.1 90 18:19 09.03.2020
1626 Clouds 29 1011 79 10000 2.1 80 17:57 09.03.2020
1627 Clouds 29 1011 79 10000 2.1 80 17:38 09.03.2020
1628 Clouds 29 1010 79 10000 2.6 70 17:20 09.03.2020
1629 Clouds 29 1010 79 10000 2.6 70 16:57 09.03.2020
1630 Clouds 29 1010 66 0 3.88 59 16:39 09.03.2020
1631 Clouds 29 1009 74 10000 3.1 50 16:20 09.03.2020
1632 Clouds 29 1009 74 10000 3.1 50 15:57 09.03.2020
1633 Clouds 29 1009 74 10000 3.1 50 15:57 09.03.2020
1634 Clouds 29 1010 66 0 3.88 59 15:38 09.03.2020
1635 Clouds 30 1008 70 10000 3.1 90 15:19 09.03.2020
1636 Clouds 30 1008 70 10000 3.1 90 14:42 09.03.2020
1637 Clouds 31 1008 66 10000 3.1 70 14:23 09.03.2020
1638 Clouds 31 1008 66 10000 3.1 70 13:59 09.03.2020
1639 Clouds 29 1008 64 0 3.44 46 13:40 09.03.2020
1640 Clouds 31 1007 66 10000 4.1 70 13:22 09.03.2020
1641 Clouds 31 1007 66 10000 4.1 70 13:22 09.03.2020
1642 Clouds 31 1007 66 10000 4.1 70 12:59 09.03.2020
1643 Clouds 29 1008 63 0 3.54 42 12:40 09.03.2020
1644 Clouds 31 1007 66 10000 4.6 80 12:20 09.03.2020
1645 Clouds 29 1008 63 0 3.54 42 11:41 09.03.2020
1646 Clouds 32 1008 66 10000 4.6 80 11:21 09.03.2020
1647 Clouds 32 1008 66 10000 4.6 80 10:58 09.03.2020
1648 Clouds 32 1008 66 10000 4.6 80 10:40 09.03.2020
1649 Clouds 32 1008 66 10000 4.6 80 10:20 09.03.2020
1650 Clouds 31 1009 66 10000 3.6 70 09:44 09.03.2020
1651 Clouds 31 1010 66 10000 4.1 80 09:24 09.03.2020
1652 Clouds 31 1010 66 10000 4.1 80 08:59 09.03.2020
1653 Clouds 29 1008 64 0 3.7 42 08:39 09.03.2020
1654 Clouds 32 1011 62 10000 3.6 90 08:21 09.03.2020
1655 Clouds 28 1011 67 0 3.25 55 07:40 09.03.2020
1656 Clouds 31 1011 66 10000 3.6 70 07:21 09.03.2020
1657 Clouds 31 1011 66 10000 3.6 70 06:43 09.03.2020
1658 Clouds 31 1011 66 10000 4.1 90 06:23 09.03.2020
1659 Clouds 31 1011 66 10000 4.1 90 05:47 09.03.2020
1660 Clouds 30 1010 70 10000 3.6 90 05:18 09.03.2020
1661 Clouds 28 1011 66 0 3.29 71 04:40 09.03.2020
1662 Clouds 28 1010 74 10000 3.6 70 04:21 09.03.2020
1663 Clouds 28 1009 74 10000 3.1 90 02:58 09.03.2020
1664 Clouds 28 1008 78 10000 3.1 80 01:18 09.03.2020
1665 Clouds 28 1009 65 0 2.57 49 00:37 09.03.2020
1666 Clouds 28 1009 78 10000 3.1 80 00:19 09.03.2020
1667 Clouds 28 1009 78 10000 3.1 80 23:42 08.03.2020
1668 Clouds 28 1009 78 10000 3.1 70 23:21 08.03.2020
1669 Clouds 28 1009 78 10000 3.1 70 22:55 08.03.2020
1670 Clear 28 1009 65 0 2.83 54 22:37 08.03.2020
1671 Clouds 28 1010 78 10000 3.6 60 22:18 08.03.2020
1672 Clouds 28 1010 78 10000 3.6 60 21:42 08.03.2020
1673 Clouds 29 1010 74 10000 3.1 60 21:23 08.03.2020
1674 Clouds 29 1010 74 10000 3.1 60 20:59 08.03.2020
1675 Clouds 29 1010 74 10000 3.1 60 20:39 08.03.2020
1676 Clouds 29 1010 74 10000 3.1 60 20:20 08.03.2020
1677 Clouds 29 1011 74 10000 3.6 70 19:41 08.03.2020
1678 Clouds 29 1011 74 10000 2.6 50 19:20 08.03.2020
1679 Clouds 29 1011 74 10000 2.6 50 18:58 08.03.2020
1680 Clouds 29 1011 74 10000 2.6 50 18:39 08.03.2020
1681 Clouds 29 1011 74 10000 2.6 50 18:20 08.03.2020
1682 Clear 28 1011 66 0 3.76 61 17:41 08.03.2020
1683 Clouds 29 1010 74 10000 3.1 50 17:22 08.03.2020
1684 Clouds 29 1010 74 10000 3.1 50 16:59 08.03.2020
1685 Clouds 29 1010 74 10000 3.1 50 16:41 08.03.2020
1686 Clouds 29 1010 70 10000 4.1 60 16:22 08.03.2020
1687 Clouds 29 1010 70 10000 4.1 60 15:55 08.03.2020
1688 Clouds 29 1010 70 10000 4.1 60 15:37 08.03.2020
1689 Clouds 30 1009 66 10000 4.1 70 15:18 08.03.2020
1690 Clouds 30 1009 66 10000 4.1 70 14:38 08.03.2020
1691 Clouds 30 1009 66 10000 4.1 70 14:38 08.03.2020
1692 Clouds 30 1009 70 10000 4.1 80 14:20 08.03.2020
1693 Clouds 30 1009 70 10000 4.1 80 13:55 08.03.2020
1694 Clouds 30 1009 70 10000 4.1 80 13:36 08.03.2020
1695 Clouds 30 1009 70 10000 4.1 80 13:18 08.03.2020
1696 Clouds 31 1009 66 10000 3.6 80 12:37 08.03.2020
1697 Clouds 31 1009 66 10000 3.6 80 12:18 08.03.2020
1698 Clouds 29 1009 63 0 3.32 40 11:42 08.03.2020
1699 Clouds 32 1009 62 10000 3.6 90 11:23 08.03.2020
1700 Clouds 32 1009 62 10000 3.6 90 10:57 08.03.2020
1701 Clouds 32 1009 62 10000 3.6 90 10:57 08.03.2020
1702 Clouds 32 1009 62 10000 3.6 90 10:39 08.03.2020
1703 Clouds 31 1010 66 10000 3.1 90 10:21 08.03.2020
1704 Clouds 31 1010 66 10000 3.1 90 09:40 08.03.2020
1705 Clouds 31 1011 66 10000 3.6 100 09:22 08.03.2020
1706 Clouds 29 1009 61 0 1.79 49 08:48 08.03.2020
1707 Clouds 31 1012 66 10000 3.6 90 08:22 08.03.2020
1708 Clouds 31 1012 66 10000 3.6 90 07:49 08.03.2020
1709 Clouds 31 1012 66 10000 3.6 90 07:28 08.03.2020
1710 Clouds 28 1012 61 0 1.88 99 06:46 08.03.2020
1711 Clouds 31 1012 66 10000 3.6 90 06:27 08.03.2020
1712 Clouds 28 1012 61 0 1.88 99 05:47 08.03.2020
1713 Clouds 29 1011 70 10000 3.1 100 03:52 08.03.2020
1714 Clouds 28 1010 74 10000 3.1 100 02:59 08.03.2020
1715 Clouds 28 1009 62 0 2.24 98 01:38 08.03.2020
1716 Clouds 28 1009 74 10000 3.1 100 01:19 08.03.2020
1717 Clouds 28 1009 74 10000 3.1 100 00:41 08.03.2020
1718 Clouds 29 1009 74 10000 3.1 90 23:59 07.03.2020
1719 Clouds 28 1009 63 0 2.51 88 23:41 07.03.2020
1720 Clouds 29 1009 74 10000 3.6 90 23:19 07.03.2020
1721 Clouds 28 1009 63 0 2.15 104 22:38 07.03.2020
1722 Clouds 29 1010 74 10000 3.6 90 22:19 07.03.2020
1723 Clouds 29 1010 74 10000 3.6 90 21:45 07.03.2020
1724 Clouds 29 1011 74 10000 2.6 110 21:24 07.03.2020
1725 Clouds 28 1009 63 0 2.15 104 20:41 07.03.2020
1726 Clouds 29 1012 74 10000 3.1 100 20:22 07.03.2020
1727 Clouds 29 1012 74 10000 3.1 100 19:55 07.03.2020
1728 Clouds 29 1012 64 0 2.94 81 19:37 07.03.2020
1729 Clouds 29 1012 74 10000 3.1 100 19:18 07.03.2020
1730 Clouds 29 1012 64 0 2.94 81 18:40 07.03.2020
1731 Clouds 29 1012 74 10000 2.1 110 18:21 07.03.2020
1732 Clouds 29 1012 74 10000 2.1 110 17:42 07.03.2020
1733 Clouds 29 1011 74 10000 2.1 110 17:21 07.03.2020
1734 Clouds 29 1011 74 10000 2.1 110 16:59 07.03.2020
1735 Clouds 29 1012 64 0 2.16 66 16:41 07.03.2020
1736 Clouds 30 1010 70 10000 2.6 100 16:22 07.03.2020
1737 Clouds 30 1010 70 10000 2.6 100 15:57 07.03.2020
1738 Clouds 29 1012 64 0 2.16 66 15:37 07.03.2020
1739 Clouds 30 1010 70 10000 2.1 100 15:19 07.03.2020
1740 Clouds 30 1010 70 10000 2.1 100 14:46 07.03.2020
1741 Clouds 31 1009 66 10000 2.6 100 14:26 07.03.2020
1742 Clouds 31 1009 66 10000 2.6 100 13:59 07.03.2020
1743 Clouds 29 1009 64 0 0.94 96 13:39 07.03.2020
1744 Clouds 31 1009 66 10000 2.6 90 13:19 07.03.2020
1745 Clouds 31 1009 66 10000 2.6 90 12:42 07.03.2020
1746 Clouds 32 1009 62 10000 2.6 100 12:20 07.03.2020
1747 Clouds 32 1009 62 10000 2.6 100 11:57 07.03.2020
1748 Clear 29 1009 63 0 1.49 93 11:39 07.03.2020
1749 Clouds 32 1010 62 10000 2.6 100 11:21 07.03.2020
1750 Clear 28 1009 65 0 1.19 80 10:41 07.03.2020
1751 Clouds 32 1011 62 10000 1.5 160 10:21 07.03.2020
1752 Clouds 32 1011 62 10000 1.5 160 09:57 07.03.2020
1753 Clear 28 1009 65 0 1.19 80 09:38 07.03.2020
1754 Clouds 30 1012 70 10000 1.5 210 09:18 07.03.2020
1755 Clouds 30 1012 70 10000 1.5 210 08:44 07.03.2020
1756 Clouds 32 1013 62 10000 1.5 210 08:21 07.03.2020
1757 Clouds 32 1013 62 10000 1.5 210 07:51 07.03.2020
1758 Clear 28 1013 67 0 2.76 102 07:23 07.03.2020
1759 Clear 28 1013 67 0 2.76 102 06:57 07.03.2020
1760 Clear 28 1013 67 0 2.76 102 06:30 07.03.2020
1761 Clear 28 1013 67 0 2.76 102 05:53 07.03.2020
1762 Clouds 29 1012 70 10000 2.6 190 04:47 07.03.2020
1763 Clouds 28 1013 70 0 3.1 135 02:57 07.03.2020
1764 Clouds 28 1013 70 0 3.1 135 02:33 07.03.2020
1765 Clouds 28 1011 74 10000 3.1 200 01:26 07.03.2020
1766 Clear 28 1011 67 0 1.18 162 00:39 07.03.2020
1767 Clear 28 1011 67 0 1.18 162 00:21 07.03.2020
1768 Clear 28 1011 67 0 1.18 162 23:49 06.03.2020
1769 Clouds 28 1010 78 10000 1 0 23:26 06.03.2020
1770 Clouds 28 1010 78 10000 1 0 22:48 06.03.2020
1771 Clouds 28 1011 78 10000 1 0 22:22 06.03.2020
1772 Clouds 28 1011 78 10000 1 0 21:59 06.03.2020
1773 Clear 28 1010 66 0 0.44 226 21:41 06.03.2020
1774 Clouds 29 1012 74 10000 1 0 21:18 06.03.2020
1775 Clear 28 1010 66 0 0.44 226 20:39 06.03.2020
1776 Clouds 29 1013 79 10000 1.5 210 20:20 06.03.2020
1777 Clouds 29 1013 79 10000 1.5 210 19:51 06.03.2020
1778 Clouds 29 1013 79 10000 1.5 210 19:33 06.03.2020
1779 Clouds 29 1012 74 10000 1 0 18:58 06.03.2020
1780 Clouds 29 1012 74 10000 1 0 18:39 06.03.2020
1781 Clouds 29 1012 74 10000 1 0 18:19 06.03.2020
1782 Clouds 29 1012 74 10000 1 0 18:19 06.03.2020
1783 Clouds 29 1011 79 10000 1.5 270 17:42 06.03.2020
1784 Clouds 29 1011 74 10000 0.5 0 17:24 06.03.2020
1785 Clouds 29 1011 74 10000 0.5 0 16:59 06.03.2020
1786 Clouds 29 1011 74 10000 0.5 0 16:40 06.03.2020
1787 Clouds 30 1010 70 10000 1 0 16:20 06.03.2020
1788 Clear 28 1012 64 0 0.89 323 15:45 06.03.2020
1789 Clouds 30 1009 74 10000 1 0 15:24 06.03.2020
1790 Clouds 30 1009 74 10000 1 0 14:55 06.03.2020
1791 Clear 28 1012 64 0 0.89 323 14:37 06.03.2020
1792 Clouds 31 1009 66 10000 1 0 14:18 06.03.2020
1793 Clouds 31 1009 66 10000 1 0 13:42 06.03.2020
1794 Clouds 30 1009 70 10000 1.5 150 13:22 06.03.2020
1795 Clouds 30 1009 70 10000 1.5 150 12:57 06.03.2020
1796 Clear 28 1010 64 0 2.03 247 12:38 06.03.2020
1797 Clouds 31 1009 66 10000 1.5 150 12:19 06.03.2020
1798 Clouds 31 1009 66 10000 1.5 150 11:56 06.03.2020
1799 Clouds 31 1009 66 10000 1.5 150 11:38 06.03.2020
1800 Clouds 31 1009 66 10000 1.5 150 11:19 06.03.2020
1801 Clear 28 1010 65 0 1.05 224 10:38 06.03.2020
1802 Clouds 32 1010 62 10000 1.5 150 10:20 06.03.2020
1803 Clouds 32 1010 62 10000 1.5 150 09:54 06.03.2020
1804 Clear 28 1010 65 0 1.05 224 09:36 06.03.2020
1805 Clouds 31 1011 70 10000 1 0 09:18 06.03.2020
1806 Clear 28 1010 65 0 1.05 224 08:42 06.03.2020
1807 Clouds 31 1012 70 10000 1.5 100 08:24 06.03.2020
1808 Clouds 31 1012 70 10000 1.5 100 07:47 06.03.2020
1809 Clouds 31 1012 70 10000 2.1 90 07:26 06.03.2020
1810 Clouds 31 1012 70 10000 2.1 90 06:53 06.03.2020
1811 Clouds 28 1012 66 0 0.49 18 06:34 06.03.2020
1812 Clouds 30 1012 74 10000 2.1 90 05:42 06.03.2020
1813 Clouds 30 1012 74 10000 2.1 90 05:21 06.03.2020
1814 Clouds 29 1012 79 10000 0.5 0 04:53 06.03.2020
1815 Clouds 27 1009 83 10000 0.5 0 01:56 06.03.2020
1816 Clouds 28 1010 68 0 1.61 334 01:38 06.03.2020
1817 Clouds 28 1009 83 10000 1 0 01:19 06.03.2020
1818 Clouds 28 1009 83 10000 1 0 00:32 06.03.2020
1819 Clouds 28 1009 83 10000 1 0 23:50 05.03.2020
1820 Clouds 28 1009 83 10000 1 0 23:29 05.03.2020
1821 Clouds 28 1010 83 10000 1.5 320 22:57 05.03.2020
1822 Clouds 28 1010 67 0 1.57 350 22:38 05.03.2020
1823 Clouds 28 1010 83 10000 1.5 340 22:20 05.03.2020
1824 Clouds 28 1010 83 10000 1.5 340 21:56 05.03.2020
1825 Clouds 28 1010 67 0 1.57 350 21:38 05.03.2020
1826 Clouds 28 1011 83 10000 1.5 360 21:20 05.03.2020
1827 Clouds 28 1011 83 10000 1.5 360 20:55 05.03.2020
1828 Clouds 28 1010 67 0 1.57 350 20:37 05.03.2020
1829 Clouds 28 1012 83 10000 1.5 340 20:18 05.03.2020
1830 Clouds 28 1012 83 10000 1.5 340 19:55 05.03.2020
1831 Clouds 28 1012 67 0 1.21 339 19:37 05.03.2020
1832 Clouds 29 1011 79 10000 0.5 0 19:18 05.03.2020
1833 Clouds 28 1012 67 0 1.21 339 18:38 05.03.2020
1834 Clouds 29 1011 79 10000 0.5 0 18:20 05.03.2020
1835 Clouds 29 1011 79 10000 0.5 0 17:59 05.03.2020
1836 Clouds 28 1012 67 0 1.21 339 17:40 05.03.2020
1837 Clouds 29 1010 79 10000 2.1 290 17:22 05.03.2020
1838 Clouds 29 1010 79 10000 2.1 290 16:54 05.03.2020
1839 Clouds 28 1012 71 0 2.29 342 16:36 05.03.2020
1840 Clouds 29 1010 79 10000 2.1 280 16:18 05.03.2020
1841 Clouds 29 1010 79 10000 2.1 280 15:44 05.03.2020
1842 Clouds 30 1009 74 10000 2.6 280 15:22 05.03.2020
1843 Clouds 30 1009 74 10000 2.6 280 14:56 05.03.2020
1844 Clouds 28 1012 71 0 2.29 342 14:37 05.03.2020
1845 Clouds 31 1009 70 10000 2.1 280 14:18 05.03.2020
1846 Clouds 31 1009 70 10000 2.1 280 13:55 05.03.2020
1847 Clouds 28 1009 69 0 2.34 321 13:36 05.03.2020
1848 Clouds 28 1009 71 0 2.65 324 13:18 05.03.2020
1849 Clouds 28 1009 71 0 2.65 324 12:40 05.03.2020
1850 Clouds 28 1009 71 0 2.65 324 12:40 05.03.2020
1851 Clouds 31 1008 70 10000 2.1 290 12:19 05.03.2020
1852 Clouds 31 1008 70 10000 2.1 290 11:57 05.03.2020
1853 Clouds 28 1009 71 0 2.65 324 11:37 05.03.2020
1854 Clouds 28 1009 71 0 2.65 324 11:37 05.03.2020
1855 Clouds 31 1009 70 10000 2.1 330 11:18 05.03.2020
1856 Clouds 31 1009 70 10000 2.1 330 10:57 05.03.2020
1857 Clouds 28 1010 70 0 2.37 300 10:38 05.03.2020
1858 Clouds 28 1010 70 0 2.37 300 10:38 05.03.2020
1859 Clouds 31 1010 70 10000 2.6 330 10:20 05.03.2020
1860 Clouds 31 1010 70 10000 2.6 330 09:45 05.03.2020
1861 Clouds 31 1010 70 10000 2.6 330 09:26 05.03.2020
1862 Clouds 31 1011 70 10000 3.1 300 08:47 05.03.2020
1863 Clouds 31 1012 70 10000 2.6 340 08:29 05.03.2020
1864 Clouds 31 1012 70 10000 2.6 340 07:49 05.03.2020
1865 Clouds 30 1012 74 10000 2.1 340 07:22 05.03.2020
1866 Clouds 30 1012 74 10000 2.1 340 06:49 05.03.2020
1867 Clouds 30 1012 74 10000 2.1 350 06:23 05.03.2020
1868 Clouds 30 1012 74 10000 2.1 350 05:57 05.03.2020
1869 Clouds 28 1012 70 0 3.07 324 05:31 05.03.2020
1870 Clouds 28 1011 83 10000 1.5 310 04:23 05.03.2020
1871 Clouds 28 1011 83 10000 1.5 310 03:56 05.03.2020
1872 Clouds 28 1009 78 10000 2.6 330 02:21 05.03.2020
1873 Clouds 28 1009 78 10000 2.1 300 01:24 05.03.2020
1874 Clouds 28 1009 78 10000 3.1 300 00:29 05.03.2020
1875 Clouds 28 1009 78 10000 3.1 300 23:43 04.03.2020
1876 Clouds 29 1010 79 10000 3.6 300 23:24 04.03.2020
1877 Clouds 29 1010 79 10000 3.6 300 22:59 04.03.2020
1878 Rain 28 1010 72 0 3.64 332 22:40 04.03.2020
1879 Clouds 29 1011 79 10000 3.1 300 22:19 04.03.2020
1880 Clouds 29 1011 79 10000 3.1 300 21:59 04.03.2020
1881 Rain 28 1010 72 0 3.64 332 21:41 04.03.2020
1882 Clouds 29 1012 79 10000 3.1 300 21:20 04.03.2020
1883 Clouds 29 1012 79 10000 3.1 300 20:56 04.03.2020
1884 Rain 28 1010 72 0 3.64 332 20:37 04.03.2020
1885 Clouds 29 1013 79 10000 2.6 310 20:19 04.03.2020
1886 Clouds 29 1013 79 10000 2.6 310 19:42 04.03.2020
1887 Clouds 29 1013 79 10000 2.6 300 19:23 04.03.2020
1888 Clouds 29 1013 79 10000 2.6 300 18:57 04.03.2020
1889 Clouds 28 1013 71 0 3.21 345 18:37 04.03.2020
1890 Clouds 29 1012 79 10000 3.1 310 18:18 04.03.2020
1891 Clouds 29 1012 79 10000 3.1 310 17:55 04.03.2020
1892 Clouds 28 1013 71 0 3.21 345 17:37 04.03.2020
1893 Clouds 29 1011 79 10000 3.1 300 17:19 04.03.2020
1894 Clouds 29 1011 79 10000 3.1 300 16:44 04.03.2020
1895 Clouds 29 1010 79 10000 4.1 340 16:25 04.03.2020
1896 Clouds 29 1010 79 10000 4.1 340 15:59 04.03.2020
1897 Clouds 28 1011 74 0 3.66 352 15:40 04.03.2020
1898 Clouds 30 1009 74 10000 3.6 340 15:21 04.03.2020
1899 Clouds 30 1009 74 10000 3.6 340 14:55 04.03.2020
1900 Clouds 28 1011 74 0 3.66 352 14:36 04.03.2020
1901 Clouds 30 1009 74 10000 4.1 340 14:18 04.03.2020
1902 Clouds 30 1009 74 10000 4.1 340 13:55 04.03.2020
1903 Clouds 28 1009 74 0 5.26 348 13:36 04.03.2020
1904 Clouds 31 1008 70 10000 4.1 350 13:18 04.03.2020
1905 Clouds 31 1008 70 10000 4.1 350 12:42 04.03.2020
1906 Clouds 31 1008 70 10000 4.6 340 12:23 04.03.2020
1907 Clouds 31 1008 70 10000 4.6 340 11:55 04.03.2020
1908 Clouds 28 1009 74 0 5.22 347 11:37 04.03.2020
1909 Clouds 31 1009 70 10000 5.1 340 11:19 04.03.2020
1910 Clouds 31 1009 70 10000 5.1 340 10:45 04.03.2020
1911 Clouds 32 1010 66 10000 3.6 360 10:25 04.03.2020
1912 Clouds 32 1010 66 10000 3.6 360 09:58 04.03.2020
1913 Clouds 28 1010 74 0 5.63 356 09:39 04.03.2020
1914 Clouds 31 1011 70 10000 3.6 360 09:19 04.03.2020
1915 Clouds 31 1011 70 10000 3.6 360 08:42 04.03.2020
1916 Clouds 31 1012 70 10000 4.1 360 08:24 04.03.2020
1917 Clouds 31 1012 70 10000 4.1 360 07:48 04.03.2020
1918 Clouds 30 1013 74 10000 3.1 360 07:29 04.03.2020
1919 Clouds 30 1013 74 10000 3.1 360 06:54 04.03.2020
1920 Clouds 30 1013 70 10000 3.1 360 06:26 04.03.2020
1921 Clouds 30 1013 70 10000 3.1 360 05:59 04.03.2020
1922 Clouds 28 1013 73 0 5.22 353 05:32 04.03.2020
1923 Clouds 27 1012 83 10000 2.1 30 03:57 04.03.2020
1924 Clouds 28 1012 72 0 4.61 352 03:35 04.03.2020
1925 Clouds 27 1011 83 10000 0.5 0 02:58 04.03.2020
1926 Clouds 27 1011 83 10000 0.5 0 02:30 04.03.2020
1927 Clouds 27 1011 83 10000 0.5 0 01:56 04.03.2020
1928 Clouds 28 1010 71 0 3.52 2 01:37 04.03.2020
1929 Clouds 28 1010 78 10000 0.5 0 00:42 04.03.2020
1930 Clouds 28 1010 78 10000 1.5 20 00:22 04.03.2020
1931 Clouds 28 1010 72 0 3.59 4 23:43 03.03.2020
1932 Clouds 28 1011 78 10000 1 0 23:24 03.03.2020
1933 Clouds 28 1011 78 10000 1 0 22:56 03.03.2020
1934 Clear 28 1011 73 0 4.44 19 22:37 03.03.2020
1935 Clouds 28 1011 78 10000 1.5 20 22:19 03.03.2020
1936 Clouds 28 1011 78 10000 1.5 20 21:43 03.03.2020
1937 Clouds 28 1012 78 10000 1.5 20 21:22 03.03.2020
1938 Clouds 28 1012 78 10000 1.5 20 20:59 03.03.2020
1939 Clear 28 1011 73 0 4.44 19 20:40 03.03.2020
1940 Clouds 28 1013 78 10000 1.5 50 20:19 03.03.2020
1941 Clouds 28 1013 78 10000 1.5 50 19:56 03.03.2020
1942 Clouds 28 1013 78 10000 1.5 50 19:56 03.03.2020
1943 Clouds 28 1012 70 0 3.68 39 19:37 03.03.2020
1944 Clouds 28 1012 69 0 3.48 44 19:37 03.03.2020
1945 Clouds 28 1012 70 0 3.68 39 19:37 03.03.2020
1946 Clouds 28 1012 83 10000 2.1 60 19:18 03.03.2020
1947 Clouds 28 1012 83 10000 2.1 60 18:57 03.03.2020
1948 Clouds 28 1012 83 10000 2.1 60 18:57 03.03.2020
1949 Clouds 28 1012 69 0 3.48 44 18:39 03.03.2020
1950 Clouds 29 1012 74 10000 2.6 60 18:19 03.03.2020
1951 Clouds 29 1012 74 10000 2.6 60 17:55 03.03.2020
1952 Clouds 28 1012 70 0 3.68 39 17:36 03.03.2020
1953 Clouds 29 1011 74 10000 3.1 60 17:18 03.03.2020
1954 -273 0 0 0 0 0 16:55 03.03.2020
1955 Clouds 28 1011 69 0 4.04 22 16:36 03.03.2020
1956 Clouds 29 1010 74 10000 3.1 50 16:18 03.03.2020
1957 Clouds 29 1010 74 10000 3.1 50 15:43 03.03.2020
1958 Clouds 30 1010 70 10000 3.1 50 15:21 03.03.2020
1959 Clouds 30 1010 70 10000 3.1 50 15:21 03.03.2020
1960 Clouds 30 1010 70 10000 3.1 50 14:55 03.03.2020
1961 Clouds 28 1011 69 0 4.04 22 14:36 03.03.2020
1962 Clouds 30 1009 70 10000 2.6 30 14:18 03.03.2020
1963 Clouds 30 1009 70 10000 2.6 30 13:42 03.03.2020
1964 Clouds 32 1009 62 10000 2.6 350 13:24 03.03.2020
1965 Clouds 32 1009 62 10000 2.6 350 12:55 03.03.2020
1966 Clouds 28 1010 66 0 3.14 10 12:37 03.03.2020
1967 Clouds 31 1009 66 10000 2.6 360 12:18 03.03.2020
1968 Clouds 28 1010 66 0 3.14 10 11:39 03.03.2020
1969 Clouds 30 1010 74 10000 3.1 10 11:20 03.03.2020
1970 Clouds 30 1010 74 10000 3.1 10 10:57 03.03.2020
1971 Clouds 30 1010 74 10000 3.1 10 10:39 03.03.2020
1972 Clouds 30 1010 74 10000 3.1 10 10:19 03.03.2020
1973 Clouds 30 1011 74 10000 3.1 360 09:59 03.03.2020
1974 Clear 28 1011 66 0 3.33 21 09:40 03.03.2020
1975 Clouds 30 1012 74 10000 2.6 10 09:19 03.03.2020
1976 Clear 28 1011 66 0 3.33 21 08:41 03.03.2020
1977 Clouds 30 1013 70 10000 3.1 10 08:22 03.03.2020
1978 Clouds 30 1013 70 10000 3.1 10 07:45 03.03.2020
1979 Clouds 31 1013 66 10000 4.1 60 07:24 03.03.2020
1980 Clouds 31 1013 66 10000 4.1 60 06:59 03.03.2020
1981 Clouds 29 1014 63 0 2.92 10 06:39 03.03.2020
1982 Clouds 30 1013 74 10000 3.6 60 06:18 03.03.2020
1983 Clouds 29 1014 63 0 2.92 10 05:39 03.03.2020
1984 Clouds 29 1013 79 10000 1.5 70 04:48 03.03.2020
1985 Clouds 28 1013 65 0 2.77 43 02:38 03.03.2020
1986 Clouds 28 1010 78 10000 1.5 80 01:27 03.03.2020
1987 Clouds 28 1010 75 0 3.75 47 00:41 03.03.2020
1988 Clouds 28 1010 83 10000 1.5 110 00:22 03.03.2020
1989 Clouds 28 1010 83 10000 1.5 110 23:46 02.03.2020
1990 Clouds 28 1010 83 10000 2.1 110 23:23 02.03.2020
1991 Clouds 28 1010 83 10000 2.1 110 22:57 02.03.2020
1992 Rain 28 1010 78 0 5.05 67 22:38 02.03.2020
1993 Rain 28 1010 78 0 5.05 67 22:38 02.03.2020
1994 Clouds 29 1010 79 10000 3.6 100 22:19 02.03.2020
1995 Clouds 29 1010 79 10000 3.6 100 21:55 02.03.2020
1996 Rain 28 1010 78 0 5.05 67 21:36 02.03.2020
1997 Clouds 29 1011 79 10000 5.1 100 21:18 02.03.2020
1998 Clouds 29 1011 79 10000 5.1 100 20:43 02.03.2020
1999 Clouds 29 1011 79 10000 5.1 90 20:24 02.03.2020
2000 Clouds 29 1011 79 10000 5.1 90 19:59 02.03.2020
2001 Clouds 28 1011 76 0 5.48 76 19:39 02.03.2020
2002 Clouds 29 1011 79 10000 6.2 80 19:21 02.03.2020
2003 Clouds 29 1011 79 10000 6.2 80 18:56 02.03.2020
2004 Clouds 28 1011 76 0 5.48 76 18:38 02.03.2020
2005 Clouds 29 1010 79 10000 5.7 100 18:18 02.03.2020
2006 Clouds 29 1010 79 10000 5.7 100 17:56 02.03.2020
2007 Clouds 28 1011 76 0 5.48 76 17:38 02.03.2020
2008 Clouds 28 1011 76 0 5.48 76 17:38 02.03.2020
2009 Clouds 29 1009 79 10000 6.2 90 17:20 02.03.2020
2010 Clouds 29 1009 79 10000 6.2 90 16:42 02.03.2020
2011 Clouds 29 1009 83 10000 5.1 100 16:23 02.03.2020
2012 Clouds 29 1009 83 10000 5.1 100 15:57 02.03.2020
2013 Clouds 28 1010 74 0 4.95 81 15:38 02.03.2020
2014 Clouds 30 1008 74 10000 4.1 110 15:18 02.03.2020
2015 Clouds 28 1010 74 0 4.95 81 14:39 02.03.2020
2016 Clouds 30 1008 74 10000 3.6 110 14:19 02.03.2020
2017 Clouds 30 1008 74 10000 3.6 110 13:55 02.03.2020
2018 Clouds 28 1010 71 0 3.33 82 13:36 02.03.2020
2019 Clouds 31 1009 70 10000 3.6 100 13:18 02.03.2020
2020 Clear 28 1009 71 0 3.72 79 12:41 02.03.2020
2021 Clouds 31 1009 70 10000 3.6 100 12:19 02.03.2020
2022 Clear 28 1009 71 0 3.72 79 11:39 02.03.2020
2023 Clouds 32 1010 66 10000 3.1 90 11:21 02.03.2020
2024 Clouds 32 1010 66 10000 3.1 90 10:58 02.03.2020
2025 Clear 28 1009 70 0 3.17 69 10:38 02.03.2020
2026 Clouds 31 1011 70 10000 3.6 90 10:19 02.03.2020
2027 Clouds 31 1011 70 10000 3.6 90 09:51 02.03.2020
2028 Clouds 31 1011 70 10000 3.6 90 09:31 02.03.2020
2029 Clouds 31 1011 70 10000 3.6 90 08:49 02.03.2020
2030 Clouds 31 1012 70 10000 4.1 100 08:24 02.03.2020
2031 Clouds 31 1012 70 10000 4.1 100 07:54 02.03.2020
2032 Clouds 28 1013 68 0 3.7 63 07:36 02.03.2020
2033 Clouds 31 1013 70 10000 3.6 100 06:56 02.03.2020
2034 Clouds 30 1013 74 10000 3.1 110 06:28 02.03.2020
2035 Clouds 30 1011 74 10000 2.1 110 05:29 02.03.2020
2036 Clouds 28 1011 78 10000 2.6 110 03:59 02.03.2020
2037 Clouds 28 1011 78 10000 2.6 110 03:19 02.03.2020
2038 Clouds 28 1012 70 0 3.69 92 02:32 02.03.2020
2039 Clouds 28 1011 67 0 2.64 127 01:41 02.03.2020
2040 Clouds 28 1010 78 10000 2.6 140 01:22 02.03.2020
2041 Clouds 28 1010 78 10000 2.6 150 00:23 02.03.2020
2042 Clouds 28 1010 78 10000 2.6 150 23:56 01.03.2020
2043 Clouds 28 1011 70 0 1.59 132 23:37 01.03.2020
2044 Clouds 28 1010 78 10000 2.6 150 23:18 01.03.2020
2045 Clouds 28 1010 72 0 3.23 96 22:38 01.03.2020
2046 Clouds 28 1011 78 10000 3.1 130 22:19 01.03.2020
2047 Clouds 28 1011 78 10000 3.1 130 21:43 01.03.2020
2048 Clouds 29 1012 70 10000 3.1 110 21:25 01.03.2020
2049 Clouds 29 1012 70 10000 3.1 110 20:59 01.03.2020
2050 Clouds 28 1010 72 0 3.23 96 20:41 01.03.2020
2051 Clouds 29 1012 74 10000 4.6 100 20:22 01.03.2020
2052 Clouds 29 1012 74 10000 4.6 100 19:42 01.03.2020
2053 Clouds 29 1012 74 10000 5.1 110 19:23 01.03.2020
2054 Clouds 29 1012 74 10000 5.1 110 18:58 01.03.2020
2055 Clear 28 1012 72 0 4.47 91 18:39 01.03.2020
2056 Clouds 29 1011 74 10000 4.6 100 18:19 01.03.2020
2057 Clouds 29 1011 74 10000 4.6 100 17:57 01.03.2020
2058 Clear 28 1012 72 0 4.47 91 17:38 01.03.2020
2059 Clouds 29 1010 74 10000 4.1 110 17:20 01.03.2020
2060 Clouds 29 1010 74 10000 4.1 110 16:55 01.03.2020
2061 Clear 28 1010 73 0 4.96 78 16:37 01.03.2020
2062 Clouds 29 1009 79 10000 3.6 90 16:18 01.03.2020
2063 Clouds 29 1009 79 10000 3.6 90 15:56 01.03.2020
2064 Clear 28 1010 73 0 4.96 78 15:37 01.03.2020
2065 Clouds 30 1009 70 10000 4.1 100 15:19 01.03.2020
2066 Clouds 30 1009 70 10000 4.1 100 14:55 01.03.2020
2067 Clear 28 1010 73 0 4.96 78 14:37 01.03.2020
2068 Clouds 31 1008 66 10000 4.6 90 14:18 01.03.2020
2069 Clouds 31 1008 66 10000 4.6 90 13:44 01.03.2020
2070 Clouds 31 1008 66 10000 4.1 90 13:22 01.03.2020
2071 Clouds 31 1008 66 10000 4.1 90 12:59 01.03.2020
2072 Clouds 28 1008 75 0 4.83 69 12:41 01.03.2020
2073 Clouds 31 1008 66 10000 4.6 90 12:21 01.03.2020
2074 Clouds 31 1008 66 10000 4.6 90 12:21 01.03.2020
2075 Clouds 28 1008 75 0 4.83 69 11:42 01.03.2020
2076 Clouds 31 1008 66 10000 4.6 70 11:24 01.03.2020
2077 Clouds 31 1008 66 10000 4.6 70 10:57 01.03.2020
2078 Clouds 28 1008 74 0 5.29 69 10:38 01.03.2020
2079 Clouds 31 1009 66 10000 5.1 60 10:20 01.03.2020
2080 Clouds 31 1009 66 10000 5.1 60 09:55 01.03.2020
2081 Clouds 28 1008 74 0 5.29 69 09:37 01.03.2020
2082 Clouds 31 1010 62 10000 5.7 60 09:18 01.03.2020
2083 Clouds 28 1008 75 0 5.54 62 08:41 01.03.2020
2084 Clouds 31 1011 66 10000 6.2 60 08:20 01.03.2020
2085 Clouds 31 1011 66 10000 6.2 60 07:42 01.03.2020
2086 Clouds 31 1011 66 10000 5.7 70 07:24 01.03.2020
2087 Clouds 31 1011 66 10000 5.7 70 06:54 01.03.2020
2088 Clouds 28 1011 69 0 5.67 60 06:36 01.03.2020
2089 Clouds 28 1010 78 10000 3.1 80 04:26 01.03.2020
2090 Clouds 27 1009 83 10000 3.1 70 02:54 01.03.2020
2091 Clouds 27 1009 83 10000 3.6 80 01:53 01.03.2020
2092 Clouds 28 1008 78 10000 4.6 100 01:28 01.03.2020
2093 Clouds 28 1008 78 10000 4.6 100 00:43 01.03.2020
2094 Clouds 28 1008 74 10000 5.7 90 00:21 01.03.2020
2095 Clouds 28 1008 74 10000 5.7 90 23:51 29.02.2020
2096 Clouds 28 1008 72 0 5.5 77 23:33 29.02.2020
2097 Clouds 28 1009 78 10000 5.7 90 22:44 29.02.2020
2098 Clouds 28 1009 78 10000 6.7 80 22:25 29.02.2020
2099 Clouds 28 1009 78 10000 6.7 80 21:44 29.02.2020
2100 Clouds 29 1010 79 10000 7.2 80 21:26 29.02.2020
2101 Clouds 29 1010 79 10000 7.2 80 20:44 29.02.2020
2102 Clouds 29 1010 79 10000 5.7 90 20:22 29.02.2020
2103 Clouds 29 1010 79 10000 5.7 90 19:58 29.02.2020
2104 Clouds 28 1011 79 0 7.52 75 19:39 29.02.2020
2105 Clouds 29 1011 79 10000 5.7 90 19:21 29.02.2020
2106 Clouds 29 1011 79 10000 5.7 90 18:44 29.02.2020
2107 Clouds 29 1010 74 10000 6.2 70 18:25 29.02.2020
2108 Clouds 29 1010 74 10000 6.2 70 17:58 29.02.2020
2109 Clouds 29 1010 74 10000 6.2 70 17:40 29.02.2020
2110 Clouds 29 1010 74 10000 6.2 70 17:21 29.02.2020
2111 Clouds 29 1010 74 10000 6.2 70 16:57 29.02.2020
2112 Clouds 28 1009 79 0 7.76 63 16:39 29.02.2020
2113 Clouds 29 1009 79 10000 5.1 70 16:18 29.02.2020
2114 Clouds 28 1009 79 0 7.76 63 15:41 29.02.2020
2115 Clouds 29 1008 79 10000 5.7 70 15:23 29.02.2020
2116 Clouds 29 1008 79 10000 5.7 70 14:55 29.02.2020
2117 Clouds 28 1009 79 0 7.76 63 14:37 29.02.2020
2118 Clouds 30 1007 74 10000 5.1 70 14:19 29.02.2020
2119 Clouds 30 1007 74 10000 5.1 70 13:42 29.02.2020
2120 Clouds 31 1007 70 10000 6.2 70 13:23 29.02.2020
2121 Clouds 31 1007 70 10000 6.2 70 12:43 29.02.2020
2122 Clouds 31 1007 70 10000 5.1 70 12:23 29.02.2020
2123 Clouds 31 1007 70 10000 5.1 70 11:58 29.02.2020
2124 Clouds 28 1007 78 0 6.76 60 11:39 29.02.2020
2125 Clouds 31 1008 70 10000 5.7 60 11:21 29.02.2020
2126 Clouds 31 1008 70 10000 5.7 60 10:47 29.02.2020
2127 Clouds 31 1008 70 10000 5.7 60 10:28 29.02.2020
2128 Clouds 32 1009 66 10000 4.6 60 09:50 29.02.2020
2129 Clouds 32 1009 66 10000 4.6 60 09:27 29.02.2020
2130 Clouds 32 1009 66 10000 4.6 60 09:27 29.02.2020
2131 Clouds 31 1010 70 10000 5.1 60 08:55 29.02.2020
2132 Clouds 28 1008 74 0 6.08 49 08:37 29.02.2020
2133 Clouds 31 1011 66 10000 5.1 80 08:19 29.02.2020
2134 Clouds 28 1011 70 0 6.04 61 07:41 29.02.2020
2135 Clouds 31 1011 66 10000 5.1 60 07:19 29.02.2020
2136 Clouds 31 1011 66 10000 5.1 60 06:50 29.02.2020
2137 Clouds 30 1011 70 10000 4.1 60 06:25 29.02.2020
2138 Clouds 30 1011 70 10000 4.1 60 05:48 29.02.2020
2139 Clouds 30 1011 70 10000 3.1 60 05:18 29.02.2020
2140 Clouds 28 1010 74 10000 2.1 40 03:43 29.02.2020
2141 Clouds 28 1009 74 10000 3.1 70 03:22 29.02.2020
2142 Clouds 28 1011 70 0 4.68 56 02:39 29.02.2020
2143 Clouds 28 1011 70 0 4.68 56 02:39 29.02.2020
2144 Clouds 28 1009 74 10000 4.1 80 01:31 29.02.2020
2145 Clouds 28 1009 72 0 4.41 49 00:38 29.02.2020
2146 Clouds 28 1009 74 10000 4.1 80 23:58 28.02.2020
2147 Clouds 28 1009 72 0 4.41 49 23:37 28.02.2020
2148 Clouds 28 1009 74 10000 4.6 90 23:19 28.02.2020
2149 Clouds 28 1009 72 0 4.44 50 22:41 28.02.2020
2150 Clouds 28 1010 69 10000 5.1 80 22:19 28.02.2020
2151 Clouds 28 1009 72 0 4.44 50 21:41 28.02.2020
2152 Clouds 29 1011 66 10000 5.7 80 21:21 28.02.2020
2153 Clouds 29 1011 66 10000 5.7 80 21:21 28.02.2020
2154 Clouds 29 1011 66 10000 5.7 80 20:56 28.02.2020
2155 Clouds 28 1009 72 0 4.44 50 20:37 28.02.2020
2156 Clouds 29 1011 74 10000 6.2 70 20:19 28.02.2020
2157 Clouds 29 1011 74 10000 6.2 70 19:56 28.02.2020
2158 Clouds 29 1011 74 10000 6.2 70 19:37 28.02.2020
2159 Clouds 29 1011 74 10000 6.2 70 19:18 28.02.2020
2160 Clouds 29 1011 74 10000 5.1 60 18:44 28.02.2020
2161 Clouds 29 1011 70 10000 5.1 60 18:23 28.02.2020
2162 Clouds 28 1012 73 0 4.75 50 17:41 28.02.2020
2163 Clouds 29 1010 74 10000 4.6 60 17:23 28.02.2020
2164 Clouds 29 1010 74 10000 4.6 60 16:56 28.02.2020
2165 Clouds 28 1010 74 0 5.57 45 16:37 28.02.2020
2166 Clouds 29 1009 70 10000 4.6 60 16:18 28.02.2020
2167 Clouds 29 1009 70 10000 4.6 60 15:42 28.02.2020
2168 Clouds 30 1008 66 10000 4.6 50 15:20 28.02.2020
2169 Clouds 30 1008 66 10000 4.6 50 14:59 28.02.2020
2170 Clouds 28 1010 74 0 5.57 45 14:41 28.02.2020
2171 Clouds 31 1008 62 10000 6.2 50 14:19 28.02.2020
2172 Clouds 31 1008 62 10000 6.2 50 13:57 28.02.2020
2173 Rain 28 1007 78 0 8.19 36 13:39 28.02.2020
2174 Clouds 31 1007 66 10000 5.7 50 13:19 28.02.2020
2175 Clouds 31 1007 66 10000 5.7 50 12:43 28.02.2020
2176 Clouds 31 1007 66 10000 5.7 50 12:24 28.02.2020
2177 Clouds 31 1007 66 10000 5.7 50 11:43 28.02.2020
2178 Clouds 31 1008 66 10000 6.2 50 11:24 28.02.2020
2179 Clouds 31 1008 66 10000 6.2 50 10:59 28.02.2020
2180 Clouds 28 1007 75 0 7.21 46 10:41 28.02.2020
2181 Clouds 32 1009 62 10000 6.2 50 10:22 28.02.2020
2182 Clouds 32 1009 62 10000 6.2 50 09:47 28.02.2020
2183 Clouds 31 1009 66 10000 7.7 50 09:21 28.02.2020
2184 Clouds 31 1009 66 10000 7.7 50 08:57 28.02.2020
2185 Clouds 31 1009 66 10000 7.7 50 08:57 28.02.2020
2186 Clouds 28 1007 75 0 7.21 46 08:37 28.02.2020
2187 Clouds 31 1010 66 10000 7.2 50 08:19 28.02.2020
2188 Clouds 28 1010 73 0 6.62 47 07:40 28.02.2020
2189 Clouds 31 1010 66 10000 7.2 50 07:21 28.02.2020
2190 Clouds 28 1010 73 0 6.62 47 06:45 28.02.2020
2191 Clouds 30 1010 66 10000 7.7 50 06:20 28.02.2020
2192 Clouds 29 1009 70 10000 7.2 60 04:45 28.02.2020
2193 Clouds 28 1009 74 10000 5.7 40 04:18 28.02.2020
2194 Clouds 27 1008 78 10000 4.6 30 02:46 28.02.2020
2195 Clouds 27 1008 83 10000 4.6 30 02:27 28.02.2020
2196 Clouds 27 1008 78 10000 4.6 30 00:59 28.02.2020
2197 Clouds 27 1008 78 10000 3.1 30 00:28 28.02.2020
2198 Clouds 27 1008 78 0 6.77 35 23:42 27.02.2020
2199 Clouds 28 1009 74 10000 4.6 30 23:20 27.02.2020
2200 Clouds 28 1009 74 10000 4.6 30 22:46 27.02.2020
2201 Clouds 28 1010 78 10000 5.1 60 22:26 27.02.2020
2202 Clouds 28 1010 78 10000 5.1 60 21:58 27.02.2020
2203 Clouds 27 1009 78 0 6.47 42 21:39 27.02.2020
2204 Clouds 28 1011 78 10000 5.7 60 21:19 27.02.2020
2205 Clouds 28 1011 78 10000 5.7 60 20:56 27.02.2020
2206 Clouds 27 1009 78 0 6.47 42 20:38 27.02.2020
2207 Clouds 29 1011 74 10000 5.7 60 20:20 27.02.2020
2208 Clouds 29 1011 74 10000 5.7 60 19:54 27.02.2020
2209 Clouds 28 1011 78 0 7.47 53 19:36 27.02.2020
2210 Clouds 29 1011 74 10000 5.7 60 19:18 27.02.2020
2211 Clouds 28 1011 78 0 7.47 53 18:40 27.02.2020
2212 Clouds 29 1011 74 10000 6.2 60 18:21 27.02.2020
2213 Clouds 29 1011 74 10000 6.2 60 17:57 27.02.2020
2214 Clouds 29 1011 74 10000 6.2 60 17:57 27.02.2020
2215 Clouds 28 1011 78 0 7.47 53 17:39 27.02.2020
2216 Clouds 29 1010 74 10000 7.2 70 17:19 27.02.2020
2217 Clouds 29 1010 74 10000 7.2 70 16:55 27.02.2020
2218 Rain 28 1010 79 0 8.91 46 16:37 27.02.2020
2219 Clouds 29 1009 74 10000 6.2 60 16:18 27.02.2020
2220 Clouds 29 1009 74 10000 6.2 60 15:54 27.02.2020
2221 Clouds 29 1009 74 10000 6.2 60 15:36 27.02.2020
2222 Clouds 29 1009 74 10000 6.2 60 15:18 27.02.2020
2223 Rain 28 1010 79 0 8.91 46 14:40 27.02.2020
2224 Clouds 30 1008 74 10000 5.7 60 14:22 27.02.2020
2225 Clouds 30 1008 74 10000 5.7 60 13:56 27.02.2020
2226 Clouds 28 1008 77 0 6.55 49 13:38 27.02.2020
2227 Clouds 31 1007 66 10000 6.2 70 13:19 27.02.2020
2228 Clouds 31 1007 66 10000 6.2 70 12:45 27.02.2020
2229 Clouds 32 1008 62 10000 6.7 70 12:22 27.02.2020
2230 Clouds 32 1008 62 10000 6.7 70 11:47 27.02.2020
2231 Clouds 32 1008 62 10000 7.2 60 11:23 27.02.2020
2232 Clouds 32 1008 62 10000 7.2 60 10:58 27.02.2020
2233 Clouds 28 1009 76 0 6.39 44 10:40 27.02.2020
2234 Clouds 31 1009 66 10000 6.2 50 10:20 27.02.2020
2235 Clouds 28 1009 76 0 6.39 44 09:42 27.02.2020
2236 Clouds 31 1010 66 10000 7.7 70 09:23 27.02.2020
2237 Clouds 31 1010 66 10000 7.7 70 08:55 27.02.2020
2238 Clouds 28 1009 76 0 6.39 44 08:37 27.02.2020
2239 Clouds 31 1011 66 10000 7.2 70 08:18 27.02.2020
2240 Clouds 28 1011 77 0 6.54 40 07:41 27.02.2020
2241 Clouds 30 1012 70 10000 7.2 70 07:20 27.02.2020
2242 Clouds 30 1011 70 10000 6.7 40 06:21 27.02.2020
2243 Clouds 29 1011 74 9000 5.1 40 04:48 27.02.2020
2244 Clouds 27 1009 83 10000 4.1 30 02:58 27.02.2020
2245 Clouds 28 1009 78 10000 4.1 30 01:32 27.02.2020
2246 Clouds 27 1009 81 0 6.02 34 00:41 27.02.2020
2247 Clouds 27 1009 81 0 6.02 34 23:41 26.02.2020
2248 Clouds 28 1009 78 10000 4.1 30 23:23 26.02.2020
2249 Clouds 28 1009 78 10000 4.1 30 22:59 26.02.2020
2250 Clouds 28 1009 80 0 6.06 39 22:41 26.02.2020
2251 Clouds 28 1010 78 10000 3.6 40 22:22 26.02.2020
2252 Clouds 28 1010 78 10000 3.6 40 21:59 26.02.2020
2253 Clouds 28 1009 80 0 6.06 39 21:39 26.02.2020
2254 Clouds 29 1011 74 10000 4.1 30 21:19 26.02.2020
2255 Clouds 29 1011 74 10000 4.1 30 20:56 26.02.2020
2256 Clouds 28 1009 80 0 6.06 39 20:38 26.02.2020
2257 Clouds 29 1011 74 10000 4.1 40 20:19 26.02.2020
2258 Clouds 29 1011 74 10000 4.1 40 19:55 26.02.2020
2259 Clouds 28 1011 79 0 6.21 38 19:36 26.02.2020
2260 Clouds 29 1011 79 10000 5.1 50 19:18 26.02.2020
2261 Clouds 29 1011 79 10000 5.1 50 18:54 26.02.2020
2262 Clouds 28 1011 79 0 6.21 38 18:36 26.02.2020
2263 Clouds 29 1011 79 10000 5.7 60 18:18 26.02.2020
2264 Clouds 28 1011 79 0 6.21 38 17:40 26.02.2020
2265 Clouds 29 1010 79 10000 4.6 60 17:19 26.02.2020
2266 Clouds 29 1010 79 10000 4.6 60 16:56 26.02.2020
2267 Clouds 28 1010 77 0 5.85 49 16:38 26.02.2020
2268 Clouds 29 1009 79 10000 4.6 60 16:19 26.02.2020
2269 Clouds 29 1009 79 10000 4.6 60 15:44 26.02.2020
2270 Clouds 29 1008 74 10000 5.1 60 15:25 26.02.2020
2271 Clouds 29 1008 74 10000 5.1 60 14:43 26.02.2020
2272 Clouds 31 1008 70 10000 5.1 60 14:23 26.02.2020
2273 Clouds 31 1008 70 10000 5.1 60 13:56 26.02.2020
2274 Clouds 28 1009 74 0 5.05 46 13:38 26.02.2020
2275 Clouds 31 1007 70 10000 5.1 70 13:18 26.02.2020
2276 Clouds 31 1007 70 10000 5.1 70 13:18 26.02.2020
2277 Clouds 28 1008 75 0 4.98 44 12:38 26.02.2020
2278 Clouds 31 1008 70 10000 5.1 70 12:19 26.02.2020
2279 Clouds 31 1008 70 10000 5.1 70 11:55 26.02.2020
2280 Clouds 31 1008 70 10000 5.1 70 11:36 26.02.2020
2281 Clouds 31 1008 70 10000 5.1 70 11:36 26.02.2020
2282 Clouds 31 1008 70 10000 5.1 70 11:18 26.02.2020
2283 Rain 28 1009 77 0 5.4 46 10:40 26.02.2020
2284 Clouds 31 1009 70 10000 5.1 60 10:21 26.02.2020
2285 Clouds 31 1009 70 10000 5.1 60 10:21 26.02.2020
2286 Clouds 31 1009 70 10000 5.1 60 09:44 26.02.2020
2287 Clouds 31 1010 70 10000 4.6 80 09:25 26.02.2020
2288 Clouds 31 1010 70 10000 4.6 80 08:59 26.02.2020
2289 Rain 28 1009 77 0 5.4 46 08:37 26.02.2020
2290 Clouds 31 1011 74 10000 5.7 70 08:18 26.02.2020
2291 Clouds 31 1011 74 10000 5.7 70 07:43 26.02.2020
2292 Clouds 31 1011 70 10000 5.1 70 07:25 26.02.2020
2293 Clouds 31 1011 70 10000 5.1 70 06:52 26.02.2020
2294 Rain 28 1012 77 0 5.64 59 06:34 26.02.2020
2295 Clouds 30 1011 74 10000 5.1 80 05:53 26.02.2020
2296 Clouds 30 1011 74 10000 5.1 80 05:53 26.02.2020
2297 Clouds 29 1010 79 10000 5.7 70 05:25 26.02.2020
2298 Clouds 28 1010 83 10000 4.6 60 04:34 26.02.2020
2299 Clouds 28 1009 83 10000 5.1 70 02:28 26.02.2020
2300 Clouds 28 1009 83 10000 5.1 70 01:48 26.02.2020
2301 Clouds 28 1008 78 10000 5.7 70 00:50 26.02.2020
2302 Clouds 28 1008 78 10000 5.1 70 00:25 26.02.2020
2303 Clouds 28 1008 78 10000 5.1 70 00:25 26.02.2020
2304 Clouds 28 1008 78 10000 5.1 70 23:56 25.02.2020
2305 Clouds 28 1008 79 0 6.53 46 23:37 25.02.2020
2306 Clouds 28 1009 78 10000 6.2 70 23:19 25.02.2020
2307 Clouds 28 1009 79 0 7.09 43 22:42 25.02.2020
2308 Clouds 28 1009 78 10000 6.2 70 22:19 25.02.2020
2309 Clouds 28 1009 78 10000 6.2 70 21:56 25.02.2020
2310 Clouds 28 1009 79 0 7.09 43 21:36 25.02.2020
2311 Clouds 29 1010 74 10000 6.7 70 21:18 25.02.2020
2312 Clouds 29 1010 74 10000 6.7 70 20:55 25.02.2020
2313 Clouds 28 1009 79 0 7.09 43 20:36 25.02.2020
2314 Clouds 29 1010 79 10000 6.7 70 20:18 25.02.2020
2315 Clouds 28 1011 79 0 7.82 41 19:42 25.02.2020
2316 Clouds 28 1010 83 10000 6.7 70 19:19 25.02.2020
2317 Clouds 28 1010 83 10000 6.7 70 18:43 25.02.2020
2318 Clouds 29 1010 79 10000 6.2 60 18:22 25.02.2020
2319 Clouds 29 1010 79 10000 6.2 60 18:00 25.02.2020
2320 Clouds 28 1011 79 0 7.82 41 17:38 25.02.2020
2321 Clouds 29 1009 79 10000 7.2 60 17:20 25.02.2020
2322 Clouds 29 1009 79 10000 7.2 60 16:59 25.02.2020
2323 Clouds 28 1009 80 0 8.02 50 16:40 25.02.2020
2324 Clouds 28 1009 80 0 8.02 50 16:40 25.02.2020
2325 Clouds 29 1008 79 10000 7.2 60 16:22 25.02.2020
2326 Clouds 29 1008 79 10000 7.2 60 15:59 25.02.2020
2327 Clouds 28 1009 80 0 8.02 50 15:41 25.02.2020
2328 Clouds 30 1008 74 10000 6.2 60 15:18 25.02.2020
2329 Clouds 30 1008 74 10000 6.2 60 14:57 25.02.2020
2330 Clouds 28 1009 80 0 8.02 50 14:37 25.02.2020
2331 Clouds 30 1007 74 10000 6.2 60 14:18 25.02.2020
2332 Clouds 30 1007 74 10000 6.2 60 14:18 25.02.2020
2333 Clouds 30 1007 74 10000 6.2 60 13:55 25.02.2020
2334 Clouds 28 1007 75 0 6.64 51 13:37 25.02.2020
2335 Clouds 31 1007 70 10000 6.2 60 13:19 25.02.2020
2336 Clouds 29 1007 75 0 6.38 56 12:42 25.02.2020
2337 Clouds 32 1007 66 10000 6.2 70 12:22 25.02.2020
2338 Clouds 32 1007 66 10000 6.2 70 11:57 25.02.2020
2339 Clouds 29 1007 75 0 6.38 56 11:39 25.02.2020
2340 Clouds 32 1008 62 10000 6.2 70 11:19 25.02.2020
2341 Clouds 32 1008 62 10000 6.2 70 10:59 25.02.2020
2342 Clouds 28 1008 75 0 5.95 67 10:40 25.02.2020
2343 Clouds 32 1009 66 10000 6.2 70 10:21 25.02.2020
2344 Clouds 32 1009 66 10000 6.2 70 09:41 25.02.2020
2345 Clouds 32 1009 66 10000 6.2 70 09:22 25.02.2020
2346 Clouds 32 1010 66 10000 6.2 70 08:47 25.02.2020
2347 Clouds 32 1011 66 10000 5.7 90 08:28 25.02.2020
2348 Clouds 32 1011 66 10000 5.7 90 07:58 25.02.2020
2349 Rain 28 1011 75 0 7.13 71 07:39 25.02.2020
2350 Clouds 31 1011 70 10000 6.2 80 07:18 25.02.2020
2351 Rain 28 1011 75 0 7.13 71 06:32 25.02.2020
2352 Clouds 30 1011 74 10000 6.7 90 05:27 25.02.2020
2353 Clouds 28 1009 78 9000 6.7 90 03:30 25.02.2020
2354 Clouds 28 1009 78 9000 6.7 70 01:31 25.02.2020
2355 Clouds 28 1009 78 9000 6.7 70 00:43 25.02.2020
2356 Clouds 28 1009 78 9000 7.2 80 00:25 25.02.2020
2357 Clouds 27 1009 79 0 6.79 68 23:40 24.02.2020
2358 Clouds 28 1009 78 9000 7.2 80 23:20 24.02.2020
2359 Rain 28 1009 79 0 7.33 59 22:41 24.02.2020
2360 Clouds 29 1010 79 9000 6.7 70 22:20 24.02.2020
2361 Clouds 29 1010 79 9000 6.7 70 21:57 24.02.2020
2362 Rain 28 1009 79 0 7.33 59 21:39 24.02.2020
2363 Clouds 29 1010 79 9000 7.2 70 21:19 24.02.2020
2364 Clouds 29 1010 79 9000 7.2 70 20:58 24.02.2020
2365 Rain 28 1009 79 0 7.33 59 20:39 24.02.2020
2366 Clouds 29 1011 79 9000 7.2 70 20:19 24.02.2020
2367 Clouds 29 1011 79 9000 7.2 70 19:56 24.02.2020
2368 Clouds 28 1011 78 0 5.84 75 19:38 24.02.2020
2369 Clouds 29 1011 79 9000 7.2 70 19:20 24.02.2020
2370 Clouds 29 1011 79 9000 7.2 70 18:43 24.02.2020
2371 Clouds 29 1011 79 9000 7.2 70 18:43 24.02.2020
2372 Clouds 29 1010 83 9000 6.7 80 18:24 24.02.2020
2373 Clouds 29 1010 83 9000 6.7 80 17:58 24.02.2020
2374 Clouds 29 1010 83 9000 6.7 80 17:39 24.02.2020
2375 Clouds 29 1010 83 9000 6.7 80 17:20 24.02.2020
2376 Clouds 29 1010 79 9000 7.2 90 16:58 24.02.2020
2377 Rain 28 1010 75 0 7.31 83 16:39 24.02.2020
2378 Clouds 29 1009 79 9000 7.2 100 16:20 24.02.2020
2379 Clouds 29 1009 79 9000 7.2 100 15:57 24.02.2020
2380 Rain 28 1010 75 0 7.31 83 15:39 24.02.2020
2381 Clouds 30 1008 79 9000 6.2 90 15:20 24.02.2020
2382 Clouds 30 1008 79 9000 6.2 90 14:56 24.02.2020
2383 Rain 28 1010 75 0 7.31 83 14:38 24.02.2020
2384 Clouds 30 1008 79 9000 7.7 70 14:18 24.02.2020
2385 Clouds 30 1008 79 9000 7.7 70 13:55 24.02.2020
2386 Clouds 28 1008 80 0 7.82 65 13:36 24.02.2020
2387 Clouds 31 1008 74 9000 7.2 60 13:18 24.02.2020
2388 Clouds 31 1008 74 9000 7.2 60 12:42 24.02.2020
2389 Clouds 31 1008 74 9000 7.2 60 12:24 24.02.2020
2390 Clouds 32 1008 70 9000 7.2 60 11:51 24.02.2020
2391 Clouds 32 1008 70 9000 7.2 60 11:32 24.02.2020
2392 Clouds 32 1009 70 9000 8.2 60 10:59 24.02.2020
2393 Rain 28 1009 79 0 9.17 59 10:40 24.02.2020
2394 Clouds 32 1010 70 9000 8.2 60 10:22 24.02.2020
2395 Rain 28 1009 79 0 9.17 59 09:40 24.02.2020
2396 Clouds 32 1010 70 9000 8.2 60 09:19 24.02.2020
2397 Clouds 32 1010 70 9000 8.2 60 08:52 24.02.2020
2398 Clouds 31 1011 74 9000 7.2 60 08:29 24.02.2020
2399 Clouds 31 1011 74 9000 7.2 60 07:56 24.02.2020
2400 Clouds 28 1011 78 0 7.15 70 07:33 24.02.2020
2401 Clouds 31 1012 70 9000 7.7 70 06:53 24.02.2020
2402 Clouds 30 1012 74 9000 7.2 70 06:26 24.02.2020
2403 Clouds 30 1012 74 9000 7.2 70 05:46 24.02.2020
2404 Clouds 30 1011 74 9000 7.2 80 05:25 24.02.2020
2405 Clouds 28 1009 83 9000 7.2 80 02:58 24.02.2020
2406 Rain 28 1011 75 0 9.04 68 02:31 24.02.2020
2407 Rain 28 1009 79 0 7.7 77 01:31 24.02.2020
2408 Clouds 28 1009 83 9000 7.2 80 00:47 24.02.2020
2409 Clouds 28 1009 83 9000 7.2 80 00:21 24.02.2020
2410 Clouds 28 1009 83 9000 7.2 80 23:55 23.02.2020
2411 Rain 28 1009 79 0 7.7 77 23:36 23.02.2020
2412 Clouds 28 1010 83 9000 7.2 80 23:18 23.02.2020
2413 Clouds 28 1009 79 0 7.92 78 22:42 23.02.2020
2414 Clouds 28 1010 88 9000 7.7 80 22:22 23.02.2020
2415 Clouds 28 1010 88 9000 7.7 80 21:55 23.02.2020
2416 Clouds 28 1009 79 0 7.92 78 21:37 23.02.2020
2417 Clouds 28 1011 88 9000 6.7 80 21:18 23.02.2020
2418 Clouds 28 1011 88 9000 6.7 80 20:55 23.02.2020
2419 Clouds 28 1009 79 0 7.92 78 20:37 23.02.2020
2420 Clouds 28 1012 83 9000 7.7 80 20:18 23.02.2020
2421 Clouds 28 1012 78 0 9.28 70 19:42 23.02.2020
2422 Clouds 29 1012 79 9000 7.7 70 19:20 23.02.2020
2423 Clouds 29 1012 79 9000 7.7 70 18:59 23.02.2020
2424 Clouds 28 1012 78 0 9.28 70 18:40 23.02.2020
2425 Clouds 29 1012 70 9000 8.7 90 18:20 23.02.2020
2426 Clouds 29 1012 70 9000 8.7 90 17:58 23.02.2020
2427 Clouds 28 1012 78 0 9.28 70 17:40 23.02.2020
2428 Clouds 28 1011 78 9000 8.2 70 17:21 23.02.2020
2429 Clouds 28 1011 78 9000 8.2 70 16:56 23.02.2020
2430 Rain 28 1011 80 0 9.37 64 16:37 23.02.2020
2431 Clouds 28 1010 83 9000 10.8 90 16:18 23.02.2020
2432 Clouds 28 1010 83 9000 10.8 90 15:54 23.02.2020
2433 Rain 28 1011 80 0 9.37 64 15:36 23.02.2020
2434 Clouds 29 1010 74 9000 11.8 90 15:18 23.02.2020
2435 Rain 28 1011 80 0 9.37 64 14:41 23.02.2020
2436 Clouds 30 1009 70 10000 11.3 70 14:23 23.02.2020
2437 Clouds 30 1009 70 10000 11.3 70 13:59 23.02.2020
2438 Rain 28 1010 82 0 9.29 59 13:41 23.02.2020
2439 Clouds 30 1009 74 9000 10.8 70 13:22 23.02.2020
2440 Clouds 30 1009 74 9000 10.8 70 13:22 23.02.2020
2441 Clouds 30 1009 74 9000 10.8 70 12:59 23.02.2020
2442 Rain 28 1010 82 0 9.36 63 12:38 23.02.2020
2443 Clouds 30 1009 74 9000 10.3 70 12:19 23.02.2020
2444 Rain 28 1010 82 0 9.36 63 11:38 23.02.2020
2445 Rain 28 1010 88 9000 9.3 60 11:20 23.02.2020
2446 Rain 28 1010 88 9000 9.3 60 11:20 23.02.2020
2447 Rain 28 1010 88 9000 9.3 60 10:57 23.02.2020
2448 Rain 28 1009 81 0 9.37 59 10:39 23.02.2020
2449 Clouds 29 1011 83 9000 9.3 60 10:21 23.02.2020
2450 Clouds 29 1011 83 9000 9.3 60 09:56 23.02.2020
2451 Rain 28 1009 81 0 9.37 59 09:37 23.02.2020
2452 Clouds 29 1012 83 9000 9.8 60 09:18 23.02.2020
2453 Clouds 29 1012 83 9000 9.8 60 08:43 23.02.2020
2454 Rain 30 1012 79 6000 8.2 80 08:24 23.02.2020
2455 Rain 30 1012 79 6000 8.2 80 07:43 23.02.2020
2456 Clouds 31 1013 74 9000 6.7 80 07:25 23.02.2020
2457 Clouds 30 1013 79 9000 6.7 80 06:20 23.02.2020
2458 Rain 29 1012 77 0 7.94 71 04:51 23.02.2020
2459 Rain 29 1012 77 0 7.94 71 03:52 23.02.2020
2460 Rain 29 1012 77 0 7.94 71 02:40 23.02.2020
2461 Thunderstorm 28 1010 83 8000 7.7 70 01:27 23.02.2020
2462 Thunderstorm 28 1010 83 8000 7.7 70 01:27 23.02.2020
2463 Thunderstorm 28 1010 83 8000 7.7 70 00:58 23.02.2020
2464 Rain 28 1011 81 0 6.87 70 00:37 23.02.2020
2465 Thunderstorm 28 1010 88 8000 7.7 70 00:18 23.02.2020
2466 Thunderstorm 28 1010 88 8000 7.7 70 23:42 22.02.2020
2467 Thunderstorm 28 1011 88 10000 5.1 90 23:20 22.02.2020
2468 Thunderstorm 28 1011 88 10000 5.1 90 22:44 22.02.2020
2469 Rain 28 1011 81 0 5.97 79 22:19 22.02.2020
2470 Rain 28 1011 81 0 5.97 79 21:43 22.02.2020
2471 Clouds 28 1013 83 10000 3.1 120 21:25 22.02.2020
2472 Clouds 28 1013 83 10000 3.1 120 20:58 22.02.2020
2473 Rain 28 1011 81 0 5.97 79 20:39 22.02.2020
2474 Clouds 28 1014 83 10000 3.6 110 20:21 22.02.2020
2475 Clouds 28 1014 83 10000 3.6 110 19:42 22.02.2020
2476 Clouds 28 1014 83 10000 6.2 90 19:23 22.02.2020
2477 Clouds 28 1014 83 10000 6.2 90 18:55 22.02.2020
2478 Clouds 28 1014 83 10000 6.2 90 18:37 22.02.2020
2479 Clouds 28 1014 83 10000 6.2 90 18:18 22.02.2020
2480 Rain 29 1014 80 0 7 69 17:44 22.02.2020
2481 Rain 28 1013 88 10000 5.7 100 17:25 22.02.2020
2482 Rain 28 1013 88 10000 5.7 100 16:59 22.02.2020
2483 Rain 28 1013 78 0 7.45 72 16:40 22.02.2020
2484 Clouds 28 1012 78 10000 7.2 90 16:20 22.02.2020
2485 Clouds 28 1012 78 10000 7.2 90 15:46 22.02.2020
2486 Clouds 29 1011 74 10000 7.2 90 15:27 22.02.2020
2487 Clouds 29 1011 74 10000 7.2 90 14:59 22.02.2020
2488 Rain 28 1013 78 0 7.45 72 14:40 22.02.2020
2489 Rain 28 1013 78 0 7.45 72 14:40 22.02.2020
2490 Rain 29 1010 83 8000 9.3 70 14:20 22.02.2020
2491 Rain 29 1010 83 8000 9.3 70 13:43 22.02.2020
2492 Clouds 29 1011 83 10000 7.2 70 13:20 22.02.2020
2493 Clouds 29 1011 83 10000 7.2 70 12:58 22.02.2020
2494 Clouds 29 1011 79 0 8.47 57 12:39 22.02.2020
2495 Clouds 30 1011 74 10000 7.2 70 12:20 22.02.2020
2496 Clouds 30 1011 74 10000 7.2 70 11:43 22.02.2020
2497 Clouds 30 1011 74 10000 7.2 70 11:25 22.02.2020
2498 Clouds 30 1011 74 10000 7.2 70 10:55 22.02.2020
2499 Rain 28 1011 79 0 10.08 45 10:36 22.02.2020
2500 Clouds 30 1012 79 10000 7.2 70 10:18 22.02.2020
2501 Clouds 30 1012 79 10000 7.2 70 10:18 22.02.2020
2502 Clouds 30 1012 79 10000 7.2 70 09:42 22.02.2020
2503 Clouds 30 1013 74 10000 8.7 70 09:22 22.02.2020
2504 Clouds 30 1013 74 10000 8.7 70 08:57 22.02.2020
2505 Rain 28 1011 79 0 10.08 45 08:38 22.02.2020
2506 Clouds 31 1013 74 10000 8.2 90 08:20 22.02.2020
2507 Rain 29 1013 78 0 10.66 50 07:39 22.02.2020
2508 Clouds 29 1014 83 8000 9.3 70 07:18 22.02.2020
2509 Clouds 29 1014 83 8000 9.3 70 06:43 22.02.2020
2510 Clouds 29 1013 83 10000 10.3 90 04:54 22.02.2020
2511 Clouds 29 1012 83 10000 9.3 80 04:28 22.02.2020
2512 Clouds 28 1011 88 10000 7.7 70 02:42 22.02.2020
2513 Clouds 28 1010 83 10000 8.2 70 01:51 22.02.2020
2514 Clouds 28 1010 88 10000 7.7 70 01:30 22.02.2020
2515 Clouds 28 1010 88 10000 7.7 70 00:50 22.02.2020
2516 Clouds 28 1010 83 10000 7.7 60 00:32 22.02.2020
2517 Clouds 28 1010 83 10000 7.7 60 23:56 21.02.2020
2518 Rain 29 1010 77 0 10.25 52 23:37 21.02.2020
2519 Clouds 28 1011 88 10000 7.7 60 23:18 21.02.2020
2520 Clouds 28 1011 88 10000 7.7 60 23:18 21.02.2020
2521 Clouds 28 1011 88 10000 7.7 60 22:42 21.02.2020
2522 Clouds 28 1012 88 10000 7.7 60 22:24 21.02.2020
2523 Clouds 28 1012 88 10000 7.7 60 21:56 21.02.2020
2524 Clouds 28 1012 88 10000 7.7 60 21:56 21.02.2020
2525 Rain 29 1010 77 0 9.17 56 21:37 21.02.2020
2526 Clouds 29 1013 83 9000 6.7 60 21:19 21.02.2020
2527 Rain 29 1010 77 0 9.17 56 20:41 21.02.2020
2528 Rain 29 1010 79 0 9.76 63 20:23 21.02.2020
2529 Rain 28 1013 81 0 9.29 45 19:40 21.02.2020
2530 Thunderstorm 29 1013 83 9000 6.2 60 19:20 21.02.2020
2531 Thunderstorm 29 1013 83 9000 6.2 60 18:43 21.02.2020
2532 Thunderstorm 28 1012 88 9000 6.7 60 18:24 21.02.2020
2533 Thunderstorm 28 1012 88 9000 6.7 60 17:57 21.02.2020
2534 Rain 28 1013 81 0 9.29 45 17:38 21.02.2020
2535 Thunderstorm 28 1012 88 9000 7.2 60 17:19 21.02.2020
2536 Thunderstorm 28 1012 88 9000 7.2 60 16:54 21.02.2020
2537 Rain 28 1012 81 0 9.1 41 16:36 21.02.2020
2538 Rain 28 1012 81 0 9.1 41 16:18 21.02.2020
2539 Rain 28 1012 81 0 9.1 41 15:39 21.02.2020
2540 Clouds 30 1010 79 10000 7.2 40 15:19 21.02.2020
2541 Clouds 30 1010 79 10000 7.2 40 14:43 21.02.2020
2542 Clouds 31 1009 74 10000 7.2 70 14:22 21.02.2020
2543 Clouds 31 1009 74 10000 7.2 70 13:59 21.02.2020
2544 Rain 28 1010 81 0 8.92 39 13:40 21.02.2020
2545 Clouds 32 1009 70 10000 7.2 60 13:20 21.02.2020
2546 Clouds 32 1009 70 10000 7.2 60 12:45 21.02.2020
2547 Clouds 32 1009 70 10000 7.7 50 12:27 21.02.2020
2548 Clouds 32 1009 70 10000 7.7 50 11:57 21.02.2020
2549 Rain 28 1009 80 0 8.63 48 11:38 21.02.2020
2550 Clouds 32 1010 70 10000 7.7 60 11:19 21.02.2020
2551 Rain 28 1010 80 0 7.81 52 10:42 21.02.2020
2552 Rain 28 1010 80 0 7.81 52 10:42 21.02.2020
2553 Clouds 32 1011 70 10000 8.7 60 10:22 21.02.2020
2554 Clouds 32 1011 70 10000 8.7 60 09:58 21.02.2020
2555 Clouds 32 1011 70 10000 8.7 60 09:39 21.02.2020
2556 Clouds 32 1011 70 10000 8.7 60 09:20 21.02.2020
2557 Clouds 32 1012 70 10000 7.7 60 08:55 21.02.2020
2558 Rain 28 1010 80 0 7.81 52 08:36 21.02.2020
2559 Clouds 32 1012 66 10000 7.7 70 08:18 21.02.2020
2560 Clouds 29 1012 78 0 8.43 53 07:41 21.02.2020
2561 Clouds 31 1013 70 10000 7.2 70 07:21 21.02.2020
2562 Clouds 31 1013 70 10000 7.2 70 06:55 21.02.2020
2563 Clouds 29 1012 78 0 8.43 53 06:32 21.02.2020
2564 Clouds 29 1012 78 0 8.43 53 05:55 21.02.2020
2565 Clouds 29 1012 78 0 8.43 53 05:30 21.02.2020
2566 Rain 28 1012 77 0 8.59 65 04:25 21.02.2020
2567 Rain 28 1012 77 0 8.59 65 03:46 21.02.2020
2568 Rain 28 1012 77 0 8.59 65 02:58 21.02.2020
2569 Rain 28 1010 78 0 7.59 67 01:32 21.02.2020
2570 Clear 28 1009 78 0 7.36 65 00:46 21.02.2020
2571 Clear 28 1009 78 0 7.36 65 00:24 21.02.2020
2572 Clear 28 1009 78 0 7.36 65 23:58 20.02.2020
2573 Clear 28 1009 78 0 7.36 65 23:39 20.02.2020
2574 Clear 28 1009 78 0 7.36 65 23:21 20.02.2020
2575 Clear 28 1009 78 0 8.44 58 22:40 20.02.2020
2576 Clouds 28 1010 83 10000 7.7 70 22:21 20.02.2020
2577 Clouds 28 1010 83 10000 7.7 70 21:57 20.02.2020
2578 Clear 28 1009 78 0 8.44 58 21:39 20.02.2020
2579 Clear 28 1009 78 0 8.44 58 21:39 20.02.2020
2580 Clouds 28 1010 83 10000 7.2 70 21:19 20.02.2020
2581 Clouds 28 1010 83 10000 7.2 70 21:19 20.02.2020
2582 Clouds 28 1010 83 10000 7.2 70 20:56 20.02.2020
2583 Clear 28 1009 78 0 8.44 58 20:38 20.02.2020
2584 Clouds 28 1011 78 10000 7.2 70 20:19 20.02.2020
2585 Clouds 28 1011 78 10000 7.2 70 19:58 20.02.2020
2586 Clouds 28 1011 77 0 8.77 62 19:40 20.02.2020
2587 Clouds 29 1011 74 10000 8.2 70 19:22 20.02.2020
2588 Clouds 29 1011 74 10000 8.2 70 18:40 20.02.2020
2589 Clouds 29 1011 74 10000 8.2 70 18:21 20.02.2020
2590 Clouds 29 1011 74 10000 7.7 70 17:58 20.02.2020
2591 Clouds 29 1011 74 10000 7.7 70 17:39 20.02.2020
2592 Clouds 29 1011 74 10000 7.7 70 17:38 20.02.2020
2593 Clouds 29 1011 74 10000 8.7 70 17:19 20.02.2020
2594 Clouds 29 1011 74 10000 8.7 70 16:56 20.02.2020
2595 Rain 28 1011 79 0 9.36 58 16:38 20.02.2020
2596 Clouds 29 1010 74 10000 9.3 70 16:18 20.02.2020
2597 Clouds 29 1010 74 10000 9.3 70 15:42 20.02.2020
2598 Clouds 30 1010 70 10000 9.8 70 15:22 20.02.2020
2599 Clouds 30 1010 70 10000 9.8 70 14:57 20.02.2020
2600 Rain 28 1011 79 0 9.36 58 14:39 20.02.2020
2601 Rain 28 1011 79 0 9.36 58 14:39 20.02.2020
2602 Clouds 30 1009 70 10000 8.2 70 14:21 20.02.2020
2603 Clouds 30 1009 70 10000 8.2 70 13:54 20.02.2020
2604 Clouds 28 1008 76 0 6.73 69 13:36 20.02.2020
2605 Clouds 31 1008 66 10000 7.2 80 13:18 20.02.2020
2606 Clouds 28 1008 79 0 7.96 63 12:42 20.02.2020
2607 Clouds 31 1009 66 10000 7.7 80 12:21 20.02.2020
2608 Clouds 31 1009 66 10000 7.7 80 11:57 20.02.2020
2609 Clouds 31 1009 66 10000 7.7 80 11:39 20.02.2020
2610 Clouds 31 1009 66 10000 7.7 80 11:39 20.02.2020
2611 Clouds 31 1009 66 10000 7.7 80 11:20 20.02.2020
2612 Clouds 31 1009 62 10000 7.2 80 10:55 20.02.2020
2613 Clouds 28 1009 75 0 7.42 71 10:37 20.02.2020
2614 Clouds 28 1009 75 0 7.42 71 10:19 20.02.2020
2615 Clouds 28 1009 75 0 7.42 71 09:38 20.02.2020
2616 Clouds 31 1011 62 9000 7.7 70 09:19 20.02.2020
2617 Clouds 28 1009 75 0 7.42 71 08:41 20.02.2020
2618 Clouds 28 1009 75 0 7.42 71 08:23 20.02.2020
2619 Clouds 28 1011 75 0 8.43 71 07:47 20.02.2020
2620 Clouds 28 1011 75 0 8.43 71 07:47 20.02.2020
2621 Clouds 30 1012 66 9000 9.3 70 07:27 20.02.2020
2622 Clouds 30 1012 66 9000 9.3 70 06:57 20.02.2020
2623 Clouds 28 1011 75 0 8.43 71 06:37 20.02.2020
2624 Clouds 29 1012 70 9000 8.7 70 05:47 20.02.2020
2625 Clouds 29 1011 70 10000 8.2 70 05:20 20.02.2020
2626 Clear 27 1012 74 0 8.1 63 04:37 20.02.2020
2627 Clouds 28 1011 74 10000 7.7 70 03:46 20.02.2020
2628 Clouds 27 1010 78 10000 7.7 70 02:45 20.02.2020
2629 Clouds 28 1009 74 10000 7.2 70 01:23 20.02.2020
2630 Clear 27 1009 74 0 7.74 55 00:37 20.02.2020
2631 Clear 27 1009 74 0 7.74 55 23:55 19.02.2020
2632 Clouds 28 1011 74 10000 7.2 70 23:24 19.02.2020
2633 Clouds 28 1011 74 10000 7.2 70 22:59 19.02.2020
2634 Clear 27 1009 74 0 8.26 52 22:41 19.02.2020
2635 Clouds 28 1011 74 10000 7.2 70 22:21 19.02.2020
2636 Clouds 28 1011 74 10000 7.2 70 21:57 19.02.2020
2637 Clear 27 1009 74 0 8.26 52 21:38 19.02.2020
2638 Clouds 28 1011 74 10000 7.7 70 21:18 19.02.2020
2639 Clouds 28 1011 74 10000 7.7 70 21:18 19.02.2020
2640 Clouds 28 1011 74 10000 7.7 70 20:56 19.02.2020
2641 Clear 27 1009 74 0 8.26 52 20:37 19.02.2020
2642 Clouds 28 1012 74 10000 7.2 70 20:18 19.02.2020
2643 Clouds 28 1012 74 10000 7.2 70 19:56 19.02.2020
2644 Clear 27 1012 78 0 8.66 61 19:37 19.02.2020
2645 Clouds 28 1012 74 10000 7.2 70 19:18 19.02.2020
2646 Clouds 28 1012 74 10000 7.2 70 18:56 19.02.2020
2647 Clouds 28 1012 74 10000 7.2 70 18:56 19.02.2020
2648 Clear 27 1012 78 0 8.66 61 18:38 19.02.2020
2649 Clouds 28 1012 74 10000 7.7 70 18:20 19.02.2020
2650 Clear 27 1012 78 0 8.66 61 17:43 19.02.2020
2651 Clouds 29 1011 70 10000 7.7 70 17:20 19.02.2020
2652 Clouds 29 1011 70 10000 7.7 70 16:45 19.02.2020
2653 Clouds 29 1010 70 10000 8.7 80 16:20 19.02.2020
2654 Clouds 29 1010 70 10000 8.7 80 15:59 19.02.2020
2655 Clear 28 1011 77 0 8.47 62 15:41 19.02.2020
2656 Clouds 29 1009 70 10000 7.2 70 15:23 19.02.2020
2657 Clouds 29 1009 70 10000 7.2 70 14:55 19.02.2020
2658 Clear 28 1011 77 0 8.47 62 14:37 19.02.2020
2659 Clouds 30 1009 62 10000 7.2 70 14:18 19.02.2020
2660 Clear 28 1009 75 0 7.93 54 13:41 19.02.2020
2661 Clouds 30 1008 62 10000 7.2 60 13:21 19.02.2020
2662 Clouds 28 1009 75 0 7.96 56 12:42 19.02.2020
2663 Clouds 31 1009 62 10000 7.7 70 12:19 19.02.2020
2664 Clouds 31 1009 62 10000 7.7 70 11:59 19.02.2020
2665 Clouds 28 1009 75 0 7.96 56 11:37 19.02.2020
2666 Clouds 32 1010 59 10000 7.7 70 11:19 19.02.2020
2667 Clouds 32 1010 59 10000 7.7 70 10:57 19.02.2020
2668 Clouds 27 1010 75 0 7.99 51 10:38 19.02.2020
2669 Clouds 31 1011 62 10000 7.7 70 10:19 19.02.2020
2670 Clouds 31 1011 62 10000 7.7 70 09:57 19.02.2020
2671 Clouds 27 1010 75 0 7.99 51 09:37 19.02.2020
2672 Clouds 31 1012 62 10000 8.2 70 09:18 19.02.2020
2673 Clouds 31 1012 62 10000 8.2 70 09:18 19.02.2020
2674 Clouds 31 1012 62 10000 8.2 70 09:18 19.02.2020
2675 Clouds 31 1012 62 10000 8.2 70 08:44 19.02.2020
2676 Clouds 31 1013 62 10000 8.2 70 08:24 19.02.2020
2677 Clear 28 1013 75 0 8.67 48 07:42 19.02.2020
2678 Clouds 30 1013 66 9000 7.2 60 07:21 19.02.2020
2679 Clouds 30 1013 66 9000 7.2 60 07:21 19.02.2020
2680 Clouds 30 1013 66 9000 7.2 60 06:53 19.02.2020
2681 Clouds 30 1013 70 9000 6.2 60 06:23 19.02.2020
2682 Clouds 28 1012 74 9000 7.2 60 04:24 19.02.2020
2683 Clouds 28 1011 74 9000 6.7 70 02:56 19.02.2020
2684 Clouds 28 1011 74 9000 7.2 70 02:31 19.02.2020
2685 Clouds 28 1010 74 9000 7.2 70 01:24 19.02.2020
2686 Clouds 28 1010 74 9000 7.2 70 00:50 19.02.2020
2687 Clouds 28 1010 74 9000 7.2 70 00:30 19.02.2020
2688 Clouds 28 1010 74 9000 7.2 70 23:44 18.02.2020
2689 Clouds 28 1011 74 9000 7.2 60 23:21 18.02.2020
2690 Clouds 28 1011 74 9000 7.2 60 22:59 18.02.2020
2691 Clouds 27 1011 74 0 8.69 54 22:41 18.02.2020
2692 Clouds 28 1012 74 9000 7.2 70 22:19 18.02.2020
2693 Clouds 28 1012 74 9000 7.2 70 21:55 18.02.2020
2694 Clouds 27 1011 74 0 8.69 54 21:37 18.02.2020
2695 Clouds 28 1013 74 9000 7.2 70 21:19 18.02.2020
2696 Clouds 28 1013 74 9000 7.2 70 20:56 18.02.2020
2697 Clouds 28 1013 74 9000 7.2 70 20:56 18.02.2020
2698 Clouds 27 1011 74 0 8.69 54 20:38 18.02.2020
2699 Clouds 27 1011 74 0 8.69 54 20:38 18.02.2020
2700 Clouds 28 1013 74 9000 7.2 70 20:20 18.02.2020
2701 Clouds 28 1013 74 9000 7.2 70 19:43 18.02.2020
2702 Clouds 29 1013 70 9000 7.2 70 19:20 18.02.2020
2703 Clouds 29 1013 70 9000 7.2 70 18:59 18.02.2020
2704 Clouds 28 1013 74 0 9.39 57 18:41 18.02.2020
2705 Clouds 29 1013 70 9000 7.2 70 18:20 18.02.2020
2706 Clouds 29 1013 70 9000 7.2 70 17:56 18.02.2020
2707 Clouds 28 1013 74 0 9.39 57 17:37 18.02.2020
2708 Clouds 29 1013 70 9000 8.7 70 17:18 18.02.2020
2709 Clouds 28 1013 78 0 8.65 52 16:39 18.02.2020
2710 Clouds 29 1012 74 9000 7.7 70 16:19 18.02.2020
2711 Clouds 28 1013 78 0 8.65 52 15:40 18.02.2020
2712 Clouds 29 1011 74 9000 8.7 70 15:20 18.02.2020
2713 Clouds 29 1011 74 9000 8.7 70 14:57 18.02.2020
2714 Clouds 29 1011 74 9000 8.7 70 14:57 18.02.2020
2715 Clouds 28 1013 78 0 8.65 52 14:39 18.02.2020
2716 Clouds 30 1010 70 9000 7.7 70 14:20 18.02.2020
2717 Clouds 28 1010 78 0 7.48 52 13:42 18.02.2020
2718 Clouds 31 1010 70 9000 7.7 70 13:23 18.02.2020
2719 Clouds 31 1010 70 9000 7.7 70 12:59 18.02.2020
2720 Clouds 31 1010 70 9000 7.7 70 12:59 18.02.2020
2721 Clouds 28 1010 75 0 8.01 55 12:40 18.02.2020
2722 Clouds 32 1010 66 9000 7.2 70 12:22 18.02.2020
2723 Clouds 28 1010 75 0 8.01 55 11:44 18.02.2020
2724 Clouds 31 1011 70 9000 6.7 70 11:26 18.02.2020
2725 Clouds 31 1011 70 9000 6.7 70 10:57 18.02.2020
2726 Clouds 28 1011 78 0 8.56 54 10:39 18.02.2020
2727 Clouds 31 1012 70 9000 6.7 70 10:18 18.02.2020
2728 Clouds 31 1012 70 9000 6.7 70 09:56 18.02.2020
2729 Clouds 28 1011 78 0 8.56 54 09:37 18.02.2020
2730 Clouds 28 1011 78 0 8.56 54 09:37 18.02.2020
2731 Clouds 32 1013 66 9000 7.2 70 09:19 18.02.2020
2732 Clouds 32 1013 66 9000 7.2 70 08:43 18.02.2020
2733 Clouds 31 1013 66 9000 7.7 70 08:21 18.02.2020
2734 Clouds 31 1013 66 9000 7.7 70 07:57 18.02.2020
2735 Clouds 28 1013 79 0 7.84 67 07:36 18.02.2020
2736 Clouds 30 1014 70 9000 7.7 70 07:18 18.02.2020
2737 Clouds 28 1013 79 0 7.84 67 06:41 18.02.2020
2738 Clouds 30 1013 70 9000 7.7 70 06:21 18.02.2020
2739 Clouds 30 1013 70 9000 7.7 70 05:46 18.02.2020
2740 Clouds 28 1012 72 0 7.74 56 04:40 18.02.2020
2741 Clouds 28 1012 72 0 7.74 56 03:36 18.02.2020
2742 Clouds 28 1012 72 0 7.74 56 02:38 18.02.2020
2743 Clouds 28 1010 83 9000 6.7 70 01:19 18.02.2020
2744 Clouds 28 1010 83 9000 7.2 70 00:22 18.02.2020
2745 Clouds 28 1010 83 9000 7.2 70 23:57 17.02.2020
2746 Rain 28 1010 80 0 7.47 53 23:38 17.02.2020
2747 Clouds 28 1011 83 9000 7.2 70 23:19 17.02.2020
2748 Rain 28 1011 81 0 7.58 56 22:41 17.02.2020
2749 Clouds 29 1012 79 9000 7.2 70 22:21 17.02.2020
2750 Clouds 29 1012 79 9000 7.2 70 21:59 17.02.2020
2751 Rain 28 1011 81 0 7.58 56 21:38 17.02.2020
2752 Clouds 29 1012 79 9000 8.2 80 21:18 17.02.2020
2753 Clouds 29 1012 79 9000 8.2 80 21:18 17.02.2020
2754 Rain 28 1011 81 0 7.58 56 20:42 17.02.2020
2755 Clouds 29 1013 83 9000 6.7 70 20:21 17.02.2020
2756 -273 0 0 0 0 0 20:21 17.02.2020
2757 Clouds 29 1013 83 9000 6.7 70 20:21 17.02.2020
2758 Clouds 29 1013 83 9000 6.7 70 19:58 17.02.2020
2759 Rain 28 1013 82 0 7.73 61 19:40 17.02.2020
2760 Clouds 29 1013 83 9000 7.2 70 19:20 17.02.2020
2761 Rain 28 1013 82 0 7.73 61 18:38 17.02.2020
2762 Clouds 29 1013 79 9000 7.7 70 18:20 17.02.2020
2763 Clouds 29 1013 79 9000 7.7 70 17:58 17.02.2020
2764 Clouds 29 1013 79 9000 7.7 70 17:58 17.02.2020
2765 Rain 28 1013 82 0 7.73 61 17:38 17.02.2020
2766 Rain 28 1013 82 0 7.73 61 17:38 17.02.2020
2767 Clouds 29 1012 79 9000 6.7 70 17:19 17.02.2020
2768 Clouds 29 1012 79 9000 6.7 70 16:55 17.02.2020
2769 Rain 28 1012 82 0 8.26 64 16:37 17.02.2020
2770 Clouds 29 1011 79 9000 8.2 90 16:18 17.02.2020
2771 Rain 28 1012 82 0 8.26 64 15:44 17.02.2020
2772 Rain 28 1012 82 0 8.26 64 15:44 17.02.2020
2773 Clouds 30 1010 74 9000 7.7 70 15:26 17.02.2020
2774 Clouds 30 1010 74 9000 7.7 70 14:55 17.02.2020
2775 Rain 28 1012 82 0 8.26 64 14:37 17.02.2020
2776 Clouds 31 1010 74 9000 6.7 70 14:19 17.02.2020
2777 Clouds 31 1010 74 9000 6.7 70 14:19 17.02.2020
2778 Rain 28 1010 79 0 6.53 56 13:40 17.02.2020
2779 Clouds 31 1010 70 9000 6.2 70 13:20 17.02.2020
2780 Clouds 31 1010 70 9000 6.2 70 12:57 17.02.2020
2781 Clouds 28 1010 78 0 5.9 64 12:39 17.02.2020
2782 Clouds 32 1010 66 9000 6.2 70 12:21 17.02.2020
2783 Clouds 32 1010 66 9000 6.2 70 11:45 17.02.2020
2784 Clouds 32 1010 62 9000 5.7 70 11:26 17.02.2020
2785 Clouds 32 1010 62 9000 5.7 70 10:57 17.02.2020
2786 Clouds 28 1010 77 0 5.43 67 10:39 17.02.2020
2787 Clouds 32 1011 66 9000 5.7 70 10:20 17.02.2020
2788 Clouds 32 1011 66 9000 5.7 70 09:57 17.02.2020
2789 Clouds 28 1010 77 0 5.43 67 09:38 17.02.2020
2790 Clouds 32 1012 66 9000 6.2 70 09:19 17.02.2020
2791 Clouds 32 1012 66 9000 6.2 70 08:42 17.02.2020
2792 Clouds 31 1013 66 9000 6.7 70 08:23 17.02.2020
2793 Clouds 31 1013 66 9000 6.7 70 07:59 17.02.2020
2794 Clouds 28 1013 78 0 6.4 70 07:38 17.02.2020
2795 Clouds 31 1014 66 9000 5.7 70 07:19 17.02.2020
2796 Clouds 31 1014 66 9000 5.7 70 06:42 17.02.2020
2797 Clouds 30 1014 70 9000 6.7 70 06:24 17.02.2020
2798 Clouds 28 1013 78 0 6.4 70 05:40 17.02.2020
2799 Clouds 28 1011 83 9000 5.1 80 04:26 17.02.2020
2800 Clouds 28 1011 83 9000 5.1 80 02:59 17.02.2020
2801 Clouds 28 1010 83 9000 5.1 80 01:23 17.02.2020
2802 Rain 28 1011 81 0 6.39 72 00:39 17.02.2020
2803 Clouds 28 1010 83 9000 5.7 80 00:19 17.02.2020
2804 Clouds 28 1010 83 9000 5.7 80 23:52 16.02.2020
2805 Clouds 28 1011 83 9000 5.1 80 23:27 16.02.2020
2806 Clouds 28 1011 83 9000 5.1 80 22:56 16.02.2020
2807 Rain 27 1010 83 0 6.25 65 22:38 16.02.2020
2808 Clouds 29 1011 79 9000 6.2 90 22:19 16.02.2020
2809 Clouds 29 1011 79 9000 6.2 90 21:55 16.02.2020
2810 Rain 27 1010 83 0 6.25 65 21:36 16.02.2020
2811 Clouds 29 1012 79 9000 6.2 80 21:18 16.02.2020
2812 Clouds 29 1012 79 9000 6.2 80 20:54 16.02.2020
2813 Rain 27 1010 83 0 6.25 65 20:36 16.02.2020
2814 Clouds 29 1012 79 9000 7.2 80 20:18 16.02.2020
2815 Clouds 29 1012 79 9000 7.2 80 19:54 16.02.2020
2816 Clear 28 1013 79 0 6.16 74 19:36 16.02.2020
2817 Clouds 29 1013 83 9000 7.2 90 19:18 16.02.2020
2818 Clear 28 1013 79 0 6.16 74 18:41 16.02.2020
2819 Rain 29 1012 83 9000 6.7 90 18:23 16.02.2020
2820 Rain 29 1012 83 9000 6.7 90 18:23 16.02.2020
2821 Rain 29 1012 83 9000 6.7 90 17:45 16.02.2020
2822 Clouds 29 1012 83 9000 7.2 90 17:21 16.02.2020
2823 Clouds 29 1012 83 9000 7.2 90 16:57 16.02.2020
2824 Rain 29 1011 78 0 7.27 69 16:39 16.02.2020
2825 Rain 29 1011 78 0 7.27 69 16:39 16.02.2020
2826 Clouds 28 1011 88 9000 6.7 70 16:21 16.02.2020
2827 Clouds 28 1011 88 9000 6.7 70 16:21 16.02.2020
2828 Clouds 28 1011 88 9000 6.7 70 15:57 16.02.2020
2829 Rain 29 1011 78 0 7.27 69 15:38 16.02.2020
2830 Clouds 29 1010 83 9000 4.6 90 15:18 16.02.2020
2831 Rain 29 1011 78 0 7.27 69 14:40 16.02.2020
2832 Clouds 30 1009 74 9000 6.2 90 14:22 16.02.2020
2833 Clouds 30 1009 74 9000 6.2 90 13:48 16.02.2020
2834 Clouds 31 1009 74 9000 6.7 70 13:25 16.02.2020
2835 Clouds 31 1009 74 9000 6.7 70 12:56 16.02.2020
2836 Rain 28 1009 78 0 5.7 81 12:38 16.02.2020
2837 Clouds 32 1009 70 9000 5.7 70 12:19 16.02.2020
2838 Rain 28 1009 78 0 5.7 81 11:39 16.02.2020
2839 Clouds 32 1010 70 9000 6.2 70 11:19 16.02.2020
2840 Clouds 32 1010 70 9000 6.2 70 10:57 16.02.2020
2841 Clouds 28 1010 80 0 5.09 56 10:39 16.02.2020
2842 Clouds 32 1011 70 9000 5.7 70 10:21 16.02.2020
2843 -273 0 0 0 0 0 09:57 16.02.2020
2844 Clouds 28 1010 80 0 5.09 56 09:37 16.02.2020
2845 Clouds 32 1011 70 9000 5.7 70 09:19 16.02.2020
2846 Clouds 32 1011 70 9000 5.7 70 08:47 16.02.2020
2847 Clouds 31 1012 74 9000 4.6 80 08:22 16.02.2020
2848 Clouds 31 1012 74 9000 4.6 80 08:22 16.02.2020
2849 Clouds 31 1012 74 9000 4.6 80 07:56 16.02.2020
2850 Clear 28 1013 80 0 5.69 72 07:34 16.02.2020
2851 Clear 28 1013 80 0 5.69 72 06:36 16.02.2020
2852 Clear 28 1013 80 0 5.69 72 05:37 16.02.2020
2853 Clouds 28 1012 83 9000 4.6 80 03:58 16.02.2020
2854 Clear 28 1012 81 0 5.11 76 02:35 16.02.2020
2855 Clouds 28 1011 83 9000 5.1 80 01:57 16.02.2020
2856 Clouds 28 1010 78 0 4.79 78 01:37 16.02.2020
2857 Clouds 28 1010 83 9000 5.1 80 01:18 16.02.2020
2858 Clouds 28 1010 80 0 4.97 67 00:40 16.02.2020
2859 Clouds 28 1011 83 9000 3.6 70 00:19 16.02.2020
2860 Clouds 28 1010 80 0 4.97 67 23:42 15.02.2020
2861 Clouds 28 1011 83 9000 4.1 80 23:23 15.02.2020
2862 Clouds 28 1011 83 9000 4.1 80 22:56 15.02.2020
2863 Clouds 28 1011 79 0 5.43 56 22:38 15.02.2020
2864 Clouds 28 1011 83 9000 4.1 80 22:18 15.02.2020
2865 Clouds 28 1011 83 9000 4.1 80 21:43 15.02.2020
2866 Clouds 29 1012 79 9000 4.1 80 21:23 15.02.2020
2867 Clouds 29 1012 79 9000 4.1 80 20:55 15.02.2020
2868 Clouds 28 1011 79 0 5.43 56 20:36 15.02.2020
2869 Clouds 28 1013 80 0 5.4 47 20:18 15.02.2020
2870 Clouds 28 1013 80 0 5.4 47 19:40 15.02.2020
2871 Clouds 29 1013 79 9000 4.1 60 19:21 15.02.2020
2872 Clouds 28 1013 80 0 5.4 47 18:40 15.02.2020
2873 Clouds 29 1012 79 9000 4.1 60 18:20 15.02.2020
2874 Clouds 29 1012 79 9000 4.1 60 17:55 15.02.2020
2875 Clouds 29 1012 79 9000 4.1 60 17:37 15.02.2020
2876 Clouds 29 1012 79 9000 4.1 60 17:18 15.02.2020
2877 Rain 28 1012 77 0 5.62 38 16:40 15.02.2020
2878 Clouds 29 1011 79 9000 3.1 30 16:20 15.02.2020
2879 Clouds 29 1011 79 9000 3.1 30 15:49 15.02.2020
2880 Clouds 30 1010 74 9000 3.1 350 15:31 15.02.2020
2881 Clouds 30 1010 74 9000 3.1 350 14:57 15.02.2020
2882 Rain 28 1012 77 0 5.62 38 14:39 15.02.2020
2883 Clouds 30 1009 74 9000 2.6 350 14:18 15.02.2020
2884 Rain 28 1010 76 0 4.78 41 13:42 15.02.2020
2885 Clouds 30 1009 74 9000 4.6 60 13:22 15.02.2020
2886 Clouds 30 1009 74 9000 4.6 60 12:57 15.02.2020
2887 Clouds 28 1010 76 0 5.19 37 12:38 15.02.2020
2888 Clouds 30 1009 74 9000 5.1 60 12:19 15.02.2020
2889 Clouds 30 1009 74 9000 5.1 60 11:45 15.02.2020
2890 Clouds 32 1010 70 9000 5.1 50 11:26 15.02.2020
2891 Clouds 32 1010 70 9000 5.1 50 10:49 15.02.2020
2892 Clouds 32 1011 70 9000 5.1 70 10:29 15.02.2020
2893 Clouds 32 1011 70 9000 5.1 70 09:56 15.02.2020
2894 Clouds 28 1010 77 0 5.89 39 09:37 15.02.2020
2895 Clouds 32 1012 70 9000 5.7 70 09:19 15.02.2020
2896 Clouds 28 1010 77 0 5.89 39 08:41 15.02.2020
2897 Clouds 31 1012 74 9000 4.6 70 08:23 15.02.2020
2898 Clouds 31 1012 74 9000 4.6 70 07:45 15.02.2020
2899 Clouds 31 1013 70 9000 4.6 70 07:27 15.02.2020
2900 Clouds 31 1013 70 9000 4.6 70 06:47 15.02.2020
2901 Clouds 30 1013 74 9000 4.6 90 06:28 15.02.2020
2902 Clear 28 1013 75 0 5.23 39 05:41 15.02.2020
2903 Clouds 28 1012 74 0 4.9 46 04:45 15.02.2020
2904 Clouds 28 1011 83 9000 3.1 70 03:24 15.02.2020
2905 Clouds 28 1012 74 0 4.9 46 02:42 15.02.2020
2906 Thunderstorm 28 1011 83 9000 2.6 20 02:21 15.02.2020
2907 Rain 28 1010 77 0 4.75 41 01:39 15.02.2020
2908 Rain 28 1010 78 0 5.15 44 00:41 15.02.2020
2909 Rain 28 1010 78 0 5.15 44 00:19 15.02.2020
2910 Rain 28 1010 78 0 5.15 44 23:39 14.02.2020
2911 Clouds 28 1011 83 9000 4.6 80 23:19 14.02.2020
2912 Clouds 28 1011 83 9000 4.6 80 22:44 14.02.2020
2913 Clouds 28 1011 83 9000 4.6 80 22:23 14.02.2020
2914 Clouds 28 1011 83 9000 4.6 80 21:52 14.02.2020
2915 Rain 28 1010 82 0 6.15 28 21:34 14.02.2020
2916 Clouds 29 1012 83 9000 3.6 80 20:59 14.02.2020
2917 Rain 28 1010 82 0 6.15 28 20:41 14.02.2020
2918 Clouds 29 1012 79 9000 5.1 80 20:19 14.02.2020
2919 Clouds 29 1012 79 9000 5.1 80 19:55 14.02.2020
2920 Rain 28 1013 81 0 8.22 48 19:37 14.02.2020
2921 Clouds 29 1012 79 9000 5.1 80 19:18 14.02.2020
2922 Clouds 29 1012 79 9000 5.1 80 18:55 14.02.2020
2923 Rain 28 1013 81 0 8.22 48 18:36 14.02.2020
2924 Clouds 29 1012 79 9000 5.7 70 18:18 14.02.2020
2925 Rain 28 1013 81 0 8.22 48 17:40 14.02.2020
2926 Clouds 29 1011 79 9000 5.7 80 17:19 14.02.2020
2927 Clouds 29 1011 79 9000 5.7 80 17:19 14.02.2020
2928 Clouds 29 1011 79 9000 5.7 80 16:43 14.02.2020
2929 Clouds 29 1011 79 9000 6.7 80 16:24 14.02.2020
2930 Clouds 29 1011 79 9000 6.7 80 15:58 14.02.2020
2931 Clouds 29 1011 79 9000 6.7 80 15:58 14.02.2020
2932 Rain 28 1012 80 0 8.32 58 15:40 14.02.2020
2933 Clouds 30 1010 74 9000 6.7 80 15:21 14.02.2020
2934 Clouds 30 1010 74 9000 6.7 80 14:59 14.02.2020
2935 Clouds 30 1010 74 9000 6.7 80 14:59 14.02.2020
2936 Rain 28 1012 80 0 8.32 58 14:41 14.02.2020
2937 Clouds 30 1009 74 9000 5.7 80 14:22 14.02.2020
2938 Clouds 30 1009 74 9000 5.7 80 13:57 14.02.2020
2939 Rain 28 1010 79 0 6.93 64 13:39 14.02.2020
2940 Clouds 31 1009 74 9000 6.2 80 13:20 14.02.2020
2941 Clouds 31 1009 74 9000 6.2 80 12:57 14.02.2020
2942 Clouds 31 1009 74 9000 6.2 80 12:57 14.02.2020
2943 Rain 28 1010 80 0 8.7 62 12:38 14.02.2020
2944 Clouds 31 1009 70 9000 7.2 80 12:20 14.02.2020
2945 Clouds 31 1009 70 9000 7.2 80 11:56 14.02.2020
2946 Rain 28 1010 80 0 8.7 62 11:37 14.02.2020
2947 Clouds 31 1010 74 9000 6.7 70 11:19 14.02.2020
2948 Clouds 28 1010 78 0 7.32 61 10:41 14.02.2020
2949 Clouds 31 1011 74 9000 6.7 70 10:22 14.02.2020
2950 Clouds 31 1011 74 9000 6.7 70 09:55 14.02.2020
2951 Clouds 28 1010 78 0 7.32 61 09:36 14.02.2020
2952 Clouds 31 1012 74 8000 5.7 70 09:18 14.02.2020
2953 Clouds 28 1010 78 0 7.32 61 08:40 14.02.2020
2954 Clouds 30 1012 74 8000 5.1 70 08:22 14.02.2020
2955 Clouds 30 1012 74 8000 5.1 70 08:22 14.02.2020
2956 Clouds 30 1012 74 8000 5.1 70 08:22 14.02.2020
2957 Clouds 30 1012 74 8000 5.1 70 08:22 14.02.2020
2958 Clouds 30 1012 74 8000 5.1 70 07:50 14.02.2020
2959 Clouds 30 1012 74 8000 5.7 60 07:30 14.02.2020
2960 Rain 28 1013 77 0 6.1 73 06:41 14.02.2020
2961 Rain 28 1013 77 0 6.1 73 06:41 14.02.2020
2962 Clouds 30 1013 74 8000 5.7 70 06:21 14.02.2020
2963 Rain 28 1013 77 0 6.1 73 05:41 14.02.2020
2964 Rain 28 1013 77 0 6.1 73 05:41 14.02.2020
2965 Clouds 29 1011 79 8000 4.1 70 03:51 14.02.2020
2966 Clouds 29 1011 79 8000 1 0 02:58 14.02.2020
2967 Clouds 29 1010 79 8000 5.7 90 02:18 14.02.2020
2968 Clouds 29 1010 79 8000 4.6 80 01:18 14.02.2020
2969 Rain 28 1011 76 0 5.16 66 00:32 14.02.2020
2970 Clouds 28 1010 83 8000 5.1 80 23:59 13.02.2020
2971 Rain 28 1011 76 0 5.16 66 23:41 13.02.2020
2972 Clouds 29 1011 79 8000 7.2 80 23:19 13.02.2020
2973 Rain 28 1010 79 0 6.84 71 22:41 13.02.2020
2974 Rain 28 1010 79 0 6.84 71 22:20 13.02.2020
2975 Rain 28 1010 79 0 6.84 71 21:59 13.02.2020
2976 Rain 28 1010 79 0 6.84 71 21:40 13.02.2020
2977 Clouds 29 1013 83 8000 7.2 80 21:20 13.02.2020
2978 Clouds 29 1013 83 8000 7.2 80 20:43 13.02.2020
2979 Clouds 29 1013 79 8000 7.2 70 20:23 13.02.2020
2980 Clouds 29 1013 79 8000 7.2 70 19:58 13.02.2020
2981 Rain 27 1013 81 0 7.56 70 19:40 13.02.2020
2982 -273 0 0 0 0 0 19:21 13.02.2020
2983 Clouds 29 1013 83 8000 8.7 90 18:59 13.02.2020
2984 Rain 27 1013 81 0 7.56 70 18:41 13.02.2020
2985 Clouds 29 1013 83 8000 8.7 80 18:22 13.02.2020
2986 Clouds 29 1013 83 8000 8.7 80 17:58 13.02.2020
2987 Rain 27 1013 81 0 7.56 70 17:37 13.02.2020
2988 Clouds 29 1012 79 8000 9.3 80 17:19 13.02.2020
2989 Clouds 29 1012 79 8000 9.3 80 16:55 13.02.2020
2990 Clouds 29 1012 79 8000 9.3 80 16:55 13.02.2020
2991 Rain 27 1012 81 0 6.97 44 16:36 13.02.2020
2992 Rain 27 1012 81 0 6.97 44 16:36 13.02.2020
2993 Clouds 29 1012 79 8000 8.7 60 16:18 13.02.2020
2994 Clouds 29 1012 79 8000 8.7 60 15:54 13.02.2020
2995 Rain 27 1012 81 0 6.97 44 15:36 13.02.2020
2996 Clouds 29 1011 79 8000 10.3 70 15:18 13.02.2020
2997 Clouds 29 1011 79 8000 10.3 70 14:54 13.02.2020
2998 Rain 27 1012 81 0 6.97 44 14:36 13.02.2020
2999 Clouds 30 1011 74 8000 8.7 70 14:18 13.02.2020
3000 Rain 28 1010 79 0 7.41 29 13:41 13.02.2020
3001 Clouds 31 1010 74 8000 8.7 70 13:18 13.02.2020
3002 Clouds 31 1010 74 8000 8.7 70 12:48 13.02.2020
3003 Clouds 31 1010 74 8000 8.7 70 12:48 13.02.2020
3004 Clouds 30 1010 79 8000 9.8 60 12:30 13.02.2020
3005 Clouds 30 1010 79 8000 9.8 60 11:59 13.02.2020
3006 Rain 28 1011 79 0 7.71 31 11:41 13.02.2020
3007 Clouds 30 1010 70 8000 9.8 60 11:19 13.02.2020
3008 Clouds 30 1010 70 8000 9.8 60 10:44 13.02.2020
3009 Clouds 29 1011 83 8000 9.3 70 10:26 13.02.2020
3010 Clouds 29 1011 83 8000 9.3 70 09:50 13.02.2020
3011 Clouds 29 1011 83 8000 9.3 70 09:26 13.02.2020
3012 Clouds 30 1012 74 8000 7.7 70 08:52 13.02.2020
3013 Clouds 30 1013 74 8000 7.7 70 08:21 13.02.2020
3014 Clouds 30 1013 74 8000 7.7 70 07:57 13.02.2020
3015 Rain 28 1014 78 0 8.53 57 07:38 13.02.2020
3016 Rain 28 1014 78 0 8.53 57 07:38 13.02.2020
3017 Clouds 29 1014 79 8000 7.7 70 07:20 13.02.2020
3018 Clouds 29 1014 79 8000 7.7 70 06:44 13.02.2020
3019 Rain 28 1014 78 0 8.53 57 06:18 13.02.2020
3020 Clouds 29 1013 79 8000 5.7 40 05:30 13.02.2020
3021 Clouds 29 1012 79 9000 6.2 50 04:25 13.02.2020
3022 Clouds 29 1012 79 9000 6.2 50 03:47 13.02.2020
3023 Clouds 29 1012 79 9000 6.2 70 03:18 13.02.2020
3024 Clouds 29 1012 79 9000 6.2 70 02:48 13.02.2020
3025 Clouds 29 1011 79 9000 7.2 60 02:19 13.02.2020
3026 Clear 28 1011 77 0 8.62 44 01:32 13.02.2020
3027 Clear 28 1011 77 0 8.45 41 00:33 13.02.2020
3028 Clouds 29 1011 79 9000 6.7 70 23:59 12.02.2020
3029 Clear 28 1011 77 0 8.45 41 23:38 12.02.2020
3030 Clouds 29 1012 79 9000 5.7 70 23:20 12.02.2020
3031 Clouds 29 1012 79 9000 5.7 70 22:45 12.02.2020
3032 Clouds 29 1013 79 9000 7.2 70 22:25 12.02.2020
3033 Clouds 29 1013 79 9000 7.2 70 21:58 12.02.2020
3034 Rain 28 1012 77 0 8.54 44 21:40 12.02.2020
3035 Clouds 29 1013 79 9000 7.7 70 21:19 12.02.2020
3036 Clouds 29 1013 79 9000 7.7 70 20:56 12.02.2020
3037 Rain 28 1012 77 0 8.54 44 20:37 12.02.2020
3038 Clouds 29 1014 79 9000 7.2 60 20:19 12.02.2020
3039 Clouds 29 1014 79 9000 7.2 60 19:54 12.02.2020
3040 Rain 28 1014 79 0 9.27 44 19:36 12.02.2020
3041 Clouds 29 1014 79 9000 7.7 60 19:18 12.02.2020
3042 Clouds 29 1014 79 9000 7.7 60 18:45 12.02.2020
3043 Clouds 29 1013 79 9000 7.7 60 18:18 12.02.2020
3044 Clouds 29 1013 79 9000 7.7 60 17:43 12.02.2020
3045 Clouds 29 1012 79 9000 6.7 50 17:21 12.02.2020
3046 Clouds 29 1012 79 9000 6.7 50 16:59 12.02.2020
3047 Rain 29 1013 78 0 8.55 52 16:39 12.02.2020
3048 Rain 28 1012 80 0 8.98 47 16:39 12.02.2020
3049 Clouds 29 1012 79 9000 7.2 50 16:19 12.02.2020
3050 Clouds 29 1012 79 9000 7.2 50 15:43 12.02.2020
3051 Clouds 30 1011 74 9000 7.7 50 15:23 12.02.2020
3052 Clouds 30 1011 74 9000 7.7 50 14:57 12.02.2020
3053 Rain 29 1013 78 0 8.55 52 14:39 12.02.2020
3054 Clouds 30 1010 74 9000 7.2 30 14:19 12.02.2020
3055 Clouds 30 1010 74 9000 7.2 30 13:57 12.02.2020
3056 Rain 28 1010 79 0 8 52 13:38 12.02.2020
3057 Clouds 31 1010 70 9000 8.2 50 13:19 12.02.2020
3058 Clouds 31 1010 70 9000 8.2 50 12:57 12.02.2020
3059 Clouds 29 1010 78 0 7.66 56 12:37 12.02.2020
3060 Clouds 32 1010 66 9000 7.7 70 12:18 12.02.2020
3061 Clouds 32 1010 66 9000 7.7 70 11:56 12.02.2020
3062 Clouds 29 1010 78 0 7.66 56 11:37 12.02.2020
3063 Clouds 32 1011 66 9000 8.2 60 11:19 12.02.2020
3064 Clouds 32 1011 66 9000 8.2 60 10:54 12.02.2020
3065 Rain 28 1011 78 0 8.39 53 10:36 12.02.2020
3066 Clouds 31 1012 70 9000 8.2 60 10:18 12.02.2020
3067 Rain 28 1011 78 0 8.39 53 09:41 12.02.2020
3068 Rain 28 1011 78 0 8.39 53 09:41 12.02.2020
3069 Clouds 31 1013 70 9000 8.2 60 09:21 12.02.2020
3070 Clouds 31 1013 70 9000 8.2 60 08:57 12.02.2020
3071 Rain 28 1011 78 0 8.39 53 08:37 12.02.2020
3072 Clouds 29 1014 83 10000 5.1 100 08:19 12.02.2020
3073 Clouds 29 1014 83 10000 5.1 100 07:44 12.02.2020
3074 Clouds 31 1014 66 9000 5.7 60 07:23 12.02.2020
3075 Clouds 31 1014 66 9000 5.7 60 06:53 12.02.2020
3076 Clouds 30 1014 70 9000 5.7 60 06:21 12.02.2020
3077 Rain 29 1013 76 0 9.36 58 05:37 12.02.2020
3078 Clouds 29 1013 74 9000 6.2 90 04:57 12.02.2020
3079 Rain 28 1012 75 0 9.23 65 04:39 12.02.2020
3080 Rain 28 1012 75 0 9.23 65 03:33 12.02.2020
3081 Clouds 28 1011 78 9000 7.7 80 02:58 12.02.2020
3082 Clouds 28 1011 74 9000 7.7 80 02:29 12.02.2020
3083 Clouds 28 1011 74 9000 7.7 80 01:51 12.02.2020
3084 Clouds 28 1010 78 9000 7.2 80 00:45 12.02.2020
3085 Clouds 28 1011 74 9000 7.2 80 00:26 12.02.2020
3086 Clouds 28 1011 74 9000 7.2 80 23:56 11.02.2020
3087 Clouds 28 1011 74 9000 7.2 80 23:38 11.02.2020
3088 Clouds 28 1011 74 9000 7.2 80 23:20 11.02.2020
3089 Clouds 28 1011 74 9000 7.7 80 22:55 11.02.2020
3090 Clouds 28 1011 74 9000 7.7 80 22:37 11.02.2020
3091 Clouds 28 1011 74 9000 7.7 80 22:18 11.02.2020
3092 Clouds 28 1012 74 9000 7.7 80 21:55 11.02.2020
3093 Clear 28 1010 75 0 9.8 69 21:37 11.02.2020
3094 Clouds 28 1012 78 9000 7.2 80 21:18 11.02.2020
3095 Clouds 28 1012 78 9000 7.2 80 20:54 11.02.2020
3096 Clouds 28 1012 78 9000 7.2 80 20:36 11.02.2020
3097 Clouds 28 1012 78 9000 7.2 80 20:18 11.02.2020
3098 Clouds 28 1012 71 0 10.13 69 19:42 11.02.2020
3099 Clouds 29 1012 74 9000 7.2 90 19:24 11.02.2020
3100 Clouds 29 1012 74 9000 7.2 90 18:56 11.02.2020
3101 Clouds 28 1012 71 0 10.13 69 18:37 11.02.2020
3102 Clouds 29 1012 74 9000 8.7 90 18:19 11.02.2020
3103 Clouds 29 1012 74 9000 8.7 90 17:55 11.02.2020
3104 Clouds 28 1012 71 0 10.13 69 17:36 11.02.2020
3105 Clouds 29 1011 74 9000 9.8 90 17:18 11.02.2020
3106 Clouds 29 1011 74 9000 9.8 90 16:55 11.02.2020
3107 Clouds 28 1010 76 0 10.91 64 16:37 11.02.2020
3108 Clouds 29 1010 74 9000 8.7 90 16:19 11.02.2020
3109 Clouds 28 1010 76 0 10.91 64 15:43 11.02.2020
3110 Clouds 29 1009 74 9000 9.8 70 15:24 11.02.2020
3111 Clouds 29 1009 74 9000 9.8 70 14:55 11.02.2020
3112 Clouds 28 1010 76 0 10.91 64 14:36 11.02.2020
3113 Clouds 28 1010 76 0 10.91 64 14:36 11.02.2020
3114 Clouds 30 1009 70 9000 9.3 80 14:18 11.02.2020
3115 Clouds 28 1009 75 0 9.91 64 13:41 11.02.2020
3116 Clouds 31 1009 66 9000 8.2 80 13:21 11.02.2020
3117 Clouds 31 1009 66 9000 8.2 80 12:58 11.02.2020
3118 Clouds 28 1009 74 0 9.74 65 12:40 11.02.2020
3119 Clouds 32 1009 62 9000 9.3 80 12:20 11.02.2020
3120 Clouds 28 1009 74 0 9.74 65 11:42 11.02.2020
3121 Clouds 32 1009 59 9000 9.8 70 11:21 11.02.2020
3122 Clouds 32 1009 59 9000 9.8 70 10:58 11.02.2020
3123 Clouds 28 1009 73 0 10.1 64 10:39 11.02.2020
3124 Clouds 31 1010 62 9000 10.8 70 10:20 11.02.2020
3125 Clouds 31 1010 62 9000 10.8 70 09:56 11.02.2020
3126 Clouds 28 1009 73 0 10.1 64 09:38 11.02.2020
3127 Clouds 31 1011 66 9000 9.8 80 09:20 11.02.2020
3128 Clouds 31 1011 66 9000 9.8 80 08:46 11.02.2020
3129 Clouds 31 1011 66 9000 9.8 80 08:24 11.02.2020
3130 Clouds 31 1011 66 9000 9.8 80 07:48 11.02.2020
3131 Clouds 28 1012 75 0 9.74 69 07:26 11.02.2020
3132 Clouds 28 1012 75 0 9.74 69 06:45 11.02.2020
3133 Clouds 30 1011 66 9000 10.8 80 06:23 11.02.2020
3134 Clouds 30 1011 66 9000 10.8 80 05:58 11.02.2020
3135 Clouds 29 1010 70 9000 11.3 70 05:26 11.02.2020
3136 Clouds 29 1010 70 9000 11.3 70 04:52 11.02.2020
3137 Clouds 28 1009 74 9000 9.8 80 03:26 11.02.2020
3138 Clouds 28 1011 76 0 10.2 74 02:33 11.02.2020
3139 Clear 28 1010 72 0 9.96 66 01:39 11.02.2020
3140 Clouds 28 1009 74 9000 9.3 80 00:43 11.02.2020
3141 Clouds 28 1009 78 9000 8.7 80 00:22 11.02.2020
3142 Clear 28 1010 73 0 9.86 65 23:39 10.02.2020
3143 Clouds 29 1010 70 9000 8.7 90 23:20 10.02.2020
3144 Clear 28 1010 75 0 8.95 68 22:42 10.02.2020
3145 Clouds 29 1011 70 9000 9.8 90 22:21 10.02.2020
3146 Clouds 29 1011 70 9000 9.8 90 21:57 10.02.2020
3147 Clear 28 1010 75 0 8.95 68 21:39 10.02.2020
3148 Clouds 29 1011 70 9000 9.8 90 21:21 10.02.2020
3149 Clouds 29 1011 70 9000 9.8 90 20:54 10.02.2020
3150 Clear 28 1010 75 0 8.95 68 20:36 10.02.2020
3151 Clouds 29 1011 74 9000 8.7 90 20:18 10.02.2020
3152 Clouds 29 1011 74 9000 8.7 90 19:56 10.02.2020
3153 Clear 28 1012 76 0 9.02 78 19:36 10.02.2020
3154 Clouds 29 1012 74 9000 9.8 90 19:18 10.02.2020
3155 Clouds 29 1012 74 9000 9.8 90 18:55 10.02.2020
3156 Clear 28 1012 76 0 9.02 78 18:37 10.02.2020
3157 Clear 28 1012 76 0 9.02 78 18:37 10.02.2020
3158 Clouds 29 1011 74 9000 9.8 90 18:18 10.02.2020
3159 Clear 28 1012 76 0 9.02 78 17:40 10.02.2020
3160 Clouds 29 1010 74 9000 9.8 90 17:22 10.02.2020
3161 Clouds 29 1010 74 9000 9.8 90 16:59 10.02.2020
3162 Rain 28 1011 76 0 9.75 65 16:40 10.02.2020
3163 Clouds 29 1010 74 9000 8.7 90 16:20 10.02.2020
3164 Clouds 29 1010 74 9000 8.7 90 15:58 10.02.2020
3165 Rain 28 1011 76 0 9.75 65 15:39 10.02.2020
3166 Clouds 30 1009 70 9000 9.3 90 15:21 10.02.2020
3167 Clouds 30 1009 70 9000 9.3 90 14:57 10.02.2020
3168 Rain 28 1011 76 0 9.75 65 14:39 10.02.2020
3169 Clouds 30 1008 79 9000 10.3 80 14:19 10.02.2020
3170 Clouds 30 1008 79 9000 10.3 80 13:44 10.02.2020
3171 Clouds 31 1008 70 9000 9.3 90 13:25 10.02.2020
3172 Clouds 31 1008 70 9000 9.3 90 12:57 10.02.2020
3173 Rain 28 1009 79 0 7.78 72 12:39 10.02.2020
3174 Clouds 31 1009 70 9000 6.2 90 12:20 10.02.2020
3175 Clouds 31 1009 70 9000 6.2 90 11:45 10.02.2020
3176 Clouds 32 1009 66 9000 7.7 90 11:21 10.02.2020
3177 Clouds 32 1009 66 9000 7.7 90 10:57 10.02.2020
3178 Clouds 28 1009 75 0 8.02 69 10:38 10.02.2020
3179 Clouds 32 1010 66 9000 7.2 90 10:20 10.02.2020
3180 Clouds 28 1009 75 0 8.02 69 09:42 10.02.2020
3181 Clouds 32 1011 62 9000 8.2 90 09:23 10.02.2020
3182 Clouds 28 1009 75 0 8.02 69 08:40 10.02.2020
3183 Clouds 32 1012 66 9000 7.2 90 08:21 10.02.2020
3184 Clouds 32 1012 66 9000 7.2 90 07:55 10.02.2020
3185 Clouds 28 1013 74 0 7.06 74 07:35 10.02.2020
3186 Clouds 31 1012 66 10000 7.2 100 06:50 10.02.2020
3187 Clouds 28 1013 74 0 7.06 74 05:38 10.02.2020
3188 Clouds 28 1011 78 10000 6.2 100 03:55 10.02.2020
3189 Clouds 28 1010 78 10000 5.7 110 03:22 10.02.2020
3190 Clouds 28 1010 78 10000 5.7 110 02:44 10.02.2020
3191 Clouds 28 1009 78 10000 6.2 100 01:25 10.02.2020
3192 Clouds 28 1010 79 0 5.84 72 00:40 10.02.2020
3193 Clouds 29 1010 74 10000 6.2 90 00:22 10.02.2020
3194 Clouds 28 1010 79 0 5.84 72 23:42 09.02.2020
3195 Clouds 29 1011 70 10000 7.2 90 23:23 09.02.2020
3196 Clouds 29 1011 70 10000 7.2 90 22:45 09.02.2020
3197 Clouds 29 1011 70 10000 73.6 90 22:23 09.02.2020
3198 Clouds 29 1011 70 10000 73.6 90 21:59 09.02.2020
3199 Clear 27 1010 78 0 6.22 77 21:40 09.02.2020
3200 Clear 27 1010 78 0 6.22 77 21:40 09.02.2020
3201 Clouds 29 1012 70 10000 6.7 90 21:21 09.02.2020
3202 Clouds 29 1012 70 10000 6.7 90 20:45 09.02.2020
3203 Clouds 29 1013 74 10000 6.7 90 20:22 09.02.2020
3204 Clouds 29 1013 74 10000 6.7 90 19:57 09.02.2020
3205 Clear 28 1013 75 0 6.46 68 19:38 09.02.2020
3206 Clear 28 1013 75 0 6.46 68 19:38 09.02.2020
3207 Clouds 29 1013 79 10000 6.7 90 19:18 09.02.2020
3208 Clear 28 1013 75 0 6.46 68 18:42 09.02.2020
3209 Clouds 29 1012 79 10000 7.2 90 18:23 09.02.2020
3210 Clouds 29 1012 79 10000 7.2 90 17:59 09.02.2020
3211 Clear 28 1013 75 0 6.46 68 17:39 09.02.2020
3212 Clear 28 1013 75 0 6.46 68 17:39 09.02.2020
3213 Clouds 29 1012 79 10000 4.6 90 17:21 09.02.2020
3214 Rain 28 1012 78 0 5.56 65 16:41 09.02.2020
3215 Clouds 29 1011 79 10000 4.6 90 16:22 09.02.2020
3216 Clouds 29 1011 79 10000 4.6 90 15:58 09.02.2020
3217 Rain 28 1012 78 0 5.56 65 15:40 09.02.2020
3218 Clouds 30 1010 70 10000 5.1 90 15:21 09.02.2020
3219 Clouds 30 1010 70 10000 5.1 90 14:56 09.02.2020
3220 Rain 28 1012 78 0 5.56 65 14:37 09.02.2020
3221 Clouds 31 1009 66 10000 5.7 80 14:19 09.02.2020
3222 Clouds 31 1009 66 10000 5.7 80 13:43 09.02.2020
3223 Clouds 31 1009 70 10000 4.1 90 13:25 09.02.2020
3224 Clouds 31 1009 70 10000 4.1 90 12:55 09.02.2020
3225 Clouds 28 1010 78 0 5.56 57 12:37 09.02.2020
3226 Clouds 31 1009 70 10000 4.1 70 12:18 09.02.2020
3227 Clouds 28 1010 78 0 5.56 57 11:40 09.02.2020
3228 Clouds 31 1010 70 10000 4.6 80 11:19 09.02.2020
3229 Clouds 31 1010 70 10000 4.6 80 10:56 09.02.2020
3230 Clouds 28 1010 77 0 4.89 68 10:38 09.02.2020
3231 Clouds 31 1011 70 10000 2.6 50 10:19 09.02.2020
3232 Clouds 28 1010 77 0 4.89 68 09:40 09.02.2020
3233 Clouds 31 1011 70 10000 4.1 90 09:20 09.02.2020
3234 Clouds 31 1011 70 10000 4.1 90 08:44 09.02.2020
3235 Clouds 31 1012 70 10000 4.6 80 08:25 09.02.2020
3236 Clouds 31 1012 70 10000 4.6 80 07:54 09.02.2020
3237 Clouds 28 1013 78 0 5.47 59 07:34 09.02.2020
3238 Clouds 31 1013 70 10000 4.1 80 06:44 09.02.2020
3239 Clouds 30 1013 74 10000 5.1 70 05:56 09.02.2020
3240 Clouds 29 1012 79 10000 4.6 60 05:35 09.02.2020
3241 Clouds 29 1012 79 10000 4.6 60 04:52 09.02.2020
3242 Clouds 28 1011 83 10000 4.1 60 03:30 09.02.2020
3243 Clouds 28 1011 83 10000 4.1 60 02:43 09.02.2020
3244 Clouds 28 1011 78 10000 3.6 40 01:45 09.02.2020
3245 Clouds 28 1011 78 10000 3.6 40 01:27 09.02.2020
3246 Clouds 27 1011 79 0 5.42 55 00:38 09.02.2020
3247 Clouds 28 1011 78 10000 3.6 60 00:18 09.02.2020
3248 Clouds 27 1011 79 0 5.42 55 23:41 08.02.2020
3249 Clouds 28 1011 78 10000 3.6 60 23:19 08.02.2020
3250 Clouds 28 1012 75 0 4.09 83 22:40 08.02.2020
3251 Clouds 28 1012 78 10000 3.1 60 22:21 08.02.2020
3252 Clouds 28 1012 78 10000 3.1 60 21:54 08.02.2020
3253 Clouds 28 1012 75 0 4.09 83 21:36 08.02.2020
3254 Clouds 29 1013 74 10000 3.1 60 21:18 08.02.2020
3255 Clouds 29 1013 74 10000 3.1 60 20:54 08.02.2020
3256 Clouds 29 1013 74 10000 3.1 60 20:54 08.02.2020
3257 Clouds 28 1012 75 0 4.09 83 20:36 08.02.2020
3258 Clouds 29 1013 74 10000 3.6 60 20:18 08.02.2020
3259 Clouds 28 1014 73 0 4.89 59 19:40 08.02.2020
3260 Clouds 29 1014 74 10000 4.6 80 19:20 08.02.2020
3261 Clouds 29 1014 74 10000 4.6 80 18:58 08.02.2020
3262 Clouds 28 1014 73 0 4.89 59 18:39 08.02.2020
3263 Clouds 29 1014 74 10000 4.6 70 18:21 08.02.2020
3264 Clouds 28 1014 73 0 4.89 59 17:42 08.02.2020
3265 Clouds 28 1014 73 0 4.89 59 17:42 08.02.2020
3266 Clouds 29 1013 74 10000 4.6 70 17:21 08.02.2020
3267 Clouds 29 1013 74 10000 4.6 70 16:56 08.02.2020
3268 Clouds 28 1013 75 0 6.3 46 16:37 08.02.2020
3269 Clouds 29 1012 74 10000 4.1 50 16:18 08.02.2020
3270 Clouds 28 1013 75 0 6.3 46 15:40 08.02.2020
3271 Clouds 30 1011 70 10000 3.6 60 15:19 08.02.2020
3272 Clouds 30 1011 70 10000 3.6 60 14:55 08.02.2020
3273 Clouds 28 1013 75 0 6.3 46 14:36 08.02.2020
3274 Clouds 30 1010 74 10000 4.6 70 14:18 08.02.2020
3275 Clear 28 1010 71 0 4.1 44 13:41 08.02.2020
3276 Clouds 31 1010 70 10000 3.6 70 13:23 08.02.2020
3277 Clouds 31 1010 70 10000 3.6 70 13:23 08.02.2020
3278 Clouds 31 1010 70 10000 3.6 70 12:50 08.02.2020
3279 Clouds 31 1010 74 10000 4.1 80 12:25 08.02.2020
3280 Clouds 31 1010 74 10000 4.1 80 11:59 08.02.2020
3281 Clouds 28 1010 70 0 2.98 56 11:40 08.02.2020
3282 Clouds 31 1011 74 10000 3.6 70 11:21 08.02.2020
3283 Clouds 31 1011 74 10000 3.6 70 10:43 08.02.2020
3284 Clouds 31 1012 70 10000 4.1 80 10:23 08.02.2020
3285 Clouds 31 1012 70 10000 4.1 80 09:53 08.02.2020
3286 Clouds 31 1013 70 10000 4.1 90 09:30 08.02.2020
3287 Clouds 31 1013 70 10000 4.1 90 08:59 08.02.2020
3288 Clear 28 1011 70 0 3.36 62 08:39 08.02.2020
3289 Clouds 31 1014 70 10000 3.1 90 08:21 08.02.2020
3290 Clouds 31 1014 70 10000 3.1 90 07:50 08.02.2020
3291 Clouds 28 1014 70 0 2.6 65 07:31 08.02.2020
3292 Clouds 28 1014 70 0 2.6 65 06:33 08.02.2020
3293 Clouds 30 1015 74 10000 2.6 90 05:50 08.02.2020
3294 Clouds 29 1014 79 10000 2.6 110 05:31 08.02.2020
3295 Clouds 29 1014 79 10000 2.6 110 04:51 08.02.2020
3296 Clouds 28 1013 83 10000 2.6 90 03:55 08.02.2020
3297 Clouds 27 1013 83 10000 2.6 90 02:57 08.02.2020
3298 Clouds 27 1012 83 10000 2.6 90 02:24 08.02.2020
3299 Clouds 28 1012 78 10000 2.6 90 01:28 08.02.2020
3300 Clouds 28 1012 78 10000 2.6 90 00:45 08.02.2020
3301 Rain 27 1012 77 0 2.96 78 00:23 08.02.2020
3302 Rain 27 1012 77 0 2.96 78 23:56 07.02.2020
3303 Rain 27 1012 77 0 2.96 78 23:37 07.02.2020
3304 Clouds 28 1013 78 10000 3.1 80 23:19 07.02.2020
3305 Clouds 27 1012 74 0 2.86 45 22:41 07.02.2020
3306 Clouds 27 1012 74 0 2.86 45 22:41 07.02.2020
3307 Clouds 28 1013 78 10000 3.6 80 22:19 07.02.2020
3308 Clouds 28 1013 78 10000 3.6 80 21:44 07.02.2020
3309 Clouds 28 1014 83 10000 3.6 80 21:23 07.02.2020
3310 Clouds 28 1014 83 10000 3.6 80 20:59 07.02.2020
3311 Clouds 27 1012 74 0 2.86 45 20:38 07.02.2020
3312 Clouds 28 1015 83 10000 3.1 80 20:18 07.02.2020
3313 Clouds 28 1015 83 10000 3.1 80 19:43 07.02.2020
3314 Clouds 29 1015 74 10000 3.1 80 19:22 07.02.2020
3315 Clouds 29 1015 74 10000 3.1 80 18:59 07.02.2020
3316 Clouds 29 1015 74 10000 3.1 80 18:59 07.02.2020
3317 Rain 28 1014 74 0 3.95 30 18:41 07.02.2020
3318 Clouds 29 1014 74 10000 4.1 70 18:22 07.02.2020
3319 Clouds 29 1014 74 10000 4.1 70 17:43 07.02.2020
3320 Clouds 29 1013 74 10000 4.1 70 17:22 07.02.2020
3321 Clouds 29 1013 74 10000 4.1 70 16:57 07.02.2020
3322 Clouds 28 1014 74 0 4.17 41 16:39 07.02.2020
3323 Clouds 29 1012 74 10000 4.1 70 16:20 07.02.2020
3324 Clouds 29 1012 74 10000 4.1 70 15:49 07.02.2020
3325 Clouds 30 1011 70 10000 5.7 70 15:27 07.02.2020
3326 Clouds 30 1011 70 10000 5.7 70 14:54 07.02.2020
3327 Clouds 28 1014 74 0 4.17 41 14:36 07.02.2020
3328 Clouds 28 1011 73 0 5 48 14:18 07.02.2020
3329 Clouds 28 1011 73 0 5 48 13:40 07.02.2020
3330 Clouds 31 1010 70 10000 6.2 70 13:22 07.02.2020
3331 Clouds 31 1010 70 10000 6.2 70 12:57 07.02.2020
3332 Clouds 28 1011 73 0 4.53 50 12:39 07.02.2020
3333 Clouds 31 1010 70 10000 6.7 80 12:21 07.02.2020
3334 Clouds 28 1011 73 0 4.53 50 11:42 07.02.2020
3335 Clouds 32 1011 66 10000 6.2 80 11:22 07.02.2020
3336 Clouds 32 1011 66 10000 6.2 80 11:22 07.02.2020
3337 Clouds 32 1011 66 10000 6.2 80 10:43 07.02.2020
3338 Clouds 28 1011 75 0 5.57 57 10:24 07.02.2020
3339 Clouds 28 1011 75 0 5.57 57 10:24 07.02.2020
3340 Clouds 28 1011 75 0 5.57 57 09:59 07.02.2020
3341 Clouds 28 1011 75 0 5.57 57 09:39 07.02.2020
3342 Clouds 28 1011 75 0 5.57 57 09:21 07.02.2020
3343 Clouds 28 1011 75 0 5.57 57 08:44 07.02.2020
3344 Clouds 28 1014 75 0 5.6 50 08:21 07.02.2020
3345 Clouds 28 1014 74 0 5.79 48 08:21 07.02.2020
3346 Clouds 28 1014 74 0 5.79 48 07:52 07.02.2020
3347 Clouds 28 1014 74 0 5.79 48 07:30 07.02.2020
3348 Clouds 28 1014 74 0 5.79 48 06:47 07.02.2020
3349 Clouds 28 1014 74 0 5.79 48 06:47 07.02.2020
3350 Clouds 28 1014 74 0 5.79 48 06:27 07.02.2020
3351 Clouds 28 1014 74 0 5.79 48 05:58 07.02.2020
3352 Clouds 28 1014 74 0 5.79 48 05:36 07.02.2020
3353 Clear 28 1014 76 0 6.1 55 03:33 07.02.2020
3354 Clouds 28 1011 78 10000 5.1 80 01:51 07.02.2020
3355 Clouds 28 1011 78 10000 6.2 80 00:51 07.02.2020
3356 Clouds 28 1011 78 10000 5.7 80 00:26 07.02.2020
3357 Rain 27 1012 80 0 6.03 48 23:38 06.02.2020
3358 Clouds 28 1012 83 10000 5.7 80 23:19 06.02.2020
3359 Clouds 28 1012 83 10000 5.7 80 22:46 06.02.2020
3360 Clouds 29 1012 79 10000 6.2 80 22:26 06.02.2020
3361 Clouds 29 1012 79 10000 6.2 80 21:57 06.02.2020
3362 Rain 28 1011 81 0 5.85 54 21:36 06.02.2020
3363 Clouds 29 1013 79 10000 5.1 80 21:18 06.02.2020
3364 Clouds 29 1013 79 10000 5.1 80 20:55 06.02.2020
3365 Rain 28 1011 81 0 5.85 54 20:36 06.02.2020
3366 Clouds 29 1013 74 10000 5.1 90 20:18 06.02.2020
3367 Clouds 29 1013 74 10000 5.1 90 19:55 06.02.2020
3368 Clouds 28 1013 79 0 6.35 60 19:37 06.02.2020
3369 Clouds 29 1013 74 10000 5.7 70 19:18 06.02.2020
3370 Clouds 28 1013 79 0 6.35 60 18:42 06.02.2020
3371 Clouds 29 1013 74 10000 6.7 90 18:24 06.02.2020
3372 Clouds 29 1013 74 10000 6.7 90 17:57 06.02.2020
3373 Clouds 29 1013 74 10000 6.7 90 17:57 06.02.2020
3374 Clouds 28 1013 79 0 6.35 60 17:39 06.02.2020
3375 Clouds 29 1012 74 10000 6.2 70 17:20 06.02.2020
3376 Clouds 28 1012 77 0 7.3 61 16:42 06.02.2020
3377 Clouds 29 1011 74 10000 5.7 70 16:24 06.02.2020
3378 Clouds 29 1011 74 10000 5.7 70 15:43 06.02.2020
3379 Clouds 30 1010 70 10000 6.7 70 15:23 06.02.2020
3380 Clouds 30 1010 70 10000 6.7 70 14:58 06.02.2020
3381 Clouds 28 1012 77 0 7.3 61 14:40 06.02.2020
3382 Clouds 28 1012 77 0 7.3 61 14:40 06.02.2020
3383 Clouds 30 1009 74 10000 5.7 80 14:22 06.02.2020
3384 Clouds 30 1009 74 10000 5.7 80 13:42 06.02.2020
3385 Clouds 31 1009 70 10000 5.7 90 13:24 06.02.2020
3386 Clouds 31 1009 70 10000 5.7 90 12:45 06.02.2020
3387 Clouds 31 1009 66 10000 6.2 80 12:19 06.02.2020
3388 Clouds 31 1009 66 10000 6.2 80 11:58 06.02.2020
3389 Clouds 28 1010 77 0 6.78 65 11:39 06.02.2020
3390 Clouds 32 1009 62 10000 7.2 70 11:21 06.02.2020
3391 Clouds 32 1009 62 10000 7.2 70 10:57 06.02.2020
3392 Clouds 28 1010 78 0 6.78 65 10:38 06.02.2020
3393 Clouds 28 1010 78 0 6.78 65 10:38 06.02.2020
3394 Clouds 31 1010 70 10000 6.7 90 10:20 06.02.2020
3395 Clouds 31 1010 70 10000 6.7 90 09:56 06.02.2020
3396 Clouds 28 1010 78 0 6.78 65 09:37 06.02.2020
3397 Clouds 31 1012 70 10000 6.2 90 09:19 06.02.2020
3398 Clouds 28 1010 78 0 6.78 65 08:41 06.02.2020
3399 Clouds 31 1013 70 10000 5.7 90 08:22 06.02.2020
3400 Clouds 31 1013 70 10000 5.7 90 07:51 06.02.2020
3401 Clouds 31 1013 70 10000 5.7 90 07:28 06.02.2020
3402 Clear 28 1013 78 0 6.62 70 06:37 06.02.2020
3403 Clear 28 1013 78 0 6.62 70 06:37 06.02.2020
3404 Clear 28 1013 78 0 6.62 70 06:37 06.02.2020
3405 Clouds 29 1013 79 10000 5.1 90 06:18 06.02.2020
3406 Clouds 29 1013 79 10000 5.7 80 04:54 06.02.2020
3407 Clouds 28 1011 83 10000 5.1 80 03:21 06.02.2020
3408 Clouds 28 1011 83 10000 5.1 80 03:21 06.02.2020
3409 Clouds 28 1011 83 10000 5.1 80 03:21 06.02.2020
3410 Clouds 28 1011 83 10000 5.1 80 02:44 06.02.2020
3411 Rain 28 1011 78 0 5.73 65 01:41 06.02.2020
3412 Clouds 28 1010 83 10000 5.1 70 00:59 06.02.2020
3413 Clouds 28 1011 83 10000 5.7 70 00:27 06.02.2020
3414 Clouds 28 1011 83 10000 5.7 70 23:48 05.02.2020
3415 Clouds 28 1011 83 10000 5.7 70 23:29 05.02.2020
3416 Clouds 28 1011 83 10000 5.7 70 22:59 05.02.2020
3417 Clouds 28 1011 79 0 6.51 63 22:40 05.02.2020
3418 Clouds 28 1011 79 0 6.51 63 22:40 05.02.2020
3419 Clouds 29 1012 79 10000 5.7 90 22:22 05.02.2020
3420 Clouds 29 1012 79 10000 5.7 90 21:55 05.02.2020
3421 Clouds 29 1012 79 10000 5.7 90 21:55 05.02.2020
3422 Clouds 28 1011 79 0 6.51 63 21:36 05.02.2020
3423 Clouds 28 1011 79 0 6.51 63 21:36 05.02.2020
3424 Clouds 29 1013 79 10000 5.7 100 21:18 05.02.2020
3425 Clouds 29 1013 79 10000 5.7 100 21:18 05.02.2020
3426 Clouds 29 1013 79 10000 5.7 100 20:39 05.02.2020
3427 Clouds 29 1013 79 10000 5.7 100 20:39 05.02.2020
3428 Clouds 29 1013 79 10000 5.7 100 20:39 05.02.2020
3429 Clouds 29 1013 79 10000 5.7 100 20:20 05.02.2020
3430 Clouds 29 1013 79 10000 6.2 100 19:58 05.02.2020
3431 Clouds 29 1013 79 10000 6.2 100 19:38 05.02.2020
3432 Clouds 29 1013 79 10000 6.2 100 19:19 05.02.2020
3433 Clouds 29 1013 79 10000 6.7 90 18:56 05.02.2020
3434 Clouds 29 1013 79 10000 6.7 90 18:38 05.02.2020
3435 Clouds 29 1013 79 10000 6.7 90 18:18 05.02.2020
3436 Clouds 29 1013 79 10000 6.7 90 17:38 05.02.2020
3437 Clouds 29 1013 79 10000 6.7 90 17:38 05.02.2020
3438 Clouds 29 1013 79 10000 6.7 90 17:38 05.02.2020
3439 Clouds 29 1012 79 10000 7.2 90 17:19 05.02.2020
3440 Clouds 29 1012 79 10000 7.2 90 16:57 05.02.2020
3441 Clouds 28 1012 78 0 7.15 61 16:38 05.02.2020
3442 Clouds 29 1011 79 10000 6.7 90 16:19 05.02.2020
3443 Clouds 29 1011 79 10000 6.7 90 15:45 05.02.2020
3444 Clouds 30 1011 70 10000 6.2 70 15:20 05.02.2020
3445 Clouds 30 1011 70 10000 6.2 70 14:57 05.02.2020
3446 Clouds 28 1012 78 0 7.15 61 14:38 05.02.2020
3447 Clouds 30 1010 70 10000 6.7 70 14:20 05.02.2020
3448 Clouds 30 1010 70 10000 6.7 70 13:43 05.02.2020
3449 Clouds 31 1009 66 10000 6.7 70 13:22 05.02.2020
3450 Clouds 31 1009 66 10000 6.7 70 12:57 05.02.2020
3451 Clouds 28 1010 74 0 6.1 53 12:36 05.02.2020
3452 Clouds 31 1009 66 10000 6.7 80 12:18 05.02.2020
3453 Clouds 31 1009 66 10000 6.7 80 12:18 05.02.2020
3454 Clouds 31 1009 66 10000 6.7 80 11:41 05.02.2020
3455 Clouds 31 1009 66 10000 6.7 80 11:41 05.02.2020
3456 Clouds 31 1009 66 10000 6.7 80 11:22 05.02.2020
3457 Clouds 31 1010 66 10000 7.7 90 10:57 05.02.2020
3458 Clouds 27 1010 76 0 5.7 52 10:39 05.02.2020
3459 Clouds 31 1010 66 10000 6.7 90 10:18 05.02.2020
3460 Clouds 31 1010 66 10000 6.7 90 09:39 05.02.2020
3461 Clouds 31 1010 66 10000 6.7 90 09:21 05.02.2020
3462 Clouds 27 1010 76 0 5.7 52 08:48 05.02.2020
3463 Clouds 31 1012 66 10000 7.7 90 08:25 05.02.2020
3464 Clouds 31 1012 66 10000 7.7 90 07:58 05.02.2020
3465 Clouds 28 1013 74 0 5.78 59 07:39 05.02.2020
3466 Clouds 31 1012 66 10000 6.7 80 07:18 05.02.2020
3467 Clouds 31 1012 66 10000 6.7 80 06:39 05.02.2020
3468 Clouds 31 1012 66 10000 6.7 80 06:20 05.02.2020
3469 Clouds 29 1012 74 10000 5.7 80 05:20 05.02.2020
3470 Clouds 29 1012 74 10000 5.7 80 04:54 05.02.2020
3471 Clouds 28 1011 78 10000 5.1 70 04:22 05.02.2020
3472 Clear 27 1012 75 0 5.96 58 02:42 05.02.2020
3473 Rain 27 1011 76 0 6.34 65 02:20 05.02.2020
3474 Rain 27 1011 76 0 6.34 65 01:28 05.02.2020
3475 Rain 27 1010 76 0 6.62 63 00:22 05.02.2020
3476 Rain 27 1010 76 0 6.62 63 23:40 04.02.2020
3477 Clouds 28 1010 77 0 7.16 60 23:20 04.02.2020
3478 Clouds 28 1010 77 0 7.16 60 22:57 04.02.2020
3479 Clouds 28 1010 77 0 7.16 60 22:39 04.02.2020
3480 Clouds 28 1010 77 0 7.16 60 22:20 04.02.2020
3481 Clouds 28 1010 77 0 7.16 60 21:55 04.02.2020
3482 Clouds 28 1010 77 0 7.16 60 21:37 04.02.2020
3483 Clouds 28 1010 77 0 7.16 60 21:18 04.02.2020
3484 Clouds 28 1010 77 0 7.16 60 20:44 04.02.2020
3485 Clouds 28 1010 77 0 7.16 60 20:44 04.02.2020
3486 Clouds 29 1012 74 10000 6.7 70 20:22 04.02.2020
3487 Clouds 29 1012 74 10000 6.7 70 19:59 04.02.2020
3488 Clouds 29 1012 74 10000 6.7 70 19:41 04.02.2020
3489 Clouds 29 1012 74 10000 6.7 70 19:22 04.02.2020
3490 Clouds 29 1012 79 10000 6.7 90 18:59 04.02.2020
3491 Clouds 29 1012 79 10000 6.7 90 18:38 04.02.2020
3492 Clouds 29 1012 79 10000 6.7 90 18:19 04.02.2020
3493 Clouds 29 1012 79 10000 6.7 90 18:19 04.02.2020
3494 Clouds 29 1011 79 10000 5.1 90 17:54 04.02.2020
3495 Rain 28 1012 79 0 7.78 59 17:36 04.02.2020
3496 Clouds 29 1010 74 10000 5.1 90 17:18 04.02.2020
3497 Rain 28 1010 81 0 7.36 58 16:38 04.02.2020
3498 Rain 28 1010 81 0 7.36 58 16:38 04.02.2020
3499 Clouds 29 1010 74 10000 5.1 80 16:20 04.02.2020
3500 Clouds 29 1010 74 10000 5.1 80 15:56 04.02.2020
3501 Rain 28 1010 81 0 7.36 58 15:38 04.02.2020
3502 Clouds 29 1009 74 10000 5.1 90 15:19 04.02.2020
3503 Clouds 29 1009 74 10000 5.1 90 14:45 04.02.2020
3504 Clouds 31 1009 66 10000 5.1 80 14:26 04.02.2020
3505 Clouds 31 1009 66 10000 5.1 80 13:59 04.02.2020
3506 Clear 28 1009 74 0 5.46 61 13:40 04.02.2020
3507 Clouds 31 1008 62 10000 5.7 80 13:22 04.02.2020
3508 Clouds 31 1008 62 10000 5.7 80 12:54 04.02.2020
3509 Clear 28 1009 76 0 5.65 59 12:36 04.02.2020
3510 Clouds 31 1008 66 10000 5.7 90 12:18 04.02.2020
3511 Clouds 31 1008 66 10000 5.7 90 11:54 04.02.2020
3512 Clouds 31 1008 66 10000 5.7 90 11:54 04.02.2020
3513 Clear 28 1009 76 0 5.65 59 11:36 04.02.2020
3514 Clouds 31 1009 66 10000 5.7 90 11:18 04.02.2020
3515 Clear 28 1010 73 0 5.62 56 10:41 04.02.2020
3516 Clouds 31 1010 66 10000 6.2 80 10:22 04.02.2020
3517 Clear 28 1010 73 0 5.62 56 09:42 04.02.2020
3518 Clouds 31 1011 66 10000 5.7 90 09:23 04.02.2020
3519 Clouds 31 1011 66 10000 5.7 90 08:58 04.02.2020
3520 Clear 28 1010 73 0 5.62 56 08:39 04.02.2020
3521 Clouds 31 1012 66 9000 7.2 80 08:21 04.02.2020
3522 Clouds 31 1012 66 9000 7.2 80 07:46 04.02.2020
3523 Clouds 31 1013 66 9000 7.2 80 07:22 04.02.2020
3524 Clouds 31 1013 66 9000 7.2 80 06:43 04.02.2020
3525 Clouds 30 1013 70 10000 5.7 90 05:58 04.02.2020
3526 Clouds 29 1012 74 10000 5.7 90 05:28 04.02.2020
3527 Clouds 28 1011 78 10000 5.1 70 03:52 04.02.2020
3528 Clouds 28 1012 75 0 7.54 57 03:32 04.02.2020
3529 Clouds 28 1011 74 10000 5.1 70 02:55 04.02.2020
3530 Clouds 28 1010 74 10000 5.7 80 02:31 04.02.2020
3531 Clouds 28 1010 74 10000 5.7 80 01:53 04.02.2020
3532 Clouds 27 1011 76 0 7.55 55 01:35 04.02.2020
3533 Clouds 28 1010 74 10000 6.2 70 00:45 04.02.2020
3534 Clouds 28 1010 83 10000 5.7 80 00:21 04.02.2020
3535 Clear 27 1011 76 0 7.55 52 23:40 03.02.2020
3536 Clouds 28 1011 78 10000 6.7 80 23:20 03.02.2020
3537 Rain 28 1011 76 0 7.89 54 22:39 03.02.2020
3538 Clouds 28 1011 78 10000 6.2 80 22:20 03.02.2020
3539 Clouds 28 1011 78 10000 6.2 80 21:55 03.02.2020
3540 Rain 28 1011 76 0 7.89 54 21:37 03.02.2020
3541 Clouds 28 1012 78 10000 6.7 80 21:18 03.02.2020
3542 Rain 28 1011 76 0 7.89 54 20:42 03.02.2020
3543 Clouds 29 1013 74 10000 6.2 80 20:19 03.02.2020
3544 Clouds 29 1013 74 10000 6.2 80 19:58 03.02.2020
3545 Rain 28 1012 80 0 8.29 54 19:39 03.02.2020
3546 Clouds 29 1013 74 10000 7.2 70 19:19 03.02.2020
3547 Clouds 29 1013 74 10000 7.2 70 18:56 03.02.2020
3548 Rain 28 1012 80 0 8.29 54 18:36 03.02.2020
3549 Clouds 29 1012 74 10000 7.2 70 18:18 03.02.2020
3550 Clouds 29 1012 74 10000 7.2 70 18:18 03.02.2020
3551 Clouds 29 1012 74 10000 7.2 70 17:40 03.02.2020
3552 Clouds 29 1012 74 10000 7.2 70 17:20 03.02.2020
3553 Clouds 29 1012 74 10000 7.2 90 16:59 03.02.2020
3554 Rain 28 1012 79 0 7.5 54 16:39 03.02.2020
3555 Clouds 29 1011 74 10000 6.2 90 16:20 03.02.2020
3556 Clouds 29 1011 74 10000 6.2 90 15:55 03.02.2020
3557 Rain 28 1012 79 0 7.5 54 15:37 03.02.2020
3558 Clouds 29 1011 74 10000 5.7 80 15:18 03.02.2020
3559 Rain 28 1012 79 0 7.5 54 14:42 03.02.2020
3560 Clouds 30 1010 70 10000 7.2 80 14:23 03.02.2020
3561 Clouds 30 1010 70 10000 7.2 80 13:56 03.02.2020
3562 Clear 28 1010 75 0 6.08 46 13:37 03.02.2020
3563 Clear 28 1010 75 0 6.08 46 13:37 03.02.2020
3564 Clouds 31 1010 70 10000 7.2 80 13:19 03.02.2020
3565 Clouds 28 1010 74 0 6.05 49 12:42 03.02.2020
3566 Clouds 31 1010 66 10000 7.2 80 12:23 03.02.2020
3567 Clouds 31 1010 66 10000 7.2 80 11:59 03.02.2020
3568 Clouds 28 1010 74 0 6.05 49 11:38 03.02.2020
3569 Clouds 32 1011 70 10000 7.2 70 11:19 03.02.2020
3570 Clouds 32 1011 70 10000 7.2 70 10:55 03.02.2020
3571 Clouds 32 1011 70 10000 7.2 70 10:55 03.02.2020
3572 Clear 28 1011 75 0 6.79 55 10:37 03.02.2020
3573 Clouds 32 1012 70 10000 7.2 80 10:18 03.02.2020
3574 Clouds 32 1012 70 10000 7.2 80 09:38 03.02.2020
3575 Clouds 32 1012 70 10000 7.2 80 09:19 03.02.2020
3576 Clouds 32 1012 70 10000 7.2 80 09:19 03.02.2020
3577 Clear 28 1011 75 0 6.79 55 08:41 03.02.2020
3578 Clear 28 1011 75 0 6.79 55 08:41 03.02.2020
3579 Clouds 31 1014 70 10000 6.7 70 08:22 03.02.2020
3580 Clouds 31 1014 70 10000 6.7 70 07:43 03.02.2020
3581 Clouds 31 1014 70 10000 6.7 80 07:23 03.02.2020
3582 Clouds 31 1014 70 10000 6.7 80 06:57 03.02.2020
3583 Clouds 30 1015 74 10000 6.7 90 06:31 03.02.2020
3584 Clouds 30 1015 74 10000 6.7 90 05:58 03.02.2020
3585 Clear 28 1014 73 0 6.82 58 05:34 03.02.2020
3586 Clear 29 1014 79 10000 5.1 80 04:47 03.02.2020
3587 Clouds 28 1013 78 10000 5.7 80 02:48 03.02.2020
3588 Clouds 28 1013 78 10000 5.7 80 02:48 03.02.2020
3589 Clouds 28 1012 78 10000 5.7 70 02:28 03.02.2020
3590 Clouds 28 1012 74 10000 5.7 70 00:50 03.02.2020
3591 Clouds 28 1012 74 10000 5.7 60 00:28 03.02.2020
3592 Clouds 28 1012 74 10000 5.7 60 23:59 02.02.2020
3593 Rain 27 1012 79 0 7.91 51 23:37 02.02.2020
3594 Clouds 28 1013 74 10000 5.1 60 23:18 02.02.2020
3595 Clear 27 1012 78 0 5.89 48 22:40 02.02.2020
3596 Clouds 28 1013 69 10000 6.2 60 22:22 02.02.2020
3597 Clouds 28 1013 69 10000 6.2 60 21:58 02.02.2020
3598 Clear 27 1012 78 0 5.89 48 21:39 02.02.2020
3599 Clouds 29 1014 66 10000 6.2 60 21:20 02.02.2020
3600 Clouds 29 1014 66 10000 6.2 60 20:57 02.02.2020
3601 Clear 27 1012 78 0 5.89 48 20:39 02.02.2020
3602 Clouds 29 1014 66 10000 6.7 60 20:20 02.02.2020
3603 Clouds 29 1014 66 10000 6.7 60 19:57 02.02.2020
3604 Rain 27 1013 78 0 7.24 53 19:38 02.02.2020
3605 Rain 27 1013 78 0 7.24 53 19:38 02.02.2020
3606 Clouds 29 1014 70 10000 6.2 70 19:20 02.02.2020
3607 Clouds 29 1014 70 10000 6.2 70 18:55 02.02.2020
3608 Rain 27 1013 78 0 7.24 53 18:37 02.02.2020
3609 Clouds 29 1013 66 10000 7.2 70 18:18 02.02.2020
3610 Clouds 29 1013 66 10000 7.2 70 17:57 02.02.2020
3611 Rain 27 1013 78 0 7.24 53 17:37 02.02.2020
3612 Clouds 29 1012 70 10000 6.7 70 17:18 02.02.2020
3613 Clouds 29 1012 70 10000 6.7 70 16:56 02.02.2020
3614 Clear 28 1013 73 0 6.23 59 16:37 02.02.2020
3615 Clouds 29 1011 70 10000 5.7 80 16:18 02.02.2020
3616 Clouds 29 1011 70 10000 5.7 80 15:54 02.02.2020
3617 Clear 28 1013 73 0 6.23 59 15:36 02.02.2020
3618 Clouds 29 1011 70 10000 5.7 70 15:18 02.02.2020
3619 Clear 28 1013 73 0 6.23 59 14:41 02.02.2020
3620 Clouds 30 1010 66 10000 5.7 80 14:19 02.02.2020
3621 Clouds 30 1010 66 10000 5.7 80 13:58 02.02.2020
3622 Clouds 28 1010 70 0 6.47 63 13:39 02.02.2020
3623 Clouds 31 1009 62 10000 6.2 80 13:20 02.02.2020
3624 Clouds 31 1009 62 10000 6.2 80 12:55 02.02.2020
3625 Clear 28 1010 72 0 6.85 62 12:36 02.02.2020
3626 Clouds 31 1010 62 10000 6.2 80 12:18 02.02.2020
3627 Clouds 28 1010 73 0 7.29 61 11:41 02.02.2020
3628 Clouds 28 1010 73 0 7.29 61 11:41 02.02.2020
3629 Clouds 32 1010 59 10000 6.2 80 11:19 02.02.2020
3630 Clouds 32 1010 59 10000 6.2 80 11:19 02.02.2020
3631 Clouds 32 1010 59 10000 6.2 80 10:57 02.02.2020
3632 Clouds 28 1010 68 0 5.9 70 10:38 02.02.2020
3633 Clouds 31 1011 62 10000 6.7 80 10:20 02.02.2020
3634 Clouds 31 1011 62 10000 6.7 80 09:56 02.02.2020
3635 Clear 28 1010 69 0 5.13 68 09:38 02.02.2020
3636 Clouds 31 1012 66 10000 5.1 90 09:19 02.02.2020
3637 Clouds 31 1012 66 10000 5.1 90 08:43 02.02.2020
3638 Clouds 31 1013 62 10000 5.7 100 08:24 02.02.2020
3639 Clouds 31 1013 62 10000 5.7 100 07:47 02.02.2020
3640 Clouds 31 1013 62 10000 6.7 100 07:28 02.02.2020
3641 Clouds 31 1013 62 10000 6.7 100 06:44 02.02.2020
3642 Clouds 30 1014 66 10000 6.7 90 06:26 02.02.2020
3643 Clouds 30 1014 66 10000 6.7 90 05:47 02.02.2020
3644 Clouds 29 1013 70 10000 7.2 90 04:48 02.02.2020
3645 Clouds 28 1012 78 10000 6.2 90 03:26 02.02.2020
3646 Rain 27 1013 74 0 6.6 86 02:33 02.02.2020
3647 Clouds 28 1011 78 10000 5.7 90 01:55 02.02.2020
3648 Clouds 28 1011 78 10000 5.7 90 01:55 02.02.2020
3649 Clouds 28 1011 78 10000 4.1 90 01:23 02.02.2020
3650 Rain 28 1011 70 0 4.34 82 00:44 02.02.2020
3651 Clouds 28 1011 78 10000 5.1 90 00:22 02.02.2020
3652 Rain 28 1011 70 0 4.34 82 23:47 01.02.2020
3653 Clouds 28 1011 78 10000 4.1 90 23:23 01.02.2020
3654 Clouds 28 1011 78 10000 4.1 90 22:54 01.02.2020
3655 Rain 28 1011 69 0 3.55 58 22:36 01.02.2020
3656 Clouds 28 1012 78 10000 3.1 80 22:18 01.02.2020
3657 Rain 28 1011 69 0 3.55 58 21:39 01.02.2020
3658 Clouds 28 1012 78 10000 3.6 90 21:18 01.02.2020
3659 Rain 28 1011 69 0 3.55 58 20:41 01.02.2020
3660 Clouds 28 1012 78 10000 4.6 80 20:20 01.02.2020
3661 Clouds 28 1012 78 10000 4.6 80 19:57 01.02.2020
3662 Rain 28 1013 73 0 4.46 62 19:39 01.02.2020
3663 Clouds 28 1012 78 10000 4.6 70 19:20 01.02.2020
3664 Clouds 28 1012 78 10000 4.6 70 18:58 01.02.2020
3665 Rain 28 1013 73 0 4.46 62 18:40 01.02.2020
3666 Clouds 28 1012 74 10000 5.1 70 18:21 01.02.2020
3667 Clouds 28 1012 74 10000 5.1 70 17:58 01.02.2020
3668 Rain 28 1013 73 0 4.46 62 17:39 01.02.2020
3669 Clouds 28 1011 74 10000 4.1 70 17:19 01.02.2020
3670 Clouds 28 1011 74 10000 4.1 70 16:43 01.02.2020
3671 Clouds 29 1010 70 10000 5.1 80 16:25 01.02.2020
3672 Clouds 29 1010 70 10000 5.1 80 15:59 01.02.2020
3673 Clouds 28 1011 71 0 5.22 78 15:40 01.02.2020
3674 Clouds 29 1009 70 10000 4.6 70 15:22 01.02.2020
3675 Clouds 28 1011 71 0 5.22 78 14:41 01.02.2020
3676 Clouds 30 1009 66 10000 4.6 80 14:22 01.02.2020
3677 Clouds 30 1009 66 10000 4.6 80 14:22 01.02.2020
3678 Clouds 30 1009 66 10000 4.6 80 13:59 01.02.2020
3679 Clouds 28 1009 71 0 5.74 64 13:41 01.02.2020
3680 Clouds 30 1009 66 10000 4.6 80 13:18 01.02.2020
3681 Clouds 28 1009 72 0 5.51 65 12:42 01.02.2020
3682 Clouds 31 1009 62 10000 5.1 70 12:24 01.02.2020
3683 Clouds 31 1009 62 10000 5.1 70 11:45 01.02.2020
3684 Clouds 31 1009 58 10000 4.6 60 11:24 01.02.2020
3685 Clouds 31 1009 58 10000 4.6 60 10:59 01.02.2020
3686 Clouds 28 1009 71 0 6.16 48 10:41 01.02.2020
3687 Clouds 31 1010 62 10000 5.7 70 10:23 01.02.2020
3688 Clouds 31 1010 62 10000 5.7 70 09:59 01.02.2020
3689 Clouds 28 1009 71 0 6.16 48 09:40 01.02.2020
3690 Clouds 31 1011 62 10000 6.2 70 09:21 01.02.2020
3691 Clouds 31 1011 62 10000 6.2 70 08:58 01.02.2020
3692 Clear 31 1012 58 10000 6.7 70 08:18 01.02.2020
3693 Clouds 28 1012 69 0 6.66 56 07:41 01.02.2020
3694 Clear 30 1012 62 10000 6.2 60 07:22 01.02.2020
3695 Clear 30 1012 62 10000 6.2 60 06:43 01.02.2020
3696 Clouds 30 1012 58 10000 6.2 60 05:54 01.02.2020
3697 Clear 27 1011 74 10000 5.7 70 04:22 01.02.2020
3698 Clouds 27 1010 78 9000 5.7 90 03:25 01.02.2020
3699 Clouds 27 1010 78 9000 5.7 90 02:55 01.02.2020
3700 Clear 27 1011 70 0 6.39 57 02:37 01.02.2020
3701 Clouds 28 1010 83 9000 5.7 90 02:18 01.02.2020
3702 Clouds 27 1010 69 0 5.07 51 01:39 01.02.2020
3703 Clouds 28 1010 74 10000 4.6 60 00:47 01.02.2020
3704 Clouds 28 1010 74 10000 4.1 70 00:23 01.02.2020
3705 Clouds 27 1010 70 0 5.16 59 23:40 31.01.2020
3706 Clouds 28 1010 78 10000 3.6 90 23:18 31.01.2020
3707 Clouds 28 1010 78 10000 3.6 90 22:56 31.01.2020
3708 Clouds 27 1010 72 0 5.41 66 22:38 31.01.2020
3709 Clouds 28 1011 78 10000 3.6 90 22:20 31.01.2020
3710 Clouds 27 1010 72 0 5.41 66 21:40 31.01.2020
3711 Clouds 28 1012 78 10000 3.6 100 21:21 31.01.2020
3712 Clouds 28 1012 78 10000 3.6 100 20:57 31.01.2020
3713 Clouds 28 1012 78 10000 3.6 100 20:39 31.01.2020
3714 Clouds 28 1012 78 10000 3.6 100 20:21 31.01.2020
3715 Clouds 28 1012 78 10000 3.6 100 19:59 31.01.2020
3716 Clouds 27 1011 73 0 5.51 63 19:40 31.01.2020
3717 Clouds 29 1012 74 10000 4.1 90 19:22 31.01.2020
3718 Clouds 29 1012 74 10000 4.1 90 18:56 31.01.2020
3719 Clouds 27 1011 73 0 5.51 63 18:36 31.01.2020
3720 Clouds 28 1011 74 10000 2.6 30 18:18 31.01.2020
3721 Clouds 28 1011 74 10000 2.6 30 17:43 31.01.2020
3722 Clouds 29 1010 70 10000 4.6 60 17:25 31.01.2020
3723 Clouds 29 1010 70 10000 4.6 60 16:57 31.01.2020
3724 Clouds 28 1010 72 0 6.66 62 16:38 31.01.2020
3725 Clouds 28 1010 74 10000 2.1 20 16:19 31.01.2020
3726 Clouds 28 1010 74 10000 2.1 20 15:57 31.01.2020
3727 Clouds 28 1010 74 10000 2.1 20 15:57 31.01.2020
3728 Clouds 28 1010 72 0 6.66 62 15:38 31.01.2020
3729 Clouds 29 1009 70 10000 5.7 60 15:19 31.01.2020
3730 Clouds 28 1010 72 0 6.66 62 14:42 31.01.2020
3731 Clouds 30 1008 62 10000 5.7 60 14:23 31.01.2020
3732 Clouds 30 1008 62 10000 5.7 60 13:53 31.01.2020
3733 Clouds 28 1008 72 0 6.43 44 13:33 31.01.2020
3734 Clouds 30 1008 62 10000 6.2 60 12:58 31.01.2020
3735 Clouds 28 1009 74 0 6.58 45 12:39 31.01.2020
3736 Clouds 31 1008 62 8000 7.2 50 12:21 31.01.2020
3737 Clouds 31 1008 62 8000 7.2 50 11:44 31.01.2020
3738 Clouds 31 1009 62 8000 6.7 50 11:26 31.01.2020
3739 Clouds 31 1009 62 8000 6.7 50 10:59 31.01.2020
3740 Clouds 27 1009 73 0 6.82 39 10:41 31.01.2020
3741 Clouds 27 1009 73 0 6.82 39 10:21 31.01.2020
3742 Clouds 27 1009 73 0 6.82 39 09:56 31.01.2020
3743 Clouds 27 1009 72 0 6.72 40 09:38 31.01.2020
3744 Clouds 27 1009 73 0 6.82 39 09:18 31.01.2020
3745 Clouds 27 1009 73 0 6.82 39 08:50 31.01.2020
3746 Clouds 27 1009 73 0 6.82 39 08:25 31.01.2020
3747 Clouds 27 1009 73 0 6.82 39 08:25 31.01.2020
3748 Clouds 27 1012 73 0 7.12 40 07:52 31.01.2020
3749 Clouds 30 1012 62 8000 7.2 60 07:24 31.01.2020
3750 Clouds 27 1012 73 0 7.12 40 06:42 31.01.2020
3751 Clouds 30 1011 62 8000 6.2 30 05:58 31.01.2020
3752 Clouds 27 1012 73 0 7.12 40 05:40 31.01.2020
3753 Clouds 27 1011 74 0 6.51 44 04:47 31.01.2020
3754 Clouds 27 1010 74 9000 5.7 40 02:58 31.01.2020
3755 Clouds 27 1009 76 0 6.55 39 01:33 31.01.2020
3756 Clouds 27 1009 75 0 7.26 41 00:44 31.01.2020
3757 Clouds 27 1009 78 9000 4.1 30 00:25 31.01.2020
3758 Clouds 27 1009 78 9000 4.1 30 23:53 30.01.2020
3759 Clouds 28 1010 74 9000 4.1 30 23:24 30.01.2020
3760 Clouds 28 1010 74 9000 4.1 30 22:56 30.01.2020
3761 Clear 27 1009 81 0 6.63 47 22:36 30.01.2020
3762 Clouds 28 1011 74 9000 3.6 60 22:18 30.01.2020
3763 Clouds 28 1011 74 9000 3.6 60 21:43 30.01.2020
3764 Clouds 28 1012 74 9000 3.6 70 21:20 30.01.2020
3765 Clouds 28 1012 74 9000 3.6 70 20:59 30.01.2020
3766 Clouds 28 1012 74 9000 3.6 70 20:39 30.01.2020
3767 Clouds 28 1012 74 9000 3.6 70 20:39 30.01.2020
3768 Clouds 28 1012 74 9000 3.6 70 20:21 30.01.2020
3769 Clouds 28 1012 74 9000 4.1 70 19:55 30.01.2020
3770 Clouds 27 1011 76 0 4.83 74 19:36 30.01.2020
3771 Clouds 28 1012 74 9000 4.1 60 19:18 30.01.2020
3772 Clouds 27 1011 76 0 4.83 74 18:39 30.01.2020
3773 Clouds 28 1012 74 9000 4.1 70 18:20 30.01.2020
3774 Clouds 28 1012 74 9000 4.1 70 17:55 30.01.2020
3775 Clouds 28 1011 74 9000 4.1 50 17:36 30.01.2020
3776 Clouds 28 1011 74 9000 4.1 50 17:18 30.01.2020
3777 Clouds 28 1011 74 9000 4.1 50 16:56 30.01.2020
3778 Clouds 28 1011 73 0 5.81 69 16:36 30.01.2020
3779 Clouds 29 1011 70 9000 4.1 70 16:18 30.01.2020
3780 Clouds 28 1011 73 0 5.81 69 15:41 30.01.2020
3781 Clouds 30 1010 66 9000 4.6 60 15:19 30.01.2020
3782 Clouds 30 1010 66 9000 4.6 60 15:19 30.01.2020
3783 Clouds 30 1010 66 9000 4.6 60 14:44 30.01.2020
3784 Clouds 30 1010 66 9000 5.1 60 14:26 30.01.2020
3785 Clouds 30 1010 66 9000 5.1 60 13:43 30.01.2020
3786 Clouds 30 1010 66 9000 5.7 60 13:25 30.01.2020
3787 Clouds 30 1010 66 9000 5.7 60 12:59 30.01.2020
3788 Clouds 27 1010 75 0 5.64 54 12:40 30.01.2020
3789 Clouds 31 1010 62 9000 5.7 70 12:22 30.01.2020
3790 Clouds 31 1010 62 9000 5.7 70 11:54 30.01.2020
3791 Clouds 27 1010 75 0 5.64 54 11:36 30.01.2020
3792 Clouds 31 1011 62 10000 6.2 60 11:18 30.01.2020
3793 Clouds 27 1010 76 0 6.3 52 10:41 30.01.2020
3794 Clouds 31 1012 62 10000 7.2 60 10:21 30.01.2020
3795 Clouds 31 1012 62 10000 7.2 60 09:47 30.01.2020
3796 Clouds 31 1013 58 10000 7.2 70 09:29 30.01.2020
3797 Clouds 31 1013 58 10000 7.2 70 08:58 30.01.2020
3798 Clouds 27 1010 76 0 6.3 52 08:38 30.01.2020
3799 Clouds 31 1013 62 10000 6.2 70 08:19 30.01.2020
3800 Clouds 31 1013 62 10000 6.2 70 07:48 30.01.2020
3801 Clouds 30 1014 70 9000 5.7 70 07:20 30.01.2020
3802 Clouds 30 1014 70 9000 5.7 70 06:47 30.01.2020
3803 Clouds 30 1014 70 9000 5.7 70 06:47 30.01.2020
3804 Clouds 30 1014 66 9000 5.1 70 06:28 30.01.2020
3805 Clouds 30 1014 66 9000 5.1 70 05:44 30.01.2020
3806 Clouds 29 1013 70 9000 5.1 70 05:20 30.01.2020
3807 Clouds 27 1012 78 9000 5.1 70 03:53 30.01.2020
3808 Clouds 27 1012 75 0 5.72 64 03:35 30.01.2020
3809 Clouds 28 1011 74 8000 5.7 80 02:19 30.01.2020
3810 Clouds 27 1012 77 0 5.43 54 00:40 30.01.2020
3811 Clouds 28 1011 74 8000 5.1 70 00:20 30.01.2020
3812 Clouds 28 1011 74 8000 5.1 70 23:45 29.01.2020
3813 Clouds 28 1011 74 8000 5.7 60 23:21 29.01.2020
3814 Clouds 28 1011 74 8000 5.7 60 22:56 29.01.2020
3815 Clouds 27 1011 78 0 6.16 52 22:38 29.01.2020
3816 Clouds 28 1012 74 8000 5.7 60 22:19 29.01.2020
3817 Clouds 28 1012 74 8000 5.7 60 22:19 29.01.2020
3818 Clouds 28 1012 74 8000 5.7 60 21:57 29.01.2020
3819 Clouds 27 1011 78 0 6.16 52 21:38 29.01.2020
3820 Clouds 28 1012 74 8000 5.7 60 21:19 29.01.2020
3821 Clouds 28 1012 74 8000 5.7 60 20:57 29.01.2020
3822 Clouds 27 1011 78 0 6.16 52 20:38 29.01.2020
3823 Clouds 27 1011 78 0 6.16 52 20:38 29.01.2020
3824 Clouds 28 1012 74 8000 5.1 60 20:19 29.01.2020
3825 Clouds 28 1012 74 8000 5.1 60 20:19 29.01.2020
3826 Clouds 28 1012 74 8000 5.1 60 19:55 29.01.2020
3827 Clouds 27 1013 77 0 5.84 62 19:37 29.01.2020
3828 Clouds 28 1013 69 8000 4.1 60 19:18 29.01.2020
3829 Clouds 27 1013 77 0 5.84 62 18:46 29.01.2020
3830 Clouds 28 1013 69 8000 4.1 90 18:19 29.01.2020
3831 Clouds 28 1013 69 8000 4.1 90 17:57 29.01.2020
3832 Clouds 27 1013 77 0 5.84 62 17:38 29.01.2020
3833 Clouds 29 1012 66 8000 4.6 90 17:20 29.01.2020
3834 Clouds 27 1012 73 0 5.53 65 16:41 29.01.2020
3835 Clouds 29 1012 66 8000 4.6 90 16:23 29.01.2020
3836 Clouds 29 1012 66 8000 4.6 90 15:55 29.01.2020
3837 Clouds 27 1012 73 0 5.53 65 15:37 29.01.2020
3838 Clouds 29 1011 66 8000 3.6 90 15:18 29.01.2020
3839 Clouds 27 1012 73 0 5.53 65 14:41 29.01.2020
3840 Clouds 30 1010 62 8000 5.1 80 14:20 29.01.2020
3841 Clouds 30 1010 62 8000 5.1 80 13:54 29.01.2020
3842 Clouds 27 1011 72 0 6.29 68 13:36 29.01.2020
3843 Clouds 30 1010 62 8000 5.7 90 13:18 29.01.2020
3844 Clouds 30 1010 62 8000 5.7 90 12:54 29.01.2020
3845 Clouds 27 1010 72 0 6.3 65 12:36 29.01.2020
3846 Clouds 31 1010 62 8000 5.7 80 12:18 29.01.2020
3847 Clouds 31 1010 62 8000 5.7 80 11:42 29.01.2020
3848 Clouds 31 1011 58 8000 5.7 80 11:20 29.01.2020
3849 Clouds 31 1011 58 8000 5.7 80 10:46 29.01.2020
3850 Clouds 27 1011 70 0 6.03 60 10:23 29.01.2020
3851 Clouds 27 1011 70 0 6.03 60 09:58 29.01.2020
3852 Clouds 27 1011 70 0 6.03 60 09:39 29.01.2020
3853 Clouds 31 1012 58 8000 6.7 70 09:18 29.01.2020
3854 Clouds 31 1012 58 8000 6.7 70 08:44 29.01.2020
3855 Clouds 31 1013 62 8000 6.7 70 08:24 29.01.2020
3856 Clouds 31 1013 62 8000 6.7 70 08:24 29.01.2020
3857 Clouds 31 1013 62 8000 6.7 70 07:45 29.01.2020
3858 Clouds 29 1013 70 8000 6.2 70 07:26 29.01.2020
3859 Clouds 29 1013 70 8000 6.2 70 06:56 29.01.2020
3860 Clouds 29 1013 70 8000 6.2 70 06:56 29.01.2020
3861 Clear 27 1013 72 0 5.9 64 06:38 29.01.2020
3862 Clouds 30 1013 66 8000 5.7 70 06:19 29.01.2020
3863 Clouds 30 1013 66 8000 5.7 70 05:50 29.01.2020
3864 Clear 27 1013 72 0 5.9 64 05:32 29.01.2020
3865 Clear 27 1013 73 0 5.42 57 04:38 29.01.2020
3866 Clouds 28 1012 74 10000 6.2 70 03:59 29.01.2020
3867 Clear 27 1013 73 0 5.42 57 02:34 29.01.2020
3868 Clouds 28 1011 69 10000 6.2 70 01:18 29.01.2020
3869 Clouds 27 1012 74 0 6.16 52 00:39 29.01.2020
3870 Clouds 28 1011 69 10000 6.2 70 00:20 29.01.2020
3871 Clouds 27 1012 74 0 6.16 52 23:40 28.01.2020
3872 Clouds 28 1012 74 10000 6.2 70 23:19 28.01.2020
3873 Clouds 28 1012 74 10000 6.2 70 22:51 28.01.2020
3874 Clouds 28 1013 74 10000 6.2 70 22:27 28.01.2020
3875 Clouds 28 1013 74 10000 6.2 70 21:58 28.01.2020
3876 Clouds 27 1012 74 0 6.01 57 21:39 28.01.2020
3877 Clouds 28 1013 69 10000 5.7 70 21:20 28.01.2020
3878 Clouds 28 1013 69 10000 5.7 70 20:46 28.01.2020
3879 Clouds 28 1014 69 10000 5.1 70 20:26 28.01.2020
3880 Clouds 28 1014 69 10000 5.1 70 19:56 28.01.2020
3881 Clear 27 1013 73 0 6.3 53 19:37 28.01.2020
3882 Clouds 28 1013 74 10000 5.1 70 19:19 28.01.2020
3883 Clouds 28 1013 74 10000 5.1 70 19:19 28.01.2020
3884 Clouds 28 1013 74 10000 5.1 70 18:54 28.01.2020
3885 Clear 27 1013 73 0 6.3 53 18:36 28.01.2020
3886 Clouds 28 1013 74 10000 5.1 50 18:18 28.01.2020
3887 Clouds 28 1013 74 10000 5.1 50 17:54 28.01.2020
3888 Clear 27 1013 73 0 6.3 53 17:36 28.01.2020
3889 Clouds 28 1012 69 10000 4.6 40 17:18 28.01.2020
3890 Clouds 28 1012 69 10000 4.6 40 16:44 28.01.2020
3891 Clouds 28 1011 74 10000 4.6 60 16:25 28.01.2020
3892 Clouds 28 1011 74 10000 4.6 60 15:57 28.01.2020
3893 Clear 27 1012 73 0 5.68 46 15:38 28.01.2020
3894 Clouds 29 1011 70 10000 5.1 50 15:18 28.01.2020
3895 Clouds 29 1011 70 10000 5.1 50 14:44 28.01.2020
3896 Clouds 29 1011 66 10000 4.6 50 14:20 28.01.2020
3897 Clouds 27 1011 71 0 5.56 51 13:43 28.01.2020
3898 Clouds 30 1010 66 10000 5.1 70 13:24 28.01.2020
3899 Clouds 30 1010 66 10000 5.1 70 12:46 28.01.2020
3900 Clouds 30 1010 66 10000 6.2 70 12:25 28.01.2020
3901 Clouds 30 1010 66 10000 6.2 70 11:59 28.01.2020
3902 Clear 27 1010 73 0 5.4 49 11:41 28.01.2020
3903 Clouds 31 1011 62 10000 5.7 70 11:22 28.01.2020
3904 Clouds 31 1011 62 10000 5.7 70 10:55 28.01.2020
3905 Clear 27 1010 71 0 5.45 53 10:36 28.01.2020
3906 Clouds 30 1011 66 10000 6.2 70 10:18 28.01.2020
3907 Clear 27 1010 71 0 5.45 53 09:41 28.01.2020
3908 Clouds 30 1012 70 10000 5.7 80 09:20 28.01.2020
3909 Clouds 30 1012 70 10000 5.7 80 08:46 28.01.2020
3910 Clouds 30 1014 70 10000 5.1 80 08:26 28.01.2020
3911 Clouds 30 1014 70 10000 5.1 80 07:56 28.01.2020
3912 Clear 27 1013 70 0 5.58 68 07:35 28.01.2020
3913 Clouds 30 1014 66 10000 4.6 90 06:48 28.01.2020
3914 Clouds 29 1013 79 9000 4.1 90 06:25 28.01.2020
3915 Clear 27 1013 70 0 5.58 68 05:40 28.01.2020
3916 Clear 27 1013 70 0 5.58 68 05:40 28.01.2020
3917 Clouds 29 1013 74 9000 4.1 90 05:22 28.01.2020
3918 Clouds 28 1011 78 9000 4.1 80 03:50 28.01.2020
3919 Clouds 27 1011 83 9000 2.6 70 02:49 28.01.2020
3920 Clouds 27 1010 83 9000 2.1 30 02:25 28.01.2020
3921 Clouds 27 1010 83 9000 2.1 30 01:56 28.01.2020
3922 Clouds 27 1010 83 9000 2.6 30 01:22 28.01.2020
3923 Clouds 27 1010 83 9000 2.6 30 00:45 28.01.2020
3924 Clouds 27 1010 83 9000 2.1 30 00:23 28.01.2020
3925 Clouds 27 1010 83 9000 2.1 30 23:44 27.01.2020
3926 Clouds 27 1011 83 9000 4.1 70 23:20 27.01.2020
3927 Clouds 27 1011 83 9000 4.1 70 22:45 27.01.2020
3928 Clouds 28 1011 78 9000 4.1 70 22:21 27.01.2020
3929 Clouds 28 1011 78 9000 4.1 70 21:58 27.01.2020
3930 Clouds 27 1011 77 0 4.88 29 21:39 27.01.2020
3931 Clouds 28 1012 78 9000 4.1 70 21:19 27.01.2020
3932 Clouds 28 1012 78 9000 4.1 70 21:19 27.01.2020
3933 Clouds 28 1012 78 9000 4.1 70 20:59 27.01.2020
3934 Clouds 27 1011 77 0 4.88 29 20:38 27.01.2020
3935 Clouds 28 1013 74 9000 4.1 70 20:20 27.01.2020
3936 Clouds 28 1013 74 9000 4.1 70 19:57 27.01.2020
3937 Clouds 27 1013 72 0 4.55 39 19:39 27.01.2020
3938 Clouds 28 1013 74 9000 4.1 70 19:21 27.01.2020
3939 Clouds 28 1013 74 9000 4.1 70 18:54 27.01.2020
3940 Clouds 27 1013 72 0 4.55 39 18:36 27.01.2020
3941 Clouds 28 1012 74 9000 4.1 70 18:18 27.01.2020
3942 Clouds 27 1013 72 0 4.55 39 17:39 27.01.2020
3943 Clouds 27 1013 72 0 4.55 39 17:39 27.01.2020
3944 Clouds 28 1012 74 9000 4.1 70 17:19 27.01.2020
3945 Clouds 28 1012 74 9000 4.1 70 16:56 27.01.2020
3946 Clear 27 1012 71 0 4.96 47 16:37 27.01.2020
3947 Clouds 29 1011 66 9000 4.1 70 16:19 27.01.2020
3948 Clouds 29 1011 66 9000 4.1 70 15:54 27.01.2020
3949 Clear 27 1012 71 0 4.96 47 15:36 27.01.2020
3950 Clouds 29 1010 66 9000 4.6 70 15:18 27.01.2020
3951 Clear 27 1012 71 0 4.96 47 14:40 27.01.2020
3952 Clouds 29 1010 70 9000 4.6 70 14:21 27.01.2020
3953 Clouds 29 1010 70 9000 4.6 70 13:54 27.01.2020
3954 Clouds 27 1010 73 0 5.25 46 13:36 27.01.2020
3955 Clouds 30 1009 70 9000 5.1 70 13:18 27.01.2020
3956 Clouds 27 1010 72 0 5.3 38 12:41 27.01.2020
3957 Clouds 30 1010 66 9000 5.1 70 12:22 27.01.2020
3958 Clouds 30 1010 66 9000 5.1 70 11:43 27.01.2020
3959 Clouds 30 1010 66 9000 4.6 70 11:22 27.01.2020
3960 Clouds 30 1010 66 9000 4.6 70 10:57 27.01.2020
3961 Clouds 27 1011 72 0 4.77 37 10:39 27.01.2020
3962 Clouds 30 1011 66 9000 4.6 60 10:20 27.01.2020
3963 Clouds 27 1011 72 0 4.77 37 09:40 27.01.2020
3964 Clouds 30 1012 66 9000 5.1 60 09:19 27.01.2020
3965 Clouds 30 1012 66 9000 5.1 60 08:57 27.01.2020
3966 Clouds 27 1011 72 0 4.77 37 08:39 27.01.2020
3967 Clouds 30 1013 70 9000 5.7 60 08:19 27.01.2020
3968 Clouds 30 1013 70 9000 5.7 60 07:47 27.01.2020
3969 Clouds 30 1014 70 9000 4.6 70 07:29 27.01.2020
3970 Clouds 27 1013 72 0 4.1 46 06:38 27.01.2020
3971 Clouds 29 1014 74 9000 4.1 90 05:46 27.01.2020
3972 Clouds 27 1013 74 0 4.09 59 04:37 27.01.2020
3973 Clouds 27 1013 74 0 4.09 59 03:35 27.01.2020
3974 Clouds 27 1011 78 9000 3.1 90 01:56 27.01.2020
3975 Clouds 27 1011 83 9000 3.1 90 01:27 27.01.2020
3976 Clouds 27 1011 83 9000 3.1 90 00:42 27.01.2020
3977 Clouds 27 1011 83 9000 3.6 90 00:22 27.01.2020
3978 Clouds 27 1011 83 9000 3.6 90 23:44 26.01.2020
3979 Clouds 28 1011 78 9000 4.1 90 23:26 26.01.2020
3980 Clouds 28 1011 78 9000 4.1 90 22:59 26.01.2020
3981 Clouds 27 1011 78 0 4.39 78 22:39 26.01.2020
3982 Clouds 28 1011 78 9000 5.7 90 22:20 26.01.2020
3983 Clouds 28 1011 78 9000 5.7 90 21:58 26.01.2020
3984 Clouds 27 1011 78 0 4.39 78 21:39 26.01.2020
3985 Clouds 28 1012 78 9000 5.7 70 21:21 26.01.2020
3986 Clouds 28 1012 78 9000 5.7 70 20:58 26.01.2020
3987 Clouds 27 1011 78 0 4.39 78 20:38 26.01.2020
3988 Clouds 28 1012 74 9000 6.2 80 20:19 26.01.2020
3989 Clouds 28 1012 74 9000 6.2 80 19:59 26.01.2020
3990 Clouds 27 1012 79 0 4.94 68 19:38 26.01.2020
3991 Clouds 29 1013 70 9000 5.7 90 19:20 26.01.2020
3992 Clouds 29 1013 70 9000 5.7 90 18:56 26.01.2020
3993 Clouds 27 1012 79 0 4.94 68 18:38 26.01.2020
3994 Clouds 28 1012 74 9000 6.2 90 18:20 26.01.2020
3995 Clouds 28 1012 74 9000 6.2 90 17:55 26.01.2020
3996 Clouds 27 1012 79 0 4.94 68 17:37 26.01.2020
3997 Clouds 28 1011 78 9000 3.6 70 17:18 26.01.2020
3998 Clouds 28 1011 78 9000 3.6 70 16:56 26.01.2020
3999 Clouds 28 1012 72 0 3.71 40 16:38 26.01.2020
4000 Clouds 29 1011 74 9000 3.6 70 16:18 26.01.2020
4001 Clouds 28 1012 72 0 3.71 40 15:43 26.01.2020
4002 Clouds 28 1012 72 0 3.71 40 15:21 26.01.2020
4003 Clouds 28 1012 72 0 3.71 40 14:57 26.01.2020
4004 Clouds 28 1012 72 0 3.71 40 14:38 26.01.2020
4005 Clouds 28 1010 71 0 3.01 47 14:19 26.01.2020
4006 Clouds 28 1010 71 0 3.01 47 13:40 26.01.2020
4007 Clouds 28 1010 71 0 3.15 45 13:19 26.01.2020
4008 Clouds 28 1010 71 0 3.15 45 12:56 26.01.2020
4009 Clouds 28 1010 71 0 3.15 45 12:36 26.01.2020
4010 Clouds 28 1010 71 0 3.15 45 12:18 26.01.2020
4011 Clouds 28 1010 71 0 3.15 45 11:56 26.01.2020
4012 Clouds 28 1010 71 0 3.15 45 11:36 26.01.2020
4013 Clouds 28 1010 73 0 4.47 26 11:18 26.01.2020
4014 Clouds 28 1010 73 0 4.47 26 10:39 26.01.2020
4015 Clouds 31 1011 66 10000 5.7 60 10:21 26.01.2020
4016 Clouds 31 1011 66 10000 5.7 60 09:59 26.01.2020
4017 Clouds 28 1010 73 0 4.47 26 09:41 26.01.2020
4018 Clouds 31 1012 66 10000 5.7 60 09:23 26.01.2020
4019 Clouds 31 1012 66 10000 5.7 60 08:57 26.01.2020
4020 Clouds 31 1012 66 10000 5.7 60 08:57 26.01.2020
4021 Clouds 28 1010 73 0 4.47 26 08:38 26.01.2020
4022 Clouds 30 1013 70 10000 6.2 50 08:20 26.01.2020
4023 Clouds 30 1013 70 10000 6.2 50 07:45 26.01.2020
4024 Clouds 30 1013 66 10000 5.1 60 07:22 26.01.2020
4025 Clouds 29 1013 66 10000 5.1 50 06:34 26.01.2020
4026 Clouds 29 1013 66 10000 5.1 50 05:52 26.01.2020
4027 Clouds 29 1012 70 10000 4.1 30 05:22 26.01.2020
4028 Clouds 27 1011 78 9000 4.1 30 03:22 26.01.2020
4029 Clouds 27 1011 78 9000 3.6 30 02:23 26.01.2020
4030 Clouds 27 1011 81 0 6.34 21 01:40 26.01.2020
4031 Clouds 27 1010 78 9000 3.6 40 01:20 26.01.2020
4032 Rain 27 1011 80 0 6.71 359 00:40 26.01.2020
4033 Clouds 28 1010 78 9000 4.6 40 00:20 26.01.2020
4034 Rain 27 1011 80 0 6.71 359 23:38 25.01.2020
4035 Clouds 27 1011 82 0 6.42 44 23:20 25.01.2020
4036 Clouds 27 1011 82 0 6.42 44 22:44 25.01.2020
4037 Clouds 27 1011 82 0 6.42 44 22:21 25.01.2020
4038 Clouds 27 1011 82 0 6.42 44 21:59 25.01.2020
4039 Clouds 27 1011 82 0 6.42 44 21:59 25.01.2020
4040 Clouds 27 1011 82 0 6.42 44 21:41 25.01.2020
4041 Clouds 27 1011 82 0 6.42 44 21:22 25.01.2020
4042 Clouds 27 1011 82 0 6.42 44 20:54 25.01.2020
4043 Clouds 27 1011 82 0 6.42 44 20:36 25.01.2020
4044 Clouds 28 1013 81 0 6.47 54 20:18 25.01.2020
4045 Clouds 27 1013 80 0 6.78 52 19:41 25.01.2020
4046 Clouds 28 1013 81 0 6.47 54 19:19 25.01.2020
4047 Clouds 27 1013 80 0 6.78 52 18:56 25.01.2020
4048 Clouds 27 1013 80 0 6.78 52 18:38 25.01.2020
4049 Clouds 27 1013 80 0 6.78 52 18:20 25.01.2020
4050 Clouds 27 1013 80 0 6.78 52 18:20 25.01.2020
4051 Clouds 27 1013 80 0 6.78 52 17:40 25.01.2020
4052 Clouds 28 1012 78 0 7.02 54 17:19 25.01.2020
4053 Clouds 28 1012 78 0 7.23 53 16:57 25.01.2020
4054 Clouds 28 1012 78 0 7.02 54 16:38 25.01.2020
4055 Clouds 28 1012 78 0 7.02 54 16:19 25.01.2020
4056 Clouds 28 1012 78 0 7.02 54 15:46 25.01.2020
4057 Clouds 28 1012 78 0 7.02 54 15:25 25.01.2020
4058 Clouds 28 1012 78 0 7.02 54 14:57 25.01.2020
4059 Clouds 28 1012 78 0 7.02 54 14:39 25.01.2020
4060 Clouds 28 1010 74 0 7.78 51 14:18 25.01.2020
4061 Clouds 28 1010 74 0 7.78 51 13:42 25.01.2020
4062 Clouds 28 1010 75 0 8.11 52 13:22 25.01.2020
4063 Clouds 28 1010 75 0 8.11 52 12:45 25.01.2020
4064 Clouds 31 1010 70 9000 7.2 70 12:25 25.01.2020
4065 Clouds 31 1010 70 9000 7.2 70 11:45 25.01.2020
4066 Clouds 32 1011 66 9000 7.2 60 11:22 25.01.2020
4067 Clouds 32 1011 66 9000 7.2 60 11:22 25.01.2020
4068 Clouds 32 1011 66 9000 7.2 60 11:22 25.01.2020
4069 Clouds 32 1011 66 9000 7.2 60 10:58 25.01.2020
4070 Clouds 28 1010 78 0 7.7 49 10:40 25.01.2020
4071 Clouds 31 1011 70 9000 7.7 60 10:20 25.01.2020
4072 Clouds 28 1010 78 0 7.7 49 09:41 25.01.2020
4073 Clouds 31 1012 70 9000 7.2 70 09:22 25.01.2020
4074 Clouds 31 1012 70 9000 7.2 70 08:44 25.01.2020
4075 Clouds 31 1013 70 9000 6.7 70 08:26 25.01.2020
4076 Clouds 31 1013 70 9000 6.7 70 07:50 25.01.2020
4077 Clouds 31 1013 70 9000 6.7 70 06:53 25.01.2020
4078 Clouds 30 1013 74 9000 7.2 70 06:28 25.01.2020
4079 Clouds 30 1013 74 9000 7.2 70 05:47 25.01.2020
4080 Clouds 29 1013 79 9000 6.7 70 04:50 25.01.2020
4081 Clouds 28 1012 83 9000 5.7 70 03:51 25.01.2020
4082 Clouds 28 1011 83 9000 6.7 70 03:19 25.01.2020
4083 Clouds 28 1010 83 9000 6.7 70 02:20 25.01.2020
4084 Clouds 28 1010 83 9000 6.7 70 01:48 25.01.2020
4085 Clouds 28 1010 83 9000 7.2 70 00:44 25.01.2020
4086 Clouds 28 1009 83 9000 7.2 70 00:26 25.01.2020
4087 Clouds 28 1009 83 9000 7.2 70 23:58 24.01.2020
4088 Clouds 28 1010 80 0 8.37 57 23:40 24.01.2020
4089 Clouds 28 1011 88 9000 7.2 70 23:22 24.01.2020
4090 Clouds 28 1011 88 9000 7.2 70 22:44 24.01.2020
4091 Clouds 29 1012 79 9000 8.2 70 22:25 24.01.2020
4092 Clouds 29 1012 79 9000 8.2 70 21:43 24.01.2020
4093 Clouds 29 1012 79 9000 8.2 70 21:21 24.01.2020
4094 Clouds 29 1012 79 9000 8.2 70 20:59 24.01.2020
4095 Clouds 28 1010 82 0 8.01 56 20:40 24.01.2020
4096 Clouds 29 1012 66 9000 7.7 70 20:20 24.01.2020
4097 Clouds 29 1012 66 9000 7.7 70 19:57 24.01.2020
4098 Rain 28 1012 82 0 9.66 56 19:38 24.01.2020
4099 Clouds 29 1013 83 9000 7.7 70 19:20 24.01.2020
4100 Clouds 29 1013 83 9000 7.7 70 18:43 24.01.2020
4101 Clouds 29 1012 79 9000 7.2 70 18:24 24.01.2020
4102 Clouds 29 1012 79 9000 7.2 70 17:54 24.01.2020
4103 Rain 28 1012 82 0 9.66 56 17:36 24.01.2020
4104 Clouds 28 1011 83 9000 6.2 70 17:18 24.01.2020
4105 Rain 28 1011 82 0 9.98 55 16:39 24.01.2020
4106 Clouds 27 1011 88 9000 6.2 70 16:20 24.01.2020
4107 Clouds 27 1011 88 9000 6.2 70 15:43 24.01.2020
4108 Clouds 27 1010 83 9000 7.7 70 15:23 24.01.2020
4109 Clouds 27 1010 83 9000 7.7 70 14:58 24.01.2020
4110 Rain 28 1011 82 0 9.98 55 14:40 24.01.2020
4111 Clouds 29 1009 83 9000 8.2 70 14:21 24.01.2020
4112 Clouds 29 1009 83 9000 8.2 70 13:43 24.01.2020
4113 Clouds 29 1008 83 9000 7.2 80 13:23 24.01.2020
4114 Clouds 29 1008 83 9000 7.2 80 12:44 24.01.2020
4115 Clouds 28 1009 94 9000 7.2 80 12:22 24.01.2020
4116 Clouds 28 1009 94 9000 7.2 80 11:57 24.01.2020
4117 Rain 28 1009 82 0 10.32 62 11:38 24.01.2020
4118 Rain 28 1009 84 0 9.46 60 11:18 24.01.2020
4119 Rain 28 1009 84 0 9.46 60 11:18 24.01.2020
4120 Rain 28 1009 84 0 9.46 60 10:41 24.01.2020
4121 Clouds 30 1010 79 8000 9.3 90 10:20 24.01.2020
4122 Clouds 30 1010 79 8000 9.3 90 09:42 24.01.2020
4123 Clouds 30 1010 79 8000 9.3 90 09:24 24.01.2020
4124 Clouds 30 1010 79 8000 9.3 90 09:00 24.01.2020
4125 Rain 28 1009 84 0 9.46 60 08:38 24.01.2020
4126 Clouds 29 1011 83 8000 8.7 80 08:18 24.01.2020
4127 Clouds 29 1011 83 8000 8.7 80 07:43 24.01.2020
4128 Clouds 29 1012 89 8000 7.7 70 07:22 24.01.2020
4129 Clouds 29 1012 89 8000 7.7 70 07:22 24.01.2020
4130 Clouds 29 1012 89 8000 7.7 70 06:43 24.01.2020
4131 Clouds 28 1012 88 7000 7.7 70 06:23 24.01.2020
4132 Clouds 29 1011 83 8000 6.7 70 05:22 24.01.2020
4133 Rain 28 1011 84 0 9.3 55 03:36 24.01.2020
4134 Rain 28 1011 84 0 9.3 55 02:40 24.01.2020
4135 Clouds 29 1008 83 9000 8.2 80 02:21 24.01.2020
4136 Clouds 28 1008 83 0 8.74 64 01:39 24.01.2020
4137 Clouds 28 1008 81 0 9.23 70 00:49 24.01.2020
4138 Clouds 29 1009 83 9000 9.3 80 00:19 24.01.2020
4139 Clouds 28 1008 81 0 9.23 70 23:42 23.01.2020
4140 Clouds 29 1009 83 9000 9.3 80 23:22 23.01.2020
4141 Clouds 29 1009 83 9000 9.3 80 22:58 23.01.2020
4142 Rain 28 1009 82 0 9.69 68 22:37 23.01.2020
4143 Clouds 29 1010 83 9000 9.8 80 22:18 23.01.2020
4144 Clouds 29 1010 83 9000 9.8 80 21:55 23.01.2020
4145 Rain 28 1009 82 0 9.69 68 21:37 23.01.2020
4146 Clouds 29 1011 83 9000 9.3 80 21:19 23.01.2020
4147 Clouds 29 1011 83 9000 9.3 80 20:54 23.01.2020
4148 Rain 28 1009 82 0 9.69 68 20:36 23.01.2020
4149 Clouds 29 1011 83 9000 9.3 80 20:18 23.01.2020
4150 Rain 28 1011 83 0 10.31 68 19:42 23.01.2020
4151 Clouds 29 1011 83 9000 9.3 90 19:23 23.01.2020
4152 Clouds 29 1011 83 9000 9.3 90 18:57 23.01.2020
4153 Rain 28 1011 83 0 10.31 68 18:38 23.01.2020
4154 Clouds 29 1011 79 9000 10.8 7 18:19 23.01.2020
4155 Clouds 29 1011 79 9000 10.8 7 17:55 23.01.2020
4156 Clouds 29 1011 79 9000 10.8 7 17:37 23.01.2020
4157 Clouds 29 1010 83 9000 10.8 80 17:18 23.01.2020
4158 Rain 28 1010 83 0 9.84 64 16:39 23.01.2020
4159 Clouds 29 1009 83 9000 10.3 80 16:20 23.01.2020
4160 Clouds 29 1009 83 9000 10.3 80 15:58 23.01.2020
4161 Rain 28 1010 83 0 9.84 64 15:39 23.01.2020
4162 Clouds 30 1008 79 9000 9.8 80 15:19 23.01.2020
4163 Clouds 30 1008 79 9000 9.8 80 14:58 23.01.2020
4164 Rain 28 1010 83 0 9.84 64 14:40 23.01.2020
4165 Clouds 30 1008 79 9000 9.3 80 14:22 23.01.2020
4166 Clouds 30 1008 79 9000 9.3 80 13:55 23.01.2020
4167 Rain 28 1008 83 0 8.67 71 13:37 23.01.2020
4168 Rain 31 1008 74 9000 7.7 90 13:18 23.01.2020
4169 Rain 28 1008 82 0 8.1 75 12:42 23.01.2020
4170 Clouds 31 1008 79 9000 8.2 90 12:24 23.01.2020
4171 Clouds 31 1008 79 9000 8.2 90 11:56 23.01.2020
4172 Rain 28 1008 82 0 8.1 75 11:37 23.01.2020
4173 Clouds 32 1009 70 9000 8.7 90 11:18 23.01.2020
4174 Rain 29 1008 82 0 8.89 77 10:42 23.01.2020
4175 Clouds 32 1009 70 9000 9.8 80 10:19 23.01.2020
4176 Clouds 32 1009 70 9000 9.8 80 10:19 23.01.2020
4177 Rain 28 1008 82 0 9.02 74 09:42 23.01.2020
4178 Clouds 31 1010 74 9000 8.7 80 09:24 23.01.2020
4179 Clouds 31 1010 74 9000 8.7 80 08:57 23.01.2020
4180 Rain 29 1008 82 0 8.89 77 08:38 23.01.2020
4181 Clouds 31 1011 79 9000 9.8 90 08:20 23.01.2020
4182 Clouds 31 1011 79 9000 9.8 90 07:42 23.01.2020
4183 Clouds 30 1012 79 9000 8.7 90 07:24 23.01.2020
4184 Clouds 30 1012 79 9000 8.7 90 06:46 23.01.2020
4185 Clouds 29 1012 83 9000 9.8 90 06:19 23.01.2020
4186 Rain 28 1011 82 0 12.39 70 04:58 23.01.2020
4187 Rain 28 1011 82 0 12.39 70 04:22 23.01.2020
4188 Clouds 29 1009 83 9000 9.3 90 02:31 23.01.2020
4189 Clouds 29 1008 83 9000 9.3 80 00:56 23.01.2020
4190 Clouds 29 1008 83 9000 9.8 80 00:26 23.01.2020
4191 Clouds 29 1008 83 9000 9.8 80 23:47 22.01.2020
4192 Clouds 29 1010 83 9000 9.8 80 23:29 22.01.2020
4193 Clouds 29 1010 83 9000 9.8 80 22:56 22.01.2020
4194 Rain 28 1008 82 0 9.87 74 22:38 22.01.2020
4195 Clouds 29 1010 83 10000 9.8 80 22:20 22.01.2020
4196 Rain 28 1008 82 0 9.87 74 21:39 22.01.2020
4197 Clouds 29 1011 83 10000 9.8 80 21:21 22.01.2020
4198 Clouds 29 1011 83 10000 9.8 80 20:56 22.01.2020
4199 Rain 28 1008 82 0 9.87 74 20:37 22.01.2020
4200 Clouds 29 1011 83 10000 9.3 80 20:18 22.01.2020
4201 Clouds 29 1011 83 10000 9.3 80 19:55 22.01.2020
4202 Clouds 28 1011 83 0 9.9 68 19:37 22.01.2020
4203 Clouds 29 1011 83 10000 9.3 70 19:18 22.01.2020
4204 Clouds 29 1011 83 10000 9.3 70 18:55 22.01.2020
4205 Clouds 28 1011 83 0 9.9 68 18:37 22.01.2020
4206 Clouds 29 1011 83 10000 9.8 70 18:18 22.01.2020
4207 Clouds 28 1011 83 0 9.9 68 17:40 22.01.2020
4208 Clouds 29 1011 83 10000 9.3 70 17:21 22.01.2020
4209 Clouds 29 1011 83 10000 9.3 70 16:58 22.01.2020
4210 Clear 28 1010 82 0 10.22 70 16:39 22.01.2020
4211 Clouds 29 1010 83 10000 8.7 70 16:21 22.01.2020
4212 Clouds 29 1010 83 10000 8.7 70 15:56 22.01.2020
4213 Clear 28 1010 82 0 10.22 70 15:38 22.01.2020
4214 Clouds 30 1009 79 10000 8.7 70 15:18 22.01.2020
4215 Clear 28 1010 82 0 10.22 70 14:39 22.01.2020
4216 Clouds 30 1009 74 10000 9.3 70 14:20 22.01.2020
4217 Clouds 30 1009 74 10000 9.3 70 13:58 22.01.2020
4218 Clouds 28 1009 81 0 11.16 68 13:38 22.01.2020
4219 Clouds 31 1008 70 10000 10.3 70 13:19 22.01.2020
4220 Clouds 31 1008 70 10000 10.3 70 12:57 22.01.2020
4221 Clouds 28 1009 81 0 10.86 67 12:39 22.01.2020
4222 Clouds 31 1009 74 10000 8.7 70 12:19 22.01.2020
4223 Clouds 31 1009 74 10000 8.7 70 11:58 22.01.2020
4224 Clouds 28 1009 81 0 10.86 67 11:39 22.01.2020
4225 Clouds 31 1009 74 10000 8.7 70 11:19 22.01.2020
4226 Clouds 31 1009 74 10000 8.7 70 11:19 22.01.2020
4227 Clouds 31 1009 74 10000 8.7 70 10:54 22.01.2020
4228 Rain 28 1009 81 0 10.85 63 10:36 22.01.2020
4229 Clouds 31 1010 74 10000 10.3 70 10:18 22.01.2020
4230 Rain 28 1009 81 0 10.85 63 09:41 22.01.2020
4231 Clouds 31 1011 74 10000 9.3 70 09:23 22.01.2020
4232 Clouds 31 1011 74 10000 9.3 70 08:56 22.01.2020
4233 Clouds 28 1009 81 0 10.4 64 08:37 22.01.2020
4234 Clouds 30 1013 84 10000 8.2 70 08:19 22.01.2020
4235 Clouds 30 1013 84 10000 8.2 70 08:19 22.01.2020
4236 Clouds 30 1013 84 10000 8.2 70 07:45 22.01.2020
4237 Clouds 28 1013 88 10000 6.7 70 07:27 22.01.2020
4238 Clouds 29 1012 80 0 9.52 68 06:38 22.01.2020
4239 Rain 28 1013 94 9000 8.2 90 06:19 22.01.2020
4240 Clouds 29 1012 89 10000 7.2 70 04:27 22.01.2020
4241 Clouds 28 1011 88 10000 7.2 70 03:29 22.01.2020
4242 Clouds 28 1011 88 10000 7.2 70 02:49 22.01.2020
4243 Rain 28 1010 88 10000 5.7 60 01:30 22.01.2020
4244 Rain 28 1010 80 0 9.9 65 00:40 22.01.2020
4245 Clouds 28 1010 88 10000 7.2 70 00:19 22.01.2020
4246 Rain 28 1010 80 0 9.9 65 23:37 21.01.2020
4247 Rain 28 1010 80 0 9.9 65 23:37 21.01.2020
4248 Clouds 28 1011 88 10000 7.2 70 23:19 21.01.2020
4249 Clouds 28 1011 88 10000 7.2 70 22:42 21.01.2020
4250 Clouds 29 1012 79 10000 9.3 70 22:24 21.01.2020
4251 Clouds 29 1012 79 10000 9.3 70 21:59 21.01.2020
4252 Rain 28 1010 82 0 8.75 67 21:40 21.01.2020
4253 Clouds 29 1012 79 10000 10.3 70 21:21 21.01.2020
4254 Clouds 29 1012 79 10000 10.3 70 20:59 21.01.2020
4255 Rain 28 1010 82 0 8.75 67 20:39 21.01.2020
4256 Clouds 29 1012 79 10000 10.3 70 20:20 21.01.2020
4257 Clouds 29 1012 79 10000 10.3 70 19:58 21.01.2020
4258 Clouds 29 1012 79 10000 10.3 70 19:58 21.01.2020
4259 Clouds 28 1012 81 0 9.13 62 19:40 21.01.2020
4260 Clouds 29 1013 79 10000 10.8 70 19:21 21.01.2020
4261 Clouds 29 1013 79 10000 10.8 70 18:57 21.01.2020
4262 Clouds 28 1012 81 0 9.13 62 18:39 21.01.2020
4263 Clouds 29 1012 79 10000 10.3 80 18:21 21.01.2020
4264 Clouds 29 1012 79 10000 10.3 80 17:57 21.01.2020
4265 Clouds 28 1012 81 0 9.13 62 17:38 21.01.2020
4266 Clouds 29 1011 79 10000 10.3 70 17:18 21.01.2020
4267 Clouds 28 1011 79 0 10.49 56 16:38 21.01.2020
4268 Clouds 29 1010 74 10000 9.8 70 16:19 21.01.2020
4269 Clouds 29 1010 74 10000 9.8 70 15:59 21.01.2020
4270 Clouds 28 1011 79 0 10.49 56 15:38 21.01.2020
4271 Clouds 30 1010 70 10000 9.3 70 15:19 21.01.2020
4272 Clouds 28 1011 79 0 10.49 56 14:40 21.01.2020
4273 Clouds 30 1009 70 10000 8.7 70 14:21 21.01.2020
4274 Clouds 30 1009 70 10000 8.7 70 13:44 21.01.2020
4275 Clouds 31 1009 66 10000 8.7 70 13:21 21.01.2020
4276 Clouds 31 1009 66 10000 8.7 70 12:59 21.01.2020
4277 Clouds 28 1009 75 0 10.02 57 12:41 21.01.2020
4278 Clouds 31 1009 70 10000 8.7 70 12:23 21.01.2020
4279 Clouds 31 1009 70 10000 8.7 70 11:56 21.01.2020
4280 Clouds 28 1009 75 0 10.02 57 11:37 21.01.2020
4281 Clouds 31 1010 74 10000 8.7 70 11:18 21.01.2020
4282 Clouds 28 1010 76 0 9.75 61 10:42 21.01.2020
4283 Clouds 31 1011 70 10000 9.3 80 10:22 21.01.2020
4284 Clouds 31 1011 70 10000 9.3 80 10:22 21.01.2020
4285 Clouds 31 1011 70 10000 9.3 80 09:55 21.01.2020
4286 Clouds 28 1010 76 0 9.75 61 09:37 21.01.2020
4287 Clouds 31 1012 74 10000 8.2 80 09:18 21.01.2020
4288 Clouds 28 1010 76 0 9.75 61 08:41 21.01.2020
4289 Clouds 31 1013 70 10000 7.2 80 08:21 21.01.2020
4290 Clouds 31 1013 70 10000 7.2 80 07:43 21.01.2020
4291 Clouds 31 1013 70 10000 7.2 80 07:43 21.01.2020
4292 Clouds 31 1013 70 10000 7.2 80 07:24 21.01.2020
4293 Clouds 31 1013 70 10000 7.2 80 06:57 21.01.2020
4294 Clouds 28 1012 78 0 9.06 69 06:38 21.01.2020
4295 Clouds 30 1013 74 10000 7.2 80 05:53 21.01.2020
4296 Clouds 29 1013 79 10000 7.2 80 05:32 21.01.2020
4297 Clouds 28 1012 74 0 8.04 59 04:37 21.01.2020
4298 Clouds 28 1011 83 10000 6.2 70 02:27 21.01.2020
4299 Rain 28 1011 79 0 6.89 59 01:36 21.01.2020
4300 Clouds 28 1010 83 10000 6.7 70 00:45 21.01.2020
4301 Clouds 28 1010 83 10000 6.7 80 00:25 21.01.2020
4302 Clouds 28 1010 83 10000 6.7 80 23:56 20.01.2020
4303 Rain 28 1010 78 0 6.78 61 23:36 20.01.2020
4304 Clouds 28 1011 83 10000 7.2 80 23:18 20.01.2020
4305 Rain 28 1011 80 0 6.37 74 22:40 20.01.2020
4306 Clouds 28 1012 83 10000 7.2 80 22:21 20.01.2020
4307 Clouds 28 1012 83 10000 7.2 80 21:58 20.01.2020
4308 Rain 28 1011 80 0 6.37 74 21:38 20.01.2020
4309 Clouds 29 1012 79 10000 8.2 80 21:20 20.01.2020
4310 Clouds 29 1012 79 10000 8.2 80 20:58 20.01.2020
4311 Rain 28 1011 80 0 6.37 74 20:39 20.01.2020
4312 Clouds 29 1013 79 10000 7.7 80 20:20 20.01.2020
4313 Clouds 29 1013 79 10000 7.7 80 19:58 20.01.2020
4314 Rain 28 1012 79 0 7.42 75 19:40 20.01.2020
4315 Clouds 29 1013 74 10000 7.7 80 19:19 20.01.2020
4316 Clouds 29 1013 74 10000 7.7 80 18:54 20.01.2020
4317 Rain 28 1012 79 0 7.42 75 18:36 20.01.2020
4318 Clouds 29 1012 79 10000 7.7 80 18:18 20.01.2020
4319 Rain 28 1012 79 0 7.42 75 17:38 20.01.2020
4320 Clouds 29 1011 79 10000 7.2 80 17:19 20.01.2020
4321 Clouds 29 1011 79 10000 7.2 80 16:46 20.01.2020
4322 Clouds 29 1010 79 10000 7.2 80 16:26 20.01.2020
4323 Clouds 29 1010 79 10000 7.2 80 15:59 20.01.2020
4324 Clouds 28 1012 78 0 7.74 62 15:40 20.01.2020
4325 Clouds 29 1010 79 10000 7.2 80 15:22 20.01.2020
4326 Clouds 29 1010 79 10000 7.2 80 14:56 20.01.2020
4327 Clouds 28 1012 78 0 7.74 62 14:37 20.01.2020
4328 Clouds 28 1012 78 0 7.74 62 14:37 20.01.2020
4329 Clouds 30 1010 74 10000 7.2 80 14:19 20.01.2020
4330 Rain 28 1009 80 0 7.94 54 13:42 20.01.2020
4331 Clouds 31 1009 70 10000 6.2 90 13:23 20.01.2020
4332 Clouds 31 1009 70 10000 6.2 90 12:58 20.01.2020
4333 Rain 28 1009 80 0 8 56 12:40 20.01.2020
4334 Clouds 31 1010 70 10000 6.2 80 12:21 20.01.2020
4335 Clouds 31 1010 70 10000 6.2 80 11:43 20.01.2020
4336 Clouds 31 1010 74 10000 7.7 80 11:24 20.01.2020
4337 Clouds 31 1010 74 10000 7.7 80 10:58 20.01.2020
4338 Clouds 28 1010 79 0 7.45 61 10:40 20.01.2020
4339 Clouds 32 1011 70 10000 7.2 80 10:20 20.01.2020
4340 Clouds 28 1010 79 0 7.45 61 09:41 20.01.2020
4341 Clouds 31 1012 74 10000 7.2 80 09:22 20.01.2020
4342 Clouds 31 1012 74 10000 7.2 80 08:54 20.01.2020
4343 Clouds 31 1012 74 10000 7.2 80 08:31 20.01.2020
4344 Clouds 31 1012 74 10000 7.2 80 07:55 20.01.2020
4345 Clouds 28 1012 80 0 7.19 79 07:36 20.01.2020
4346 Clouds 31 1013 74 10000 7.2 80 07:18 20.01.2020
4347 Clouds 28 1012 80 0 7.19 79 06:35 20.01.2020
4348 Clouds 30 1013 74 10000 7.2 80 05:56 20.01.2020
4349 Clouds 28 1012 80 0 7.19 79 05:37 20.01.2020
4350 Clouds 29 1012 79 10000 7.7 70 05:18 20.01.2020
4351 Clouds 29 1011 79 10000 7.7 80 03:46 20.01.2020
4352 Clouds 28 1010 83 10000 7.2 90 01:58 20.01.2020
4353 Rain 28 1010 80 0 5.33 65 01:38 20.01.2020
4354 Clouds 28 1010 88 10000 6.7 80 00:46 20.01.2020
4355 Clouds 28 1010 88 10000 6.7 80 00:27 20.01.2020
4356 Clouds 28 1010 88 10000 6.7 80 23:55 19.01.2020
4357 Rain 28 1009 79 0 4.93 59 23:36 19.01.2020
4358 Clouds 29 1010 83 10000 6.7 80 23:18 19.01.2020
4359 Clouds 29 1010 83 10000 6.7 80 22:54 19.01.2020
4360 Rain 28 1010 80 0 6.95 48 22:36 19.01.2020
4361 Clouds 29 1011 79 10000 6.7 80 22:18 19.01.2020
4362 Clouds 29 1011 79 10000 6.7 80 21:55 19.01.2020
4363 Clouds 29 1011 79 10000 6.7 80 21:55 19.01.2020
4364 Rain 28 1010 80 0 6.95 48 21:36 19.01.2020
4365 Clouds 29 1012 79 10000 6.7 90 21:18 19.01.2020
4366 Clouds 29 1012 79 10000 6.7 90 20:55 19.01.2020
4367 Rain 28 1010 80 0 6.95 48 20:37 19.01.2020
4368 Clouds 29 1012 79 10000 5.7 70 20:18 19.01.2020
4369 Clouds 29 1012 79 10000 5.7 70 19:54 19.01.2020
4370 Rain 28 1011 79 0 6.73 55 19:36 19.01.2020
4371 Clouds 29 1012 79 10000 5.7 60 19:18 19.01.2020
4372 Clouds 29 1012 79 10000 5.7 60 18:54 19.01.2020
4373 Rain 28 1011 79 0 6.73 55 18:36 19.01.2020
4374 Clouds 29 1012 79 10000 5.1 70 18:18 19.01.2020
4375 Clouds 29 1012 79 10000 5.1 70 17:56 19.01.2020
4376 Rain 28 1011 79 0 6.73 55 17:38 19.01.2020
4377 Clouds 29 1011 79 10000 5.1 60 17:18 19.01.2020
4378 Clouds 29 1011 79 10000 5.1 60 16:54 19.01.2020
4379 Rain 28 1010 80 0 6.43 52 16:36 19.01.2020
4380 Clouds 29 1010 79 10000 5.1 60 16:18 19.01.2020
4381 Rain 28 1010 80 0 6.43 52 15:41 19.01.2020
4382 Clouds 29 1009 79 10000 5.7 70 15:22 19.01.2020
4383 Clouds 29 1009 79 10000 5.7 70 14:59 19.01.2020
4384 Rain 28 1010 80 0 6.43 52 14:40 19.01.2020
4385 Clouds 30 1009 74 10000 6.2 80 14:20 19.01.2020
4386 Clouds 30 1009 74 10000 6.2 80 13:59 19.01.2020
4387 Rain 28 1009 79 0 5.5 63 13:40 19.01.2020
4388 Clouds 31 1008 70 10000 5.7 70 13:21 19.01.2020
4389 Clouds 31 1008 70 10000 5.7 70 12:59 19.01.2020
4390 Rain 28 1008 81 0 5.93 56 12:40 19.01.2020
4391 Clouds 31 1009 70 10000 6.2 80 12:21 19.01.2020
4392 Clouds 31 1009 70 10000 6.2 80 11:57 19.01.2020
4393 Rain 28 1008 81 0 5.93 56 11:37 19.01.2020
4394 Clouds 32 1009 66 10000 5.7 80 11:18 19.01.2020
4395 Clouds 28 1009 79 0 6.09 76 10:39 19.01.2020
4396 Clouds 31 1010 70 10000 5.7 80 10:20 19.01.2020
4397 Clouds 31 1010 70 10000 5.7 80 09:57 19.01.2020
4398 Clouds 28 1009 79 0 6.09 76 09:38 19.01.2020
4399 Clouds 31 1011 74 10000 6.2 80 09:19 19.01.2020
4400 Clouds 31 1011 74 10000 6.2 80 08:55 19.01.2020
4401 Clouds 31 1012 70 10000 6.2 80 08:32 19.01.2020
4402 Clouds 31 1012 70 10000 6.2 80 07:54 19.01.2020
4403 Clouds 30 1012 79 10000 6.2 80 07:28 19.01.2020
4404 Clouds 30 1012 79 10000 6.2 80 06:55 19.01.2020
4405 Clouds 30 1012 79 10000 5.7 80 06:22 19.01.2020
4406 Rain 28 1011 82 0 6.24 65 03:55 19.01.2020
4407 Rain 28 1011 82 0 6.24 65 02:33 19.01.2020
4408 Clouds 28 1009 79 0 6.01 63 01:39 19.01.2020
4409 Clouds 28 1009 83 10000 4.6 80 01:20 19.01.2020
4410 Clouds 28 1009 83 10000 4.6 80 00:44 19.01.2020
4411 Clouds 28 1009 83 10000 4.6 70 00:21 19.01.2020
4412 Clouds 28 1009 83 10000 4.6 70 23:47 18.01.2020
4413 Clouds 28 1010 83 10000 4.6 90 23:25 18.01.2020
4414 Clouds 28 1010 83 10000 4.6 90 22:59 18.01.2020
4415 Clouds 28 1009 79 0 5.9 68 22:41 18.01.2020
4416 Clouds 28 1010 83 10000 4.6 90 22:21 18.01.2020
4417 Clouds 28 1010 83 10000 4.6 90 21:58 18.01.2020
4418 Clouds 28 1009 79 0 5.9 68 21:38 18.01.2020
4419 Clouds 28 1011 83 10000 5.7 90 21:20 18.01.2020
4420 Clouds 28 1011 83 10000 5.7 90 20:56 18.01.2020
4421 Clouds 28 1009 79 0 5.9 68 20:38 18.01.2020
4422 Clouds 29 1011 74 10000 6.7 90 20:18 18.01.2020
4423 Clouds 29 1011 74 10000 6.7 90 19:43 18.01.2020
4424 Clouds 29 1011 74 10000 7.2 90 19:24 18.01.2020
4425 Clouds 28 1010 80 0 7.05 71 18:43 18.01.2020
4426 Clouds 29 1010 79 10000 7.2 80 18:25 18.01.2020
4427 Clouds 29 1010 79 10000 7.2 80 18:25 18.01.2020
4428 Clouds 29 1010 79 10000 7.2 80 17:59 18.01.2020
4429 Clouds 28 1010 80 0 7.05 71 17:40 18.01.2020
4430 Clouds 29 1010 79 10000 6.7 80 17:20 18.01.2020
4431 Clouds 29 1010 79 10000 6.7 80 16:57 18.01.2020
4432 Clouds 28 1009 79 0 7.55 65 16:38 18.01.2020
4433 Clouds 28 1009 79 0 7.55 65 16:38 18.01.2020
4434 Clouds 29 1009 74 10000 7.2 70 16:19 18.01.2020
4435 Clouds 29 1009 74 10000 7.2 70 15:44 18.01.2020
4436 Clouds 29 1008 74 10000 7.2 70 15:26 18.01.2020
4437 Clouds 29 1008 74 10000 7.2 70 14:59 18.01.2020
4438 Clouds 28 1009 79 0 7.55 65 14:40 18.01.2020
4439 Clouds 30 1007 70 10000 8.2 90 14:19 18.01.2020
4440 Clouds 30 1007 70 10000 8.2 90 13:56 18.01.2020
4441 Clouds 30 1007 70 10000 8.2 90 13:56 18.01.2020
4442 Clouds 28 1008 79 0 7.23 59 13:36 18.01.2020
4443 Clouds 30 1007 70 10000 7.7 70 13:18 18.01.2020
4444 Clouds 30 1007 70 10000 7.7 70 13:18 18.01.2020
4445 Rain 28 1007 79 0 7.98 58 12:41 18.01.2020
4446 Clouds 30 1008 70 10000 7.7 70 12:21 18.01.2020
4447 Clouds 30 1008 70 10000 7.7 70 11:56 18.01.2020
4448 Rain 28 1007 79 0 7.98 58 11:37 18.01.2020
4449 Clouds 31 1009 70 10000 7.2 70 11:19 18.01.2020
4450 Clouds 28 1008 79 0 7.13 57 10:41 18.01.2020
4451 Clouds 31 1009 70 10000 7.2 70 10:20 18.01.2020
4452 Clouds 31 1009 70 10000 7.2 70 10:20 18.01.2020
4453 Clouds 31 1009 70 10000 7.2 70 09:54 18.01.2020
4454 Clouds 28 1008 79 0 7.13 57 09:36 18.01.2020
4455 Clouds 30 1010 70 10000 7.2 70 08:59 18.01.2020
4456 Clouds 28 1008 79 0 7.13 57 08:41 18.01.2020
4457 Clouds 31 1011 70 10000 7.2 80 08:20 18.01.2020
4458 Clouds 31 1011 70 10000 7.2 80 07:52 18.01.2020
4459 Rain 28 1010 81 0 6.66 74 07:32 18.01.2020
4460 Clouds 31 1012 70 10000 6.7 80 06:48 18.01.2020
4461 Clouds 29 1012 74 10000 5.7 80 06:19 18.01.2020
4462 Clouds 29 1011 74 10000 6.2 80 05:30 18.01.2020
4463 Clouds 27 1010 80 0 6.57 65 03:39 18.01.2020
4464 Clouds 28 1009 74 10000 6.7 80 02:20 18.01.2020
4465 Clouds 27 1009 77 0 5.7 66 01:36 18.01.2020
4466 Clouds 27 1009 78 0 5.97 63 00:38 18.01.2020
4467 Clouds 28 1008 74 10000 6.7 80 00:19 18.01.2020
4468 Clouds 27 1009 78 0 5.97 63 23:44 17.01.2020
4469 Clouds 28 1009 78 10000 7.2 80 23:21 17.01.2020
4470 Clouds 28 1009 78 10000 7.2 80 22:59 17.01.2020
4471 Clouds 27 1009 77 0 5.56 68 22:40 17.01.2020
4472 Clouds 28 1010 78 10000 7.2 90 22:19 17.01.2020
4473 Clouds 28 1010 78 10000 7.2 90 21:42 17.01.2020
4474 Clouds 28 1011 74 10000 7.2 100 21:24 17.01.2020
4475 Clouds 28 1011 74 10000 7.2 100 20:59 17.01.2020
4476 Clouds 27 1009 77 0 5.56 68 20:40 17.01.2020
4477 Clouds 28 1011 74 10000 6.7 100 20:20 17.01.2020
4478 Clouds 28 1011 74 10000 6.7 100 19:57 17.01.2020
4479 Clouds 27 1011 77 0 5.55 67 19:38 17.01.2020
4480 Clouds 28 1011 78 10000 6.7 90 19:19 17.01.2020
4481 Clouds 28 1011 78 10000 6.7 90 18:57 17.01.2020
4482 Clouds 27 1011 77 0 5.55 67 18:37 17.01.2020
4483 Clouds 28 1011 74 10000 6.7 80 18:19 17.01.2020
4484 Clouds 27 1011 77 0 5.55 67 17:40 17.01.2020
4485 Clouds 27 1011 77 0 5.55 67 17:40 17.01.2020
4486 Clouds 28 1010 74 10000 6.2 80 17:21 17.01.2020
4487 Clouds 28 1010 74 10000 6.2 80 16:55 17.01.2020
4488 Clouds 27 1011 78 0 6.11 66 16:36 17.01.2020
4489 Clouds 28 1010 74 10000 5.7 70 16:18 17.01.2020
4490 Clouds 28 1010 74 10000 5.7 70 15:43 17.01.2020
4491 Clouds 28 1009 78 10000 5.7 70 15:25 17.01.2020
4492 Clouds 28 1009 78 10000 5.7 70 14:44 17.01.2020
4493 Clouds 30 1008 70 10000 6.7 80 14:25 17.01.2020
4494 Clouds 30 1008 70 10000 6.7 80 13:56 17.01.2020
4495 Clouds 27 1008 78 0 6.66 64 13:37 17.01.2020
4496 Clouds 30 1008 70 10000 6.2 80 13:18 17.01.2020
4497 Clouds 30 1008 70 10000 6.2 80 13:18 17.01.2020
4498 Clouds 27 1008 77 0 6.6 62 12:42 17.01.2020
4499 Clouds 27 1008 77 0 6.6 62 12:42 17.01.2020
4500 Clouds 30 1008 66 10000 6.7 80 12:21 17.01.2020
4501 Clouds 27 1008 77 0 6.6 62 11:38 17.01.2020
4502 Clouds 31 1009 62 10000 6.7 80 11:18 17.01.2020
4503 Clouds 31 1009 62 10000 6.7 80 10:43 17.01.2020
4504 Clouds 31 1009 62 10000 6.7 80 10:23 17.01.2020
4505 Clouds 31 1010 62 10000 6.7 80 09:58 17.01.2020
4506 Clouds 27 1009 77 0 6.81 62 09:39 17.01.2020
4507 Clouds 27 1009 77 0 6.81 62 09:39 17.01.2020
4508 Clouds 31 1011 62 10000 6.7 80 09:19 17.01.2020
4509 Clouds 31 1011 62 10000 6.7 80 08:43 17.01.2020
4510 Clouds 31 1012 62 10000 6.7 80 08:24 17.01.2020
4511 Clouds 31 1012 62 10000 6.7 80 07:54 17.01.2020
4512 Clouds 30 1012 66 10000 7.2 70 07:31 17.01.2020
4513 Clouds 30 1012 66 10000 7.2 70 06:58 17.01.2020
4514 Clouds 30 1012 66 10000 7.2 70 06:58 17.01.2020
4515 Clouds 27 1011 77 0 7.36 63 06:40 17.01.2020
4516 Clouds 30 1012 66 10000 6.7 80 05:53 17.01.2020
4517 Clear 27 1012 77 0 6.18 62 03:39 17.01.2020
4518 Clear 27 1012 77 0 6.18 62 02:52 17.01.2020
4519 Clouds 27 1010 76 0 6.42 73 01:47 17.01.2020
4520 Clouds 27 1010 76 0 6.42 73 01:29 17.01.2020
4521 Clouds 27 1010 75 0 6.14 74 00:50 17.01.2020
4522 Clouds 27 1010 75 0 6.14 74 00:26 17.01.2020
4523 Clouds 27 1010 75 0 6.14 74 23:44 16.01.2020
4524 Clouds 28 1010 74 9000 7.2 80 23:26 16.01.2020
4525 Clouds 28 1010 74 9000 7.2 80 22:57 16.01.2020
4526 Clouds 27 1010 77 0 6.44 72 22:39 16.01.2020
4527 Clouds 28 1010 74 9000 7.2 80 22:20 16.01.2020
4528 Clouds 28 1010 74 9000 7.2 80 21:55 16.01.2020
4529 Clouds 27 1010 77 0 6.44 72 21:36 16.01.2020
4530 Clouds 28 1011 74 9000 7.2 80 21:18 16.01.2020
4531 Clouds 28 1011 74 9000 7.2 80 21:18 16.01.2020
4532 Clouds 27 1010 77 0 6.44 72 20:41 16.01.2020
4533 Clouds 28 1011 74 9000 7.2 80 20:21 16.01.2020
4534 Clouds 28 1011 74 9000 7.2 80 19:59 16.01.2020
4535 Clouds 27 1012 76 0 7.33 66 19:41 16.01.2020
4536 Clouds 28 1011 74 9000 7.2 80 19:22 16.01.2020
4537 Clouds 28 1011 74 9000 7.2 80 19:22 16.01.2020
4538 Clouds 28 1011 74 9000 7.2 80 19:22 16.01.2020
4539 Clouds 28 1011 74 9000 7.2 80 18:57 16.01.2020
4540 Clouds 27 1012 76 0 7.33 66 18:38 16.01.2020
4541 Clouds 28 1012 74 9000 6.7 80 18:20 16.01.2020
4542 Clouds 28 1012 74 9000 6.7 80 17:59 16.01.2020
4543 Clouds 28 1012 74 9000 6.7 80 17:59 16.01.2020
4544 Clouds 27 1012 76 0 7.33 66 17:40 16.01.2020
4545 Clouds 28 1011 74 9000 6.2 80 17:20 16.01.2020
4546 Clouds 27 1011 75 0 6.68 59 16:42 16.01.2020
4547 Clouds 28 1010 74 9000 6.7 80 16:24 16.01.2020
4548 Clouds 28 1010 74 9000 6.7 80 15:59 16.01.2020
4549 Clouds 27 1011 75 0 6.68 59 15:40 16.01.2020
4550 Clouds 29 1009 70 9000 6.2 80 15:21 16.01.2020
4551 Clouds 29 1009 70 9000 6.2 80 14:45 16.01.2020
4552 Clouds 30 1009 62 9000 5.1 80 14:24 16.01.2020
4553 Clouds 30 1009 62 9000 5.1 80 13:56 16.01.2020
4554 Rain 27 1010 75 0 6.41 63 13:37 16.01.2020
4555 Clouds 30 1009 66 10000 5.1 80 13:19 16.01.2020
4556 Clouds 30 1009 66 10000 5.1 80 13:19 16.01.2020
4557 Rain 27 1009 76 0 6.06 61 12:42 16.01.2020
4558 Clouds 31 1009 62 10000 5.7 70 12:22 16.01.2020
4559 Clouds 31 1009 62 10000 5.7 70 11:43 16.01.2020
4560 Clouds 30 1009 66 10000 5.7 70 11:25 16.01.2020
4561 Clouds 30 1009 66 10000 5.7 70 10:59 16.01.2020
4562 Rain 27 1009 76 0 5.34 65 10:38 16.01.2020
4563 Clouds 30 1010 66 10000 5.7 70 10:20 16.01.2020
4564 Clouds 30 1010 66 10000 5.7 70 09:56 16.01.2020
4565 Rain 27 1009 76 0 5.34 65 09:37 16.01.2020
4566 Clouds 31 1011 62 10000 5.1 80 09:19 16.01.2020
4567 Clouds 31 1011 62 10000 5.1 80 08:49 16.01.2020
4568 Clouds 31 1012 62 10000 4.6 70 08:29 16.01.2020
4569 Clouds 31 1012 62 10000 4.6 70 07:57 16.01.2020
4570 Clouds 27 1012 75 0 4.9 63 07:37 16.01.2020
4571 Clouds 30 1012 66 10000 5.1 70 07:18 16.01.2020
4572 Clouds 27 1012 75 0 4.9 63 06:42 16.01.2020
4573 Clouds 30 1012 62 10000 5.1 70 05:58 16.01.2020
4574 Clouds 27 1012 75 0 4.9 63 05:40 16.01.2020
4575 Clouds 27 1012 74 0 5.28 65 04:37 16.01.2020
4576 Clouds 27 1012 74 0 5.28 65 04:37 16.01.2020
4577 Clouds 27 1012 74 0 5.28 65 04:37 16.01.2020
4578 Clouds 27 1011 74 10000 5.7 80 03:28 16.01.2020
4579 Clouds 27 1012 74 0 5.28 65 02:42 16.01.2020
4580 Clouds 27 1010 74 10000 5.7 90 00:53 16.01.2020
4581 Clouds 27 1009 74 10000 6.2 90 00:24 16.01.2020
4582 Clouds 27 1009 74 10000 6.2 90 23:48 15.01.2020
4583 Clouds 28 1010 69 10000 6.7 90 23:23 15.01.2020
4584 Clouds 28 1010 69 10000 6.7 90 23:23 15.01.2020
4585 Clouds 28 1010 69 10000 6.7 90 22:57 15.01.2020
4586 Clouds 27 1010 77 0 5.92 76 22:39 15.01.2020
4587 Clouds 28 1011 69 10000 6.2 80 22:19 15.01.2020
4588 Clouds 28 1011 69 10000 6.2 80 21:57 15.01.2020
4589 Clouds 28 1011 69 10000 6.2 80 21:57 15.01.2020
4590 Clouds 27 1010 77 0 5.92 76 21:38 15.01.2020
4591 Clouds 28 1012 69 10000 6.7 80 21:20 15.01.2020
4592 Clouds 28 1012 69 10000 6.7 80 20:58 15.01.2020
4593 Clouds 28 1012 69 10000 6.7 80 20:58 15.01.2020
4594 Clouds 27 1010 77 0 5.92 76 20:40 15.01.2020
4595 Clouds 28 1012 69 10000 6.2 80 20:20 15.01.2020
4596 Clouds 28 1012 69 10000 6.2 80 19:55 15.01.2020
4597 Clouds 27 1012 73 0 6.15 69 19:37 15.01.2020
4598 Clouds 28 1012 69 10000 6.2 80 19:19 15.01.2020
4599 Clouds 28 1012 69 10000 6.2 80 18:57 15.01.2020
4600 Clouds 27 1012 73 0 6.15 69 18:38 15.01.2020
4601 Clouds 28 1012 69 10000 5.7 80 18:20 15.01.2020
4602 Clouds 28 1012 69 10000 5.7 80 17:58 15.01.2020
4603 Clouds 27 1012 73 0 6.15 69 17:39 15.01.2020
4604 Clouds 28 1011 69 10000 5.7 80 17:20 15.01.2020
4605 Clouds 27 1011 73 0 5.4 54 16:42 15.01.2020
4606 Clouds 29 1011 70 10000 4.1 70 16:23 15.01.2020
4607 Clouds 29 1011 70 10000 4.1 70 15:59 15.01.2020
4608 Clouds 27 1011 73 0 5.4 54 15:41 15.01.2020
4609 Clouds 29 1010 66 10000 4.6 70 15:20 15.01.2020
4610 Clouds 29 1010 66 10000 4.6 70 14:44 15.01.2020
4611 Clouds 30 1009 62 10000 5.7 70 14:21 15.01.2020
4612 Clouds 30 1009 62 10000 5.7 70 13:56 15.01.2020
4613 Clouds 27 1009 72 0 5.32 39 13:38 15.01.2020
4614 Clouds 30 1009 66 10000 4.6 70 13:19 15.01.2020
4615 Clouds 27 1009 73 0 5.4 38 12:41 15.01.2020
4616 Clouds 31 1009 62 10000 4.6 70 12:20 15.01.2020
4617 Clouds 31 1009 62 10000 4.6 70 11:59 15.01.2020
4618 Clouds 27 1009 73 0 5.4 38 11:38 15.01.2020
4619 Clouds 27 1009 73 0 5.4 38 11:38 15.01.2020
4620 Clouds 30 1009 70 9000 5.7 70 11:19 15.01.2020
4621 Clouds 30 1009 70 9000 5.7 70 10:46 15.01.2020
4622 Clouds 31 1010 58 9000 4.6 60 10:28 15.01.2020
4623 Clouds 31 1010 58 9000 4.6 60 09:55 15.01.2020
4624 Clouds 27 1008 74 0 6.45 38 09:37 15.01.2020
4625 Clouds 31 1011 62 9000 4.6 60 09:19 15.01.2020
4626 Clouds 27 1008 74 0 6.45 38 08:41 15.01.2020
4627 Clouds 31 1012 62 9000 5.1 80 08:23 15.01.2020
4628 Clouds 31 1012 62 9000 5.1 80 07:54 15.01.2020
4629 Clouds 30 1012 66 9000 5.1 70 07:32 15.01.2020
4630 Clouds 30 1012 66 9000 5.1 70 06:48 15.01.2020
4631 Clouds 29 1012 66 9000 6.2 70 06:26 15.01.2020
4632 Clouds 27 1011 75 0 6.44 46 04:46 15.01.2020
4633 Clouds 27 1011 75 0 6.44 46 02:40 15.01.2020
4634 Clouds 27 1009 78 10000 4.1 60 01:43 15.01.2020
4635 Clouds 27 1009 74 10000 4.6 80 01:20 15.01.2020
4636 Clouds 27 1009 69 0 4.54 50 00:36 15.01.2020
4637 Clouds 28 1009 74 10000 5.1 90 00:18 15.01.2020
4638 Clouds 28 1009 74 10000 5.1 90 23:45 14.01.2020
4639 Clouds 27 1010 68 0 3.67 59 23:24 14.01.2020
4640 Clouds 27 1010 68 0 3.67 59 22:54 14.01.2020
4641 Clouds 27 1010 68 0 3.67 59 22:36 14.01.2020
4642 Clouds 28 1010 74 10000 4.6 90 22:18 14.01.2020
4643 Clouds 28 1010 74 10000 4.6 90 22:18 14.01.2020
4644 Clouds 28 1010 74 10000 4.6 90 21:55 14.01.2020
4645 Clouds 27 1010 68 0 3.67 59 21:36 14.01.2020
4646 Clouds 28 1011 69 10000 5.1 90 21:18 14.01.2020
4647 Clouds 28 1011 69 10000 5.1 90 21:18 14.01.2020
4648 Clouds 27 1010 68 0 3.67 59 20:42 14.01.2020
4649 Clouds 28 1011 74 10000 4.6 90 20:22 14.01.2020
4650 Clouds 28 1011 74 10000 4.6 90 19:56 14.01.2020
4651 Clouds 28 1011 74 10000 4.6 90 19:56 14.01.2020
4652 Clear 27 1011 70 0 4.47 53 19:38 14.01.2020
4653 Clouds 28 1011 74 10000 5.7 80 19:19 14.01.2020
4654 Clouds 28 1011 74 10000 5.7 80 18:56 14.01.2020
4655 Clear 27 1011 70 0 4.47 53 18:38 14.01.2020
4656 Clouds 27 1011 78 10000 5.1 80 18:19 14.01.2020
4657 Clear 27 1011 70 0 4.47 53 17:39 14.01.2020
4658 Clouds 28 1011 74 10000 4.1 70 17:19 14.01.2020
4659 Clouds 28 1011 74 10000 4.1 70 16:57 14.01.2020
4660 Clear 27 1011 71 0 4.71 62 16:38 14.01.2020
4661 Clouds 28 1010 74 10000 4.1 50 16:20 14.01.2020
4662 Clouds 28 1010 74 10000 4.1 50 15:54 14.01.2020
4663 Clouds 29 1009 66 10000 4.1 60 15:36 14.01.2020
4664 Clouds 29 1009 66 10000 4.1 60 15:18 14.01.2020
4665 Clear 27 1011 71 0 4.71 62 14:41 14.01.2020
4666 Clouds 29 1008 66 10000 4.1 60 14:20 14.01.2020
4667 Clouds 29 1008 66 10000 4.1 60 13:42 14.01.2020
4668 Clouds 30 1008 58 10000 5.1 60 13:20 14.01.2020
4669 Clouds 30 1008 58 10000 5.1 60 12:57 14.01.2020
4670 Clear 27 1009 72 0 5.23 49 12:39 14.01.2020
4671 Clouds 30 1008 62 10000 5.7 60 12:20 14.01.2020
4672 Clouds 30 1008 62 10000 5.7 60 12:20 14.01.2020
4673 Clear 27 1009 72 0 5.23 49 11:42 14.01.2020
4674 Clouds 30 1008 62 10000 5.7 60 11:23 14.01.2020
4675 Clouds 30 1008 62 10000 5.7 60 10:58 14.01.2020
4676 Clear 27 1009 69 0 5.54 46 10:39 14.01.2020
4677 Clouds 31 1009 55 10000 6.2 50 10:19 14.01.2020
4678 Clouds 31 1009 55 10000 6.2 50 09:56 14.01.2020
4679 Clear 27 1009 69 0 5.54 46 09:38 14.01.2020
4680 Clouds 31 1010 58 10000 6.2 30 09:20 14.01.2020
4681 Clouds 31 1010 58 10000 6.2 30 08:42 14.01.2020
4682 Clouds 31 1010 70 10000 5.7 30 08:23 14.01.2020
4683 Clouds 31 1010 70 10000 5.7 30 07:53 14.01.2020
4684 Clouds 31 1011 55 10000 5.1 30 07:31 14.01.2020
4685 Clouds 31 1011 55 10000 5.1 30 06:50 14.01.2020
4686 Clouds 29 1011 66 10000 5.1 10 06:23 14.01.2020
4687 Clouds 28 1011 69 10000 5.1 30 04:58 14.01.2020
4688 Clouds 27 1010 74 10000 4.1 30 03:48 14.01.2020
4689 Clouds 27 1011 69 0 6.12 34 02:41 14.01.2020
4690 Clouds 27 1009 69 0 6.27 15 01:35 14.01.2020
4691 Clouds 27 1009 74 10000 3.1 20 00:49 14.01.2020
4692 Clouds 27 1009 74 10000 3.1 20 00:27 14.01.2020
4693 Clouds 27 1009 74 10000 3.1 20 23:48 13.01.2020
4694 Clouds 27 1010 69 10000 3.1 30 23:19 13.01.2020
4695 Clouds 27 1010 69 10000 3.1 30 22:59 13.01.2020
4696 Clouds 27 1009 72 0 5.44 22 22:40 13.01.2020
4697 Clouds 27 1011 69 10000 3.1 30 22:20 13.01.2020
4698 Clouds 27 1011 69 10000 3.1 30 21:56 13.01.2020
4699 Clouds 27 1009 72 0 5.44 22 21:37 13.01.2020
4700 Clouds 28 1011 65 10000 3.6 30 21:18 13.01.2020
4701 Clouds 28 1011 65 10000 3.6 30 20:57 13.01.2020
4702 Clouds 28 1011 65 10000 3.6 30 20:57 13.01.2020
4703 Clouds 27 1009 72 0 5.44 22 20:38 13.01.2020
4704 Clouds 28 1012 65 10000 2.6 30 20:20 13.01.2020
4705 Clouds 28 1012 65 10000 2.6 30 19:56 13.01.2020
4706 Clouds 27 1012 70 0 4.22 13 19:37 13.01.2020
4707 Clouds 28 1012 65 10000 3.1 40 19:18 13.01.2020
4708 Clouds 28 1012 65 10000 3.1 40 18:55 13.01.2020
4709 Clouds 27 1012 70 0 4.22 13 18:36 13.01.2020
4710 Clouds 28 1012 74 10000 4.1 30 18:18 13.01.2020
4711 Clouds 27 1012 70 0 4.22 13 17:40 13.01.2020
4712 Clouds 29 1011 62 10000 4.1 30 17:21 13.01.2020
4713 Clouds 29 1011 62 10000 4.1 30 16:56 13.01.2020
4714 Clouds 27 1011 71 0 5.12 14 16:37 13.01.2020
4715 Clouds 27 1011 71 0 5.12 14 16:18 13.01.2020
4716 Clouds 27 1011 71 0 5.12 14 15:43 13.01.2020
4717 Clouds 27 1011 71 0 5.12 14 15:22 13.01.2020
4718 Clouds 27 1011 71 0 5.12 14 15:22 13.01.2020
4719 Clouds 27 1011 71 0 5.12 14 14:57 13.01.2020
4720 Clouds 27 1011 71 0 5.12 14 14:37 13.01.2020
4721 Clouds 27 1011 71 0 5.12 14 14:37 13.01.2020
4722 Rain 27 1009 75 0 5.99 11 14:18 13.01.2020
4723 Rain 27 1009 75 0 5.99 11 13:41 13.01.2020
4724 Rain 27 1009 76 0 6.4 4 13:22 13.01.2020
4725 Rain 27 1009 76 0 6.4 4 12:58 13.01.2020
4726 Rain 27 1009 76 0 6.4 4 12:40 13.01.2020
4727 Rain 27 1009 76 0 6.4 4 12:40 13.01.2020
4728 Clouds 31 1009 58 10000 4.6 10 12:21 13.01.2020
4729 Clouds 31 1009 58 10000 4.6 10 11:56 13.01.2020
4730 Rain 27 1009 76 0 6.4 4 11:36 13.01.2020
4731 Clouds 32 1009 55 10000 4.6 360 11:18 13.01.2020
4732 Clouds 32 1009 55 10000 4.6 360 10:55 13.01.2020
4733 Clouds 32 1009 55 10000 4.6 360 10:36 13.01.2020
4734 Clouds 32 1009 55 10000 4.6 360 10:18 13.01.2020
4735 Rain 27 1010 78 0 6.21 354 09:40 13.01.2020
4736 Clouds 32 1011 62 10000 4.6 360 09:22 13.01.2020
4737 Rain 27 1010 78 0 6.21 354 08:42 13.01.2020
4738 Clouds 31 1012 62 10000 4.6 20 08:21 13.01.2020
4739 Clouds 31 1012 62 10000 4.6 20 07:59 13.01.2020
4740 Clouds 27 1012 76 0 5.49 7 07:40 13.01.2020
4741 Clouds 30 1012 66 10000 6.2 30 07:18 13.01.2020
4742 Clouds 27 1012 76 0 5.49 7 06:36 13.01.2020
4743 Clouds 27 1012 76 0 5.49 7 05:36 13.01.2020
4744 Clouds 28 1011 74 10000 3.6 10 04:25 13.01.2020
4745 Clouds 27 1011 75 0 5.81 20 03:34 13.01.2020
4746 Clouds 28 1010 69 10000 3.6 10 02:49 13.01.2020
4747 Clouds 28 1010 69 10000 3.1 30 02:29 13.01.2020
4748 Clouds 28 1010 69 10000 3.1 30 02:29 13.01.2020
4749 Clouds 27 1010 76 0 6.98 14 01:32 13.01.2020
4750 Clouds 28 1009 74 10000 4.1 20 00:43 13.01.2020
4751 Clouds 28 1009 74 10000 5.1 30 00:24 13.01.2020
4752 Clouds 28 1009 74 10000 5.1 30 23:56 12.01.2020
4753 Clouds 27 1009 76 0 7.46 15 23:37 12.01.2020
4754 Clouds 28 1010 74 10000 5.1 30 23:19 12.01.2020
4755 Clouds 27 1010 78 0 8 24 22:42 12.01.2020
4756 Clouds 28 1011 74 10000 5.1 50 22:24 12.01.2020
4757 Clouds 28 1011 74 10000 5.1 50 21:58 12.01.2020
4758 Clouds 27 1010 78 0 8 24 21:39 12.01.2020
4759 Clouds 28 1011 69 10000 5.7 30 21:20 12.01.2020
4760 Clouds 28 1011 69 10000 5.7 30 20:57 12.01.2020
4761 Clouds 27 1010 78 0 8 24 20:39 12.01.2020
4762 Clouds 29 1012 70 10000 5.7 40 20:20 12.01.2020
4763 Clouds 29 1012 70 10000 5.7 40 19:56 12.01.2020
4764 Rain 28 1012 77 0 9.37 37 19:38 12.01.2020
4765 Clouds 29 1012 70 10000 6.7 40 19:19 12.01.2020
4766 Clouds 29 1012 70 10000 6.7 40 18:58 12.01.2020
4767 Clouds 29 1012 70 10000 6.7 40 18:58 12.01.2020
4768 Rain 28 1012 77 0 9.37 37 18:39 12.01.2020
4769 Clouds 29 1012 70 10000 6.7 50 18:21 12.01.2020
4770 Clouds 29 1012 70 10000 6.7 50 17:57 12.01.2020
4771 Rain 28 1012 77 0 9.37 37 17:38 12.01.2020
4772 Clouds 29 1011 70 10000 7.2 60 17:19 12.01.2020
4773 Clouds 29 1011 70 10000 7.2 60 16:55 12.01.2020
4774 Clear 28 1010 81 0 8.95 40 16:37 12.01.2020
4775 Clouds 29 1010 74 10000 6.7 50 16:18 12.01.2020
4776 Clear 28 1010 81 0 8.95 40 15:42 12.01.2020
4777 Clouds 29 1009 74 10000 7.2 50 15:24 12.01.2020
4778 Clouds 29 1009 74 10000 7.2 50 14:57 12.01.2020
4779 Clear 28 1010 81 0 8.95 40 14:38 12.01.2020
4780 Clouds 30 1008 70 10000 7.2 50 14:19 12.01.2020
4781 Clouds 30 1008 70 10000 7.2 50 13:43 12.01.2020
4782 Clouds 30 1008 74 10000 7.2 50 13:24 12.01.2020
4783 Clouds 30 1008 74 10000 7.2 50 12:58 12.01.2020
4784 Rain 28 1009 79 0 8.37 40 12:39 12.01.2020
4785 Clouds 31 1008 66 10000 6.7 60 12:20 12.01.2020
4786 Clouds 31 1008 66 10000 6.7 60 11:58 12.01.2020
4787 Rain 28 1009 79 0 8.37 40 11:38 12.01.2020
4788 Clouds 31 1009 66 10000 7.7 60 11:19 12.01.2020
4789 Rain 28 1009 78 0 7.95 41 10:41 12.01.2020
4790 Rain 28 1009 78 0 7.95 41 10:41 12.01.2020
4791 Clouds 31 1010 66 10000 8.2 60 10:22 12.01.2020
4792 Clouds 31 1010 66 10000 8.2 60 09:57 12.01.2020
4793 Rain 28 1009 78 0 7.95 41 09:38 12.01.2020
4794 Clouds 31 1011 66 10000 7.2 60 09:18 12.01.2020
4795 Clouds 31 1011 66 10000 7.2 60 08:44 12.01.2020
4796 Clouds 31 1012 62 10000 6.7 60 08:20 12.01.2020
4797 Clouds 28 1012 77 0 7.72 48 07:40 12.01.2020
4798 Clouds 31 1012 66 10000 7.2 60 07:22 12.01.2020
4799 Clouds 31 1012 66 10000 7.2 60 06:48 12.01.2020
4800 Clouds 30 1012 70 10000 7.7 60 06:29 12.01.2020
4801 Clouds 29 1012 70 10000 7.2 60 05:24 12.01.2020
4802 Clouds 28 1011 74 10000 6.7 60 04:27 12.01.2020
4803 Clouds 28 1010 74 10000 7.2 70 03:23 12.01.2020
4804 Clouds 28 1012 75 0 6.78 51 02:33 12.01.2020
4805 Clouds 28 1010 74 10000 7.2 70 01:43 12.01.2020
4806 Clouds 28 1010 74 10000 7.2 70 01:22 12.01.2020
4807 Rain 28 1010 75 0 7.76 61 00:41 12.01.2020
4808 Clouds 28 1009 78 10000 7.2 70 00:20 12.01.2020
4809 Rain 28 1010 75 0 7.76 61 23:42 11.01.2020
4810 Clouds 28 1010 78 10000 7.7 70 23:19 11.01.2020
4811 Clouds 28 1010 78 10000 7.7 70 22:58 11.01.2020
4812 Rain 27 1009 77 0 7.69 61 22:39 11.01.2020
4813 Clouds 28 1010 74 10000 7.7 70 22:20 11.01.2020
4814 Clouds 28 1010 74 10000 7.7 70 21:58 11.01.2020
4815 Rain 27 1009 77 0 7.69 61 21:39 11.01.2020
4816 Clouds 28 1011 74 10000 8.2 70 21:18 11.01.2020
4817 Clouds 28 1011 74 10000 8.2 70 21:18 11.01.2020
4818 Rain 27 1009 77 0 7.69 61 20:40 11.01.2020
4819 Clouds 28 1011 78 10000 8.2 70 20:22 11.01.2020
4820 Clouds 28 1011 78 10000 8.2 70 19:58 11.01.2020
4821 Clear 28 1011 76 0 8.35 60 19:39 11.01.2020
4822 Clouds 28 1012 78 10000 7.7 70 19:21 11.01.2020
4823 Clouds 28 1012 78 10000 7.7 70 18:58 11.01.2020
4824 Clear 28 1011 76 0 8.35 60 18:38 11.01.2020
4825 Clouds 29 1011 70 10000 8.7 70 18:19 11.01.2020
4826 -273 0 0 0 0 0 17:57 11.01.2020
4827 Clear 28 1011 76 0 8.35 60 17:39 11.01.2020
4828 Clear 28 1011 76 0 8.35 60 17:39 11.01.2020
4829 Clouds 29 1011 74 10000 8.2 70 17:19 11.01.2020
4830 Clouds 29 1011 74 10000 8.2 70 16:45 11.01.2020
4831 Clouds 29 1010 74 10000 8.2 70 16:27 11.01.2020
4832 Clouds 29 1010 74 10000 8.2 70 15:58 11.01.2020
4833 Rain 28 1010 77 0 8.84 62 15:40 11.01.2020
4834 Clouds 29 1009 74 10000 7.2 70 15:20 11.01.2020
4835 Clouds 29 1009 74 10000 7.2 70 14:56 11.01.2020
4836 Rain 28 1010 77 0 8.84 62 14:38 11.01.2020
4837 Clouds 30 1009 66 10000 8.2 60 14:19 11.01.2020
4838 Clouds 28 1009 76 0 8.2 55 13:39 11.01.2020
4839 Clouds 30 1008 66 10000 7.2 60 13:20 11.01.2020
4840 Clouds 30 1008 66 10000 7.2 60 12:58 11.01.2020
4841 Rain 28 1009 76 0 8.28 58 12:39 11.01.2020
4842 Clouds 31 1009 66 10000 7.7 70 12:21 11.01.2020
4843 Clouds 31 1009 66 10000 7.7 70 11:47 11.01.2020
4844 Clouds 31 1009 66 10000 7.2 70 11:26 11.01.2020
4845 Clouds 31 1009 66 10000 7.2 70 10:50 11.01.2020
4846 Clouds 31 1010 70 10000 7.2 70 10:30 11.01.2020
4847 Clouds 31 1010 70 10000 7.2 70 09:55 11.01.2020
4848 Clouds 27 1008 78 0 8.03 59 09:37 11.01.2020
4849 Clouds 31 1011 66 10000 7.7 90 09:18 11.01.2020
4850 Clouds 27 1008 78 0 8.03 59 08:41 11.01.2020
4851 Clouds 31 1011 66 10000 8.2 70 08:21 11.01.2020
4852 Clouds 31 1011 66 10000 8.2 70 07:44 11.01.2020
4853 Clouds 30 1012 66 10000 8.2 70 07:25 11.01.2020
4854 Clouds 30 1012 66 10000 8.2 70 06:48 11.01.2020
4855 Clouds 27 1011 80 0 7.91 62 05:34 11.01.2020
4856 Clouds 29 1011 70 10000 8.2 60 04:46 11.01.2020
4857 Clouds 28 1010 74 10000 9.3 70 04:27 11.01.2020
4858 Clouds 28 1010 69 10000 8.2 70 02:49 11.01.2020
4859 Clouds 28 1010 69 10000 8.2 70 02:20 11.01.2020
4860 Clouds 27 1010 78 0 8.59 58 01:42 11.01.2020
4861 Clouds 28 1010 69 10000 7.7 70 01:18 11.01.2020
4862 Clear 27 1009 76 0 8.59 58 00:38 11.01.2020
4863 Clouds 28 1010 69 10000 8.2 70 23:59 10.01.2020
4864 Clear 27 1009 76 0 8.59 58 23:40 10.01.2020
4865 Clouds 28 1010 69 10000 8.7 80 23:21 10.01.2020
4866 Clouds 28 1010 69 10000 8.7 80 22:57 10.01.2020
4867 Clear 27 1010 75 0 8.44 58 22:39 10.01.2020
4868 Clouds 28 1011 74 10000 7.2 80 22:20 10.01.2020
4869 Clouds 28 1011 74 10000 7.2 80 21:56 10.01.2020
4870 Clear 27 1010 75 0 8.44 58 21:36 10.01.2020
4871 Clouds 28 1012 74 10000 8.2 80 21:18 10.01.2020
4872 Clear 27 1010 75 0 8.44 58 20:43 10.01.2020
4873 Clouds 28 1012 74 10000 7.2 80 20:24 10.01.2020
4874 Clouds 28 1012 74 10000 7.2 80 19:56 10.01.2020
4875 Clear 27 1012 76 0 8.3 67 19:37 10.01.2020
4876 Clouds 28 1012 69 10000 7.2 80 19:19 10.01.2020
4877 Clear 27 1012 76 0 8.3 67 18:42 10.01.2020
4878 Clouds 28 1012 74 10000 7.2 70 18:19 10.01.2020
4879 Clouds 28 1012 74 10000 7.2 70 18:19 10.01.2020
4880 Clouds 28 1012 74 10000 7.2 70 17:57 10.01.2020
4881 Clouds 28 1012 74 10000 7.2 70 17:39 10.01.2020
4882 Clouds 28 1012 74 10000 7.2 70 17:20 10.01.2020
4883 Clouds 29 1011 70 10000 7.2 80 16:56 10.01.2020
4884 Clear 28 1011 73 0 7.82 69 16:37 10.01.2020
4885 Clouds 29 1010 70 10000 7.2 80 16:19 10.01.2020
4886 Clouds 29 1010 70 10000 7.2 80 15:55 10.01.2020
4887 Clear 28 1011 73 0 7.82 69 15:36 10.01.2020
4888 Clouds 29 1010 70 10000 6.7 70 15:18 10.01.2020
4889 Clouds 29 1010 70 10000 6.7 70 14:54 10.01.2020
4890 Clouds 29 1010 70 10000 6.7 70 14:36 10.01.2020
4891 Clouds 29 1010 70 10000 6.7 70 14:18 10.01.2020
4892 Clouds 30 1009 66 10000 6.7 70 13:42 10.01.2020
4893 Clouds 30 1009 66 10000 6.7 70 13:23 10.01.2020
4894 Clouds 31 1009 66 10000 6.7 70 12:58 10.01.2020
4895 Clouds 28 1009 73 0 7.51 54 12:39 10.01.2020
4896 Clouds 28 1009 73 0 7.51 54 12:39 10.01.2020
4897 Clouds 28 1009 73 0 7.51 54 12:39 10.01.2020
4898 Clouds 31 1009 62 10000 7.2 70 12:19 10.01.2020
4899 Clouds 31 1009 62 10000 7.2 70 11:55 10.01.2020
4900 Clouds 28 1009 73 0 7.51 54 11:37 10.01.2020
4901 Clouds 31 1009 66 10000 7.2 70 11:18 10.01.2020
4902 Clouds 31 1009 66 10000 7.2 70 10:57 10.01.2020
4903 Clouds 28 1009 73 0 7.09 53 10:36 10.01.2020
4904 Clouds 31 1010 66 10000 6.2 80 10:18 10.01.2020
4905 Clouds 28 1009 73 0 7.09 53 09:42 10.01.2020
4906 Clouds 31 1011 66 10000 5.7 80 09:23 10.01.2020
4907 Clouds 28 1009 73 0 7.09 53 08:43 10.01.2020
4908 Clouds 31 1012 66 10000 5.7 80 08:24 10.01.2020
4909 Clouds 31 1012 66 10000 5.7 80 07:47 10.01.2020
4910 Clouds 31 1012 70 10000 5.7 90 07:28 10.01.2020
4911 Clouds 31 1012 70 10000 5.7 90 06:55 10.01.2020
4912 Clouds 30 1012 70 10000 5.1 90 06:27 10.01.2020
4913 Clouds 30 1012 70 10000 5.1 90 05:52 10.01.2020
4914 Clouds 28 1011 78 10000 6.2 70 03:47 10.01.2020
4915 Clouds 28 1010 78 10000 5.7 70 03:28 10.01.2020
4916 Clouds 28 1010 78 10000 5.7 70 02:51 10.01.2020
4917 Clouds 28 1010 78 10000 6.2 70 01:49 10.01.2020
4918 Clouds 28 1010 78 10000 6.2 60 01:28 10.01.2020
4919 Clouds 28 1010 78 10000 6.2 60 00:47 10.01.2020
4920 Clouds 28 1010 78 10000 6.2 70 00:29 10.01.2020
4921 Rain 27 1010 80 0 7.95 61 23:39 09.01.2020
4922 Rain 27 1010 80 0 7.95 61 23:39 09.01.2020
4923 Rain 27 1010 80 0 7.95 61 23:39 09.01.2020
4924 Rain 27 1010 80 0 7.95 61 23:39 09.01.2020
4925 Clouds 28 1010 78 10000 5.7 70 23:21 09.01.2020
4926 Clouds 28 1010 78 10000 5.7 70 22:58 09.01.2020
4927 Clouds 28 1010 78 10000 5.7 70 22:58 09.01.2020
4928 Rain 27 1010 81 0 6.28 64 22:39 09.01.2020
4929 Clouds 28 1010 65 10000 5.7 70 22:19 09.01.2020
4930 Clouds 28 1010 65 10000 5.7 70 21:57 09.01.2020
4931 Clouds 28 1010 65 10000 5.7 70 21:57 09.01.2020
4932 Rain 27 1010 81 0 6.28 64 21:38 09.01.2020
4933 Clouds 28 1011 83 10000 7.2 70 21:20 09.01.2020
4934 Clouds 28 1011 83 10000 7.2 70 20:58 09.01.2020
4935 Clouds 28 1011 83 10000 7.2 70 20:39 09.01.2020
4936 Clouds 28 1011 78 10000 4.6 60 20:20 09.01.2020
4937 Clouds 28 1011 78 10000 4.6 60 20:20 09.01.2020
4938 Clouds 28 1011 78 10000 4.6 60 19:59 09.01.2020
4939 Clouds 28 1011 80 0 6.07 54 19:39 09.01.2020
4940 Clouds 29 1011 74 10000 5.1 60 19:20 09.01.2020
4941 Clouds 29 1011 74 10000 5.1 60 18:56 09.01.2020
4942 Clouds 28 1011 80 0 6.07 54 18:38 09.01.2020
4943 Clouds 29 1011 74 10000 3.6 40 18:20 09.01.2020
4944 Clouds 28 1011 80 0 6.07 54 17:41 09.01.2020
4945 Clouds 29 1011 70 10000 4.1 40 17:19 09.01.2020
4946 Clouds 29 1011 70 10000 4.1 40 16:56 09.01.2020
4947 Clouds 28 1011 78 0 5.68 34 16:37 09.01.2020
4948 Clouds 29 1010 70 10000 4.6 50 16:19 09.01.2020
4949 Clouds 29 1010 70 10000 4.6 50 15:42 09.01.2020
4950 Clouds 29 1009 74 10000 5.1 60 15:21 09.01.2020
4951 Clouds 29 1009 74 10000 5.1 60 14:57 09.01.2020
4952 Clouds 28 1011 78 0 5.68 34 14:38 09.01.2020
4953 Clouds 30 1009 70 10000 4.6 60 14:18 09.01.2020
4954 Clouds 30 1009 70 10000 4.6 60 13:55 09.01.2020
4955 Clear 28 1009 77 0 6.15 31 13:37 09.01.2020
4956 Clouds 30 1009 70 10000 5.1 60 13:18 09.01.2020
4957 Clouds 30 1009 70 10000 5.1 60 12:42 09.01.2020
4958 Clouds 31 1009 66 10000 5.1 60 12:24 09.01.2020
4959 Clouds 31 1009 66 10000 5.1 60 11:59 09.01.2020
4960 Clouds 31 1009 66 10000 5.1 60 11:41 09.01.2020
4961 Clouds 31 1010 70 10000 5.1 70 11:23 09.01.2020
4962 Clouds 31 1010 70 10000 5.1 70 10:56 09.01.2020
4963 Clear 28 1009 79 0 5.45 35 10:37 09.01.2020
4964 Clouds 31 1011 70 10000 5.1 70 10:19 09.01.2020
4965 Clouds 31 1011 70 10000 5.1 70 10:19 09.01.2020
4966 Clouds 31 1011 70 10000 5.1 70 09:41 09.01.2020
4967 Clouds 31 1012 70 10000 5.1 60 09:22 09.01.2020
4968 Clouds 31 1012 70 10000 5.1 60 08:56 09.01.2020
4969 Clear 28 1009 79 0 5.45 35 08:37 09.01.2020
4970 Clouds 31 1012 70 10000 5.1 70 08:19 09.01.2020
4971 Clouds 31 1012 70 10000 5.1 70 07:44 09.01.2020
4972 Clouds 30 1012 70 10000 4.6 70 07:24 09.01.2020
4973 Clouds 28 1012 77 0 5.08 45 06:39 09.01.2020
4974 Clouds 30 1013 70 10000 4.6 60 06:21 09.01.2020
4975 Clouds 30 1013 70 10000 4.6 60 05:50 09.01.2020
4976 Clouds 29 1013 74 10000 4.1 50 04:45 09.01.2020
4977 Clouds 28 1012 78 10000 3.1 30 03:54 09.01.2020
4978 Clouds 28 1011 78 10000 3.1 30 03:26 09.01.2020
4979 Rain 27 1012 75 0 4.69 45 02:31 09.01.2020
4980 Rain 27 1011 76 0 5.02 4 01:40 09.01.2020
4981 Clouds 28 1010 78 10000 4.1 50 00:44 09.01.2020
4982 Clouds 28 1010 78 10000 4.1 30 00:23 09.01.2020
4983 Clouds 28 1010 78 10000 4.1 30 23:58 08.01.2020
4984 Rain 27 1011 78 0 5.36 16 23:38 08.01.2020
4985 Clouds 28 1011 78 10000 5.1 50 23:19 08.01.2020
4986 Rain 27 1010 82 0 6.76 30 22:40 08.01.2020
4987 Clouds 28 1011 78 10000 5.1 50 22:21 08.01.2020
4988 Clouds 28 1011 78 10000 5.1 50 21:58 08.01.2020
4989 Rain 27 1010 82 0 6.76 30 21:39 08.01.2020
4990 Clouds 28 1012 78 10000 7.2 60 21:20 08.01.2020
4991 Clouds 28 1012 78 10000 7.2 60 20:58 08.01.2020
4992 Rain 27 1010 82 0 6.76 30 20:40 08.01.2020
4993 Clouds 29 1012 74 10000 7.2 60 20:20 08.01.2020
4994 Clouds 29 1012 74 10000 7.2 60 20:20 08.01.2020
4995 Clouds 29 1012 74 10000 7.2 60 19:57 08.01.2020
4996 Clouds 28 1012 80 0 8.05 52 19:37 08.01.2020
4997 Clouds 29 1012 74 10000 6.7 70 19:19 08.01.2020
4998 Clouds 29 1012 74 10000 6.7 70 18:56 08.01.2020
4999 Clouds 28 1012 80 0 8.05 52 18:37 08.01.2020
5000 Clouds 29 1012 74 10000 6.2 60 18:18 08.01.2020
5001 Clouds 29 1012 74 10000 6.2 60 17:56 08.01.2020
5002 Clouds 28 1012 80 0 8.05 52 17:37 08.01.2020
5003 Clouds 29 1011 74 10000 6.7 60 17:18 08.01.2020
5004 Clouds 29 1011 74 10000 6.7 60 16:54 08.01.2020
5005 Rain 28 1011 78 0 8.43 50 16:36 08.01.2020
5006 Clouds 29 1011 74 10000 7.2 70 16:18 08.01.2020
5007 Clouds 29 1011 74 10000 7.2 70 15:41 08.01.2020
5008 Clouds 29 1010 74 10000 7.7 70 15:21 08.01.2020
5009 Clouds 29 1010 74 10000 7.7 70 14:57 08.01.2020
5010 Clouds 29 1010 74 10000 7.7 70 14:39 08.01.2020
5011 Clouds 30 1010 70 10000 7.2 70 14:20 08.01.2020
5012 Clouds 30 1010 70 10000 7.2 70 13:40 08.01.2020
5013 Clouds 31 1009 66 10000 7.7 70 13:19 08.01.2020
5014 Clouds 31 1009 66 10000 7.7 70 12:42 08.01.2020
5015 Clouds 31 1000 70 10000 7.7 70 12:19 08.01.2020
5016 Clouds 31 1000 70 10000 7.7 70 11:55 08.01.2020
5017 Clouds 31 1000 70 10000 7.7 70 11:55 08.01.2020
5018 Rain 28 1009 79 0 8.27 46 11:37 08.01.2020
5019 Clouds 30 1010 74 10000 6.7 70 11:19 08.01.2020
5020 Clouds 30 1010 74 10000 6.7 70 10:55 08.01.2020
5021 Rain 28 1009 78 0 6.68 49 10:37 08.01.2020
5022 Clouds 31 1010 66 10000 7.2 70 10:18 08.01.2020
5023 Clouds 31 1010 66 10000 7.2 70 09:41 08.01.2020
5024 Clouds 31 1011 66 10000 7.7 70 09:19 08.01.2020
5025 Clouds 31 1011 66 10000 7.7 70 08:56 08.01.2020
5026 Rain 28 1009 78 0 6.68 49 08:37 08.01.2020
5027 Clouds 31 1012 66 10000 7.2 70 08:19 08.01.2020
5028 Clouds 31 1012 66 10000 7.2 70 07:48 08.01.2020
5029 Clouds 30 1012 70 10000 7.2 70 07:29 08.01.2020
5030 Clouds 30 1012 70 10000 7.2 70 06:45 08.01.2020
5031 Clouds 30 1013 70 10000 6.2 70 06:22 08.01.2020
5032 Clouds 30 1013 70 10000 6.2 70 05:41 08.01.2020
5033 Clouds 29 1012 74 10000 6.2 70 04:56 08.01.2020
5034 Clouds 28 1011 78 10000 6.2 70 04:24 08.01.2020
5035 Clouds 28 1011 78 10000 5.7 90 02:45 08.01.2020
5036 Clouds 28 1010 78 10000 5.7 90 02:21 08.01.2020
5037 Clouds 28 1010 78 10000 5.7 90 01:46 08.01.2020
5038 Clouds 28 1009 78 10000 5.1 80 01:19 08.01.2020
5039 Clouds 28 1009 83 10000 5.1 80 00:27 08.01.2020
5040 Clouds 28 1009 83 10000 5.1 80 23:55 07.01.2020
5041 Rain 28 1010 77 0 5.86 66 23:37 07.01.2020
5042 Clouds 29 1010 74 10000 5.7 80 23:19 07.01.2020
5043 Clouds 29 1010 74 10000 5.7 80 22:40 07.01.2020
5044 Clouds 29 1011 74 10000 6.7 80 22:20 07.01.2020
5045 Clouds 29 1011 74 10000 6.7 80 21:55 07.01.2020
5046 Rain 27 1009 78 0 6.79 69 21:37 07.01.2020
5047 Clouds 29 1012 79 10000 6.7 90 21:19 07.01.2020
5048 Clouds 29 1012 79 10000 6.7 90 20:55 07.01.2020
5049 Rain 27 1009 78 0 6.79 69 20:36 07.01.2020
5050 Rain 27 1009 78 0 6.79 69 20:36 07.01.2020
5051 Rain 29 1012 79 10000 6.7 90 20:18 07.01.2020
5052 Rain 28 1011 81 0 8.74 66 19:38 07.01.2020
5053 Clouds 29 1012 79 10000 7.2 70 19:19 07.01.2020
5054 Clouds 29 1012 79 10000 7.2 70 18:58 07.01.2020
5055 Clouds 29 1012 79 10000 7.2 70 18:58 07.01.2020
5056 Clouds 29 1012 79 10000 7.2 70 18:40 07.01.2020
5057 Clouds 29 1012 79 10000 8.7 70 18:18 07.01.2020
5058 Clouds 29 1012 79 10000 8.7 70 17:58 07.01.2020
5059 Rain 28 1011 81 0 8.74 66 17:39 07.01.2020
5060 Clouds 29 1015 79 10000 7.2 70 17:20 07.01.2020
5061 Clouds 29 1015 79 10000 7.2 70 16:56 07.01.2020
5062 Clouds 28 1011 79 0 8.31 50 16:37 07.01.2020
5063 Clouds 29 1011 74 10000 7.2 70 16:18 07.01.2020
5064 Clouds 29 1011 74 10000 7.2 70 15:57 07.01.2020
5065 Clouds 28 1011 79 0 8.31 50 15:37 07.01.2020
5066 Clouds 29 1010 79 10000 8.2 70 15:18 07.01.2020
5067 Clouds 29 1010 79 10000 8.2 70 14:42 07.01.2020
5068 Clouds 30 1009 74 10000 7.7 70 14:23 07.01.2020
5069 Clouds 30 1009 74 10000 7.7 70 14:23 07.01.2020
5070 Clouds 30 1009 74 10000 7.7 70 13:56 07.01.2020
5071 Clouds 30 1009 74 10000 7.7 70 13:56 07.01.2020
5072 Rain 28 1009 77 0 8.58 49 13:37 07.01.2020
5073 Clouds 30 1009 74 10000 7.7 60 13:18 07.01.2020
5074 Clouds 30 1009 74 10000 7.7 60 12:40 07.01.2020
5075 Clouds 30 1009 74 10000 7.7 60 12:40 07.01.2020
5076 Clouds 30 1009 74 10000 7.7 70 12:19 07.01.2020
5077 Clouds 30 1009 74 10000 7.7 70 11:43 07.01.2020
5078 Rain 31 1009 70 7000 6.7 80 11:23 07.01.2020
5079 Rain 31 1009 70 7000 6.7 80 11:23 07.01.2020
5080 Rain 31 1009 70 7000 6.7 80 10:59 07.01.2020
5081 Rain 31 1009 70 7000 6.7 80 10:40 07.01.2020
5082 Clouds 31 1010 70 10000 6.7 80 10:22 07.01.2020
5083 Clouds 31 1010 70 10000 6.7 80 09:56 07.01.2020
5084 Rain 28 1009 80 0 7.72 56 09:37 07.01.2020
5085 Rain 28 1009 80 0 7.72 56 09:37 07.01.2020
5086 Clouds 31 1011 70 10000 6.7 80 09:19 07.01.2020
5087 Clouds 31 1011 70 10000 6.7 80 08:41 07.01.2020
5088 Clouds 31 1011 70 10000 6.7 80 08:41 07.01.2020
5089 Clouds 31 1012 70 10000 6.7 80 08:20 07.01.2020
5090 Clouds 31 1012 70 10000 6.7 80 07:49 07.01.2020
5091 Clouds 31 1012 70 10000 6.7 80 07:25 07.01.2020
5092 Clouds 31 1012 70 10000 6.7 80 06:52 07.01.2020
5093 Clouds 30 1012 70 10000 6.7 80 06:32 07.01.2020
5094 Clouds 30 1012 70 10000 6.7 80 05:42 07.01.2020
5095 Clouds 28 1011 83 10000 6.7 80 03:52 07.01.2020
5096 Clouds 28 1011 78 10000 7.7 80 03:25 07.01.2020
5097 Clouds 28 1010 78 10000 7.7 80 02:21 07.01.2020
5098 Clouds 28 1010 78 10000 7.7 80 01:45 07.01.2020
5099 Clouds 28 1010 83 10000 7.7 90 01:21 07.01.2020
5100 Clouds 28 1009 83 10000 7.7 80 00:22 07.01.2020
5101 Clouds 28 1009 83 10000 7.7 80 23:58 06.01.2020
5102 Rain 28 1010 79 0 7.09 56 23:39 06.01.2020
5103 Clouds 28 1010 83 10000 7.2 80 23:21 06.01.2020
5104 Clouds 28 1010 83 10000 7.2 80 22:56 06.01.2020
5105 Clouds 28 1010 81 0 7.3 57 22:37 06.01.2020
5106 Clouds 28 1011 78 10000 7.2 80 22:19 06.01.2020
5107 Clouds 28 1011 78 10000 7.2 80 21:55 06.01.2020
5108 Clouds 28 1010 81 0 7.3 57 21:36 06.01.2020
5109 Clouds 28 1010 81 0 7.3 57 21:36 06.01.2020
5110 Clouds 29 1011 74 10000 7.7 80 21:18 06.01.2020
5111 Clouds 29 1011 74 10000 7.7 80 20:54 06.01.2020
5112 Clouds 29 1011 74 10000 7.7 80 20:54 06.01.2020
5113 Clouds 28 1010 81 0 7.3 57 20:36 06.01.2020
5114 Clouds 29 1011 74 10000 8.7 80 20:18 06.01.2020
5115 Clouds 29 1011 74 10000 8.7 80 19:55 06.01.2020
5116 Rain 28 1012 81 0 6.34 72 19:36 06.01.2020
5117 Rain 28 1012 81 0 6.34 72 19:36 06.01.2020
5118 Clouds 29 1012 74 10000 8.2 90 19:18 06.01.2020
5119 Clouds 29 1012 74 10000 8.2 90 18:43 06.01.2020
5120 Clouds 29 1012 79 10000 7.7 70 18:20 06.01.2020
5121 Rain 28 1012 81 0 6.34 72 17:39 06.01.2020
5122 Clouds 29 1011 74 10000 8.2 80 17:20 06.01.2020
5123 Clouds 29 1011 74 10000 8.2 80 16:57 06.01.2020
5124 Rain 28 1011 80 0 6.67 70 16:38 06.01.2020
5125 Clouds 29 1011 79 10000 7.2 80 16:19 06.01.2020
5126 Clouds 29 1011 79 10000 7.2 80 15:44 06.01.2020
5127 Clouds 29 1010 79 10000 6.7 80 15:22 06.01.2020
5128 Clouds 29 1010 79 10000 6.7 80 14:59 06.01.2020
5129 Clouds 29 1010 79 10000 6.7 80 14:41 06.01.2020
5130 Clouds 30 1010 74 10000 6.7 90 14:22 06.01.2020
5131 Clouds 30 1010 74 10000 6.7 90 13:59 06.01.2020
5132 Clouds 28 1010 78 0 5.52 65 13:38 06.01.2020
5133 Clouds 30 1009 74 10000 7.2 80 13:20 06.01.2020
5134 Clouds 30 1009 74 10000 7.2 80 12:55 06.01.2020
5135 Clouds 28 1009 78 0 5.05 62 12:37 06.01.2020
5136 Clouds 31 1009 70 10000 5.7 70 12:18 06.01.2020
5137 Clouds 31 1009 70 10000 5.7 70 11:41 06.01.2020
5138 Clouds 31 1009 70 10000 6.7 70 11:23 06.01.2020
5139 Clouds 31 1009 70 10000 6.7 70 10:58 06.01.2020
5140 Clouds 28 1010 78 0 4.95 60 10:40 06.01.2020
5141 Clouds 28 1010 78 0 4.95 60 10:20 06.01.2020
5142 Clouds 28 1010 78 0 4.95 60 09:39 06.01.2020
5143 Clouds 31 1011 70 10000 5.7 80 09:20 06.01.2020
5144 Clouds 31 1011 70 10000 5.7 80 08:51 06.01.2020
5145 Clouds 28 1010 78 0 4.95 60 08:33 06.01.2020
5146 Clouds 31 1012 70 10000 5.7 90 07:56 06.01.2020
5147 Clouds 28 1012 79 0 6.58 59 07:36 06.01.2020
5148 Clouds 31 1013 70 10000 6.2 90 06:46 06.01.2020
5149 Clouds 28 1012 79 0 6.58 59 06:23 06.01.2020
5150 Clouds 28 1012 79 0 6.58 59 05:45 06.01.2020
5151 Clouds 28 1012 80 0 5.43 66 04:52 06.01.2020
5152 Clouds 29 1011 79 10000 5.7 80 04:19 06.01.2020
5153 Clouds 28 1010 78 10000 6.2 90 02:56 06.01.2020
5154 Clouds 28 1012 80 0 5.43 66 02:24 06.01.2020
5155 Clear 28 1010 79 0 5.22 53 01:45 06.01.2020
5156 Clouds 28 1009 83 10000 6.2 90 01:26 06.01.2020
5157 Clouds 28 1009 83 10000 6.2 90 00:42 06.01.2020
5158 Clouds 28 1009 83 10000 6.2 70 00:23 06.01.2020
5159 Clouds 28 1009 83 10000 6.2 70 23:43 05.01.2020
5160 Clouds 28 1009 83 10000 5.1 80 23:23 05.01.2020
5161 Clouds 28 1009 83 10000 5.1 80 22:57 05.01.2020
5162 Rain 28 1009 79 0 5.29 39 22:38 05.01.2020
5163 Clouds 28 1010 83 10000 4.6 70 22:20 05.01.2020
5164 Clouds 28 1010 83 10000 4.6 70 21:55 05.01.2020
5165 Rain 28 1009 79 0 5.29 39 21:37 05.01.2020
5166 Clouds 29 1011 79 10000 5.1 70 21:19 05.01.2020
5167 Clouds 29 1011 79 10000 5.1 70 21:19 05.01.2020
5168 Clouds 29 1011 79 10000 5.1 70 20:55 05.01.2020
5169 Rain 28 1009 79 0 5.29 39 20:37 05.01.2020
5170 Clouds 29 1011 74 10000 5.7 80 20:19 05.01.2020
5171 Clouds 29 1011 74 10000 5.7 80 19:56 05.01.2020
5172 Clouds 28 1010 79 0 5.28 51 19:37 05.01.2020
5173 Clouds 28 1010 79 0 5.28 51 19:18 05.01.2020
5174 Clouds 28 1010 79 0 5.28 51 18:54 05.01.2020
5175 Clouds 28 1010 79 0 5.28 51 18:36 05.01.2020
5176 Thunderstorm 29 1011 79 10000 6.2 80 18:18 05.01.2020
5177 Thunderstorm 29 1011 79 10000 6.2 80 17:55 05.01.2020
5178 Thunderstorm 29 1011 79 10000 6.2 80 17:55 05.01.2020
5179 Clouds 28 1010 79 0 5.28 51 17:37 05.01.2020
5180 Clouds 29 1010 83 10000 4.6 80 17:18 05.01.2020
5181 Clouds 29 1010 83 10000 4.6 80 16:54 05.01.2020
5182 Clouds 28 1011 77 0 5.03 47 16:36 05.01.2020
5183 Clouds 29 1010 79 10000 4.1 70 16:18 05.01.2020
5184 Clouds 28 1011 77 0 5.03 47 15:36 05.01.2020
5185 Clouds 29 1009 79 10000 4.1 70 15:18 05.01.2020
5186 Clouds 29 1009 79 10000 4.1 70 14:54 05.01.2020
5187 Clouds 28 1011 77 0 5.03 47 14:36 05.01.2020
5188 Clouds 30 1008 74 10000 4.6 70 14:18 05.01.2020
5189 Clouds 30 1008 74 10000 4.6 70 13:39 05.01.2020
5190 Clouds 31 1008 70 10000 5.1 70 13:21 05.01.2020
5191 Clouds 31 1008 70 10000 5.1 70 12:57 05.01.2020
5192 Clear 28 1008 76 0 4.74 51 12:39 05.01.2020
5193 Clear 28 1008 76 0 4.74 51 12:39 05.01.2020
5194 Clear 28 1008 76 0 4.74 51 12:39 05.01.2020
5195 Clouds 31 1008 70 10000 4.6 70 12:21 05.01.2020
5196 Clouds 31 1008 70 10000 4.6 70 12:21 05.01.2020
5197 Clouds 31 1008 70 10000 4.6 70 11:55 05.01.2020
5198 Clear 28 1008 76 0 4.74 51 11:37 05.01.2020
5199 Clouds 31 1008 70 10000 5.1 70 11:19 05.01.2020
5200 Clouds 31 1008 70 10000 5.1 70 10:55 05.01.2020
5201 Clear 28 1009 78 0 5.79 39 10:36 05.01.2020
5202 Clear 28 1009 78 0 5.79 39 10:36 05.01.2020
5203 Clouds 31 1009 70 10000 4.6 60 10:18 05.01.2020
5204 Clouds 31 1009 70 10000 4.6 60 09:41 05.01.2020
5205 Clouds 31 1010 70 10000 5.1 50 09:21 05.01.2020
5206 Clouds 31 1010 70 10000 5.1 50 08:45 05.01.2020
5207 Clouds 31 1011 70 10000 5.1 40 08:26 05.01.2020
5208 Clouds 31 1011 70 10000 5.1 40 07:55 05.01.2020
5209 Clouds 30 1012 74 10000 5.7 70 07:35 05.01.2020
5210 Clouds 30 1012 74 10000 5.7 70 06:58 05.01.2020
5211 Clouds 30 1012 79 10000 4.1 70 05:55 05.01.2020
5212 Clouds 29 1012 83 10000 3.6 70 05:30 05.01.2020
5213 Rain 28 1011 78 0 6.03 37 04:34 05.01.2020
5214 Rain 27 1011 88 9000 2.1 90 03:47 05.01.2020
5215 Clouds 27 1010 88 10000 2.1 80 02:45 05.01.2020
5216 Clouds 27 1009 88 10000 2.1 90 02:20 05.01.2020
5217 Clouds 27 1009 88 10000 2.1 90 01:40 05.01.2020
5218 Clouds 28 1009 78 10000 3.1 360 01:18 05.01.2020
5219 Rain 28 1009 79 0 5.28 60 00:41 05.01.2020
5220 Clouds 26 1008 94 10000 1 0 00:22 05.01.2020
5221 Clouds 26 1008 94 10000 1 0 23:59 04.01.2020
5222 Rain 28 1009 79 0 5.28 60 23:39 04.01.2020
5223 Clouds 26 1009 94 10000 1.5 20 23:19 04.01.2020
5224 Rain 28 1009 78 0 4.9 66 22:39 04.01.2020
5225 Clouds 27 1010 88 10000 4.9 66 22:21 04.01.2020
5226 Clouds 27 1010 88 10000 4.9 66 21:57 04.01.2020
5227 Rain 28 1009 78 0 4.9 66 21:38 04.01.2020
5228 Clouds 27 1011 88 10000 0.5 0 21:19 04.01.2020
5229 Clouds 27 1011 88 10000 0.5 0 20:57 04.01.2020
5230 Rain 28 1009 78 0 4.9 66 20:38 04.01.2020
5231 Clouds 27 1011 88 10000 1 0 20:19 04.01.2020
5232 Clouds 27 1011 88 10000 1 0 19:42 04.01.2020
5233 Clouds 27 1012 83 10000 1.5 90 19:24 04.01.2020
5234 Clouds 27 1012 83 10000 1.5 90 18:58 04.01.2020
5235 Rain 28 1011 78 0 4.3 56 18:39 04.01.2020
5236 Clouds 28 1012 78 10000 1.5 120 18:21 04.01.2020
5237 Clouds 28 1012 78 10000 1.5 120 17:58 04.01.2020
5238 Rain 28 1011 78 0 4.3 56 17:40 04.01.2020
5239 Clouds 28 1011 78 10000 2.1 140 17:22 04.01.2020
5240 Clouds 28 1011 78 10000 2.1 140 16:42 04.01.2020
5241 Clouds 28 1011 78 10000 1.5 130 16:24 04.01.2020
5242 Clouds 28 1011 78 10000 1.5 130 15:59 04.01.2020
5243 Clouds 28 1011 78 10000 1.5 130 15:59 04.01.2020
5244 Clouds 28 1011 78 10000 1.5 130 15:41 04.01.2020
5245 Clouds 28 1010 78 10000 2.1 200 15:19 04.01.2020
5246 Clouds 28 1010 78 10000 2.1 200 14:58 04.01.2020
5247 Clouds 28 1010 78 10000 2.1 200 14:58 04.01.2020
5248 Clouds 28 1010 78 10000 2.1 200 14:40 04.01.2020
5249 Clouds 28 1009 78 10000 3.1 200 14:19 04.01.2020
5250 Clouds 28 1009 78 10000 3.1 200 13:56 04.01.2020
5251 Clouds 29 1009 75 0 5.23 73 13:37 04.01.2020
5252 Clouds 28 1008 83 10000 2.6 140 13:18 04.01.2020
5253 Clouds 28 1008 83 10000 2.6 140 12:42 04.01.2020
5254 Clouds 28 1009 83 10000 4.6 130 12:20 04.01.2020
5255 Clouds 28 1009 83 10000 4.6 130 11:59 04.01.2020
5256 Clouds 28 1009 83 10000 4.6 130 11:40 04.01.2020
5257 Clouds 27 1010 94 10000 5.7 150 11:20 04.01.2020
5258 Clouds 28 1009 75 0 5.08 65 10:58 04.01.2020
5259 Clouds 28 1009 75 0 5.08 65 10:38 04.01.2020
5260 Clouds 28 1010 83 10000 3.6 160 10:19 04.01.2020
5261 Clouds 28 1010 83 10000 3.6 160 09:42 04.01.2020
5262 Clouds 28 1009 75 0 5.08 65 09:24 04.01.2020
5263 Clouds 28 1009 75 0 5.08 65 08:44 04.01.2020
5264 Clouds 30 1012 74 10000 3.6 80 08:25 04.01.2020
5265 Clouds 30 1012 74 10000 3.6 80 07:51 04.01.2020
5266 Rain 28 1012 74 0 4.8 62 07:32 04.01.2020
5267 Rain 28 1012 74 0 4.8 62 06:39 04.01.2020
5268 Clouds 29 1013 79 10000 2.6 70 05:46 04.01.2020
5269 Clouds 28 1012 83 10000 3.6 50 04:47 04.01.2020
5270 Clouds 27 1011 88 10000 3.1 60 04:27 04.01.2020
5271 Clouds 27 1010 94 10000 2.1 20 03:19 04.01.2020
5272 Rain 28 1012 76 0 3.79 67 02:36 04.01.2020
5273 Clouds 28 1010 83 10000 2.6 60 01:58 04.01.2020
5274 Clouds 28 1010 78 10000 2.6 110 01:32 04.01.2020
5275 Clouds 28 1010 78 10000 2.6 110 00:56 04.01.2020
5276 Clouds 28 1010 83 10000 4.1 110 00:28 04.01.2020
5277 Clouds 28 1010 83 10000 4.1 110 23:52 03.01.2020
5278 Clouds 28 1011 83 10000 3.1 120 23:27 03.01.2020
5279 Clouds 28 1011 83 10000 3.1 120 22:55 03.01.2020
5280 Rain 28 1010 79 0 3.77 81 22:37 03.01.2020
5281 Clouds 28 1011 83 10000 3.1 120 22:18 03.01.2020
5282 Clouds 28 1011 83 10000 3.1 120 21:56 03.01.2020
5283 Rain 28 1010 79 0 3.77 81 21:37 03.01.2020
5284 Clouds 28 1012 83 10000 4.6 100 21:18 03.01.2020
5285 Clouds 28 1012 83 10000 4.6 100 20:43 03.01.2020
5286 Clouds 28 1012 88 10000 4.1 90 20:19 03.01.2020
5287 Clouds 28 1012 88 10000 4.1 90 19:59 03.01.2020
5288 Rain 28 1012 77 0 4.61 87 19:41 03.01.2020
5289 Clouds 28 1013 88 10000 4.1 90 19:22 03.01.2020
5290 Clouds 28 1013 88 10000 4.1 90 18:46 03.01.2020
5291 Clouds 28 1013 83 10000 4.1 90 18:26 03.01.2020
5292 Clouds 28 1013 83 10000 4.1 90 17:58 03.01.2020
5293 Clouds 28 1013 83 10000 4.1 90 17:58 03.01.2020
5294 Rain 28 1012 77 0 4.61 87 17:39 03.01.2020
5295 Clouds 28 1012 83 10000 3.6 90 17:21 03.01.2020
5296 Clouds 28 1012 83 10000 3.6 90 16:43 03.01.2020
5297 Clouds 28 1012 83 10000 4.1 100 16:24 03.01.2020
5298 Clouds 28 1012 83 10000 4.1 100 15:59 03.01.2020
5299 Clouds 28 1012 83 10000 4.1 100 15:41 03.01.2020
5300 Clouds 28 1011 78 10000 5.1 90 15:19 03.01.2020
5301 Clouds 28 1011 78 10000 5.1 90 14:39 03.01.2020
5302 Clouds 29 1010 79 10000 4.1 100 14:20 03.01.2020
5303 Clouds 29 1010 79 10000 4.1 100 13:57 03.01.2020
5304 Rain 28 1010 78 0 6.05 62 13:38 03.01.2020
5305 Clouds 28 1010 83 10000 4.1 80 13:20 03.01.2020
5306 Clouds 28 1010 83 10000 4.1 80 12:41 03.01.2020
5307 Clouds 28 1010 83 10000 4.6 80 12:22 03.01.2020
5308 Clouds 28 1010 83 10000 4.6 80 11:49 03.01.2020
5309 Rain 28 1011 88 10000 8.7 100 11:31 03.01.2020
5310 Rain 28 1011 88 10000 8.7 100 10:57 03.01.2020
5311 Rain 28 1010 76 0 6.82 70 10:38 03.01.2020
5312 Clouds 30 1011 74 10000 6.2 100 10:20 03.01.2020
5313 Clouds 30 1011 74 10000 6.2 100 09:54 03.01.2020
5314 Rain 28 1010 76 0 6.82 70 09:36 03.01.2020
5315 Rain 27 1013 94 10000 7.2 100 09:18 03.01.2020
5316 Rain 27 1013 94 10000 7.2 100 08:44 03.01.2020
5317 Rain 30 1013 79 10000 7.2 100 08:21 03.01.2020
5318 Rain 30 1013 79 10000 7.2 100 07:43 03.01.2020
5319 Clouds 30 1014 79 10000 8.2 100 07:19 03.01.2020
5320 Clouds 30 1014 79 10000 8.2 100 07:19 03.01.2020
5321 Clouds 30 1014 79 10000 8.2 100 06:59 03.01.2020
5322 Clouds 30 1014 79 10000 8.2 100 06:40 03.01.2020
5323 Rain 27 1014 88 9000 8.7 70 06:22 03.01.2020
5324 Clouds 29 1013 83 10000 5.1 60 04:45 03.01.2020
5325 Rain 28 1013 77 0 6.97 66 03:38 03.01.2020
5326 Clouds 28 1011 83 10000 5.7 90 02:53 03.01.2020
5327 Rain 27 1011 88 10000 5.7 90 01:51 03.01.2020
5328 Clouds 28 1010 83 10000 4.1 60 01:31 03.01.2020
5329 Clouds 28 1010 83 10000 4.1 60 00:40 03.01.2020
5330 Clouds 27 1011 88 10000 5.1 60 00:20 03.01.2020
5331 Rain 28 1011 80 0 6.19 56 23:39 02.01.2020
5332 Clouds 28 1011 83 10000 5.7 70 23:20 02.01.2020
5333 Clouds 28 1011 83 10000 5.7 70 22:58 02.01.2020
5334 Rain 28 1011 80 0 6.6 54 22:40 02.01.2020
5335 Clouds 28 1012 83 10000 6.2 70 22:19 02.01.2020
5336 Clouds 28 1012 83 10000 6.2 70 21:55 02.01.2020
5337 Rain 28 1011 80 0 6.6 54 21:37 02.01.2020
5338 Clouds 29 1013 79 10000 6.2 70 21:18 02.01.2020
5339 Clouds 29 1013 79 10000 6.2 70 20:56 02.01.2020
5340 Rain 28 1011 80 0 6.6 54 20:37 02.01.2020
5341 Clouds 29 1013 79 10000 6.2 60 20:18 02.01.2020
5342 Clouds 29 1013 79 10000 6.2 60 19:54 02.01.2020
5343 Rain 28 1013 79 0 6.36 58 19:36 02.01.2020
5344 Clouds 29 1014 79 10000 5.1 60 19:18 02.01.2020
5345 Rain 28 1013 79 0 6.36 58 18:42 02.01.2020
5346 Clouds 29 1014 79 10000 5.7 70 18:23 02.01.2020
5347 Clouds 29 1014 79 10000 5.7 70 17:58 02.01.2020
5348 Rain 28 1013 79 0 6.36 58 17:38 02.01.2020
5349 Clouds 29 1013 79 10000 5.1 70 17:20 02.01.2020
5350 Clouds 29 1013 79 10000 5.1 70 16:58 02.01.2020
5351 Clouds 29 1013 79 10000 5.1 70 16:40 02.01.2020
5352 Clouds 29 1012 79 10000 4.6 80 16:20 02.01.2020
5353 Clouds 29 1012 79 10000 4.6 80 16:20 02.01.2020
5354 Clouds 29 1012 79 10000 4.6 80 15:57 02.01.2020
5355 Clouds 29 1012 79 10000 4.6 80 15:39 02.01.2020
5356 Clouds 29 1010 74 10000 5.1 80 15:20 02.01.2020
5357 Clouds 29 1010 74 10000 5.1 80 14:56 02.01.2020
5358 Clouds 29 1010 74 10000 5.1 80 14:36 02.01.2020
5359 Clouds 30 1011 70 10000 5.1 90 14:18 02.01.2020
5360 Clouds 30 1011 70 10000 5.1 90 13:48 02.01.2020
5361 Clouds 30 1011 70 10000 5.1 90 13:30 02.01.2020
5362 Clouds 30 1010 74 10000 4.6 80 12:46 02.01.2020
5363 Clouds 31 1010 70 10000 4.6 80 12:26 02.01.2020
5364 Clouds 31 1010 70 10000 4.6 80 11:58 02.01.2020
5365 Clouds 28 1011 77 0 4.93 66 11:40 02.01.2020
5366 Clouds 31 1011 70 10000 4.6 90 11:19 02.01.2020
5367 Clouds 31 1011 70 10000 4.6 90 10:44 02.01.2020
5368 Clouds 31 1012 70 10000 5.7 90 10:25 02.01.2020
5369 Clouds 31 1012 70 10000 5.7 90 09:48 02.01.2020
5370 Clouds 31 1013 70 10000 5.7 90 09:29 02.01.2020
5371 Clouds 31 1013 70 10000 5.7 90 08:47 02.01.2020
5372 Clouds 31 1014 70 10000 5.7 90 08:27 02.01.2020
5373 Clouds 31 1014 70 10000 5.7 90 07:53 02.01.2020
5374 Clouds 30 1014 74 10000 5.1 90 07:30 02.01.2020
5375 Clouds 30 1014 74 10000 5.1 90 06:45 02.01.2020
5376 Clouds 30 1014 70 10000 4.6 90 06:27 02.01.2020
5377 Clear 29 1014 74 10000 4.6 90 05:29 02.01.2020
5378 Clouds 28 1013 78 10000 4.6 90 04:32 02.01.2020
5379 Clouds 28 1012 78 10000 5.1 80 02:48 02.01.2020
5380 Clouds 27 1012 83 10000 4.6 80 01:59 02.01.2020
5381 Rain 28 1012 76 0 5.07 72 01:37 02.01.2020
5382 Clouds 27 1011 83 10000 4.1 80 00:58 02.01.2020
5383 Rain 28 1012 77 0 5.19 68 00:33 02.01.2020
5384 Clouds 28 1011 78 10000 4.6 90 23:52 01.01.2020
5385 Clouds 28 1012 78 10000 5.1 80 23:28 01.01.2020
5386 Clouds 28 1012 78 10000 5.1 80 22:59 01.01.2020
5387 Clouds 27 1011 79 0 5.77 74 22:38 01.01.2020
5388 Clouds 28 1012 78 10000 5.1 90 22:19 01.01.2020
5389 Clouds 28 1012 78 10000 5.1 90 21:56 01.01.2020
5390 Clouds 27 1011 79 0 5.77 74 21:37 01.01.2020
5391 Clouds 28 1013 78 10000 4.6 90 21:19 01.01.2020
5392 Clouds 28 1013 78 10000 4.6 90 20:55 01.01.2020
5393 Clouds 27 1011 79 0 5.77 74 20:37 01.01.2020
5394 Clouds 28 1013 78 10000 5.7 100 20:18 01.01.2020
5395 Clouds 28 1013 78 10000 5.7 100 19:54 01.01.2020
5396 Clouds 28 1013 78 0 5.87 81 19:36 01.01.2020
5397 Clouds 28 1014 78 10000 5.1 100 19:18 01.01.2020
5398 Clouds 28 1014 78 10000 5.1 100 18:55 01.01.2020
5399 Clouds 28 1013 78 0 5.87 81 18:36 01.01.2020
5400 Clouds 28 1013 78 10000 4.6 100 18:18 01.01.2020
5401 Clouds 28 1013 78 10000 4.6 100 17:55 01.01.2020
5402 Clouds 28 1013 78 0 5.87 81 17:37 01.01.2020
5403 Clouds 28 1013 78 10000 5.1 90 17:18 01.01.2020
5404 Clouds 28 1013 78 10000 5.1 90 16:40 01.01.2020
5405 Clouds 28 1012 78 10000 6.2 100 16:21 01.01.2020
5406 Clouds 28 1012 78 10000 6.2 100 15:57 01.01.2020
5407 Clouds 28 1012 78 10000 6.2 100 15:39 01.01.2020
5408 Clouds 29 1011 74 10000 5.1 90 15:20 01.01.2020
5409 Clouds 29 1011 74 10000 5.1 90 14:58 01.01.2020
5410 Clouds 29 1011 74 10000 5.1 90 14:58 01.01.2020
5411 Clouds 28 1012 76 0 6.15 76 14:39 01.01.2020
5412 Clouds 29 1010 74 10000 4.6 90 14:21 01.01.2020
5413 Clouds 29 1010 74 10000 4.6 90 13:56 01.01.2020
5414 Clouds 28 1010 78 0 5.91 76 13:37 01.01.2020
5415 Clouds 30 1010 70 10000 5.1 90 13:18 01.01.2020
5416 Clouds 30 1010 70 10000 5.1 90 12:55 01.01.2020
5417 Clouds 28 1010 78 0 5.91 76 12:37 01.01.2020
5418 Clouds 30 1010 74 10000 5.1 90 12:18 01.01.2020
5419 Clouds 30 1010 74 10000 5.1 90 11:43 01.01.2020
5420 Clouds 31 1010 66 10000 5.1 110 11:22 01.01.2020
5421 Clouds 31 1010 66 10000 5.1 110 10:58 01.01.2020
5422 Clouds 31 1010 66 10000 5.1 110 10:40 01.01.2020
5423 Clouds 31 1011 70 10000 5.1 110 10:20 01.01.2020
5424 Clouds 31 1011 70 10000 5.1 110 09:56 01.01.2020
5425 Rain 28 1010 79 0 5.73 71 09:37 01.01.2020
5426 Clouds 31 1012 66 10000 5.7 110 09:18 01.01.2020
5427 Clouds 31 1012 66 10000 5.7 110 08:55 01.01.2020
5428 Rain 28 1010 79 0 5.73 71 08:36 01.01.2020
5429 Clouds 30 1013 70 10000 5.1 100 08:36 01.01.2020
5430 Clouds 30 1013 70 10000 5.1 100 08:18 01.01.2020
5431 Clouds 30 1013 70 10000 5.1 100 07:48 01.01.2020
5432 Clouds 30 1013 70 10000 5.7 90 07:30 01.01.2020
5433 Clouds 30 1013 70 10000 5.7 90 06:44 01.01.2020
5434 Clouds 29 1013 74 10000 5.1 100 06:20 01.01.2020
5435 Clouds 29 1013 74 10000 4.6 90 04:44 01.01.2020
5436 Clouds 28 1012 78 10000 5.7 90 03:43 01.01.2020
5437 Clouds 28 1011 78 9000 6.2 90 03:22 01.01.2020
5438 Clouds 28 1011 78 9000 6.2 90 02:55 01.01.2020
5439 Rain 27 1012 81 0 6.29 83 02:32 01.01.2020
5440 Clouds 28 1010 78 9000 6.2 90 01:45 01.01.2020
5441 Clouds 28 1010 78 9000 5.7 90 01:24 01.01.2020
5442 Clouds 28 1010 78 9000 5.7 90 00:57 01.01.2020
5443 Rain 28 1011 81 0 5.46 81 00:37 01.01.2020
5444 Clouds 28 1010 78 9000 5.7 90 00:19 01.01.2020
5445 Rain 28 1011 81 0 5.46 81 23:40 31.12.2019
5446 Clouds 28 1010 78 9000 6.2 80 23:21 31.12.2019
5447 Clouds 28 1010 78 9000 6.2 80 22:57 31.12.2019
5448 Clear 28 1010 78 0 5.64 66 22:38 31.12.2019
5449 Clouds 28 1011 78 9000 5.7 80 22:18 31.12.2019
5450 Clouds 28 1011 78 9000 5.7 80 21:54 31.12.2019
5451 Clear 28 1010 78 0 5.64 66 21:36 31.12.2019
5452 Clouds 28 1012 78 9000 5.1 70 21:18 31.12.2019
5453 Clouds 28 1012 78 9000 5.1 70 20:40 31.12.2019
5454 Clouds 28 1012 78 9000 5.1 70 20:40 31.12.2019
5455 Clouds 28 1012 78 9000 5.7 70 20:21 31.12.2019
5456 Clouds 28 1012 78 9000 5.7 70 19:59 31.12.2019
5457 Clouds 28 1012 78 9000 5.7 70 19:40 31.12.2019
5458 Clouds 28 1013 78 9000 5.1 70 19:22 31.12.2019
5459 Clouds 28 1013 78 9000 5.1 70 19:22 31.12.2019
5460 Clouds 28 1013 78 9000 5.1 70 18:58 31.12.2019
5461 Clouds 28 1012 76 0 5.12 68 18:40 31.12.2019
5462 Clouds 28 1012 78 9000 5.7 70 18:20 31.12.2019
5463 Clouds 28 1012 78 9000 5.7 70 17:56 31.12.2019
5464 Clouds 28 1012 76 0 5.12 68 17:38 31.12.2019
5465 Clouds 29 1011 74 9000 6.2 70 17:19 31.12.2019
5466 Clouds 29 1011 74 9000 6.2 70 16:57 31.12.2019
5467 Clouds 28 1012 75 0 5.56 63 16:38 31.12.2019
5468 Clouds 29 1011 74 9000 5.7 90 16:19 31.12.2019
5469 Clouds 29 1011 74 9000 5.7 90 15:56 31.12.2019
5470 Clouds 28 1012 75 0 5.56 63 15:38 31.12.2019
5471 Clouds 29 1010 74 9000 5.7 90 15:20 31.12.2019
5472 Clouds 29 1010 74 9000 5.7 90 14:57 31.12.2019
5473 Clouds 28 1012 75 0 5.56 63 14:38 31.12.2019
5474 Clouds 30 1010 70 9000 5.7 70 14:19 31.12.2019
5475 Clouds 30 1010 70 9000 5.7 70 14:19 31.12.2019
5476 Clouds 30 1010 70 9000 5.7 70 13:57 31.12.2019
5477 Clouds 28 1010 75 0 5.52 73 13:39 31.12.2019
5478 Clouds 30 1010 70 9000 5.1 80 13:20 31.12.2019
5479 Clouds 30 1010 70 9000 5.1 80 12:56 31.12.2019
5480 Clouds 28 1010 76 0 5.38 72 12:38 31.12.2019
5481 Clouds 31 1010 66 9000 6.2 90 12:19 31.12.2019
5482 Clouds 31 1010 66 9000 6.2 90 12:19 31.12.2019
5483 Clouds 31 1010 66 9000 6.2 90 11:56 31.12.2019
5484 Clouds 31 1010 66 9000 6.2 90 11:56 31.12.2019
5485 Clouds 31 1010 66 9000 6.2 90 11:56 31.12.2019
5486 Clouds 31 1010 66 9000 6.2 90 11:56 31.12.2019
5487 Clouds 28 1010 76 0 5.38 72 11:38 31.12.2019
5488 Clouds 31 1011 66 9000 6.7 80 11:19 31.12.2019
5489 Clouds 31 1011 66 9000 6.7 80 10:57 31.12.2019
5490 Clouds 31 1011 66 9000 6.7 80 10:57 31.12.2019
5491 Clouds 28 1011 76 0 5.7 70 10:38 31.12.2019
5492 Clouds 28 1011 76 0 5.7 70 10:38 31.12.2019
5493 Clouds 31 1012 66 9000 6.7 80 10:20 31.12.2019
5494 Clouds 31 1012 66 9000 6.7 80 09:58 31.12.2019
5495 Clouds 28 1011 76 0 5.7 70 09:39 31.12.2019
5496 Clouds 31 1012 66 9000 7.2 70 09:20 31.12.2019
5497 Clouds 31 1012 66 9000 7.2 70 08:57 31.12.2019
5498 Clouds 28 1011 76 0 5.7 70 08:37 31.12.2019
5499 Clouds 31 1013 66 9000 6.7 70 08:18 31.12.2019
5500 Clouds 31 1013 66 9000 6.7 70 07:41 31.12.2019
5501 Clouds 31 1013 70 9000 7.2 80 07:19 31.12.2019
5502 Clouds 31 1013 70 9000 7.2 80 06:49 31.12.2019
5503 Clouds 30 1013 70 9000 6.7 80 05:57 31.12.2019
5504 Clouds 28 1012 78 9000 6.7 90 04:28 31.12.2019
5505 Clouds 28 1011 78 9000 6.7 90 03:27 31.12.2019
5506 Clouds 28 1011 78 9000 6.7 90 02:49 31.12.2019
5507 Clouds 28 1011 78 9000 7.2 80 01:55 31.12.2019
5508 Clouds 28 1010 77 0 7.53 58 01:34 31.12.2019
5509 Clouds 28 1010 78 9000 7.2 70 00:59 31.12.2019
5510 Clouds 28 1010 78 9000 7.2 70 00:41 31.12.2019
5511 Clouds 28 1010 78 9000 6.7 70 00:21 31.12.2019
5512 Clouds 28 1010 78 9000 6.7 70 23:56 30.12.2019
5513 Clouds 28 1010 77 0 7.53 58 23:37 30.12.2019
5514 Clouds 28 1010 78 9000 7.7 70 23:19 30.12.2019
5515 Clouds 28 1010 78 9000 7.7 70 22:56 30.12.2019
5516 Clouds 28 1009 77 0 7.75 56 22:37 30.12.2019
5517 Clouds 28 1009 77 0 7.75 56 22:37 30.12.2019
5518 Clouds 28 1010 78 10000 7.7 70 22:18 30.12.2019
5519 Clouds 28 1010 78 10000 7.7 70 21:56 30.12.2019
5520 Clouds 28 1009 77 0 7.75 56 21:38 30.12.2019
5521 Clouds 28 1011 78 10000 8.2 70 21:18 30.12.2019
5522 Clouds 28 1011 78 10000 8.2 70 20:56 30.12.2019
5523 Clouds 28 1011 78 10000 8.2 70 20:56 30.12.2019
5524 Clouds 28 1009 77 0 7.75 56 20:38 30.12.2019
5525 Clouds 28 1011 78 10000 6.7 70 20:19 30.12.2019
5526 Clouds 28 1011 78 10000 6.7 70 19:56 30.12.2019
5527 Clouds 28 1012 77 0 7.32 75 19:37 30.12.2019
5528 Clouds 28 1012 83 10000 5.7 70 19:18 30.12.2019
5529 Clouds 28 1012 83 10000 5.7 70 18:56 30.12.2019
5530 Clouds 28 1012 77 0 7.32 75 18:37 30.12.2019
5531 Clouds 29 1012 79 10000 5.7 90 18:19 30.12.2019
5532 Clouds 29 1012 79 10000 5.7 90 17:54 30.12.2019
5533 Clouds 28 1012 77 0 7.32 75 17:36 30.12.2019
5534 Clouds 29 1012 74 10000 5.1 90 17:18 30.12.2019
5535 Clouds 29 1012 74 10000 5.1 90 16:54 30.12.2019
5536 Rain 28 1012 75 0 6.22 80 16:36 30.12.2019
5537 Clouds 29 1010 74 10000 5.1 90 16:18 30.12.2019
5538 Clouds 29 1010 74 10000 5.1 90 15:54 30.12.2019
5539 Rain 28 1012 75 0 6.22 80 15:36 30.12.2019
5540 Clouds 29 1010 74 10000 6.2 90 15:18 30.12.2019
5541 Clouds 29 1010 74 10000 6.2 90 14:42 30.12.2019
5542 Clouds 30 1010 70 10000 5.7 90 14:19 30.12.2019
5543 Clouds 30 1010 70 10000 5.7 90 13:54 30.12.2019
5544 Clouds 31 1009 70 9000 5.7 90 13:36 30.12.2019
5545 Clouds 31 1009 70 9000 5.7 90 13:18 30.12.2019
5546 Clouds 31 1009 70 9000 5.7 90 12:42 30.12.2019
5547 Clouds 31 1010 70 9000 5.7 90 12:20 30.12.2019
5548 Clouds 31 1010 70 9000 5.7 90 11:58 30.12.2019
5549 Rain 28 1010 77 0 7.13 81 11:39 30.12.2019
5550 Clouds 31 1010 70 9000 5.1 70 11:19 30.12.2019
5551 Clouds 31 1010 70 9000 5.1 70 10:44 30.12.2019
5552 Clouds 31 1010 70 9000 6.2 70 10:21 30.12.2019
5553 Clouds 31 1010 70 9000 6.2 70 09:57 30.12.2019
5554 Clouds 31 1010 70 9000 6.2 70 09:39 30.12.2019
5555 Clouds 31 1011 70 9000 6.7 80 09:19 30.12.2019
5556 Clouds 31 1011 70 9000 6.7 80 08:50 30.12.2019
5557 Clouds 30 1012 70 9000 8.2 70 08:23 30.12.2019
5558 Clouds 30 1012 70 9000 8.2 70 07:55 30.12.2019
5559 Clouds 31 1012 66 9000 8.2 70 07:34 30.12.2019
5560 Clouds 31 1012 66 9000 8.2 70 06:52 30.12.2019
5561 Clouds 29 1011 74 9000 8.2 80 04:57 30.12.2019
5562 Clouds 28 1011 78 10000 8.7 80 03:55 30.12.2019
5563 Clouds 28 1010 78 10000 7.7 70 02:56 30.12.2019
5564 Clouds 28 1010 78 10000 7.7 70 02:56 30.12.2019
5565 Clouds 28 1011 78 0 8.94 57 02:37 30.12.2019
5566 Clouds 28 1009 78 10000 8.2 80 01:50 30.12.2019
5567 Clouds 28 1009 78 10000 7.7 80 01:21 30.12.2019
5568 Clouds 28 1009 78 10000 7.7 80 00:44 30.12.2019
5569 Clouds 28 1009 83 10000 7.7 80 00:19 30.12.2019
5570 Clouds 28 1009 83 10000 7.7 80 23:39 29.12.2019
5571 Clouds 28 1009 83 10000 7.7 80 23:21 29.12.2019
5572 Clouds 28 1010 83 10000 7.7 80 22:54 29.12.2019
5573 Clouds 28 1009 76 0 7.97 66 22:36 29.12.2019
5574 Clouds 28 1009 76 0 7.97 66 22:36 29.12.2019
5575 Clouds 28 1010 83 10000 8.2 80 22:18 29.12.2019
5576 Clouds 28 1010 83 10000 8.2 80 21:42 29.12.2019
5577 Clouds 28 1011 78 10000 8.7 80 21:21 29.12.2019
5578 Clouds 28 1011 78 10000 8.7 80 20:57 29.12.2019
5579 Clouds 28 1009 76 0 7.97 66 20:39 29.12.2019
5580 Clouds 28 1011 83 10000 8.2 80 20:21 29.12.2019
5581 Clouds 28 1011 83 10000 8.2 80 19:59 29.12.2019
5582 Clouds 28 1011 83 10000 8.2 80 19:40 29.12.2019
5583 Clouds 28 1011 78 10000 7.7 80 19:21 29.12.2019
5584 Clouds 28 1011 78 10000 7.7 80 18:58 29.12.2019
5585 Clouds 28 1011 77 0 8.34 65 18:38 29.12.2019
5586 Clouds 28 1011 78 10000 7.7 70 18:20 29.12.2019
5587 Clouds 28 1011 78 10000 7.7 70 17:58 29.12.2019
5588 Clouds 28 1011 77 0 8.34 65 17:39 29.12.2019
5589 Clouds 29 1010 74 10000 7.7 70 17:20 29.12.2019
5590 Clouds 29 1010 74 10000 7.7 70 16:56 29.12.2019
5591 Clouds 28 1011 81 0 7.65 66 16:38 29.12.2019
5592 Clouds 28 1011 81 0 7.65 66 16:38 29.12.2019
5593 Clouds 28 1010 78 10000 7.2 70 16:20 29.12.2019
5594 Clouds 28 1010 78 10000 7.2 70 15:58 29.12.2019
5595 Clouds 28 1011 81 0 7.65 66 15:39 29.12.2019
5596 Clouds 28 1009 78 10000 7.7 70 15:20 29.12.2019
5597 Clouds 28 1009 78 10000 7.7 70 14:58 29.12.2019
5598 Clouds 28 1011 81 0 7.65 66 14:38 29.12.2019
5599 Clouds 29 1008 74 10000 7.7 70 14:18 29.12.2019
5600 Clouds 29 1008 74 10000 7.7 70 13:57 29.12.2019
5601 Clouds 28 1009 79 0 7.42 59 13:38 29.12.2019
5602 Clouds 29 1008 83 10000 7.2 70 13:20 29.12.2019
5603 Clouds 29 1008 83 10000 7.2 70 12:45 29.12.2019
5604 Clouds 28 1008 88 10000 5.7 100 12:27 29.12.2019
5605 Clouds 28 1008 88 10000 5.7 100 12:27 29.12.2019
5606 Clouds 28 1008 88 10000 5.7 100 11:58 29.12.2019
5607 Clouds 28 1009 78 0 7.14 64 11:40 29.12.2019
5608 Clouds 30 1009 74 10000 6.2 70 11:20 29.12.2019
5609 Clouds 30 1009 74 10000 6.2 70 11:20 29.12.2019
5610 Clouds 30 1009 74 10000 6.2 70 10:55 29.12.2019
5611 Clear 28 1009 79 0 7.79 66 10:37 29.12.2019
5612 Clouds 30 1009 79 10000 7.7 70 10:18 29.12.2019
5613 Clouds 30 1009 79 10000 7.7 70 09:43 29.12.2019
5614 Clouds 30 1010 74 10000 4.1 50 09:25 29.12.2019
5615 Clouds 30 1010 74 10000 4.1 50 08:50 29.12.2019
5616 Clouds 27 1011 88 10000 4.1 50 08:29 29.12.2019
5617 Clouds 27 1011 88 10000 4.1 50 07:58 29.12.2019
5618 Rain 28 1012 78 0 8.13 65 07:31 29.12.2019
5619 Rain 28 1012 78 0 8.13 65 07:31 29.12.2019
5620 Rain 28 1012 78 0 8.13 65 06:57 29.12.2019
5621 Clouds 30 1012 70 10000 5.1 90 06:27 29.12.2019
5622 Clouds 30 1012 70 10000 5.1 90 05:54 29.12.2019
5623 Clouds 29 1011 79 10000 4.1 70 04:42 29.12.2019
5624 Clouds 28 1010 83 10000 4.1 70 04:21 29.12.2019
5625 Clouds 27 1010 83 10000 5.7 90 03:28 29.12.2019
5626 Clouds 28 1009 78 10000 4.1 70 02:22 29.12.2019
5627 Clouds 28 1009 78 10000 4.1 70 02:22 29.12.2019
5628 Clouds 28 1009 78 10000 4.1 70 01:42 29.12.2019
5629 Clouds 28 1009 78 10000 4.6 70 01:23 29.12.2019
5630 Clouds 28 1009 78 10000 4.6 70 00:44 29.12.2019
5631 Clouds 28 1009 78 10000 5.7 80 00:24 29.12.2019
5632 Clouds 28 1009 78 10000 5.7 80 23:45 28.12.2019
5633 Clouds 28 1009 78 10000 5.1 80 23:19 28.12.2019
5634 Clouds 28 1009 78 10000 5.1 80 23:19 28.12.2019
5635 Clouds 28 1009 78 10000 5.1 80 22:54 28.12.2019
5636 Clouds 27 1009 82 0 5.7 75 22:36 28.12.2019
5637 Clouds 28 1010 78 10000 6.2 80 22:18 28.12.2019
5638 Clouds 28 1010 78 10000 6.2 80 21:55 28.12.2019
5639 Clouds 27 1009 82 0 5.7 75 21:36 28.12.2019
5640 Clouds 28 1010 78 10000 7.2 80 21:18 28.12.2019
5641 Clouds 27 1009 82 0 5.7 75 20:38 28.12.2019
5642 Clouds 28 1011 78 10000 6.7 80 20:20 28.12.2019
5643 Clouds 28 1011 78 10000 6.7 80 19:59 28.12.2019
5644 Clouds 28 1011 79 0 5.59 78 19:39 28.12.2019
5645 Clouds 28 1011 78 10000 6.2 80 19:21 28.12.2019
5646 Clouds 28 1011 78 10000 6.2 80 18:59 28.12.2019
5647 Clouds 28 1011 78 10000 6.2 80 18:40 28.12.2019
5648 Clouds 28 1011 78 10000 5.1 90 18:19 28.12.2019
5649 Clouds 28 1011 78 10000 5.1 90 17:56 28.12.2019
5650 Clouds 28 1011 79 0 5.59 78 17:38 28.12.2019
5651 Clouds 28 1010 78 10000 5.1 90 17:18 28.12.2019
5652 Clouds 28 1010 78 10000 5.1 90 16:46 28.12.2019
5653 Clouds 29 1010 74 10000 5.7 90 16:26 28.12.2019
5654 Clouds 29 1010 74 10000 5.7 90 16:26 28.12.2019
5655 Clouds 29 1010 74 10000 5.7 90 16:26 28.12.2019
5656 Clouds 29 1010 74 10000 5.7 90 15:49 28.12.2019
5657 Clouds 29 1009 70 10000 6.2 80 15:25 28.12.2019
5658 Clouds 29 1009 70 10000 6.2 80 14:59 28.12.2019
5659 Clouds 29 1009 70 10000 6.2 80 14:40 28.12.2019
5660 Clouds 29 1009 70 10000 6.7 80 14:21 28.12.2019
5661 Clouds 29 1009 70 10000 6.7 80 13:56 28.12.2019
5662 Clouds 28 1008 77 0 6.64 61 13:37 28.12.2019
5663 Clouds 30 1008 66 10000 6.7 80 13:18 28.12.2019
5664 Clouds 30 1008 66 10000 6.7 80 12:43 28.12.2019
5665 Clouds 30 1008 66 10000 6.7 80 12:43 28.12.2019
5666 Clouds 31 1008 62 10000 6.7 60 12:24 28.12.2019
5667 Clouds 31 1008 62 10000 6.7 60 11:56 28.12.2019
5668 Clear 28 1008 77 0 6.83 62 11:38 28.12.2019
5669 Clouds 31 1009 66 10000 6.7 70 11:19 28.12.2019
5670 Clouds 31 1009 66 10000 6.7 70 10:44 28.12.2019
5671 Clouds 31 1010 66 10000 6.7 70 10:22 28.12.2019
5672 Clouds 31 1010 66 10000 6.7 70 09:58 28.12.2019
5673 Clouds 31 1010 66 10000 6.7 70 09:40 28.12.2019
5674 Clouds 31 1011 66 10000 6.7 70 09:20 28.12.2019
5675 Clouds 31 1011 66 10000 6.7 70 08:44 28.12.2019
5676 Clouds 31 1011 66 10000 6.2 70 08:26 28.12.2019
5677 Clouds 31 1011 66 10000 6.2 70 07:53 28.12.2019
5678 Clouds 30 1012 70 10000 5.7 80 07:30 28.12.2019
5679 Clouds 30 1012 70 10000 5.7 80 06:41 28.12.2019
5680 Clouds 29 1011 74 10000 6.2 80 04:51 28.12.2019
5681 Clouds 28 1010 78 10000 5.7 90 03:47 28.12.2019
5682 Clouds 28 1009 78 10000 5.7 90 02:48 28.12.2019
5683 Clouds 28 1009 78 10000 5.1 70 01:59 28.12.2019
5684 Clouds 28 1009 78 10000 5.7 80 01:30 28.12.2019
5685 Clouds 28 1009 78 10000 5.7 80 00:58 28.12.2019
5686 Clouds 28 1009 78 0 8.13 68 00:38 28.12.2019
5687 Clouds 28 1009 78 10000 6.2 80 00:19 28.12.2019
5688 Clouds 28 1009 78 10000 6.2 80 23:43 27.12.2019
5689 Clouds 28 1009 83 10000 6.7 80 23:20 27.12.2019
5690 Clouds 28 1009 83 10000 6.7 80 22:58 27.12.2019
5691 Rain 28 1008 77 0 7.29 67 22:38 27.12.2019
5692 Clouds 28 1010 83 10000 5.7 80 22:20 27.12.2019
5693 Clouds 28 1010 83 10000 5.7 80 21:55 27.12.2019
5694 Rain 28 1008 77 0 7.29 67 21:37 27.12.2019
5695 Clouds 28 1010 83 10000 4.6 90 21:18 27.12.2019
5696 Clouds 28 1010 83 10000 4.6 90 20:41 27.12.2019
5697 Clouds 29 1010 79 10000 6.2 80 20:22 27.12.2019
5698 Clouds 29 1010 79 10000 6.2 80 19:43 27.12.2019
5699 Clouds 29 1010 79 10000 5.7 80 19:21 27.12.2019
5700 Clouds 29 1010 79 10000 5.7 80 19:21 27.12.2019
5701 Clouds 29 1010 79 10000 5.7 80 18:59 27.12.2019
5702 Rain 28 1010 79 0 5.78 83 18:39 27.12.2019
5703 Rain 28 1010 79 0 5.78 83 18:39 27.12.2019
5704 Rain 28 1010 79 0 5.78 83 18:39 27.12.2019
5705 Clouds 29 1010 74 10000 7.2 90 18:21 27.12.2019
5706 Clouds 29 1010 74 10000 7.2 90 17:58 27.12.2019
5707 Rain 28 1010 79 0 5.78 83 17:40 27.12.2019
5708 Clouds 29 1010 74 10000 7.2 90 17:19 27.12.2019
5709 Clouds 29 1010 74 10000 7.2 90 16:58 27.12.2019
5710 Clouds 28 1010 78 0 6.1 70 16:38 27.12.2019
5711 Clouds 29 1008 74 10000 6.7 80 16:19 27.12.2019
5712 Clouds 29 1008 74 10000 6.7 80 15:45 27.12.2019
5713 Clouds 29 1008 74 10000 7.2 90 15:23 27.12.2019
5714 Clouds 29 1008 74 10000 7.2 90 14:58 27.12.2019
5715 Clouds 28 1010 78 0 6.1 70 14:39 27.12.2019
5716 Clouds 30 1007 70 10000 7.2 80 14:21 27.12.2019
5717 Clouds 30 1007 70 10000 7.2 80 13:57 27.12.2019
5718 Clouds 28 1008 78 0 6.25 58 13:38 27.12.2019
5719 Clouds 28 1008 78 0 6.25 58 13:38 27.12.2019
5720 Clouds 30 1007 74 10000 7.2 80 13:20 27.12.2019
5721 Clouds 30 1007 74 10000 7.2 80 12:42 27.12.2019
5722 Clouds 31 1007 70 10000 7.2 80 12:23 27.12.2019
5723 Clouds 31 1007 70 10000 7.2 80 11:46 27.12.2019
5724 Clouds 31 1008 70 10000 7.7 80 11:27 27.12.2019
5725 Clouds 31 1008 70 10000 7.7 80 10:59 27.12.2019
5726 Rain 28 1008 82 0 6.96 65 10:41 27.12.2019
5727 Clouds 31 1009 70 10000 7.7 80 10:22 27.12.2019
5728 Clouds 31 1009 70 10000 7.7 80 09:46 27.12.2019
5729 Clouds 31 1010 70 10000 7.2 90 09:22 27.12.2019
5730 Clouds 31 1010 70 10000 7.2 90 08:59 27.12.2019
5731 Rain 28 1008 82 0 6.96 65 08:38 27.12.2019
5732 Clouds 31 1010 70 10000 7.2 90 07:57 27.12.2019
5733 Clouds 28 1011 78 0 6.22 73 07:38 27.12.2019
5734 Clouds 28 1011 78 0 6.22 73 06:39 27.12.2019
5735 Clouds 30 1011 74 10000 6.7 100 06:18 27.12.2019
5736 Clouds 28 1010 78 10000 6.7 90 04:20 27.12.2019
5737 Clouds 28 1009 78 10000 6.7 90 02:27 27.12.2019
5738 Clouds 28 1009 78 10000 6.7 90 01:42 27.12.2019
5739 Clouds 28 1009 83 10000 6.2 80 01:20 27.12.2019
5740 Clouds 28 1009 83 10000 6.2 80 00:46 27.12.2019
5741 Clouds 28 1009 83 10000 6.7 70 00:25 27.12.2019
5742 Clouds 28 1009 83 10000 6.7 70 00:25 27.12.2019
5743 Clouds 28 1009 79 0 5.78 68 23:44 26.12.2019
5744 Rain 28 1010 83 10000 5.7 90 23:24 26.12.2019
5745 Rain 28 1010 83 10000 5.7 90 22:58 26.12.2019
5746 Clouds 28 1009 81 0 5.85 68 22:38 26.12.2019
5747 Clouds 28 1010 83 10000 5.7 90 22:18 26.12.2019
5748 Clouds 28 1010 83 10000 5.7 90 21:39 26.12.2019
5749 Clouds 28 1011 83 10000 5.7 70 21:21 26.12.2019
5750 Clouds 28 1011 83 10000 5.7 70 20:54 26.12.2019
5751 Clouds 28 1009 81 0 5.85 68 20:36 26.12.2019
5752 Clouds 28 1011 83 10000 5.1 70 20:18 26.12.2019
5753 Clouds 28 1011 83 10000 5.1 70 20:18 26.12.2019
5754 Clouds 28 1011 83 10000 5.1 70 19:54 26.12.2019
5755 Clear 28 1011 81 0 6.25 73 19:36 26.12.2019
5756 Clouds 28 1011 83 10000 5.7 80 19:18 26.12.2019
5757 Clouds 28 1011 83 10000 5.7 80 19:18 26.12.2019
5758 Clouds 28 1011 83 10000 5.7 80 18:55 26.12.2019
5759 Clouds 28 1011 83 10000 5.7 80 18:55 26.12.2019
5760 Clear 28 1011 81 0 6.25 73 18:36 26.12.2019
5761 Clouds 28 1011 83 10000 4.6 90 18:18 26.12.2019
5762 Clouds 28 1011 83 10000 4.6 90 17:40 26.12.2019
5763 Clouds 28 1011 83 10000 4.6 100 17:20 26.12.2019
5764 Clouds 28 1011 83 10000 4.6 100 16:48 26.12.2019
5765 Clouds 28 1010 83 10000 4.6 100 16:26 26.12.2019
5766 Clouds 28 1010 83 10000 4.6 100 15:57 26.12.2019
5767 Clear 28 1010 81 0 6.51 67 15:38 26.12.2019
5768 Clouds 28 1009 78 10000 2.6 90 15:19 26.12.2019
5769 Clouds 28 1009 78 10000 2.6 90 14:41 26.12.2019
5770 Clouds 29 1009 79 10000 6.2 100 14:23 26.12.2019
5771 Clouds 29 1009 79 10000 6.2 100 14:23 26.12.2019
5772 Clouds 29 1009 79 10000 6.2 100 14:23 26.12.2019
5773 Clouds 29 1009 79 10000 6.2 100 13:55 26.12.2019
5774 Clouds 28 1009 79 0 6.31 75 13:36 26.12.2019
5775 Rain 28 1009 83 10000 4.6 90 13:18 26.12.2019
5776 Rain 28 1009 83 10000 4.6 90 12:44 26.12.2019
5777 Clouds 31 1009 70 10000 4.1 100 12:24 26.12.2019
5778 Clouds 31 1009 70 10000 4.1 100 11:59 26.12.2019
5779 Clouds 31 1009 70 10000 4.1 100 11:40 26.12.2019
5780 Clouds 31 1010 70 10000 3.6 100 11:21 26.12.2019
5781 Rain 28 1009 80 0 6.4 83 10:50 26.12.2019
5782 Clouds 30 1011 74 10000 4.6 100 10:26 26.12.2019
5783 Clouds 30 1011 74 10000 4.6 100 09:55 26.12.2019
5784 Rain 28 1009 80 0 6.4 83 09:36 26.12.2019
5785 Clouds 29 1012 83 10000 5.7 100 09:18 26.12.2019
5786 Rain 28 1009 80 0 6.4 83 08:39 26.12.2019
5787 Clouds 31 1012 70 10000 6.7 90 08:21 26.12.2019
5788 Clouds 31 1012 70 10000 6.7 90 07:41 26.12.2019
5789 Clouds 30 1013 74 10000 5.1 110 07:19 26.12.2019
5790 Rain 28 1011 80 0 6.63 82 06:38 26.12.2019
5791 Rain 28 1013 88 10000 3.6 110 06:20 26.12.2019
5792 Rain 28 1013 88 10000 3.6 110 05:42 26.12.2019
5793 Clouds 27 1012 88 10000 2.6 140 04:33 26.12.2019
5794 Clouds 27 1011 88 10000 2.6 150 03:31 26.12.2019
5795 Clouds 27 1011 88 10000 2.6 150 02:46 26.12.2019
5796 Clouds 27 1011 83 10000 2.6 150 02:27 26.12.2019
5797 Clouds 27 1011 83 10000 2.6 150 01:44 26.12.2019
5798 Clouds 27 1010 83 10000 3.6 150 01:25 26.12.2019
5799 Clouds 27 1010 83 10000 3.6 150 00:44 26.12.2019
5800 Clouds 28 1010 83 10000 3.1 130 00:23 26.12.2019
5801 Clouds 28 1010 83 10000 3.1 130 23:58 25.12.2019
5802 Rain 28 1010 77 0 6.97 79 23:37 25.12.2019
5803 Clouds 28 1011 78 10000 3.6 110 23:19 25.12.2019
5804 Clouds 28 1011 78 10000 3.6 110 22:57 25.12.2019
5805 Rain 28 1010 78 0 6.05 80 22:37 25.12.2019
5806 Clouds 28 1012 78 10000 3.6 110 22:19 25.12.2019
5807 Clouds 28 1012 78 10000 3.6 110 21:55 25.12.2019
5808 Rain 28 1010 78 0 6.05 80 21:37 25.12.2019
5809 Clouds 29 1012 79 10000 4.1 110 21:19 25.12.2019
5810 Clouds 29 1012 79 10000 4.1 110 20:40 25.12.2019
5811 Clouds 29 1013 79 10000 3.6 120 20:21 25.12.2019
5812 Clouds 29 1013 79 10000 3.6 120 19:59 25.12.2019
5813 Clouds 29 1013 79 10000 3.6 120 19:41 25.12.2019
5814 Clouds 29 1012 79 10000 6.2 110 19:21 25.12.2019
5815 Clouds 29 1012 79 10000 6.2 110 18:40 25.12.2019
5816 Clouds 29 1012 79 10000 4.1 110 18:21 25.12.2019
5817 Clouds 29 1012 79 10000 4.1 110 17:58 25.12.2019
5818 Rain 28 1012 76 0 5.06 83 17:39 25.12.2019
5819 Clouds 28 1012 83 10000 5.1 110 17:18 25.12.2019
5820 Clouds 28 1012 83 10000 5.1 110 16:54 25.12.2019
5821 Rain 28 1011 76 0 5.2 102 16:36 25.12.2019
5822 Rain 27 1011 88 9000 6.7 80 16:18 25.12.2019
5823 Rain 27 1011 88 9000 6.7 80 15:55 25.12.2019
5824 Rain 28 1011 76 0 5.2 102 15:36 25.12.2019
5825 Clouds 30 1010 74 10000 7.2 100 15:18 25.12.2019
5826 Clouds 30 1010 74 10000 7.2 100 14:42 25.12.2019
5827 Clouds 30 1010 79 10000 2.6 130 14:23 25.12.2019
5828 Clouds 30 1010 79 10000 2.6 130 13:58 25.12.2019
5829 Clouds 30 1010 79 10000 2.6 130 13:40 25.12.2019
5830 Clouds 30 1009 70 10000 3.6 140 13:20 25.12.2019
5831 Clouds 30 1009 70 10000 3.6 140 12:43 25.12.2019
5832 Clouds 31 1009 70 10000 5.1 110 12:22 25.12.2019
5833 Clouds 31 1009 70 10000 5.1 110 11:58 25.12.2019
5834 Rain 29 1009 78 0 5.44 97 11:40 25.12.2019
5835 Clouds 31 1010 70 10000 4.1 90 11:20 25.12.2019
5836 Rain 29 1009 78 0 5.19 88 10:39 25.12.2019
5837 Clouds 31 1011 70 10000 5.1 110 10:21 25.12.2019
5838 Clouds 31 1011 70 10000 5.1 110 09:58 25.12.2019
5839 Rain 29 1009 78 0 5.19 88 09:40 25.12.2019
5840 Clouds 31 1012 74 10000 4.6 90 09:21 25.12.2019
5841 Clouds 31 1012 74 10000 4.6 90 08:42 25.12.2019
5842 Clouds 31 1012 74 10000 4.6 90 08:23 25.12.2019
5843 Clouds 31 1012 74 10000 4.6 90 08:23 25.12.2019
5844 Clouds 31 1012 74 10000 4.6 90 07:42 25.12.2019
5845 Rain 28 1012 78 0 6.14 82 07:22 25.12.2019
5846 Clouds 30 1012 79 10000 4.1 100 06:24 25.12.2019
5847 Clouds 30 1012 79 10000 4.1 100 05:50 25.12.2019
5848 Clouds 29 1012 83 10000 3.6 90 04:44 25.12.2019
5849 Clouds 28 1011 83 10000 4.1 100 04:24 25.12.2019
5850 Clouds 28 1011 83 10000 4.1 100 03:44 25.12.2019
5851 Clouds 28 1010 83 10000 5.1 90 02:59 25.12.2019
5852 Clouds 28 1009 83 10000 5.1 80 02:29 25.12.2019
5853 Clouds 28 1009 83 10000 5.1 80 01:44 25.12.2019
5854 Clouds 28 1009 83 10000 6.2 80 01:19 25.12.2019
5855 Clouds 28 1009 83 10000 6.2 80 00:42 25.12.2019
5856 Clouds 28 1009 83 10000 5.7 80 00:23 25.12.2019
5857 Clouds 28 1010 75 0 3.75 64 23:40 24.12.2019
5858 Clouds 28 1010 83 10000 5.1 80 23:20 24.12.2019
5859 Clouds 28 1010 83 10000 5.1 80 22:55 24.12.2019
5860 Clouds 28 1009 75 0 4.48 59 22:37 24.12.2019
5861 Clouds 28 1010 83 10000 7.2 80 22:19 24.12.2019
5862 Clouds 28 1010 83 10000 7.2 80 21:41 24.12.2019
5863 Clouds 28 1011 83 10000 7.2 80 21:20 24.12.2019
5864 Clouds 28 1011 83 10000 7.2 80 20:43 24.12.2019
5865 Clouds 28 1012 83 10000 6.2 80 20:23 24.12.2019
5866 Clouds 28 1012 83 10000 6.2 80 19:56 24.12.2019
5867 Clouds 28 1012 74 0 2.5 28 19:37 24.12.2019
5868 Clouds 28 1012 83 10000 5.7 90 19:18 24.12.2019
5869 Clouds 28 1012 83 10000 5.7 90 18:42 24.12.2019
5870 Clouds 28 1012 83 10000 5.7 90 18:19 24.12.2019
5871 Clouds 28 1012 83 10000 5.7 90 17:45 24.12.2019
5872 Clouds 28 1012 83 10000 3.6 80 17:23 24.12.2019
5873 Clouds 28 1012 83 10000 3.6 80 16:58 24.12.2019
5874 Clouds 28 1012 83 10000 3.6 80 16:40 24.12.2019
5875 Clouds 28 1012 83 10000 3.6 80 16:40 24.12.2019
5876 Clouds 29 1011 74 10000 0.5 0 16:22 24.12.2019
5877 Clouds 29 1011 74 10000 0.5 0 15:58 24.12.2019
5878 Rain 27 1012 77 0 3.55 57 15:38 24.12.2019
5879 Clouds 29 1011 74 10000 1 0 15:20 24.12.2019
5880 Clouds 29 1011 74 10000 1 0 14:58 24.12.2019
5881 Clouds 29 1011 74 10000 1 0 14:58 24.12.2019
5882 Clouds 29 1011 74 10000 1 0 14:40 24.12.2019
5883 Clouds 30 1010 70 10000 1.5 320 14:22 24.12.2019
5884 Clouds 30 1010 70 10000 1.5 320 13:56 24.12.2019
5885 Clouds 27 1010 76 0 0.38 84 13:38 24.12.2019
5886 Clouds 30 1010 70 10000 3.6 80 13:20 24.12.2019
5887 Clouds 30 1010 70 10000 3.6 80 12:57 24.12.2019
5888 Clouds 27 1010 73 0 2.42 310 12:38 24.12.2019
5889 Clouds 30 1009 70 10000 4.1 80 12:19 24.12.2019
5890 Clouds 30 1009 70 10000 4.1 80 11:57 24.12.2019
5891 Clouds 27 1010 73 0 2.42 310 11:38 24.12.2019
5892 Clouds 30 1010 74 10000 3.6 70 11:20 24.12.2019
5893 Clouds 30 1010 74 10000 3.6 70 10:57 24.12.2019
5894 Clouds 27 1009 74 0 1.71 226 10:38 24.12.2019
5895 Clouds 30 1011 70 10000 3.6 70 10:20 24.12.2019
5896 Clouds 30 1011 70 10000 3.6 70 09:58 24.12.2019
5897 Clouds 30 1011 70 10000 3.6 70 09:58 24.12.2019
5898 Clouds 30 1011 70 10000 3.6 70 09:39 24.12.2019
5899 Clouds 30 1011 70 10000 3.6 70 09:39 24.12.2019
5900 Clouds 30 1012 70 10000 4.1 80 09:21 24.12.2019
5901 Clouds 30 1012 70 10000 4.1 80 08:47 24.12.2019
5902 Clouds 30 1012 74 10000 3.6 90 08:25 24.12.2019
5903 Clouds 30 1012 74 10000 3.6 90 07:59 24.12.2019
5904 Rain 26 1013 80 0 3.75 192 07:39 24.12.2019
5905 Clouds 30 1013 74 10000 3.6 90 07:21 24.12.2019
5906 Clouds 30 1013 74 10000 3.6 90 07:21 24.12.2019
5907 Rain 26 1013 80 0 3.75 192 06:40 24.12.2019
5908 Clouds 29 1013 79 10000 2.6 100 06:19 24.12.2019
5909 Clouds 29 1013 79 10000 2.6 100 05:53 24.12.2019
5910 Rain 25 1013 86 0 3.97 170 05:19 24.12.2019
5911 Clouds 28 1011 83 10000 2.6 110 04:21 24.12.2019
5912 Clouds 28 1011 83 10000 2.6 110 03:48 24.12.2019
5913 Clouds 26 1010 88 10000 2.6 130 02:29 24.12.2019
5914 Clouds 26 1010 88 10000 2.6 130 01:55 24.12.2019
5915 Clouds 26 1009 88 10000 2.6 90 01:26 24.12.2019
5916 Clouds 26 1009 88 10000 2.6 90 00:58 24.12.2019
5917 Rain 25 1011 83 0 4.08 239 00:39 24.12.2019
5918 Clouds 26 1009 94 10000 2.6 90 00:20 24.12.2019
5919 Clouds 26 1009 94 10000 2.6 90 23:43 23.12.2019
5920 Clouds 26 1010 94 10000 2.6 70 23:24 23.12.2019
5921 Clouds 26 1010 94 10000 2.6 70 23:24 23.12.2019
5922 Clouds 26 1010 94 10000 2.6 70 22:57 23.12.2019
5923 Rain 25 1011 90 0 5.94 251 22:38 23.12.2019
5924 Rain 25 1011 90 0 5.94 251 22:38 23.12.2019
5925 Rain 27 1011 88 10000 1 0 22:20 23.12.2019
5926 Rain 27 1011 88 10000 1 0 21:56 23.12.2019
5927 Rain 25 1011 90 0 5.94 251 21:37 23.12.2019
5928 Clouds 27 1012 83 10000 1 0 21:19 23.12.2019
5929 Clouds 27 1012 83 10000 1 0 20:58 23.12.2019
5930 Clouds 27 1012 83 10000 1 0 20:58 23.12.2019
5931 Clouds 27 1012 83 10000 1 0 20:40 23.12.2019
5932 Clouds 27 1012 83 10000 1.5 20 20:19 23.12.2019
5933 Clouds 27 1012 83 10000 1.5 20 20:19 23.12.2019
5934 Clouds 27 1012 83 10000 1.5 20 19:58 23.12.2019
5935 Clouds 27 1012 83 10000 1.5 20 19:39 23.12.2019
5936 Clouds 27 1012 83 10000 2.6 280 19:20 23.12.2019
5937 Clouds 27 1012 83 10000 2.6 280 18:58 23.12.2019
5938 Rain 25 1013 93 0 3.26 169 18:39 23.12.2019
5939 Clouds 27 1012 83 10000 4.6 270 18:20 23.12.2019
5940 Clouds 27 1012 83 10000 4.6 270 18:20 23.12.2019
5941 Clouds 27 1012 83 10000 4.6 270 17:58 23.12.2019
5942 Rain 25 1013 93 0 3.26 169 17:40 23.12.2019
5943 Clouds 27 1012 83 10000 7.2 270 17:19 23.12.2019
5944 Clouds 27 1012 83 10000 7.2 270 16:57 23.12.2019
5945 Rain 26 1012 89 0 5.9 74 16:39 23.12.2019
5946 Clouds 27 1011 83 10000 7.2 270 16:18 23.12.2019
5947 Clouds 27 1011 83 10000 7.2 270 15:57 23.12.2019
5948 Rain 26 1012 89 0 5.9 74 15:37 23.12.2019
5949 Clouds 27 1009 83 10000 7.7 290 15:19 23.12.2019
5950 Clouds 27 1009 83 10000 7.7 290 14:56 23.12.2019
5951 Clouds 27 1009 83 10000 7.7 290 14:56 23.12.2019
5952 Rain 26 1012 89 0 5.9 74 14:38 23.12.2019
5953 Clouds 28 1009 78 10000 3.1 230 14:18 23.12.2019
5954 Clouds 28 1009 78 10000 3.1 230 13:56 23.12.2019
5955 Rain 25 1010 89 0 6.39 62 13:37 23.12.2019
5956 Clouds 29 1009 74 10000 1.5 150 13:19 23.12.2019
5957 Clouds 29 1009 74 10000 1.5 150 12:54 23.12.2019
5958 Rain 26 1010 89 0 6.82 40 12:36 23.12.2019
5959 Rain 26 1010 89 0 6.82 40 12:36 23.12.2019
5960 Clouds 29 1008 74 10000 2.1 160 12:18 23.12.2019
5961 Clouds 29 1008 74 10000 2.1 160 11:42 23.12.2019
5962 Clouds 28 1009 78 10000 3.1 100 11:22 23.12.2019
5963 Clouds 28 1009 78 10000 3.1 100 10:56 23.12.2019
5964 Rain 26 1009 87 0 5.53 36 10:37 23.12.2019
5965 Clouds 28 1010 83 10000 4.1 100 10:18 23.12.2019
5966 Clouds 28 1010 83 10000 4.1 100 09:57 23.12.2019
5967 Rain 26 1009 87 0 5.53 36 09:39 23.12.2019
5968 Clouds 28 1011 78 10000 3.1 130 09:19 23.12.2019
5969 Clouds 28 1011 78 10000 3.1 130 08:42 23.12.2019
5970 Clouds 27 1012 88 10000 3.1 110 08:23 23.12.2019
5971 Clouds 27 1012 88 10000 3.1 110 07:57 23.12.2019
5972 Rain 26 1012 84 0 5.94 0 07:38 23.12.2019
5973 Clouds 27 1012 83 10000 2.6 110 07:19 23.12.2019
5974 Clouds 27 1012 83 10000 2.6 110 06:43 23.12.2019
5975 Rain 26 1012 84 0 5.94 0 06:22 23.12.2019
5976 Rain 26 1012 84 0 5.94 0 05:46 23.12.2019
5977 Rain 25 1012 88 0 5.42 354 04:55 23.12.2019
5978 Rain 25 1012 88 0 5.42 354 03:59 23.12.2019
5979 Rain 25 1012 88 0 5.42 354 02:48 23.12.2019
5980 Rain 26 1010 79 0 4.64 341 02:20 23.12.2019
5981 Rain 26 1010 79 0 4.64 341 01:51 23.12.2019
5982 Rain 27 1010 75 0 6.58 247 01:32 23.12.2019
5983 Rain 27 1010 75 0 6.58 247 01:32 23.12.2019
5984 Rain 27 1010 75 0 6.58 247 01:32 23.12.2019
5985 Rain 27 1010 75 0 6.58 247 00:49 23.12.2019
5986 Rain 27 1010 75 0 6.58 247 00:30 23.12.2019
5987 Rain 27 1010 75 0 6.58 247 23:57 22.12.2019
5988 Rain 27 1010 75 0 6.58 247 23:38 22.12.2019
5989 Rain 27 1009 80 0 5.82 198 23:20 22.12.2019
5990 Rain 27 1009 80 0 5.82 198 22:57 22.12.2019
5991 Rain 27 1009 80 0 5.82 198 22:38 22.12.2019
5992 Rain 27 1009 80 0 5.82 198 22:19 22.12.2019
5993 Rain 27 1009 80 0 5.82 198 21:56 22.12.2019
5994 Rain 27 1009 80 0 5.82 198 21:38 22.12.2019
5995 Rain 27 1009 80 0 5.82 198 21:20 22.12.2019
5996 Rain 27 1009 80 0 5.82 198 20:41 22.12.2019
5997 Rain 27 1011 80 0 7.15 176 20:19 22.12.2019
5998 Rain 28 1011 77 0 5.41 131 19:58 22.12.2019
5999 Rain 28 1011 77 0 5.41 131 19:40 22.12.2019
6000 Rain 28 1011 77 0 5.41 131 19:20 22.12.2019
6001 Rain 28 1011 77 0 5.41 131 18:58 22.12.2019
6002 Rain 28 1011 77 0 5.41 131 18:38 22.12.2019
6003 Rain 26 1012 94 6000 6.2 240 18:19 22.12.2019
6004 Rain 26 1012 94 6000 6.2 240 17:55 22.12.2019
6005 Rain 28 1011 77 0 5.41 131 17:36 22.12.2019
6006 Clouds 27 1011 88 10000 2.1 180 17:18 22.12.2019
6007 Clouds 27 1011 88 10000 2.1 180 16:42 22.12.2019
6008 Rain 26 1010 88 8000 3.1 140 16:23 22.12.2019
6009 Rain 26 1010 88 8000 3.1 140 16:23 22.12.2019
6010 Rain 26 1010 88 8000 3.1 140 15:57 22.12.2019
6011 Rain 28 1011 79 0 5.5 113 15:39 22.12.2019
6012 Rain 26 1009 94 6000 4.1 140 15:21 22.12.2019
6013 Rain 26 1009 94 6000 4.1 140 14:59 22.12.2019
6014 Rain 28 1011 79 0 5.5 113 14:38 22.12.2019
6015 Clouds 28 1009 83 10000 3.6 140 14:19 22.12.2019
6016 Clouds 28 1009 83 10000 3.6 140 13:56 22.12.2019
6017 Rain 28 1008 78 0 6.17 120 13:38 22.12.2019
6018 Rain 27 1008 88 7000 5.1 120 13:19 22.12.2019
6019 Rain 27 1008 88 7000 5.1 120 12:57 22.12.2019
6020 Rain 28 1008 80 0 5.82 105 12:38 22.12.2019
6021 Rain 28 1008 83 9000 5.7 120 12:19 22.12.2019
6022 Rain 28 1008 83 9000 5.7 120 11:57 22.12.2019
6023 Rain 28 1008 80 0 5.82 105 11:38 22.12.2019
6024 Clouds 31 1008 70 10000 5.1 130 11:19 22.12.2019
6025 Clouds 31 1008 70 10000 5.1 130 10:57 22.12.2019
6026 Clouds 28 1008 81 0 6.41 102 10:38 22.12.2019
6027 Clouds 31 1009 70 10000 5.7 130 10:19 22.12.2019
6028 Clouds 31 1009 70 10000 5.7 130 09:57 22.12.2019
6029 Clouds 31 1009 70 10000 5.7 130 09:57 22.12.2019
6030 Clouds 28 1008 81 0 6.41 102 09:39 22.12.2019
6031 Clouds 31 1010 66 10000 5.1 130 09:20 22.12.2019
6032 Clouds 31 1010 66 10000 5.1 130 08:45 22.12.2019
6033 Clouds 31 1010 66 10000 5.7 130 08:22 22.12.2019
6034 Clouds 31 1010 66 10000 5.7 130 07:44 22.12.2019
6035 Clouds 30 1011 70 10000 6.2 140 07:21 22.12.2019
6036 Clouds 30 1011 70 10000 6.2 140 07:21 22.12.2019
6037 Clouds 30 1011 70 10000 6.2 140 07:21 22.12.2019
6038 Clouds 30 1011 70 10000 6.2 140 06:55 22.12.2019
6039 Clouds 30 1011 74 10000 5.1 140 06:26 22.12.2019
6040 Clouds 28 1011 82 0 6.99 112 05:33 22.12.2019
6041 Rain 29 1011 79 10000 6.2 110 04:55 22.12.2019
6042 Clouds 28 1010 83 10000 5.1 130 04:26 22.12.2019
6043 Clouds 27 1009 88 10000 5.7 140 02:47 22.12.2019
6044 Clouds 28 1009 78 10000 5.7 110 02:23 22.12.2019
6045 Clouds 28 1008 78 10000 5.1 130 01:32 22.12.2019
6046 Clouds 28 1008 78 10000 5.1 130 00:57 22.12.2019
6047 Rain 28 1009 83 0 7.68 118 00:38 22.12.2019
6048 Clouds 27 1008 83 10000 5.7 120 00:20 22.12.2019
6049 Clouds 27 1008 83 10000 5.7 120 23:41 21.12.2019
6050 Rain 27 1008 83 9000 6.7 100 23:22 21.12.2019
6051 Rain 27 1008 83 9000 6.7 100 22:57 21.12.2019
6052 Clouds 28 1009 83 0 7.39 104 22:39 21.12.2019
6053 Rain 27 1009 94 9000 5.1 90 22:18 21.12.2019
6054 Rain 27 1009 94 9000 5.1 90 22:18 21.12.2019
6055 Rain 27 1009 94 9000 5.1 90 21:55 21.12.2019
6056 Clouds 28 1009 83 0 7.39 104 21:36 21.12.2019
6057 Clouds 28 1009 88 10000 6.2 90 21:18 21.12.2019
6058 Clouds 28 1009 88 10000 6.2 90 20:57 21.12.2019
6059 Clouds 28 1009 83 0 7.39 104 20:37 21.12.2019
6060 Clouds 28 1010 88 10000 5.1 110 20:19 21.12.2019
6061 Clouds 28 1010 88 10000 5.1 110 19:55 21.12.2019
6062 Rain 28 1010 82 0 7.44 100 19:36 21.12.2019
6063 Rain 28 1010 82 0 7.44 100 19:36 21.12.2019
6064 Clouds 28 1010 83 10000 6.2 110 19:18 21.12.2019
6065 Clouds 28 1010 83 10000 6.2 110 18:41 21.12.2019
6066 Clouds 29 1011 79 10000 7.2 100 18:23 21.12.2019
6067 Clouds 29 1011 79 10000 7.2 100 17:56 21.12.2019
6068 Rain 28 1010 82 0 7.44 100 17:38 21.12.2019
6069 Clouds 29 1010 79 10000 6.7 110 17:20 21.12.2019
6070 Clouds 29 1010 79 10000 6.7 110 16:57 21.12.2019
6071 Clouds 28 1010 82 0 7.16 99 16:38 21.12.2019
6072 Clouds 29 1009 74 10000 7.2 110 16:18 21.12.2019
6073 Clouds 29 1009 74 10000 7.2 110 15:55 21.12.2019
6074 Clouds 28 1010 82 0 7.16 99 15:37 21.12.2019
6075 Clouds 29 1008 74 10000 7.2 110 15:18 21.12.2019
6076 Clouds 29 1008 74 10000 7.2 110 14:42 21.12.2019
6077 Clouds 29 1007 79 10000 6.7 110 14:23 21.12.2019
6078 Clouds 29 1007 79 10000 6.7 110 13:58 21.12.2019
6079 Clouds 29 1007 79 10000 6.7 110 13:39 21.12.2019
6080 Clouds 29 1007 74 10000 6.7 110 13:19 21.12.2019
6081 Clouds 29 1007 74 10000 6.7 110 12:56 21.12.2019
6082 Clouds 28 1008 81 0 8.67 93 12:38 21.12.2019
6083 Clouds 28 1008 81 0 8.67 93 12:38 21.12.2019
6084 Clouds 30 1006 70 10000 6.2 120 12:20 21.12.2019
6085 Clouds 30 1006 70 10000 6.2 120 11:48 21.12.2019
6086 Clouds 30 1007 74 10000 5.7 120 11:27 21.12.2019
6087 Clouds 30 1007 74 10000 5.7 120 10:59 21.12.2019
6088 Clouds 28 1007 82 0 9.34 86 10:40 21.12.2019
6089 Clouds 29 1008 74 10000 7.2 110 10:21 21.12.2019
6090 Clouds 29 1008 74 10000 7.2 110 09:58 21.12.2019
6091 Clouds 28 1007 82 0 9.34 86 09:39 21.12.2019
6092 Clouds 29 1009 74 10000 7.7 110 09:19 21.12.2019
6093 Clouds 29 1009 74 10000 7.7 110 08:47 21.12.2019
6094 Clouds 29 1010 74 10000 7.7 100 08:27 21.12.2019
6095 Clouds 29 1010 74 10000 7.7 100 07:47 21.12.2019
6096 Clouds 29 1010 74 10000 7.2 110 07:23 21.12.2019
6097 Clouds 29 1010 74 10000 7.2 110 06:58 21.12.2019
6098 Clouds 27 1010 82 0 7.94 76 06:40 21.12.2019
6099 Clouds 28 1010 78 10000 7.7 100 06:21 21.12.2019
6100 Clouds 27 1009 83 10000 7.2 100 05:25 21.12.2019
6101 Rain 27 1010 83 0 8.85 79 04:34 21.12.2019
6102 Clouds 27 1009 83 10000 6.7 90 03:56 21.12.2019
6103 Clouds 27 1008 78 10000 7.2 70 02:25 21.12.2019
6104 Clouds 27 1008 78 10000 7.2 70 01:48 21.12.2019
6105 Rain 26 1008 94 10000 9.8 70 01:25 21.12.2019
6106 Rain 26 1008 94 10000 9.8 70 00:45 21.12.2019
6107 Rain 27 1008 83 0 7.09 63 00:26 21.12.2019
6108 Rain 27 1008 83 0 7.09 63 23:39 20.12.2019
6109 Rain 26 1008 88 9000 11.3 70 23:21 20.12.2019
6110 Rain 26 1008 88 9000 11.3 70 22:59 20.12.2019
6111 Rain 26 1008 88 9000 11.3 70 22:59 20.12.2019
6112 Clouds 27 1008 85 0 7.52 60 22:39 20.12.2019
6113 Rain 25 1008 88 9000 13.9 70 22:18 20.12.2019
6114 Rain 25 1008 88 9000 13.9 70 21:41 20.12.2019
6115 Rain 25 1010 88 8000 11.3 80 21:21 20.12.2019
6116 Rain 25 1010 88 8000 11.3 80 20:59 20.12.2019
6117 Clouds 27 1008 85 0 7.52 60 20:38 20.12.2019
6118 Rain 25 1011 88 7000 9.3 80 20:19 20.12.2019
6119 Rain 25 1011 88 7000 9.3 80 19:56 20.12.2019
6120 Rain 27 1011 85 0 7.19 58 19:38 20.12.2019
6121 Rain 26 1012 94 8000 9.8 90 19:18 20.12.2019
6122 Rain 26 1012 94 8000 9.8 90 18:41 20.12.2019
6123 Rain 25 1011 94 9000 5.7 70 18:23 20.12.2019
6124 Rain 27 1011 85 0 7.19 58 17:58 20.12.2019
6125 Rain 27 1011 85 0 7.19 58 17:39 20.12.2019
6126 Rain 25 1011 94 9000 6.7 60 17:20 20.12.2019
6127 Rain 25 1011 94 9000 6.7 60 16:57 20.12.2019
6128 Rain 27 1010 83 0 7.33 57 16:38 20.12.2019
6129 Rain 27 1010 83 0 7.33 57 16:19 20.12.2019
6130 Rain 27 1010 83 0 7.33 57 15:55 20.12.2019
6131 Rain 27 1010 83 0 7.33 57 15:37 20.12.2019
6132 Rain 27 1010 83 0 7.33 57 15:37 20.12.2019
6133 Clouds 27 1009 83 10000 3.6 30 15:18 20.12.2019
6134 Rain 27 1010 83 0 7.33 57 14:42 20.12.2019
6135 Clouds 27 1008 83 10000 4.1 30 14:24 20.12.2019
6136 Clouds 27 1008 83 10000 4.1 30 13:57 20.12.2019
6137 Rain 27 1008 80 0 5.28 57 13:37 20.12.2019
6138 Clouds 28 1008 78 10000 5.1 30 13:19 20.12.2019
6139 Clouds 28 1008 78 10000 5.1 30 12:56 20.12.2019
6140 Clouds 27 1008 83 10000 5.7 20 12:36 20.12.2019
6141 Clouds 27 1008 83 10000 5.7 20 12:18 20.12.2019
6142 Clouds 27 1008 83 10000 5.7 20 11:57 20.12.2019
6143 Rain 27 1009 84 0 6.55 38 11:38 20.12.2019
6144 Rain 27 1009 84 0 6.55 38 11:38 20.12.2019
6145 Rain 27 1008 83 9000 7.2 20 11:18 20.12.2019
6146 Rain 27 1008 83 9000 7.2 20 10:56 20.12.2019
6147 Rain 28 1008 72 0 3.77 48 10:37 20.12.2019
6148 Rain 27 1009 88 8000 3.1 360 10:19 20.12.2019
6149 Rain 28 1008 72 0 3.77 48 09:43 20.12.2019
6150 Drizzle 28 1010 78 10000 2.1 360 09:21 20.12.2019
6151 Drizzle 28 1010 78 10000 2.1 360 08:57 20.12.2019
6152 Rain 28 1008 72 0 3.77 48 08:38 20.12.2019
6153 Clouds 28 1011 78 10000 1.5 340 08:20 20.12.2019
6154 Clouds 28 1011 78 10000 1.5 340 08:20 20.12.2019
6155 Clouds 28 1011 78 10000 1.5 340 07:57 20.12.2019
6156 Rain 28 1011 72 0 2.27 70 07:37 20.12.2019
6157 Clouds 27 1011 83 10000 1.5 340 07:18 20.12.2019
6158 Clouds 27 1011 83 10000 1.5 340 06:44 20.12.2019
6159 Clouds 26 1012 88 10000 2.1 100 06:26 20.12.2019
6160 Clouds 26 1012 88 10000 2.1 100 05:47 20.12.2019
6161 Rain 25 1011 94 9000 3.1 140 04:59 20.12.2019
6162 Rain 24 1010 100 6000 1.5 100 03:49 20.12.2019
6163 Clouds 28 1011 70 0 1.96 142 02:55 20.12.2019
6164 Rain 26 1007 88 8000 1.5 140 01:59 20.12.2019
6165 Rain 27 1008 72 0 2 163 01:35 20.12.2019
6166 Clouds 26 1007 88 10000 2.6 30 00:55 20.12.2019
6167 Rain 27 1008 73 0 1.77 82 00:35 20.12.2019
6168 Clouds 27 1007 88 10000 3.1 90 23:58 19.12.2019
6169 Rain 27 1008 73 0 1.77 82 23:40 19.12.2019
6170 Clouds 27 1008 88 10000 3.1 90 23:19 19.12.2019
6171 Rain 27 1008 77 0 3.13 90 22:40 19.12.2019
6172 Clouds 27 1009 88 10000 3.1 80 22:22 19.12.2019
6173 Clouds 27 1009 88 10000 3.1 80 21:57 19.12.2019
6174 Rain 27 1008 77 0 3.13 90 21:39 19.12.2019
6175 Clouds 27 1009 88 10000 4.1 80 21:19 19.12.2019
6176 Clouds 27 1009 88 10000 4.1 80 20:57 19.12.2019
6177 Rain 27 1008 77 0 3.13 90 20:38 19.12.2019
6178 Clouds 27 1010 88 10000 2.6 80 20:20 19.12.2019
6179 Clouds 27 1010 88 10000 2.6 80 19:58 19.12.2019
6180 Rain 27 1010 79 0 2.66 139 19:39 19.12.2019
6181 Clouds 27 1011 88 10000 2.6 70 19:19 19.12.2019
6182 Clouds 27 1011 88 10000 2.6 70 19:19 19.12.2019
6183 Clouds 27 1011 88 10000 2.6 70 19:19 19.12.2019
6184 Clouds 27 1011 88 10000 2.6 70 18:57 19.12.2019
6185 Clouds 27 1011 88 10000 2.6 70 18:57 19.12.2019
6186 Rain 27 1010 79 0 2.66 139 18:39 19.12.2019
6187 Clouds 25 1011 94 10000 2.1 70 18:19 19.12.2019
6188 Clouds 25 1011 94 10000 2.1 70 18:19 19.12.2019
6189 Clouds 25 1011 94 10000 2.1 70 17:56 19.12.2019
6190 Rain 27 1010 79 0 2.66 139 17:37 19.12.2019
6191 Clouds 25 1010 88 10000 3.1 50 17:18 19.12.2019
6192 Clouds 25 1010 88 10000 3.1 50 16:56 19.12.2019
6193 Rain 28 1010 77 0 3.7 108 16:37 19.12.2019
6194 Rain 25 1010 94 9000 4.6 70 16:19 19.12.2019
6195 Rain 25 1010 94 9000 4.6 70 15:57 19.12.2019
6196 Rain 28 1010 77 0 3.7 108 15:37 19.12.2019
6197 Rain 28 1010 77 0 3.7 108 15:19 19.12.2019
6198 Rain 28 1010 77 0 3.7 108 14:44 19.12.2019
6199 Clouds 27 1008 88 10000 3.6 90 14:20 19.12.2019
6200 Clouds 27 1008 88 10000 3.6 90 13:59 19.12.2019
6201 Rain 28 1007 78 0 5.08 100 13:38 19.12.2019
6202 Clouds 29 1008 79 10000 5.1 80 13:19 19.12.2019
6203 Clouds 29 1008 79 10000 5.1 80 12:57 19.12.2019
6204 Rain 28 1008 78 0 5.74 93 12:39 19.12.2019
6205 Clouds 28 1007 83 10000 4.1 110 12:19 19.12.2019
6206 Clouds 28 1007 83 10000 4.1 110 11:58 19.12.2019
6207 Rain 28 1008 78 0 5.74 93 11:40 19.12.2019
6208 Clouds 28 1009 83 10000 5.1 100 11:18 19.12.2019
6209 Clouds 28 1009 83 10000 5.1 100 11:18 19.12.2019
6210 Clouds 28 1009 83 10000 5.1 100 10:58 19.12.2019
6211 Clouds 28 1009 83 10000 5.1 100 10:38 19.12.2019
6212 Clouds 28 1009 83 10000 5.1 100 10:20 19.12.2019
6213 Clouds 28 1010 83 10000 4.6 90 09:56 19.12.2019
6214 Clouds 28 1010 83 10000 4.6 90 09:37 19.12.2019
6215 Clouds 28 1010 83 10000 4.6 90 09:18 19.12.2019
6216 Clouds 26 1010 94 9000 3.1 110 08:55 19.12.2019
6217 Clouds 26 1010 94 9000 3.1 110 08:36 19.12.2019
6218 Clouds 26 1010 94 9000 3.1 110 08:18 19.12.2019
6219 Rain 28 1011 78 0 8.06 96 07:40 19.12.2019
6220 Rain 25 1012 100 3000 6.2 120 07:22 19.12.2019
6221 Rain 25 1012 100 3000 6.2 120 06:54 19.12.2019
6222 Rain 28 1011 78 0 8.06 96 06:36 19.12.2019
6223 Rain 28 1011 78 0 8.06 96 06:18 19.12.2019
6224 Rain 28 1011 78 0 8.06 96 05:42 19.12.2019
6225 Rain 26 1011 94 6000 6.7 120 05:18 19.12.2019
6226 Rain 28 1010 79 0 9.61 83 03:51 19.12.2019
6227 Rain 28 1010 79 0 9.61 83 02:28 19.12.2019
6228 Thunderstorm 26 1007 94 10000 6.2 100 01:24 19.12.2019
6229 Thunderstorm 26 1007 94 10000 6.2 100 00:57 19.12.2019
6230 Rain 28 1009 79 0 11.05 78 00:38 19.12.2019
6231 Thunderstorm 27 1007 88 10000 10.3 90 00:19 19.12.2019
6232 Thunderstorm 27 1007 88 10000 10.3 90 00:19 19.12.2019
6233 Thunderstorm 27 1007 88 10000 10.3 90 23:44 18.12.2019
6234 Thunderstorm 27 1007 88 10000 10.3 90 23:19 18.12.2019
6235 Thunderstorm 26 1008 94 9000 11.8 90 22:56 18.12.2019
6236 Thunderstorm 26 1008 94 9000 11.8 90 22:38 18.12.2019
6237 Thunderstorm 26 1008 94 9000 11.8 90 22:20 18.12.2019
6238 Thunderstorm 27 1008 88 10000 8.7 100 21:58 18.12.2019
6239 Rain 28 1008 83 0 9.31 72 21:39 18.12.2019
6240 Rain 28 1008 83 0 9.31 72 21:39 18.12.2019
6241 Thunderstorm 27 1009 88 8000 7.7 100 21:20 18.12.2019
6242 Thunderstorm 27 1009 88 8000 7.7 100 20:56 18.12.2019
6243 Rain 28 1008 83 0 9.31 72 20:38 18.12.2019
6244 Thunderstorm 27 1010 88 9000 9.3 80 20:19 18.12.2019
6245 Thunderstorm 27 1010 88 9000 9.3 80 19:56 18.12.2019
6246 Thunderstorm 27 1010 88 9000 9.3 80 19:38 18.12.2019
6247 Thunderstorm 27 1010 88 9000 9.3 80 19:18 18.12.2019
6248 Thunderstorm 28 1011 88 10000 7.2 90 18:54 18.12.2019
6249 Rain 28 1011 81 0 9.26 79 18:36 18.12.2019
6250 Thunderstorm 28 1011 88 10000 8.7 90 18:18 18.12.2019
6251 Thunderstorm 28 1011 88 10000 8.7 90 17:55 18.12.2019
6252 Rain 28 1011 81 0 9.26 79 17:37 18.12.2019
6253 Clouds 28 1010 79 0 9.57 76 17:18 18.12.2019
6254 Clouds 28 1010 79 0 9.57 76 16:42 18.12.2019
6255 Clouds 28 1010 79 0 9.57 76 16:23 18.12.2019
6256 Clouds 28 1010 79 0 9.57 76 15:57 18.12.2019
6257 Clouds 28 1010 79 0 9.57 76 15:39 18.12.2019
6258 Thunderstorm 27 1009 88 10000 7.7 90 15:21 18.12.2019
6259 Thunderstorm 27 1009 88 10000 7.7 90 14:56 18.12.2019
6260 Clouds 28 1010 79 0 9.57 76 14:36 18.12.2019
6261 Thunderstorm 27 1009 83 9000 7.2 90 14:18 18.12.2019
6262 Thunderstorm 27 1009 83 9000 7.2 90 13:54 18.12.2019
6263 Clouds 28 1009 78 0 9.28 75 13:36 18.12.2019
6264 Clouds 29 1008 79 10000 8.2 90 13:18 18.12.2019
6265 Rain 28 1009 77 0 7.4 83 12:40 18.12.2019
6266 Rain 28 1009 77 0 7.4 83 12:40 18.12.2019
6267 Rain 28 1009 77 0 7.4 83 12:21 18.12.2019
6268 Rain 28 1009 77 0 7.4 83 11:57 18.12.2019
6269 Rain 28 1009 77 0 7.4 83 11:39 18.12.2019
6270 Rain 27 1008 83 0 6.55 46 11:20 18.12.2019
6271 Clouds 27 1008 88 10000 11.3 70 10:58 18.12.2019
6272 Rain 27 1008 83 0 6.55 46 10:39 18.12.2019
6273 Clouds 29 1009 79 9000 8.7 90 10:20 18.12.2019
6274 Clouds 29 1009 79 9000 8.7 90 09:57 18.12.2019
6275 Clouds 29 1010 83 10000 5.7 100 09:20 18.12.2019
6276 Clouds 29 1010 83 10000 5.7 100 08:43 18.12.2019
6277 Rain 28 1008 78 0 7.79 84 08:24 18.12.2019
6278 Rain 28 1012 78 0 7.85 99 07:57 18.12.2019
6279 Rain 28 1012 78 0 7.85 99 07:39 18.12.2019
6280 Clouds 30 1011 74 10000 10.8 100 07:20 18.12.2019
6281 Clouds 30 1011 74 10000 10.8 100 06:52 18.12.2019
6282 Clouds 28 1011 83 10000 8.7 100 06:24 18.12.2019
6283 Clouds 28 1011 83 10000 8.7 100 05:35 18.12.2019
6284 Clouds 28 1010 83 10000 9.3 100 04:31 18.12.2019
6285 Rain 28 1011 80 0 10.54 79 02:47 18.12.2019
6286 Thunderstorm 28 1009 83 10000 9.3 80 02:28 18.12.2019
6287 Thunderstorm 28 1009 83 10000 9.3 80 01:44 18.12.2019
6288 Thunderstorm 27 1008 88 10000 7.2 80 01:25 18.12.2019
6289 Thunderstorm 27 1008 88 10000 7.2 80 00:55 18.12.2019
6290 Rain 28 1009 79 0 9.71 75 00:36 18.12.2019
6291 Thunderstorm 26 1008 94 8000 9.8 70 00:18 18.12.2019
6292 Thunderstorm 26 1008 94 8000 9.8 70 23:43 17.12.2019
6293 Thunderstorm 26 1008 94 8000 9.8 70 23:23 17.12.2019
6294 Thunderstorm 27 1009 88 6000 10.8 70 22:57 17.12.2019
6295 Rain 28 1008 80 0 9.72 63 22:39 17.12.2019
6296 Thunderstorm 28 1009 83 10000 8.7 70 22:20 17.12.2019
6297 Thunderstorm 28 1009 83 10000 8.7 70 21:57 17.12.2019
6298 Rain 28 1008 80 0 9.72 63 21:39 17.12.2019
6299 Thunderstorm 28 1010 78 10000 8.2 80 21:20 17.12.2019
6300 Thunderstorm 28 1010 78 10000 8.2 80 21:20 17.12.2019
6301 Thunderstorm 28 1010 78 10000 8.2 80 20:59 17.12.2019
6302 Rain 28 1008 80 0 9.72 63 20:40 17.12.2019
6303 Clouds 28 1011 78 10000 8.2 80 20:19 17.12.2019
6304 Clouds 28 1011 78 10000 8.2 80 19:57 17.12.2019
6305 Rain 28 1011 79 0 8.91 69 19:39 17.12.2019
6306 Clouds 28 1011 83 10000 8.2 80 19:20 17.12.2019
6307 Clouds 28 1011 83 10000 8.2 80 18:57 17.12.2019
6308 Rain 28 1011 79 0 8.91 69 18:38 17.12.2019
6309 Clouds 28 1011 78 10000 7.2 70 18:20 17.12.2019
6310 Clouds 28 1011 78 10000 7.2 70 17:55 17.12.2019
6311 Clouds 28 1011 78 10000 7.2 70 17:37 17.12.2019
6312 Clouds 28 1011 78 10000 7.2 70 17:18 17.12.2019
6313 Clouds 27 1010 88 10000 9.3 80 16:55 17.12.2019
6314 Rain 28 1010 79 0 9.7 62 16:36 17.12.2019
6315 Rain 28 1009 83 9000 7.2 100 16:18 17.12.2019
6316 Rain 28 1010 79 0 9.7 62 15:38 17.12.2019
6317 Clouds 26 1009 88 10000 6.2 30 15:20 17.12.2019
6318 Clouds 26 1009 88 10000 6.2 30 14:57 17.12.2019
6319 Rain 28 1010 79 0 9.7 62 14:39 17.12.2019
6320 Rain 28 1008 79 0 8.59 52 14:19 17.12.2019
6321 Rain 28 1008 79 0 8.59 52 13:59 17.12.2019
6322 Rain 28 1008 79 0 8.59 52 13:41 17.12.2019
6323 Clouds 27 1007 88 10000 8.2 80 13:19 17.12.2019
6324 Clouds 27 1007 88 10000 8.2 80 12:59 17.12.2019
6325 Clouds 27 1007 88 10000 8.2 80 12:38 17.12.2019
6326 Clouds 27 1007 88 10000 8.2 80 12:18 17.12.2019
6327 Rain 28 1009 79 0 8.62 55 11:57 17.12.2019
6328 Rain 28 1009 79 0 8.62 55 11:37 17.12.2019
6329 Clouds 29 1008 74 10000 6.7 50 11:18 17.12.2019
6330 Clouds 29 1008 74 10000 6.7 50 10:57 17.12.2019
6331 Clouds 28 1008 77 0 7.55 53 10:39 17.12.2019
6332 Clouds 28 1008 77 0 7.55 53 10:39 17.12.2019
6333 Clouds 30 1009 58 10000 7.2 50 10:19 17.12.2019
6334 Clouds 30 1009 58 10000 7.2 50 09:56 17.12.2019
6335 Clouds 28 1008 77 0 7.55 53 09:38 17.12.2019
6336 Clouds 30 1010 74 10000 10.8 70 09:19 17.12.2019
6337 Clouds 30 1010 74 10000 10.8 70 08:55 17.12.2019
6338 Clouds 28 1008 77 0 7.55 53 08:36 17.12.2019
6339 Clouds 30 1011 74 10000 5.7 70 08:18 17.12.2019
6340 Rain 28 1011 78 0 6.02 65 07:42 17.12.2019
6341 Clouds 29 1011 79 10000 5.7 80 07:23 17.12.2019
6342 Clouds 29 1011 79 10000 5.7 80 06:53 17.12.2019
6343 Clouds 29 1011 79 10000 5.7 80 06:32 17.12.2019
6344 Clouds 29 1011 79 10000 4.6 70 05:52 17.12.2019
6345 Clouds 29 1011 79 10000 4.6 70 05:32 17.12.2019
6346 Clouds 28 1010 78 10000 4.6 90 04:19 17.12.2019
6347 Clouds 28 1011 78 0 6.27 84 02:33 17.12.2019
6348 Clouds 28 1009 78 10000 3.6 100 01:50 17.12.2019
6349 Clouds 28 1009 78 10000 6.2 100 00:56 17.12.2019
6350 Clouds 28 1009 77 0 7.24 81 00:36 17.12.2019
6351 Clouds 28 1009 78 10000 7.2 100 00:18 17.12.2019
6352 Clouds 28 1009 78 10000 7.2 100 23:40 16.12.2019
6353 Clouds 28 1009 78 10000 7.2 100 23:19 16.12.2019
6354 Clouds 28 1009 78 10000 7.2 100 22:55 16.12.2019
6355 Clouds 28 1009 80 0 7.97 83 22:37 16.12.2019
6356 Clouds 28 1010 78 10000 6.7 90 22:19 16.12.2019
6357 Clouds 28 1010 78 10000 6.7 90 21:54 16.12.2019
6358 Clouds 28 1009 80 0 7.97 83 21:36 16.12.2019
6359 Clouds 28 1009 80 0 7.97 83 21:36 16.12.2019
6360 Clouds 28 1010 78 10000 7.2 90 21:18 16.12.2019
6361 Clouds 28 1010 78 10000 7.2 90 20:56 16.12.2019
6362 Clouds 28 1009 80 0 7.97 83 20:37 16.12.2019
6363 Clouds 28 1011 78 10000 7.7 90 20:18 16.12.2019
6364 Clouds 28 1011 78 10000 7.7 90 19:55 16.12.2019
6365 Rain 27 1011 80 0 7.13 75 19:36 16.12.2019
6366 Clouds 28 1011 78 10000 7.7 90 19:18 16.12.2019
6367 Clouds 28 1011 78 10000 7.7 90 18:55 16.12.2019
6368 Rain 27 1011 80 0 7.13 75 18:37 16.12.2019
6369 Clouds 29 1011 74 10000 7.2 70 18:18 16.12.2019
6370 Clouds 29 1011 74 10000 7.2 70 17:56 16.12.2019
6371 Clouds 29 1011 74 10000 7.2 70 17:37 16.12.2019
6372 Clouds 29 1011 74 10000 7.2 70 17:19 16.12.2019
6373 Clouds 28 1010 78 10000 7.2 80 16:54 16.12.2019
6374 Clouds 28 1010 78 0 7.45 65 16:36 16.12.2019
6375 Clouds 28 1009 78 10000 7.2 80 16:18 16.12.2019
6376 Clouds 28 1009 78 10000 7.2 80 15:55 16.12.2019
6377 Clouds 28 1010 78 0 7.45 65 15:37 16.12.2019
6378 Clouds 28 1010 78 0 7.45 65 15:37 16.12.2019
6379 Clouds 29 1009 74 10000 7.7 80 15:19 16.12.2019
6380 Clouds 29 1009 74 10000 7.7 80 14:54 16.12.2019
6381 Clouds 28 1010 78 0 7.45 65 14:36 16.12.2019
6382 Clouds 29 1008 74 10000 7.7 70 14:18 16.12.2019
6383 Clouds 29 1008 74 10000 7.7 70 14:18 16.12.2019
6384 Clouds 28 1009 76 0 6.09 65 13:38 16.12.2019
6385 Clouds 30 1008 70 10000 7.2 70 13:20 16.12.2019
6386 Clouds 30 1008 70 10000 7.2 70 12:59 16.12.2019
6387 Rain 27 1009 79 0 6.48 73 12:41 16.12.2019
6388 Clouds 30 1008 70 10000 7.2 70 12:20 16.12.2019
6389 Clouds 30 1008 70 10000 7.2 70 11:59 16.12.2019
6390 Clouds 30 1008 70 10000 7.2 70 11:41 16.12.2019
6391 Clouds 30 1008 70 10000 7.2 70 11:22 16.12.2019
6392 Clouds 29 1009 79 10000 6.7 70 11:00 16.12.2019
6393 Rain 26 1009 84 0 5.48 64 10:40 16.12.2019
6394 Clouds 30 1010 74 10000 7.7 60 10:21 16.12.2019
6395 Clouds 30 1010 74 10000 7.7 60 09:55 16.12.2019
6396 Rain 27 1009 74 0 5 94 09:37 16.12.2019
6397 Clouds 30 1010 70 10000 7.2 90 09:19 16.12.2019
6398 Rain 27 1009 74 0 5 94 08:39 16.12.2019
6399 Rain 27 1012 77 0 4.94 92 08:19 16.12.2019
6400 Rain 27 1012 78 0 5.68 83 07:51 16.12.2019
6401 Clouds 30 1011 70 10000 4.1 100 07:31 16.12.2019
6402 Clouds 30 1011 70 10000 4.1 100 06:49 16.12.2019
6403 Clouds 30 1011 70 10000 4.1 100 06:27 16.12.2019
6404 Clouds 30 1011 70 10000 4.6 100 05:58 16.12.2019
6405 Clouds 30 1011 70 10000 4.6 100 05:39 16.12.2019
6406 Clouds 30 1011 70 10000 4.6 100 05:21 16.12.2019
6407 Clouds 27 1009 83 10000 2.1 100 02:59 16.12.2019
6408 Clouds 27 1009 83 10000 1.5 180 01:45 16.12.2019
6409 Clouds 27 1009 83 10000 4.1 210 00:56 16.12.2019
6410 Clouds 27 1009 83 10000 4.1 210 00:38 16.12.2019
6411 Clouds 27 1009 83 10000 4.1 210 00:19 16.12.2019
6412 Clouds 27 1009 78 10000 3.6 140 23:43 15.12.2019
6413 Clouds 27 1009 78 10000 3.6 140 23:25 15.12.2019
6414 Clouds 27 1009 78 10000 5.1 140 22:57 15.12.2019
6415 Rain 27 1009 82 0 8.87 113 22:38 15.12.2019
6416 Clouds 27 1010 78 10000 6.7 120 22:19 15.12.2019
6417 Clouds 27 1010 78 10000 6.7 120 21:58 15.12.2019
6418 Rain 27 1009 82 0 8.87 113 21:38 15.12.2019
6419 Clouds 27 1011 78 10000 6.7 110 21:20 15.12.2019
6420 Clouds 27 1011 78 10000 6.7 110 20:58 15.12.2019
6421 Rain 27 1009 82 0 8.87 113 20:40 15.12.2019
6422 Rain 28 1011 77 0 7.02 98 20:21 15.12.2019
6423 Rain 28 1011 77 0 7.02 98 20:21 15.12.2019
6424 Rain 28 1011 77 0 6.99 99 19:58 15.12.2019
6425 Rain 28 1011 77 0 6.99 99 19:40 15.12.2019
6426 Clouds 28 1012 83 10000 6.2 140 19:20 15.12.2019
6427 Clouds 28 1012 83 10000 6.2 140 19:20 15.12.2019
6428 Clouds 28 1012 83 10000 6.2 140 18:58 15.12.2019
6429 Clouds 28 1012 83 10000 6.2 140 18:39 15.12.2019
6430 Clouds 28 1012 83 10000 6.2 140 18:19 15.12.2019
6431 Clouds 28 1012 78 10000 6.2 130 17:57 15.12.2019
6432 Clouds 28 1012 78 10000 6.2 130 17:38 15.12.2019
6433 Clouds 28 1012 78 10000 6.2 130 17:38 15.12.2019
6434 Clouds 28 1011 78 10000 6.7 110 17:19 15.12.2019
6435 Clouds 28 1011 78 10000 6.7 110 16:58 15.12.2019
6436 Rain 28 1011 76 0 6.61 96 16:39 15.12.2019
6437 Clouds 28 1010 78 10000 6.7 110 16:21 15.12.2019
6438 Clouds 28 1010 78 10000 6.7 110 15:56 15.12.2019
6439 Rain 28 1011 76 0 6.61 96 15:38 15.12.2019
6440 Clouds 28 1009 74 10000 8.2 110 15:19 15.12.2019
6441 Clouds 28 1009 74 10000 8.2 110 14:56 15.12.2019
6442 Rain 28 1011 78 0 7.04 93 14:37 15.12.2019
6443 Clouds 28 1009 78 10000 8.7 110 14:18 15.12.2019
6444 Clouds 28 1009 78 10000 8.7 110 13:58 15.12.2019
6445 Rain 28 1008 76 0 5.68 93 13:37 15.12.2019
6446 Clouds 28 1008 78 10000 7.7 110 13:19 15.12.2019
6447 Clouds 28 1008 78 10000 7.7 110 12:56 15.12.2019
6448 Clouds 28 1008 78 10000 7.7 110 12:38 15.12.2019
6449 Clouds 28 1008 78 10000 7.7 110 12:20 15.12.2019
6450 Clouds 27 1009 88 10000 8.7 110 11:56 15.12.2019
6451 Clouds 27 1009 88 10000 8.7 110 11:36 15.12.2019
6452 Clouds 30 1009 70 9000 5.7 120 11:18 15.12.2019
6453 Clouds 30 1009 70 9000 5.7 120 10:55 15.12.2019
6454 Rain 28 1008 75 0 5.95 102 10:36 15.12.2019
6455 Clouds 30 1010 74 10000 6.2 110 10:18 15.12.2019
6456 Rain 28 1008 75 0 5.95 102 09:40 15.12.2019
6457 Clouds 31 1011 70 10000 4.1 120 09:20 15.12.2019
6458 Clouds 31 1011 70 10000 4.1 120 08:58 15.12.2019
6459 Rain 28 1008 75 0 5.95 102 08:39 15.12.2019
6460 Clouds 31 1012 70 10000 5.1 120 08:20 15.12.2019
6461 Clouds 31 1012 70 10000 5.1 120 07:56 15.12.2019
6462 Clouds 31 1012 70 10000 5.1 120 07:34 15.12.2019
6463 Clouds 30 1012 74 10000 6.7 100 06:44 15.12.2019
6464 Clouds 30 1012 74 10000 5.1 100 06:19 15.12.2019
6465 Clouds 30 1012 74 10000 5.1 100 05:25 15.12.2019
6466 Clouds 28 1012 74 10000 3.6 90 04:47 15.12.2019
6467 Clouds 27 1010 83 10000 3.1 90 03:22 15.12.2019
6468 Rain 28 1012 74 0 3.5 80 02:33 15.12.2019
6469 Clouds 27 1010 83 10000 3.1 90 01:46 15.12.2019
6470 Clouds 27 1010 83 10000 4.6 80 01:28 15.12.2019
6471 Clouds 27 1010 83 10000 4.6 80 00:57 15.12.2019
6472 Clouds 28 1009 71 0 3.08 60 00:38 15.12.2019
6473 Clouds 28 1010 78 10000 4.6 70 00:20 15.12.2019
6474 Clouds 28 1010 78 10000 4.6 70 23:39 14.12.2019
6475 Clouds 28 1010 83 10000 3.1 50 23:19 14.12.2019
6476 Clouds 28 1010 83 10000 3.1 50 22:58 14.12.2019
6477 Rain 28 1010 72 0 3.63 50 22:40 14.12.2019
6478 Clouds 28 1011 83 10000 4.1 90 22:20 14.12.2019
6479 Clouds 28 1011 83 10000 4.1 90 21:56 14.12.2019
6480 Rain 28 1010 72 0 3.63 50 21:37 14.12.2019
6481 Clouds 28 1012 78 10000 4.6 90 21:18 14.12.2019
6482 Clouds 28 1012 78 10000 4.6 90 20:56 14.12.2019
6483 Rain 28 1010 72 0 3.63 50 20:37 14.12.2019
6484 Clouds 27 1012 88 10000 5.1 40 20:19 14.12.2019
6485 Clouds 27 1012 88 10000 5.1 40 20:19 14.12.2019
6486 Clouds 27 1012 88 10000 5.1 40 19:54 14.12.2019
6487 Rain 28 1012 72 0 4.13 27 19:36 14.12.2019
6488 Rain 28 1012 72 0 4.13 27 19:18 14.12.2019
6489 Rain 28 1012 72 0 4.13 27 18:55 14.12.2019
6490 Rain 28 1012 72 0 4.13 27 18:36 14.12.2019
6491 Clouds 28 1012 78 10000 3.1 40 18:18 14.12.2019
6492 Clouds 28 1012 78 10000 3.1 40 17:42 14.12.2019
6493 Clouds 28 1012 78 10000 3.1 40 17:22 14.12.2019
6494 Rain 28 1012 72 0 3.27 356 16:42 14.12.2019
6495 Clouds 28 1011 78 10000 3.6 50 16:20 14.12.2019
6496 Clouds 28 1011 78 10000 3.6 50 15:58 14.12.2019
6497 Rain 28 1012 72 0 3.27 356 15:39 14.12.2019
6498 Clouds 28 1011 78 10000 3.1 40 15:20 14.12.2019
6499 Clouds 28 1011 78 10000 3.1 40 14:57 14.12.2019
6500 Rain 28 1012 72 0 3.27 356 14:38 14.12.2019
6501 Clouds 28 1010 74 10000 4.6 30 14:19 14.12.2019
6502 Clouds 28 1010 74 10000 4.6 30 13:45 14.12.2019
6503 Clouds 30 1010 70 10000 5.7 30 13:20 14.12.2019
6504 Clouds 30 1010 70 10000 5.7 30 12:59 14.12.2019
6505 Rain 28 1010 70 0 3.56 19 12:40 14.12.2019
6506 Clouds 29 1010 79 10000 4.6 30 12:21 14.12.2019
6507 Clouds 29 1010 79 10000 4.6 30 11:59 14.12.2019
6508 Clouds 29 1010 79 10000 4.6 30 11:39 14.12.2019
6509 Clouds 29 1010 79 10000 4.6 30 11:20 14.12.2019
6510 Clouds 29 1010 74 10000 4.1 40 10:59 14.12.2019
6511 Rain 28 1009 74 0 5.05 42 10:40 14.12.2019
6512 Rain 28 1009 72 0 3.77 26 10:22 14.12.2019
6513 Rain 28 1009 74 0 5.05 42 09:57 14.12.2019
6514 Rain 28 1009 72 0 3.77 26 09:39 14.12.2019
6515 Clouds 29 1012 79 10000 6.7 40 09:19 14.12.2019
6516 Clouds 29 1012 79 10000 6.7 40 08:43 14.12.2019
6517 Clouds 29 1013 74 10000 5.7 50 08:20 14.12.2019
6518 Clouds 29 1013 74 10000 5.7 50 08:20 14.12.2019
6519 Clouds 29 1013 74 10000 5.7 50 07:44 14.12.2019
6520 Clouds 29 1013 74 10000 5.7 50 07:24 14.12.2019
6521 Clouds 28 1013 83 10000 8.2 70 06:57 14.12.2019
6522 Clouds 28 1013 83 10000 8.2 70 06:38 14.12.2019
6523 Clouds 27 1013 88 9000 3.6 50 06:18 14.12.2019
6524 Rain 28 1012 74 0 5.01 25 04:48 14.12.2019
6525 Thunderstorm 26 1011 94 9000 1.5 360 02:41 14.12.2019
6526 Thunderstorm 25 1011 94 10000 2.6 120 02:19 14.12.2019
6527 Rain 28 1010 78 0 6.13 25 01:37 14.12.2019
6528 Rain 28 1010 78 0 5.9 24 00:49 14.12.2019
6529 Rain 28 1010 78 0 5.9 24 00:28 14.12.2019
6530 Rain 28 1010 78 0 5.9 24 23:57 13.12.2019
6531 Rain 28 1010 78 0 5.9 24 23:37 13.12.2019
6532 Rain 28 1010 79 0 6.97 43 23:18 13.12.2019
6533 Rain 28 1010 79 0 6.97 43 22:41 13.12.2019
6534 Rain 28 1010 79 0 6.97 43 22:19 13.12.2019
6535 Rain 28 1010 79 0 6.97 43 21:56 13.12.2019
6536 Rain 28 1010 79 0 6.97 43 21:38 13.12.2019
6537 Thunderstorm 27 1012 83 7000 7.2 50 21:20 13.12.2019
6538 Thunderstorm 27 1012 83 7000 7.2 50 20:43 13.12.2019
6539 Thunderstorm 28 1012 83 10000 2.6 20 20:24 13.12.2019
6540 Thunderstorm 28 1012 83 10000 2.6 20 19:59 13.12.2019
6541 Thunderstorm 28 1012 83 10000 2.6 20 19:41 13.12.2019
6542 Thunderstorm 28 1012 83 10000 2.6 20 19:41 13.12.2019
6543 Thunderstorm 28 1012 83 10000 2.6 20 19:23 13.12.2019
6544 Thunderstorm 28 1013 83 10000 2.1 20 18:59 13.12.2019
6545 Rain 28 1012 78 0 8.84 46 18:41 13.12.2019
6546 Thunderstorm 28 1012 83 10000 2.6 30 18:19 13.12.2019
6547 Thunderstorm 28 1012 83 10000 2.6 30 17:57 13.12.2019
6548 Rain 28 1012 78 0 8.84 46 17:38 13.12.2019
6549 Thunderstorm 28 1012 78 10000 6.2 50 17:18 13.12.2019
6550 Thunderstorm 28 1012 78 10000 6.2 50 16:54 13.12.2019
6551 Thunderstorm 28 1012 78 10000 6.2 50 16:36 13.12.2019
6552 Thunderstorm 28 1012 78 10000 6.2 50 16:18 13.12.2019
6553 Rain 28 1011 77 0 8.6 54 15:38 13.12.2019
6554 Clouds 28 1010 78 10000 5.7 70 15:20 13.12.2019
6555 Clouds 28 1010 78 10000 5.7 70 14:42 13.12.2019
6556 Clouds 28 1010 78 10000 5.7 70 14:21 13.12.2019
6557 Clouds 28 1010 78 10000 5.7 70 13:58 13.12.2019
6558 Clouds 28 1010 78 10000 5.7 70 13:40 13.12.2019
6559 Clouds 28 1010 78 10000 5.7 70 13:21 13.12.2019
6560 Rain 28 1009 77 0 5.65 31 12:44 13.12.2019
6561 Clouds 29 1009 79 10000 6.2 70 12:20 13.12.2019
6562 Clouds 29 1009 79 10000 6.2 70 11:58 13.12.2019
6563 Rain 28 1009 77 0 5.65 31 11:40 13.12.2019
6564 Clouds 29 1009 79 10000 6.2 40 11:22 13.12.2019
6565 Clouds 29 1009 79 10000 6.2 40 10:55 13.12.2019
6566 Clouds 29 1009 79 10000 6.2 40 10:37 13.12.2019
6567 Clouds 29 1009 79 10000 6.2 40 10:19 13.12.2019
6568 Clouds 30 1010 74 10000 5.1 70 09:39 13.12.2019
6569 Clouds 30 1010 74 10000 5.1 70 09:20 13.12.2019
6570 Clear 28 1008 77 0 5.79 28 08:42 13.12.2019
6571 Clouds 31 1011 70 10000 5.1 70 08:24 13.12.2019
6572 Clouds 31 1011 70 10000 5.1 70 07:47 13.12.2019
6573 Clouds 31 1011 70 10000 5.1 70 07:24 13.12.2019
6574 Clouds 30 1011 74 10000 5.7 70 06:55 13.12.2019
6575 Clouds 30 1011 74 10000 6.2 80 06:29 13.12.2019
6576 Clouds 30 1011 74 10000 6.2 80 05:47 13.12.2019
6577 Clouds 30 1011 74 10000 6.2 80 05:28 13.12.2019
6578 Clouds 28 1011 83 10000 5.7 80 04:46 13.12.2019
6579 Rain 28 1010 83 10000 4.6 40 03:48 13.12.2019
6580 Clouds 28 1011 76 0 5.57 38 02:34 13.12.2019
6581 Rain 27 1009 88 10000 1 0 01:48 13.12.2019
6582 Clouds 27 1008 88 10000 1.5 10 00:57 13.12.2019
6583 Clouds 27 1008 88 10000 1.5 10 00:37 13.12.2019
6584 Clouds 27 1008 88 10000 1.5 20 23:59 12.12.2019
6585 Clouds 27 1008 88 10000 1.5 20 23:40 12.12.2019
6586 Clouds 27 1008 88 10000 1.5 20 23:22 12.12.2019
6587 Clouds 27 1009 88 10000 2.1 40 22:56 12.12.2019
6588 Rain 28 1008 78 0 4.41 75 22:37 12.12.2019
6589 Clouds 28 1009 83 10000 3.6 60 22:19 12.12.2019
6590 Clouds 28 1009 83 10000 3.6 60 21:55 12.12.2019
6591 Clouds 28 1009 83 10000 3.6 60 21:37 12.12.2019
6592 Clouds 28 1009 83 10000 3.6 60 21:37 12.12.2019
6593 Clouds 28 1009 83 10000 3.6 60 21:18 12.12.2019
6594 Clouds 28 1010 78 10000 3.6 60 20:56 12.12.2019
6595 Clouds 28 1010 78 10000 3.6 60 20:38 12.12.2019
6596 Clouds 28 1010 78 10000 3.6 60 20:20 12.12.2019
6597 Clouds 28 1010 83 10000 4.1 70 19:43 12.12.2019
6598 Clouds 28 1010 83 10000 4.1 70 19:23 12.12.2019
6599 Clouds 28 1011 78 10000 4.6 60 18:58 12.12.2019
6600 Rain 28 1010 78 0 5.64 72 18:40 12.12.2019
6601 Clouds 28 1011 83 10000 5.7 80 18:21 12.12.2019
6602 Clouds 28 1011 83 10000 5.7 80 18:21 12.12.2019
6603 Clouds 28 1011 83 10000 5.7 80 17:59 12.12.2019
6604 Clouds 28 1011 83 10000 5.7 80 17:40 12.12.2019
6605 Clouds 28 1011 83 10000 5.7 80 17:21 12.12.2019
6606 Clouds 27 1010 88 10000 4.1 100 16:59 12.12.2019
6607 Clouds 27 1010 88 10000 4.1 100 16:41 12.12.2019
6608 Clouds 27 1010 88 10000 4.1 100 16:21 12.12.2019
6609 Clouds 28 1009 78 10000 5.1 70 15:58 12.12.2019
6610 Rain 28 1010 75 0 5.33 71 15:40 12.12.2019
6611 Clouds 28 1009 78 10000 3.1 80 15:18 12.12.2019
6612 Clouds 28 1009 78 10000 3.1 80 14:56 12.12.2019
6613 Clouds 28 1009 78 10000 3.1 80 14:36 12.12.2019
6614 Clouds 28 1009 78 10000 3.1 80 14:36 12.12.2019
6615 Clouds 28 1009 78 10000 3.1 80 14:18 12.12.2019
6616 Clouds 28 1008 74 10000 6.7 100 13:54 12.12.2019
6617 Clouds 28 1008 74 10000 6.7 100 13:36 12.12.2019
6618 Clouds 28 1008 74 10000 6.7 100 13:18 12.12.2019
6619 Rain 27 1008 78 0 5.5 43 12:40 12.12.2019
6620 Clouds 31 1008 70 10000 4.6 80 12:22 12.12.2019
6621 Clouds 31 1008 70 10000 4.6 80 11:57 12.12.2019
6622 Clouds 31 1008 70 10000 4.6 80 11:38 12.12.2019
6623 Clouds 31 1008 70 10000 4.6 80 11:38 12.12.2019
6624 Clouds 31 1008 70 10000 4.6 80 11:38 12.12.2019
6625 Clouds 31 1008 70 10000 4.6 80 11:20 12.12.2019
6626 Clouds 31 1008 66 10000 4.1 90 10:57 12.12.2019
6627 Clouds 31 1008 66 10000 4.1 90 10:39 12.12.2019
6628 Clouds 31 1008 66 10000 4.1 90 10:21 12.12.2019
6629 Clouds 30 1009 70 10000 3.6 90 09:55 12.12.2019
6630 Clouds 30 1009 70 10000 3.6 90 09:55 12.12.2019
6631 Rain 28 1007 77 0 5.63 47 09:37 12.12.2019
6632 Clouds 30 1010 70 10000 4.1 90 09:19 12.12.2019
6633 Clouds 30 1010 70 10000 4.1 90 08:46 12.12.2019
6634 Clouds 30 1011 70 10000 3.1 90 08:27 12.12.2019
6635 Clouds 30 1011 70 10000 3.1 90 07:50 12.12.2019
6636 Clouds 30 1011 70 10000 3.1 70 07:27 12.12.2019
6637 Clouds 30 1011 70 10000 3.1 70 06:56 12.12.2019
6638 Clouds 28 1011 76 0 5.42 51 06:35 12.12.2019
6639 Clouds 29 1011 74 10000 2.6 80 05:49 12.12.2019
6640 Clouds 29 1011 74 10000 2.6 80 05:25 12.12.2019
6641 Clouds 28 1011 78 10000 2.1 40 04:28 12.12.2019
6642 Clouds 27 1011 76 0 5.46 20 02:41 12.12.2019
6643 Clouds 27 1009 78 10000 3.6 60 02:22 12.12.2019
6644 Clouds 27 1009 78 10000 3.6 60 01:54 12.12.2019
6645 Clouds 27 1009 78 10000 3.6 60 01:35 12.12.2019
6646 Clouds 27 1008 83 10000 3.6 60 00:48 12.12.2019
6647 Clouds 27 1008 83 10000 3.6 60 00:21 12.12.2019
6648 Clouds 27 1008 83 10000 4.1 40 23:54 11.12.2019
6649 Rain 27 1009 76 0 2.05 302 23:36 11.12.2019
6650 Clouds 27 1008 88 10000 5.7 70 23:18 11.12.2019
6651 Clouds 27 1008 88 10000 5.7 70 22:55 11.12.2019
6652 Clouds 27 1008 88 10000 5.7 70 22:36 11.12.2019
6653 Clouds 27 1008 88 10000 5.7 70 22:36 11.12.2019
6654 Rain 27 1009 88 9000 7.2 70 22:18 11.12.2019
6655 Rain 27 1008 77 0 3.27 342 21:39 11.12.2019
6656 Clouds 27 1010 78 10000 1.5 20 21:20 11.12.2019
6657 Clouds 27 1010 78 10000 1.5 20 20:58 11.12.2019
6658 Rain 27 1008 77 0 3.27 342 20:40 11.12.2019
6659 Clouds 27 1011 83 10000 1.5 10 20:20 11.12.2019
6660 Clouds 27 1011 83 10000 1.5 10 19:59 11.12.2019
6661 Clouds 27 1011 83 10000 1.5 10 19:40 11.12.2019
6662 Clouds 27 1011 83 10000 1.5 10 19:21 11.12.2019
6663 Clouds 27 1011 83 10000 1 0 18:58 11.12.2019
6664 Rain 26 1010 84 0 3.27 354 18:39 11.12.2019
6665 Clouds 27 1011 83 10000 1.5 250 18:19 11.12.2019
6666 Clouds 27 1011 83 10000 1.5 250 17:56 11.12.2019
6667 Clouds 27 1011 83 10000 1.5 250 17:37 11.12.2019
6668 Clouds 27 1011 83 10000 1.5 250 17:18 11.12.2019
6669 Clouds 27 1010 74 10000 1.5 240 16:55 11.12.2019
6670 Rain 27 1010 80 0 3.87 65 16:37 11.12.2019
6671 Clouds 27 1010 74 10000 2.1 240 16:18 11.12.2019
6672 Clouds 27 1010 74 10000 2.1 240 15:55 11.12.2019
6673 Rain 27 1010 80 0 3.87 65 15:36 11.12.2019
6674 Clouds 27 1009 78 10000 1 0 15:18 11.12.2019
6675 Clouds 27 1009 78 10000 1 0 14:54 11.12.2019
6676 Clouds 27 1009 78 10000 1 0 14:36 11.12.2019
6677 Clouds 27 1009 78 10000 1 0 14:18 11.12.2019
6678 Rain 27 1008 81 0 6.54 56 13:42 11.12.2019
6679 Rain 27 1008 81 0 6.54 56 13:42 11.12.2019
6680 Clouds 27 1008 83 10000 1.5 110 13:21 11.12.2019
6681 Clouds 27 1008 83 10000 1.5 110 12:57 11.12.2019
6682 Clouds 27 1008 83 10000 1.5 110 12:39 11.12.2019
6683 Clouds 27 1008 83 10000 1.5 110 12:21 11.12.2019
6684 Clouds 27 1008 83 10000 1.5 110 12:21 11.12.2019
6685 Rain 26 1008 83 10000 3.6 70 11:58 11.12.2019
6686 Rain 26 1008 83 10000 3.6 70 11:39 11.12.2019
6687 Rain 26 1008 83 10000 3.6 70 11:19 11.12.2019
6688 Rain 26 1008 83 10000 3.6 70 11:19 11.12.2019
6689 Rain 25 1008 100 10000 2.1 70 10:57 11.12.2019
6690 Rain 25 1008 100 10000 2.1 70 10:39 11.12.2019
6691 Rain 26 1009 94 9000 2.6 30 10:20 11.12.2019
6692 Rain 26 1009 94 9000 2.6 30 09:44 11.12.2019
6693 Rain 26 1009 94 9000 2.6 30 09:21 11.12.2019
6694 Rain 25 1010 94 8000 3.6 50 09:21 11.12.2019
6695 Rain 25 1010 94 8000 3.6 50 08:58 11.12.2019
6696 Rain 25 1010 94 8000 3.6 50 08:40 11.12.2019
6697 Rain 25 1010 94 8000 3.6 50 08:20 11.12.2019
6698 Clouds 26 1011 83 10000 1 0 07:59 11.12.2019
6699 Clouds 26 1011 83 10000 1 0 07:41 11.12.2019
6700 Clouds 26 1011 83 10000 1 0 07:22 11.12.2019
6701 Rain 24 1012 94 8000 3.1 150 06:44 11.12.2019
6702 Rain 28 1010 77 0 3.51 82 06:23 11.12.2019
6703 Rain 28 1010 77 0 3.51 82 05:52 11.12.2019
6704 Rain 28 1010 77 0 3.51 82 05:27 11.12.2019
6705 Rain 28 1010 76 0 5.07 38 04:47 11.12.2019
6706 Clouds 28 1009 83 10000 6.2 80 02:50 11.12.2019
6707 Clouds 28 1008 83 10000 5.7 80 01:56 11.12.2019
6708 Thunderstorm 27 1008 88 10000 5.7 80 01:21 11.12.2019
6709 Rain 28 1009 76 0 4.92 44 00:37 11.12.2019
6710 Thunderstorm 27 1008 88 9000 9.3 80 00:18 11.12.2019
6711 Rain 28 1009 76 0 4.92 44 23:43 10.12.2019
6712 Thunderstorm 28 1008 83 10000 7.2 50 23:22 10.12.2019
6713 Rain 28 1008 80 0 4.05 53 22:42 10.12.2019
6714 Thunderstorm 28 1009 83 10000 5.1 40 22:24 10.12.2019
6715 Thunderstorm 28 1009 83 10000 5.1 40 22:24 10.12.2019
6716 Thunderstorm 28 1009 83 10000 5.1 40 21:58 10.12.2019
6717 Rain 28 1008 80 0 4.05 53 21:39 10.12.2019
6718 Clouds 28 1010 83 10000 5.1 30 21:21 10.12.2019
6719 Clo